<?xml version='1.0' encoding='UTF-8'?><gpx version="1.1" creator="JPX - https://github.com/jenetics/jpx" xmlns="http://www.topografix.com/GPX/1/1"><trk><trkseg><trkpt lat="45.39035390411422" lon="9.11288528860218"><ele>108.0</ele><time>2026-03-27T15:02:41Z</time></trkpt><trkpt lat="45.39036148016119" lon="9.112717449582702"><ele>108.00000000000001</ele><time>2026-03-27T15:02:43Z</time></trkpt><trkpt lat="45.39035968751485" lon="9.112614747401297"><ele>108.00000000000001</ele><time>2026-03-27T15:02:44Z</time></trkpt><trkpt lat="45.390381793290494" lon="9.112506688834817"><ele>108.0</ele><time>2026-03-27T15:02:44.999Z</time></trkpt><trkpt lat="45.39037777809355" lon="9.112340863789049"><ele>108.0</ele><time>2026-03-27T15:02:47Z</time></trkpt><trkpt lat="45.39035756533693" lon="9.112189579827875"><ele>107.80000000000001</ele><time>2026-03-27T15:02:49Z</time></trkpt><trkpt lat="45.390370136771054" lon="9.11204317759656"><ele>107.60000000000001</ele><time>2026-03-27T15:02:51Z</time></trkpt><trkpt lat="45.39036790732865" lon="9.111928389640656"><ele>107.39999999999999</ele><time>2026-03-27T15:02:52Z</time></trkpt><trkpt lat="45.390364448192436" lon="9.111764604734532"><ele>107.19999999999999</ele><time>2026-03-27T15:02:54Z</time></trkpt><trkpt lat="45.390361674909514" lon="9.111633293993224"><ele>107.0</ele><time>2026-03-27T15:02:56Z</time></trkpt><trkpt lat="45.39035974707171" lon="9.111542013802461"><ele>106.6</ele><time>2026-03-27T15:02:57Z</time></trkpt><trkpt lat="45.39034405026494" lon="9.111416505052585"><ele>106.19999999999999</ele><time>2026-03-27T15:02:59Z</time></trkpt><trkpt lat="45.39041702076538" lon="9.111340666054934"><ele>105.8</ele><time>2026-03-27T15:03:01Z</time></trkpt><trkpt lat="45.39047831069959" lon="9.11131808606408"><ele>105.4</ele><time>2026-03-27T15:03:02Z</time></trkpt><trkpt lat="45.390296130723094" lon="9.11122684266095"><ele>105.0</ele><time>2026-03-27T15:03:03Z</time></trkpt><trkpt lat="45.39066800932342" lon="9.111271332051112"><ele>104.75</ele><time>2026-03-27T15:03:04Z</time></trkpt><trkpt lat="45.3907870766692" lon="9.11123021866226"><ele>104.5</ele><time>2026-03-27T15:03:05Z</time></trkpt><trkpt lat="45.390910885233325" lon="9.111183861829137"><ele>104.25</ele><time>2026-03-27T15:03:06Z</time></trkpt><trkpt lat="45.39103298584717" lon="9.11114611991867"><ele>104.0</ele><time>2026-03-27T15:03:07Z</time></trkpt><trkpt lat="45.391159341243856" lon="9.111105307503038"><ele>104.0</ele><time>2026-03-27T15:03:08Z</time></trkpt><trkpt lat="45.391297805940994" lon="9.11106199059673"><ele>104.0</ele><time>2026-03-27T15:03:09Z</time></trkpt><trkpt lat="45.39142064192784" lon="9.111018275591093"><ele>104.0</ele><time>2026-03-27T15:03:10Z</time></trkpt><trkpt lat="45.391541402586164" lon="9.11097489598983"><ele>104.0</ele><time>2026-03-27T15:03:11Z</time></trkpt><trkpt lat="45.39167023647492" lon="9.110938159990857"><ele>104.0</ele><time>2026-03-27T15:03:12Z</time></trkpt><trkpt lat="45.39180090712042" lon="9.110904812797845"><ele>104.0</ele><time>2026-03-27T15:03:13Z</time></trkpt><trkpt lat="45.39191135444718" lon="9.110871266570786"><ele>104.0</ele><time>2026-03-27T15:03:14Z</time></trkpt><trkpt lat="45.392004493295595" lon="9.110843946978322"><ele>104.0</ele><time>2026-03-27T15:03:15Z</time></trkpt><trkpt lat="45.392097976765015" lon="9.110819974043936"><ele>104.0</ele><time>2026-03-27T15:03:16Z</time></trkpt><trkpt lat="45.392185199139234" lon="9.110795041932848"><ele>104.0</ele><time>2026-03-27T15:03:17Z</time></trkpt><trkpt lat="45.3922622450296" lon="9.110771565031207"><ele>104.0</ele><time>2026-03-27T15:03:18Z</time></trkpt><trkpt lat="45.39235361028493" lon="9.110737909972963"><ele>104.0</ele><time>2026-03-27T15:03:19Z</time></trkpt><trkpt lat="45.39246585161769" lon="9.11069976994362"><ele>104.0</ele><time>2026-03-27T15:03:20Z</time></trkpt><trkpt lat="45.39258504864092" lon="9.1106640804822"><ele>104.0</ele><time>2026-03-27T15:03:21Z</time></trkpt><trkpt lat="45.39269855590646" lon="9.110628736347822"><ele>103.99999999999999</ele><time>2026-03-27T15:03:22Z</time></trkpt><trkpt lat="45.392814217279636" lon="9.110594308582828"><ele>104.0</ele><time>2026-03-27T15:03:23Z</time></trkpt><trkpt lat="45.39291326254152" lon="9.110563093422881"><ele>104.0</ele><time>2026-03-27T15:03:24Z</time></trkpt><trkpt lat="45.39299151682235" lon="9.110536085071134"><ele>104.0</ele><time>2026-03-27T15:03:25Z</time></trkpt><trkpt lat="45.393061033641274" lon="9.110513408925916"><ele>103.99999999999999</ele><time>2026-03-27T15:03:26Z</time></trkpt><trkpt lat="45.3931248224031" lon="9.110496885071983"><ele>104.0</ele><time>2026-03-27T15:03:27Z</time></trkpt><trkpt lat="45.393199309515225" lon="9.11047832519017"><ele>104.0</ele><time>2026-03-27T15:03:28Z</time></trkpt><trkpt lat="45.39327636258145" lon="9.110456495761808"><ele>104.0</ele><time>2026-03-27T15:03:29Z</time></trkpt><trkpt lat="45.39336484380937" lon="9.110423109136287"><ele>104.0</ele><time>2026-03-27T15:03:30Z</time></trkpt><trkpt lat="45.39348115114348" lon="9.110387576688524"><ele>104.0</ele><time>2026-03-27T15:03:31Z</time></trkpt><trkpt lat="45.393594759765406" lon="9.110348586808941"><ele>104.0</ele><time>2026-03-27T15:03:32Z</time></trkpt><trkpt lat="45.39369367992299" lon="9.110313626123594"><ele>103.99999999999999</ele><time>2026-03-27T15:03:33Z</time></trkpt><trkpt lat="45.39377433035919" lon="9.110281637316179"><ele>104.0</ele><time>2026-03-27T15:03:34Z</time></trkpt><trkpt lat="45.393853044064166" lon="9.110253207242415"><ele>104.0</ele><time>2026-03-27T15:03:35Z</time></trkpt><trkpt lat="45.39394631966805" lon="9.110215915484934"><ele>104.0</ele><time>2026-03-27T15:03:36Z</time></trkpt><trkpt lat="45.39403094323512" lon="9.110183592083956"><ele>103.99999999999999</ele><time>2026-03-27T15:03:37Z</time></trkpt><trkpt lat="45.39411278105619" lon="9.1101526244224"><ele>104.0</ele><time>2026-03-27T15:03:38Z</time></trkpt><trkpt lat="45.394180254769594" lon="9.11012637901506"><ele>103.83333333333333</ele><time>2026-03-27T15:03:39Z</time></trkpt><trkpt lat="45.39424272601208" lon="9.110097963966382"><ele>103.66666666666666</ele><time>2026-03-27T15:03:40Z</time></trkpt><trkpt lat="45.39430834151065" lon="9.110074844363917"><ele>103.5</ele><time>2026-03-27T15:03:41Z</time></trkpt><trkpt lat="45.39437543542111" lon="9.11005424070465"><ele>103.33333333333334</ele><time>2026-03-27T15:03:42Z</time></trkpt><trkpt lat="45.39450038554179" lon="9.110015996211093"><ele>103.16666666666667</ele><time>2026-03-27T15:03:44Z</time></trkpt><trkpt lat="45.39456292682061" lon="9.109998453290693"><ele>103.0</ele><time>2026-03-27T15:03:45Z</time></trkpt><trkpt lat="45.394643444208896" lon="9.109980649325326"><ele>103.2</ele><time>2026-03-27T15:03:47Z</time></trkpt><trkpt lat="45.39470555240831" lon="9.109958775380365"><ele>103.4</ele><time>2026-03-27T15:03:50Z</time></trkpt><trkpt lat="45.39475852137701" lon="9.109867788551192"><ele>103.60000000000001</ele><time>2026-03-27T15:03:53Z</time></trkpt><trkpt lat="45.394738087829815" lon="9.109696335229552"><ele>103.80000000000001</ele><time>2026-03-27T15:03:55Z</time></trkpt><trkpt lat="45.39468852718143" lon="9.109522548644515"><ele>104.0</ele><time>2026-03-27T15:03:57Z</time></trkpt><trkpt lat="45.39465421298473" lon="9.109379708901496"><ele>104.2</ele><time>2026-03-27T15:03:58Z</time></trkpt><trkpt lat="45.394620395622695" lon="9.109233403744824"><ele>104.4</ele><time>2026-03-27T15:03:59Z</time></trkpt><trkpt lat="45.39458466129162" lon="9.109084371958314"><ele>104.6</ele><time>2026-03-27T15:04:00Z</time></trkpt><trkpt lat="45.394555926257254" lon="9.108960012714894"><ele>104.8</ele><time>2026-03-27T15:04:01Z</time></trkpt><trkpt lat="45.394528416552866" lon="9.108833967805356"><ele>105.0</ele><time>2026-03-27T15:04:02Z</time></trkpt><trkpt lat="45.394507146309756" lon="9.108729017187514"><ele>104.8</ele><time>2026-03-27T15:04:03Z</time></trkpt><trkpt lat="45.39448634263302" lon="9.108584591549182"><ele>104.6</ele><time>2026-03-27T15:04:05Z</time></trkpt><trkpt lat="45.39453404783429" lon="9.108467019588925"><ele>104.4</ele><time>2026-03-27T15:04:07Z</time></trkpt><trkpt lat="45.394670069904834" lon="9.108425786955461"><ele>104.2</ele><time>2026-03-27T15:04:09Z</time></trkpt><trkpt lat="45.394765534058266" lon="9.108409885931886"><ele>104.0</ele><time>2026-03-27T15:04:10Z</time></trkpt><trkpt lat="45.39488413054291" lon="9.108395297443037"><ele>104.0</ele><time>2026-03-27T15:04:11Z</time></trkpt><trkpt lat="45.39501251668" lon="9.108380270246581"><ele>104.0</ele><time>2026-03-27T15:04:12Z</time></trkpt><trkpt lat="45.39512792156968" lon="9.108351273426214"><ele>104.0</ele><time>2026-03-27T15:04:13Z</time></trkpt><trkpt lat="45.39523781744519" lon="9.108305430087995"><ele>104.0</ele><time>2026-03-27T15:04:14Z</time></trkpt><trkpt lat="45.39533378738334" lon="9.108263502432363"><ele>104.16666666666666</ele><time>2026-03-27T15:04:15Z</time></trkpt><trkpt lat="45.39542333965896" lon="9.10822434875588"><ele>104.33333333333333</ele><time>2026-03-27T15:04:16Z</time></trkpt><trkpt lat="45.3954936142915" lon="9.108213382452545"><ele>104.5</ele><time>2026-03-27T15:04:17Z</time></trkpt><trkpt lat="45.39556096852002" lon="9.108220533763918"><ele>104.66666666666666</ele><time>2026-03-27T15:04:18Z</time></trkpt><trkpt lat="45.39566448329967" lon="9.108211392642131"><ele>104.83333333333333</ele><time>2026-03-27T15:04:20Z</time></trkpt><trkpt lat="45.39571464499362" lon="9.108148861237746"><ele>105.0</ele><time>2026-03-27T15:04:22Z</time></trkpt><trkpt lat="45.39570938217691" lon="9.108055338350852"><ele>105.0</ele><time>2026-03-27T15:04:24Z</time></trkpt><trkpt lat="45.39565281128602" lon="9.107916892023347"><ele>105.0</ele><time>2026-03-27T15:04:26Z</time></trkpt><trkpt lat="45.39561908435356" lon="9.107826153628727"><ele>105.0</ele><time>2026-03-27T15:04:27Z</time></trkpt><trkpt lat="45.395590747333706" lon="9.10772307304057"><ele>105.0</ele><time>2026-03-27T15:04:28Z</time></trkpt><trkpt lat="45.39557362078429" lon="9.107597476792753"><ele>105.0</ele><time>2026-03-27T15:04:29Z</time></trkpt><trkpt lat="45.395566024709275" lon="9.107455994953433"><ele>105.0</ele><time>2026-03-27T15:04:30Z</time></trkpt><trkpt lat="45.39555571098482" lon="9.107311443246601"><ele>105.0</ele><time>2026-03-27T15:04:31Z</time></trkpt><trkpt lat="45.39554457463354" lon="9.107176472449174"><ele>105.0</ele><time>2026-03-27T15:04:32Z</time></trkpt><trkpt lat="45.39552990141866" lon="9.107055183838066"><ele>105.0</ele><time>2026-03-27T15:04:32.999Z</time></trkpt><trkpt lat="45.39551799951939" lon="9.10693385135792"><ele>105.0</ele><time>2026-03-27T15:04:33.999Z</time></trkpt><trkpt lat="45.39550888541401" lon="9.10680316214082"><ele>105.0</ele><time>2026-03-27T15:04:34.999Z</time></trkpt><trkpt lat="45.39549918882957" lon="9.106684918728122"><ele>105.0</ele><time>2026-03-27T15:04:35.999Z</time></trkpt><trkpt lat="45.395489900153464" lon="9.106592366965858"><ele>105.0</ele><time>2026-03-27T15:04:36.999Z</time></trkpt><trkpt lat="45.39548204546485" lon="9.106499370363435"><ele>105.0</ele><time>2026-03-27T15:04:37.999Z</time></trkpt><trkpt lat="45.39547810464839" lon="9.106363269079717"><ele>105.0</ele><time>2026-03-27T15:04:39.999Z</time></trkpt><trkpt lat="45.39545980623331" lon="9.106273881753955"><ele>105.0</ele><time>2026-03-27T15:04:41.999Z</time></trkpt><trkpt lat="45.39540468053433" lon="9.10619450248576"><ele>105.2</ele><time>2026-03-27T15:05:51Z</time></trkpt><trkpt lat="45.39533394905009" lon="9.106116458046905"><ele>105.4</ele><time>2026-03-27T15:05:54Z</time></trkpt><trkpt lat="45.39525708635534" lon="9.106096182336946"><ele>105.6</ele><time>2026-03-27T15:05:57Z</time></trkpt><trkpt lat="45.395137203659914" lon="9.106117697414048"><ele>105.8</ele><time>2026-03-27T15:05:59Z</time></trkpt><trkpt lat="45.39504083401024" lon="9.106132158141811"><ele>106.0</ele><time>2026-03-27T15:06:00Z</time></trkpt><trkpt lat="45.394946502320416" lon="9.106148345378152"><ele>106.0</ele><time>2026-03-27T15:06:01Z</time></trkpt><trkpt lat="45.39486411344048" lon="9.1061639378059"><ele>106.0</ele><time>2026-03-27T15:06:02Z</time></trkpt><trkpt lat="45.39477895296999" lon="9.106180339217548"><ele>106.0</ele><time>2026-03-27T15:06:03Z</time></trkpt><trkpt lat="45.39468300641393" lon="9.106194775502637"><ele>106.0</ele><time>2026-03-27T15:06:04Z</time></trkpt><trkpt lat="45.39457301078281" lon="9.106203428114332"><ele>106.0</ele><time>2026-03-27T15:06:05Z</time></trkpt><trkpt lat="45.39446969920479" lon="9.106198593813247"><ele>105.8</ele><time>2026-03-27T15:06:05.999Z</time></trkpt><trkpt lat="45.39437010524697" lon="9.10617466968019"><ele>105.6</ele><time>2026-03-27T15:06:06.999Z</time></trkpt><trkpt lat="45.3942698097715" lon="9.10614522140814"><ele>105.4</ele><time>2026-03-27T15:06:07.999Z</time></trkpt><trkpt lat="45.39418234980264" lon="9.106098111207903"><ele>105.2</ele><time>2026-03-27T15:06:08.999Z</time></trkpt><trkpt lat="45.39410716777288" lon="9.10604188410539"><ele>105.0</ele><time>2026-03-27T15:06:09.999Z</time></trkpt><trkpt lat="45.39403549210293" lon="9.106010600007492"><ele>105.0</ele><time>2026-03-27T15:06:10.999Z</time></trkpt><trkpt lat="45.3939624702204" lon="9.1060085809678"><ele>105.0</ele><time>2026-03-27T15:06:11.999Z</time></trkpt><trkpt lat="45.39390058413045" lon="9.106032144073268"><ele>105.0</ele><time>2026-03-27T15:06:12.999Z</time></trkpt><trkpt lat="45.39383312968865" lon="9.106087162652582"><ele>105.0</ele><time>2026-03-27T15:06:13.999Z</time></trkpt><trkpt lat="45.393754683633844" lon="9.106177184577136"><ele>105.0</ele><time>2026-03-27T15:06:14.999Z</time></trkpt><trkpt lat="45.3936495274056" lon="9.106293502791974"><ele>105.0</ele><time>2026-03-27T15:06:15.999Z</time></trkpt><trkpt lat="45.393525639249596" lon="9.106425643268253"><ele>104.75</ele><time>2026-03-27T15:06:16.999Z</time></trkpt><trkpt lat="45.393402623393904" lon="9.106555018221046"><ele>104.5</ele><time>2026-03-27T15:06:17.999Z</time></trkpt><trkpt lat="45.39328539747649" lon="9.106672434129909"><ele>104.25</ele><time>2026-03-27T15:06:18.999Z</time></trkpt><trkpt lat="45.39317698274641" lon="9.106781311169364"><ele>104.0</ele><time>2026-03-27T15:06:19.999Z</time></trkpt><trkpt lat="45.39308214505628" lon="9.10688234166652"><ele>104.0</ele><time>2026-03-27T15:06:20.999Z</time></trkpt><trkpt lat="45.39298426871191" lon="9.106985447677074"><ele>104.0</ele><time>2026-03-27T15:06:21.999Z</time></trkpt><trkpt lat="45.39288661149434" lon="9.107088266089383"><ele>104.0</ele><time>2026-03-27T15:06:22.999Z</time></trkpt><trkpt lat="45.392790356712915" lon="9.107191234972387"><ele>104.0</ele><time>2026-03-27T15:06:23.999Z</time></trkpt><trkpt lat="45.39268159473675" lon="9.107249473057903"><ele>104.0</ele><time>2026-03-27T15:06:24.999Z</time></trkpt><trkpt lat="45.392585950074114" lon="9.107351288509692"><ele>104.0</ele><time>2026-03-27T15:06:25.999Z</time></trkpt><trkpt lat="45.3924811128004" lon="9.107473136796786"><ele>104.0</ele><time>2026-03-27T15:06:26.999Z</time></trkpt><trkpt lat="45.3923618439322" lon="9.107565817768423"><ele>104.0</ele><time>2026-03-27T15:06:27.999Z</time></trkpt><trkpt lat="45.39225572201566" lon="9.107668689381423"><ele>103.5</ele><time>2026-03-27T15:06:28.999Z</time></trkpt><trkpt lat="45.39215219983114" lon="9.10777920209035"><ele>103.0</ele><time>2026-03-27T15:06:29.999Z</time></trkpt><trkpt lat="45.3920519940939" lon="9.10788800555501"><ele>102.5</ele><time>2026-03-27T15:06:30.999Z</time></trkpt><trkpt lat="45.39195564852235" lon="9.108015279295325"><ele>102.0</ele><time>2026-03-27T15:06:31.999Z</time></trkpt><trkpt lat="45.391866575102604" lon="9.108125238360659"><ele>102.0</ele><time>2026-03-27T15:06:32.999Z</time></trkpt><trkpt lat="45.39177532496484" lon="9.108225347446405"><ele>102.0</ele><time>2026-03-27T15:06:33.999Z</time></trkpt><trkpt lat="45.391680758314266" lon="9.108339261939978"><ele>102.0</ele><time>2026-03-27T15:06:34.999Z</time></trkpt><trkpt lat="45.39159738133332" lon="9.108442166411416"><ele>102.0</ele><time>2026-03-27T15:06:35.999Z</time></trkpt><trkpt lat="45.391524883212796" lon="9.10854190049229"><ele>102.16666666666667</ele><time>2026-03-27T15:06:36.999Z</time></trkpt><trkpt lat="45.39146292231238" lon="9.108623567358455"><ele>102.33333333333334</ele><time>2026-03-27T15:06:37.999Z</time></trkpt><trkpt lat="45.39139009161918" lon="9.10872370927561"><ele>102.5</ele><time>2026-03-27T15:06:38.999Z</time></trkpt><trkpt lat="45.39132939939677" lon="9.108801211233548"><ele>102.66666666666667</ele><time>2026-03-27T15:06:39.999Z</time></trkpt><trkpt lat="45.39123977625258" lon="9.108857440265869"><ele>102.83333333333334</ele><time>2026-03-27T15:06:40.999Z</time></trkpt><trkpt lat="45.39116199470738" lon="9.108898026475263"><ele>103.0</ele><time>2026-03-27T15:06:41.999Z</time></trkpt><trkpt lat="45.39105714438919" lon="9.108949915751836"><ele>103.5</ele><time>2026-03-27T15:06:42.999Z</time></trkpt><trkpt lat="45.39093701658418" lon="9.109026807668393"><ele>104.0</ele><time>2026-03-27T15:06:43.999Z</time></trkpt><trkpt lat="45.390799064096626" lon="9.109077849390916"><ele>104.5</ele><time>2026-03-27T15:06:44.999Z</time></trkpt><trkpt lat="45.39068571444086" lon="9.109135002249346"><ele>105.0</ele><time>2026-03-27T15:06:45.999Z</time></trkpt><trkpt lat="45.39058736098491" lon="9.109185537989884"><ele>105.0</ele><time>2026-03-27T15:06:46.999Z</time></trkpt><trkpt lat="45.39050234521865" lon="9.109230189649391"><ele>105.0</ele><time>2026-03-27T15:06:47.999Z</time></trkpt><trkpt lat="45.39040283321189" lon="9.109282740406549"><ele>105.0</ele><time>2026-03-27T15:06:48.999Z</time></trkpt><trkpt lat="45.39030242151007" lon="9.109336345171824"><ele>105.0</ele><time>2026-03-27T15:06:49.999Z</time></trkpt><trkpt lat="45.3902041281845" lon="9.109389830526004"><ele>105.0</ele><time>2026-03-27T15:06:50.999Z</time></trkpt><trkpt lat="45.3901112962883" lon="9.109441587582662"><ele>105.0</ele><time>2026-03-27T15:06:51.999Z</time></trkpt><trkpt lat="45.3900373123088" lon="9.109482836258744"><ele>105.0</ele><time>2026-03-27T15:06:52.999Z</time></trkpt><trkpt lat="45.38997999975492" lon="9.109537445751869"><ele>105.0</ele><time>2026-03-27T15:06:53.999Z</time></trkpt><trkpt lat="45.389873254779275" lon="9.109585186760208"><ele>105.0</ele><time>2026-03-27T15:06:55.999Z</time></trkpt><trkpt lat="45.389813709962354" lon="9.109629696045543"><ele>105.0</ele><time>2026-03-27T15:06:56.999Z</time></trkpt><trkpt lat="45.389745978504926" lon="9.109697770538336"><ele>105.0</ele><time>2026-03-27T15:06:58Z</time></trkpt><trkpt lat="45.3896690372253" lon="9.10977273874841"><ele>105.0</ele><time>2026-03-27T15:06:59Z</time></trkpt><trkpt lat="45.38959992335311" lon="9.109831097144351"><ele>105.0</ele><time>2026-03-27T15:07:00Z</time></trkpt><trkpt lat="45.38954232309408" lon="9.109873977091063"><ele>105.0</ele><time>2026-03-27T15:07:01Z</time></trkpt><trkpt lat="45.38947363745802" lon="9.109917199868223"><ele>105.0</ele><time>2026-03-27T15:07:03Z</time></trkpt><trkpt lat="45.389446407011704" lon="9.10972670818839"><ele>105.0</ele><time>2026-03-27T15:07:08Z</time></trkpt><trkpt lat="45.38945413154712" lon="9.109585441568509"><ele>104.8</ele><time>2026-03-27T15:07:09Z</time></trkpt><trkpt lat="45.38944716809912" lon="9.109419373195804"><ele>104.6</ele><time>2026-03-27T15:07:10Z</time></trkpt><trkpt lat="45.38943646505857" lon="9.109258854407758"><ele>104.4</ele><time>2026-03-27T15:07:11Z</time></trkpt><trkpt lat="45.38942292286335" lon="9.109111985572325"><ele>104.2</ele><time>2026-03-27T15:07:12Z</time></trkpt><trkpt lat="45.38940342057858" lon="9.108956477987318"><ele>104.0</ele><time>2026-03-27T15:07:13Z</time></trkpt><trkpt lat="45.38938029596406" lon="9.108818112903245"><ele>104.0</ele><time>2026-03-27T15:07:14Z</time></trkpt><trkpt lat="45.38935749284812" lon="9.10870327297927"><ele>104.0</ele><time>2026-03-27T15:07:15Z</time></trkpt><trkpt lat="45.38932839159308" lon="9.108566081367705"><ele>104.0</ele><time>2026-03-27T15:07:16Z</time></trkpt><trkpt lat="45.38929581006259" lon="9.108412482673804"><ele>104.0</ele><time>2026-03-27T15:07:17Z</time></trkpt><trkpt lat="45.38926308969671" lon="9.108253015535672"><ele>104.0</ele><time>2026-03-27T15:07:18Z</time></trkpt><trkpt lat="45.389230517631454" lon="9.108092716040568"><ele>103.80000000000001</ele><time>2026-03-27T15:07:19Z</time></trkpt><trkpt lat="45.3892003296352" lon="9.107937830360697"><ele>103.60000000000001</ele><time>2026-03-27T15:07:20Z</time></trkpt><trkpt lat="45.38917426837758" lon="9.107793936062945"><ele>103.4</ele><time>2026-03-27T15:07:21Z</time></trkpt><trkpt lat="45.38914848926049" lon="9.10764691660159"><ele>103.2</ele><time>2026-03-27T15:07:22Z</time></trkpt><trkpt lat="45.38911901148094" lon="9.107486915219196"><ele>103.0</ele><time>2026-03-27T15:07:23Z</time></trkpt><trkpt lat="45.38908708156111" lon="9.107307853536655"><ele>103.0</ele><time>2026-03-27T15:07:24Z</time></trkpt><trkpt lat="45.3890670536075" lon="9.107125261279716"><ele>103.0</ele><time>2026-03-27T15:07:25Z</time></trkpt><trkpt lat="45.389059980231536" lon="9.106942970509525"><ele>103.0</ele><time>2026-03-27T15:07:26Z</time></trkpt><trkpt lat="45.389057403307845" lon="9.106752798921564"><ele>103.0</ele><time>2026-03-27T15:07:27Z</time></trkpt><trkpt lat="45.38905763992269" lon="9.10658221658715"><ele>103.0</ele><time>2026-03-27T15:07:28Z</time></trkpt><trkpt lat="45.38905279856551" lon="9.106427394484164"><ele>103.0</ele><time>2026-03-27T15:07:29Z</time></trkpt><trkpt lat="45.389021016553876" lon="9.106265761535573"><ele>103.0</ele><time>2026-03-27T15:07:30Z</time></trkpt><trkpt lat="45.38896112101343" lon="9.106108836056757"><ele>103.0</ele><time>2026-03-27T15:07:31Z</time></trkpt><trkpt lat="45.38888144626354" lon="9.105938640691496"><ele>103.66666666666667</ele><time>2026-03-27T15:07:32Z</time></trkpt><trkpt lat="45.388797800367406" lon="9.105747401723763"><ele>104.33333333333334</ele><time>2026-03-27T15:07:33Z</time></trkpt><trkpt lat="45.38869655694336" lon="9.105522136852443"><ele>105.0</ele><time>2026-03-27T15:07:34Z</time></trkpt><trkpt lat="45.38858903783183" lon="9.10528654474179"><ele>105.0</ele><time>2026-03-27T15:07:35Z</time></trkpt><trkpt lat="45.38849011970031" lon="9.10507368164868"><ele>105.0</ele><time>2026-03-27T15:07:36Z</time></trkpt><trkpt lat="45.38839649337452" lon="9.104876042412261"><ele>105.0</ele><time>2026-03-27T15:07:37Z</time></trkpt><trkpt lat="45.38833313051055" lon="9.104741284740285"><ele>104.75</ele><time>2026-03-27T15:07:38Z</time></trkpt><trkpt lat="45.38825367208671" lon="9.10457818475382"><ele>104.5</ele><time>2026-03-27T15:07:39Z</time></trkpt><trkpt lat="45.38817866368348" lon="9.104425969348947"><ele>104.25</ele><time>2026-03-27T15:07:40Z</time></trkpt><trkpt lat="45.38810600665406" lon="9.104285762250578"><ele>104.0</ele><time>2026-03-27T15:07:41Z</time></trkpt><trkpt lat="45.38804168993403" lon="9.104162093305805"><ele>103.66666666666666</ele><time>2026-03-27T15:07:42Z</time></trkpt><trkpt lat="45.38798355307001" lon="9.104053163095543"><ele>103.33333333333333</ele><time>2026-03-27T15:07:43Z</time></trkpt><trkpt lat="45.38792165336455" lon="9.10393803048976"><ele>103.0</ele><time>2026-03-27T15:07:44Z</time></trkpt><trkpt lat="45.387871339653735" lon="9.103844926381557"><ele>102.66666666666666</ele><time>2026-03-27T15:07:45Z</time></trkpt><trkpt lat="45.387828904197804" lon="9.103768865654487"><ele>102.33333333333333</ele><time>2026-03-27T15:07:46Z</time></trkpt><trkpt lat="45.38777331152106" lon="9.103685750290335"><ele>102.0</ele><time>2026-03-27T15:07:48Z</time></trkpt><trkpt lat="45.387748007842106" lon="9.103595399576044"><ele>102.0</ele><time>2026-03-27T15:07:49Z</time></trkpt><trkpt lat="45.38778950086101" lon="9.10347475266266"><ele>102.0</ele><time>2026-03-27T15:07:51Z</time></trkpt><trkpt lat="45.387881460252025" lon="9.103432155332243"><ele>102.0</ele><time>2026-03-27T15:07:52Z</time></trkpt><trkpt lat="45.38794487749044" lon="9.103383001653244"><ele>102.0</ele><time>2026-03-27T15:07:53Z</time></trkpt><trkpt lat="45.388007059040305" lon="9.103332698101589"><ele>102.0</ele><time>2026-03-27T15:07:54Z</time></trkpt><trkpt lat="45.38807683027088" lon="9.103270069321331"><ele>102.0</ele><time>2026-03-27T15:07:54.999Z</time></trkpt><trkpt lat="45.388164498493445" lon="9.103190687088604"><ele>102.19999999999999</ele><time>2026-03-27T15:07:55.999Z</time></trkpt><trkpt lat="45.388265281718844" lon="9.103101766822512"><ele>102.4</ele><time>2026-03-27T15:07:56.999Z</time></trkpt><trkpt lat="45.38835283486831" lon="9.103019771805753"><ele>102.6</ele><time>2026-03-27T15:07:57.999Z</time></trkpt><trkpt lat="45.388428040752025" lon="9.102949307380019"><ele>102.80000000000001</ele><time>2026-03-27T15:07:58.999Z</time></trkpt><trkpt lat="45.38850979821056" lon="9.102880646566351"><ele>103.0</ele><time>2026-03-27T15:07:59.999Z</time></trkpt><trkpt lat="45.38860540609777" lon="9.102796082854772"><ele>103.0</ele><time>2026-03-27T15:08:00.999Z</time></trkpt><trkpt lat="45.38870971517366" lon="9.10270508972582"><ele>103.0</ele><time>2026-03-27T15:08:01.999Z</time></trkpt><trkpt lat="45.388823858508594" lon="9.102606757826894"><ele>103.0</ele><time>2026-03-27T15:08:02.999Z</time></trkpt><trkpt lat="45.38894537333383" lon="9.102504919224874"><ele>103.0</ele><time>2026-03-27T15:08:03.999Z</time></trkpt><trkpt lat="45.389066932990495" lon="9.102401172726163"><ele>103.0</ele><time>2026-03-27T15:08:04.999Z</time></trkpt><trkpt lat="45.389208652343875" lon="9.102276470197598"><ele>103.0</ele><time>2026-03-27T15:08:05.999Z</time></trkpt><trkpt lat="45.38934140602329" lon="9.102164472281071"><ele>103.0</ele><time>2026-03-27T15:08:06.999Z</time></trkpt><trkpt lat="45.38947031794748" lon="9.102057470820823"><ele>103.0</ele><time>2026-03-27T15:08:07.999Z</time></trkpt><trkpt lat="45.38958985598658" lon="9.10194876647571"><ele>103.0</ele><time>2026-03-27T15:08:08.999Z</time></trkpt><trkpt lat="45.389700659341734" lon="9.101851947476932"><ele>103.0</ele><time>2026-03-27T15:08:09.999Z</time></trkpt><trkpt lat="45.38980098981034" lon="9.101762374172855"><ele>103.0</ele><time>2026-03-27T15:08:10.999Z</time></trkpt><trkpt lat="45.3898957115527" lon="9.101677552572056"><ele>103.0</ele><time>2026-03-27T15:08:11.999Z</time></trkpt><trkpt lat="45.38998411484782" lon="9.101596573219858"><ele>103.0</ele><time>2026-03-27T15:08:12.999Z</time></trkpt><trkpt lat="45.390064690256835" lon="9.101525604722637"><ele>103.0</ele><time>2026-03-27T15:08:13.999Z</time></trkpt><trkpt lat="45.39014980631717" lon="9.101468203866265"><ele>103.0</ele><time>2026-03-27T15:08:14.999Z</time></trkpt><trkpt lat="45.39023284972616" lon="9.101438308531035"><ele>103.0</ele><time>2026-03-27T15:08:15.999Z</time></trkpt><trkpt lat="45.390339827409704" lon="9.10146266704944"><ele>102.75</ele><time>2026-03-27T15:08:16.999Z</time></trkpt><trkpt lat="45.39045973251405" lon="9.101422657399954"><ele>102.5</ele><time>2026-03-27T15:08:17.999Z</time></trkpt><trkpt lat="45.390615927247644" lon="9.101401237188037"><ele>102.25</ele><time>2026-03-27T15:08:18.999Z</time></trkpt><trkpt lat="45.39077699062768" lon="9.101398235760305"><ele>102.0</ele><time>2026-03-27T15:08:19.999Z</time></trkpt><trkpt lat="45.390960607790156" lon="9.101403034320391"><ele>102.5</ele><time>2026-03-27T15:08:20.999Z</time></trkpt><trkpt lat="45.39111469745337" lon="9.101409866466119"><ele>103.0</ele><time>2026-03-27T15:08:21.999Z</time></trkpt><trkpt lat="45.39125751676473" lon="9.101438022909209"><ele>103.5</ele><time>2026-03-27T15:08:22.999Z</time></trkpt><trkpt lat="45.39138229548213" lon="9.101436915919695"><ele>104.0</ele><time>2026-03-27T15:08:23.999Z</time></trkpt><trkpt lat="45.39150990937873" lon="9.101425940526592"><ele>103.99999999999999</ele><time>2026-03-27T15:08:24.999Z</time></trkpt><trkpt lat="45.39161851340679" lon="9.101384279516505"><ele>104.0</ele><time>2026-03-27T15:08:25.999Z</time></trkpt><trkpt lat="45.391682332977986" lon="9.10137242443414"><ele>104.0</ele><time>2026-03-27T15:08:26.999Z</time></trkpt><trkpt lat="45.39175787526164" lon="9.101361397364542"><ele>104.0</ele><time>2026-03-27T15:08:27.999Z</time></trkpt><trkpt lat="45.39182378345954" lon="9.101343466053994"><ele>103.99999999999999</ele><time>2026-03-27T15:08:28.999Z</time></trkpt><trkpt lat="45.391909453574414" lon="9.101254512125836"><ele>104.0</ele><time>2026-03-27T15:08:30.999Z</time></trkpt><trkpt lat="45.391941200339204" lon="9.101175118675172"><ele>104.0</ele><time>2026-03-27T15:08:31.999Z</time></trkpt><trkpt lat="45.39190674269474" lon="9.101060596044158"><ele>104.0</ele><time>2026-03-27T15:08:32.999Z</time></trkpt><trkpt lat="45.39187307077902" lon="9.100937309309819"><ele>104.0</ele><time>2026-03-27T15:08:33.999Z</time></trkpt><trkpt lat="45.39183991590526" lon="9.100789030954754"><ele>104.0</ele><time>2026-03-27T15:08:34.999Z</time></trkpt><trkpt lat="45.39180651790594" lon="9.100588291375336"><ele>104.0</ele><time>2026-03-27T15:08:35.999Z</time></trkpt><trkpt lat="45.391779392248026" lon="9.100379279580823"><ele>104.0</ele><time>2026-03-27T15:08:36.999Z</time></trkpt><trkpt lat="45.391741223337775" lon="9.100118627432938"><ele>104.0</ele><time>2026-03-27T15:08:37.999Z</time></trkpt><trkpt lat="45.391703211417045" lon="9.099871071620747"><ele>104.0</ele><time>2026-03-27T15:08:38.999Z</time></trkpt><trkpt lat="45.39166797929338" lon="9.099655725446958"><ele>104.0</ele><time>2026-03-27T15:08:39.999Z</time></trkpt><trkpt lat="45.39163694984749" lon="9.099448900030723"><ele>104.0</ele><time>2026-03-27T15:08:40.999Z</time></trkpt><trkpt lat="45.391612505347624" lon="9.099259377034267"><ele>104.0</ele><time>2026-03-27T15:08:41.999Z</time></trkpt><trkpt lat="45.39159205331427" lon="9.099096671543915"><ele>104.0</ele><time>2026-03-27T15:08:42.999Z</time></trkpt><trkpt lat="45.391572393336645" lon="9.098955538790824"><ele>104.0</ele><time>2026-03-27T15:08:43.999Z</time></trkpt><trkpt lat="45.39155583948146" lon="9.098824674645947"><ele>104.0</ele><time>2026-03-27T15:08:44.999Z</time></trkpt><trkpt lat="45.39153174813545" lon="9.098593178015149"><ele>104.0</ele><time>2026-03-27T15:08:45.999Z</time></trkpt><trkpt lat="45.39151018195853" lon="9.09844727224404"><ele>104.0</ele><time>2026-03-27T15:08:46.999Z</time></trkpt><trkpt lat="45.39148414673521" lon="9.098287444151776"><ele>103.80000000000001</ele><time>2026-03-27T15:08:47.999Z</time></trkpt><trkpt lat="45.39146620091185" lon="9.098132161521358"><ele>103.60000000000001</ele><time>2026-03-27T15:08:48.999Z</time></trkpt><trkpt lat="45.391441113926525" lon="9.098004179241345"><ele>103.4</ele><time>2026-03-27T15:08:49.999Z</time></trkpt><trkpt lat="45.391385741037844" lon="9.097876305695157"><ele>103.2</ele><time>2026-03-27T15:08:50.999Z</time></trkpt><trkpt lat="45.39131670504058" lon="9.097761224377477"><ele>103.0</ele><time>2026-03-27T15:08:51.999Z</time></trkpt><trkpt lat="45.39124722144308" lon="9.097669805665705"><ele>103.2</ele><time>2026-03-27T15:08:52.999Z</time></trkpt><trkpt lat="45.39120722524686" lon="9.097580620096204"><ele>103.4</ele><time>2026-03-27T15:08:53.999Z</time></trkpt><trkpt lat="45.39118497590506" lon="9.097432845623258"><ele>103.60000000000001</ele><time>2026-03-27T15:08:55.999Z</time></trkpt><trkpt lat="45.391267056540016" lon="9.097355392155366"><ele>103.80000000000001</ele><time>2026-03-27T15:08:56.999Z</time></trkpt><trkpt lat="45.39135513993847" lon="9.097253814081336"><ele>104.0</ele><time>2026-03-27T15:08:57.999Z</time></trkpt><trkpt lat="45.391471344263444" lon="9.097090064694406"><ele>104.0</ele><time>2026-03-27T15:08:58.999Z</time></trkpt><trkpt lat="45.391595983974646" lon="9.096916396973052"><ele>104.0</ele><time>2026-03-27T15:08:59.999Z</time></trkpt><trkpt lat="45.39172707589869" lon="9.096733739274036"><ele>104.0</ele><time>2026-03-27T15:09:00.999Z</time></trkpt><trkpt lat="45.39185142195951" lon="9.096559737301662"><ele>104.2</ele><time>2026-03-27T15:09:01.999Z</time></trkpt><trkpt lat="45.39195883354031" lon="9.096409256918745"><ele>104.4</ele><time>2026-03-27T15:09:03Z</time></trkpt><trkpt lat="45.39204477360559" lon="9.096288857567247"><ele>104.6</ele><time>2026-03-27T15:09:04Z</time></trkpt><trkpt lat="45.392099946742725" lon="9.096181892736377"><ele>104.8</ele><time>2026-03-27T15:09:05Z</time></trkpt><trkpt lat="45.392158698391114" lon="9.096108268287223"><ele>105.0</ele><time>2026-03-27T15:09:06Z</time></trkpt><trkpt lat="45.39223255604462" lon="9.095982329687772"><ele>105.0</ele><time>2026-03-27T15:09:08Z</time></trkpt><trkpt lat="45.39221733406528" lon="9.09577951568624"><ele>105.0</ele><time>2026-03-27T15:09:10Z</time></trkpt><trkpt lat="45.3921509730873" lon="9.095657317300368"><ele>105.0</ele><time>2026-03-27T15:09:11Z</time></trkpt><trkpt lat="45.392061925476966" lon="9.095515795978457"><ele>105.0</ele><time>2026-03-27T15:09:12Z</time></trkpt><trkpt lat="45.391976245228044" lon="9.095347155597619"><ele>105.2</ele><time>2026-03-27T15:09:13Z</time></trkpt><trkpt lat="45.39191818793302" lon="9.095196987058898"><ele>105.4</ele><time>2026-03-27T15:09:14Z</time></trkpt><trkpt lat="45.39186733471648" lon="9.095096787722253"><ele>105.6</ele><time>2026-03-27T15:09:15Z</time></trkpt><trkpt lat="45.39182747630234" lon="9.094973043679337"><ele>105.8</ele><time>2026-03-27T15:09:17Z</time></trkpt><trkpt lat="45.391926454168036" lon="9.094875981820783"><ele>106.0</ele><time>2026-03-27T15:09:19Z</time></trkpt><trkpt lat="45.392037802831894" lon="9.09477163226572"><ele>106.0</ele><time>2026-03-27T15:09:20Z</time></trkpt><trkpt lat="45.39216594351596" lon="9.094635603104571"><ele>106.0</ele><time>2026-03-27T15:09:21Z</time></trkpt><trkpt lat="45.392260808816985" lon="9.094534897727963"><ele>106.0</ele><time>2026-03-27T15:09:22Z</time></trkpt><trkpt lat="45.392340572199565" lon="9.094450224093752"><ele>106.0</ele><time>2026-03-27T15:09:23Z</time></trkpt><trkpt lat="45.392392247400245" lon="9.094375020396145"><ele>106.00000000000001</ele><time>2026-03-27T15:09:24Z</time></trkpt><trkpt lat="45.3924718614026" lon="9.094271708829782"><ele>106.0</ele><time>2026-03-27T15:09:26Z</time></trkpt><trkpt lat="45.39249054548304" lon="9.094129585621902"><ele>106.0</ele><time>2026-03-27T15:09:28Z</time></trkpt><trkpt lat="45.39242296281534" lon="9.094059804834016"><ele>106.0</ele><time>2026-03-27T15:09:29Z</time></trkpt><trkpt lat="45.39237831981312" lon="9.093965964245287"><ele>106.00000000000001</ele><time>2026-03-27T15:09:30Z</time></trkpt><trkpt lat="45.392330479556186" lon="9.093893510638342"><ele>106.0</ele><time>2026-03-27T15:09:31Z</time></trkpt><trkpt lat="45.39225464642115" lon="9.09380767055881"><ele>106.00000000000001</ele><time>2026-03-27T15:09:33Z</time></trkpt><trkpt lat="45.392207423043914" lon="9.093692957999886"><ele>106.0</ele><time>2026-03-27T15:10:14.999Z</time></trkpt><trkpt lat="45.39219343988607" lon="9.0935982441504"><ele>106.0</ele><time>2026-03-27T15:10:16.999Z</time></trkpt><trkpt lat="45.39222796272602" lon="9.093520112428646"><ele>106.0</ele><time>2026-03-27T15:10:17.999Z</time></trkpt><trkpt lat="45.392314131770874" lon="9.093463477206383"><ele>106.00000000000001</ele><time>2026-03-27T15:10:18.999Z</time></trkpt><trkpt lat="45.39239075780221" lon="9.093371495451954"><ele>106.0</ele><time>2026-03-27T15:10:19.999Z</time></trkpt><trkpt lat="45.392454880994364" lon="9.093294522383212"><ele>106.16666666666667</ele><time>2026-03-27T15:10:20.999Z</time></trkpt><trkpt lat="45.39250755676066" lon="9.09323129060913"><ele>106.33333333333334</ele><time>2026-03-27T15:10:21.999Z</time></trkpt><trkpt lat="45.39259183169533" lon="9.09312686868475"><ele>106.5</ele><time>2026-03-27T15:10:23.999Z</time></trkpt><trkpt lat="45.39263804961123" lon="9.093031699465836"><ele>106.66666666666666</ele><time>2026-03-27T15:10:25.999Z</time></trkpt><trkpt lat="45.3926492751279" lon="9.09291853856522"><ele>106.83333333333333</ele><time>2026-03-27T15:10:28.999Z</time></trkpt><trkpt lat="45.39273898658417" lon="9.09289209045079"><ele>107.0</ele><time>2026-03-27T15:10:30.999Z</time></trkpt><trkpt lat="45.39279624656785" lon="9.092843596310534"><ele>106.99999999999999</ele><time>2026-03-27T15:10:31.999Z</time></trkpt><trkpt lat="45.39287792789645" lon="9.09277145397894"><ele>107.0</ele><time>2026-03-27T15:10:33.999Z</time></trkpt><trkpt lat="45.392946387830946" lon="9.09271419184468"><ele>107.0</ele><time>2026-03-27T15:10:35.999Z</time></trkpt><trkpt lat="45.39301290463502" lon="9.092691003544944"><ele>107.0</ele><time>2026-03-27T15:10:37.999Z</time></trkpt><trkpt lat="45.392993432604186" lon="9.09278245353351"><ele>106.99999999999999</ele><time>2026-03-27T15:10:41.999Z</time></trkpt><trkpt lat="45.39307024561572" lon="9.092733100288173"><ele>107.0</ele><time>2026-03-27T15:10:52.999Z</time></trkpt><trkpt lat="45.393119964217995" lon="9.092630389905416"><ele>106.6</ele><time>2026-03-27T15:11:02.999Z</time></trkpt><trkpt lat="45.393130342526426" lon="9.092541316861535"><ele>106.19999999999999</ele><time>2026-03-27T15:11:03.999Z</time></trkpt><trkpt lat="45.39319665211797" lon="9.092586971904431"><ele>105.8</ele><time>2026-03-27T15:11:04.999Z</time></trkpt><trkpt lat="45.39338884201998" lon="9.092410722592"><ele>105.4</ele><time>2026-03-27T15:11:07.999Z</time></trkpt><trkpt lat="45.39345819597387" lon="9.092393533771236"><ele>105.0</ele><time>2026-03-27T15:11:09Z</time></trkpt><trkpt lat="45.393530116059864" lon="9.092377509875003"><ele>105.0</ele><time>2026-03-27T15:11:10Z</time></trkpt><trkpt lat="45.39361053504968" lon="9.092357071426996"><ele>105.0</ele><time>2026-03-27T15:11:11Z</time></trkpt><trkpt lat="45.39367832172282" lon="9.09234241878974"><ele>105.0</ele><time>2026-03-27T15:11:12Z</time></trkpt><trkpt lat="45.393783033148964" lon="9.092328257916057"><ele>105.0</ele><time>2026-03-27T15:11:14Z</time></trkpt><trkpt lat="45.39385630103299" lon="9.092334442203027"><ele>105.0</ele><time>2026-03-27T15:11:16Z</time></trkpt><trkpt lat="45.39393033035745" lon="9.09235939684165"><ele>105.0</ele><time>2026-03-27T15:11:19Z</time></trkpt><trkpt lat="45.39402222412518" lon="9.092377888787263"><ele>105.0</ele><time>2026-03-27T15:11:32Z</time></trkpt><trkpt lat="45.394102396864724" lon="9.092395731967372"><ele>105.0</ele><time>2026-03-27T15:11:33Z</time></trkpt><trkpt lat="45.39417286103196" lon="9.092414086633156"><ele>105.0</ele><time>2026-03-27T15:11:34Z</time></trkpt><trkpt lat="45.394251195088636" lon="9.0924313501173"><ele>105.0</ele><time>2026-03-27T15:11:35Z</time></trkpt><trkpt lat="45.394341781015136" lon="9.092445852396413"><ele>105.0</ele><time>2026-03-27T15:11:36Z</time></trkpt><trkpt lat="45.39442946022472" lon="9.092459350391406"><ele>105.0</ele><time>2026-03-27T15:11:37Z</time></trkpt><trkpt lat="45.39451923519525" lon="9.092466566326355"><ele>105.0</ele><time>2026-03-27T15:11:38Z</time></trkpt><trkpt lat="45.3945999910739" lon="9.092468688994938"><ele>105.0</ele><time>2026-03-27T15:11:39Z</time></trkpt><trkpt lat="45.39468273951127" lon="9.092464626641917"><ele>105.0</ele><time>2026-03-27T15:11:40Z</time></trkpt><trkpt lat="45.39475289042383" lon="9.092459186763652"><ele>105.0</ele><time>2026-03-27T15:11:41Z</time></trkpt><trkpt lat="45.394879687002714" lon="9.092412649368297"><ele>105.0</ele><time>2026-03-27T15:11:43Z</time></trkpt><trkpt lat="45.39496050183971" lon="9.092355803437256"><ele>105.0</ele><time>2026-03-27T15:11:44Z</time></trkpt><trkpt lat="45.39505200395744" lon="9.092289568222267"><ele>105.0</ele><time>2026-03-27T15:11:45Z</time></trkpt><trkpt lat="45.39515761316755" lon="9.092228272454689"><ele>105.0</ele><time>2026-03-27T15:11:46Z</time></trkpt><trkpt lat="45.39526849254843" lon="9.09216527733949"><ele>105.0</ele><time>2026-03-27T15:11:47Z</time></trkpt><trkpt lat="45.395360540573776" lon="9.092099305838543"><ele>105.0</ele><time>2026-03-27T15:11:48Z</time></trkpt><trkpt lat="45.39545586743163" lon="9.092040004807956"><ele>105.25</ele><time>2026-03-27T15:11:48.999Z</time></trkpt><trkpt lat="45.395565761915506" lon="9.091978968600966"><ele>105.5</ele><time>2026-03-27T15:11:49.999Z</time></trkpt><trkpt lat="45.39567263533927" lon="9.09191105240726"><ele>105.75</ele><time>2026-03-27T15:11:50.999Z</time></trkpt><trkpt lat="45.395774080250874" lon="9.09183106948384"><ele>106.0</ele><time>2026-03-27T15:11:51.999Z</time></trkpt><trkpt lat="45.39587521100548" lon="9.091743430864748"><ele>106.00000000000001</ele><time>2026-03-27T15:11:52.999Z</time></trkpt><trkpt lat="45.39595905784257" lon="9.091661887582529"><ele>106.0</ele><time>2026-03-27T15:11:53.999Z</time></trkpt><trkpt lat="45.39603299920869" lon="9.091587744635499"><ele>106.0</ele><time>2026-03-27T15:11:54.999Z</time></trkpt><trkpt lat="45.39609429680697" lon="9.09151939009423"><ele>106.0</ele><time>2026-03-27T15:11:55.999Z</time></trkpt><trkpt lat="45.396147538209284" lon="9.091462098053663"><ele>106.00000000000001</ele><time>2026-03-27T15:11:56.999Z</time></trkpt><trkpt lat="45.39620293787117" lon="9.091417228553416"><ele>106.0</ele><time>2026-03-27T15:11:57.999Z</time></trkpt><trkpt lat="45.396274207091295" lon="9.091382209713844"><ele>106.19999999999999</ele><time>2026-03-27T15:11:58.999Z</time></trkpt><trkpt lat="45.396373347596715" lon="9.091343652302848"><ele>106.39999999999999</ele><time>2026-03-27T15:11:59.999Z</time></trkpt><trkpt lat="45.39646589968546" lon="9.09131159582909"><ele>106.6</ele><time>2026-03-27T15:12:00.999Z</time></trkpt><trkpt lat="45.39653684280176" lon="9.091283166705725"><ele>106.8</ele><time>2026-03-27T15:12:01.999Z</time></trkpt><trkpt lat="45.39664752275762" lon="9.091227437414231"><ele>107.0</ele><time>2026-03-27T15:12:03.999Z</time></trkpt><trkpt lat="45.39671480043963" lon="9.091188320957714"><ele>106.99999999999999</ele><time>2026-03-27T15:12:05.999Z</time></trkpt><trkpt lat="45.39677822775914" lon="9.091249793805215"><ele>107.0</ele><time>2026-03-27T15:12:08.999Z</time></trkpt><trkpt lat="45.39682393734316" lon="9.091318458889475"><ele>107.0</ele><time>2026-03-27T15:12:12.999Z</time></trkpt><trkpt lat="45.39690965232234" lon="9.09131696011931"><ele>107.0</ele><time>2026-03-27T15:12:15.999Z</time></trkpt><trkpt lat="45.39697326958222" lon="9.09129200453711"><ele>106.99999999999999</ele><time>2026-03-27T15:12:30.999Z</time></trkpt><trkpt lat="45.39705169126355" lon="9.091262822751215"><ele>107.0</ele><time>2026-03-27T15:12:38.999Z</time></trkpt><trkpt lat="45.39714729095977" lon="9.091241837515401"><ele>106.8</ele><time>2026-03-27T15:12:40.999Z</time></trkpt><trkpt lat="45.397250433388315" lon="9.09125292344702"><ele>106.6</ele><time>2026-03-27T15:12:42.999Z</time></trkpt><trkpt lat="45.397360172807545" lon="9.091261620041042"><ele>106.39999999999999</ele><time>2026-03-27T15:12:44.999Z</time></trkpt><trkpt lat="45.3974629659085" lon="9.091274676296303"><ele>106.19999999999999</ele><time>2026-03-27T15:12:46.999Z</time></trkpt><trkpt lat="45.3975694326461" lon="9.091270752887935"><ele>106.0</ele><time>2026-03-27T15:12:48.999Z</time></trkpt><trkpt lat="45.39766242237236" lon="9.091246616275633"><ele>106.00000000000001</ele><time>2026-03-27T15:12:50.999Z</time></trkpt><trkpt lat="45.39777706819347" lon="9.09118873954134"><ele>106.0</ele><time>2026-03-27T15:12:52.999Z</time></trkpt><trkpt lat="45.39784114551798" lon="9.091153727993364"><ele>106.0</ele><time>2026-03-27T15:12:53.999Z</time></trkpt><trkpt lat="45.39794238560106" lon="9.091095820940998"><ele>106.0</ele><time>2026-03-27T15:12:55.999Z</time></trkpt><trkpt lat="45.3980063150288" lon="9.091051701617172"><ele>106.00000000000001</ele><time>2026-03-27T15:12:56.999Z</time></trkpt><trkpt lat="45.398066572835994" lon="9.091017824314738"><ele>106.0</ele><time>2026-03-27T15:12:57.999Z</time></trkpt><trkpt lat="45.39813409604345" lon="9.090981815733285"><ele>105.83333333333334</ele><time>2026-03-27T15:12:58.999Z</time></trkpt><trkpt lat="45.39820733148582" lon="9.090945517467455"><ele>105.66666666666667</ele><time>2026-03-27T15:12:59.999Z</time></trkpt><trkpt lat="45.39827832878375" lon="9.090908279378212"><ele>105.5</ele><time>2026-03-27T15:13:00.999Z</time></trkpt><trkpt lat="45.3983475244257" lon="9.090866730724107"><ele>105.33333333333334</ele><time>2026-03-27T15:13:01.999Z</time></trkpt><trkpt lat="45.398404530635695" lon="9.090825825084984"><ele>105.16666666666667</ele><time>2026-03-27T15:13:02.999Z</time></trkpt><trkpt lat="45.39851866710341" lon="9.090748978630517"><ele>105.0</ele><time>2026-03-27T15:13:04.999Z</time></trkpt><trkpt lat="45.39863832491293" lon="9.090715145873457"><ele>105.0</ele><time>2026-03-27T15:13:06.999Z</time></trkpt><trkpt lat="45.39871006412166" lon="9.090717965425208"><ele>105.0</ele><time>2026-03-27T15:13:07.999Z</time></trkpt><trkpt lat="45.39879135682537" lon="9.090722342478978"><ele>105.0</ele><time>2026-03-27T15:13:08.999Z</time></trkpt><trkpt lat="45.39887776117302" lon="9.090720624902197"><ele>105.0</ele><time>2026-03-27T15:13:09.999Z</time></trkpt><trkpt lat="45.39896432145246" lon="9.090701517430519"><ele>105.0</ele><time>2026-03-27T15:13:10.999Z</time></trkpt><trkpt lat="45.39905754116955" lon="9.090674272026812"><ele>105.0</ele><time>2026-03-27T15:13:11.999Z</time></trkpt><trkpt lat="45.399146028575075" lon="9.090644218421282"><ele>105.0</ele><time>2026-03-27T15:13:12.999Z</time></trkpt><trkpt lat="45.399225343619605" lon="9.090618641382012"><ele>105.0</ele><time>2026-03-27T15:13:13.999Z</time></trkpt><trkpt lat="45.39929191385049" lon="9.090601668413235"><ele>105.0</ele><time>2026-03-27T15:13:14.999Z</time></trkpt><trkpt lat="45.39939992112697" lon="9.090590873231374"><ele>105.0</ele><time>2026-03-27T15:13:16.999Z</time></trkpt><trkpt lat="45.39948780903684" lon="9.09058592145807"><ele>105.0</ele><time>2026-03-27T15:13:18.999Z</time></trkpt><trkpt lat="45.399622131699324" lon="9.090557430125404"><ele>104.83333333333333</ele><time>2026-03-27T15:13:20.999Z</time></trkpt><trkpt lat="45.39969962703043" lon="9.09052828294506"><ele>104.66666666666666</ele><time>2026-03-27T15:13:21.999Z</time></trkpt><trkpt lat="45.399773239187745" lon="9.090490567525112"><ele>104.5</ele><time>2026-03-27T15:13:22.999Z</time></trkpt><trkpt lat="45.39983981906992" lon="9.090455397226384"><ele>104.33333333333333</ele><time>2026-03-27T15:13:23.999Z</time></trkpt><trkpt lat="45.39996294078639" lon="9.090383202635518"><ele>104.16666666666666</ele><time>2026-03-27T15:13:25.999Z</time></trkpt><trkpt lat="45.40002688717156" lon="9.090339827950908"><ele>104.0</ele><time>2026-03-27T15:13:26.999Z</time></trkpt><trkpt lat="45.400092512134776" lon="9.090287655731705"><ele>103.99999999999999</ele><time>2026-03-27T15:13:27.999Z</time></trkpt><trkpt lat="45.40016391121051" lon="9.090237527795693"><ele>104.0</ele><time>2026-03-27T15:13:28.999Z</time></trkpt><trkpt lat="45.40023911888454" lon="9.090205260976589"><ele>104.0</ele><time>2026-03-27T15:13:29.999Z</time></trkpt><trkpt lat="45.40032048738304" lon="9.090184372661412"><ele>104.0</ele><time>2026-03-27T15:13:30.999Z</time></trkpt><trkpt lat="45.40040130500638" lon="9.090166958938333"><ele>103.99999999999999</ele><time>2026-03-27T15:13:31.999Z</time></trkpt><trkpt lat="45.400481056470696" lon="9.0901475019082"><ele>104.0</ele><time>2026-03-27T15:13:32.999Z</time></trkpt><trkpt lat="45.40056327745731" lon="9.090128687341332"><ele>104.49999999999999</ele><time>2026-03-27T15:13:33.999Z</time></trkpt><trkpt lat="45.400649325275864" lon="9.09011282749433"><ele>105.0</ele><time>2026-03-27T15:13:34.999Z</time></trkpt><trkpt lat="45.40072308897362" lon="9.090106428373625"><ele>105.5</ele><time>2026-03-27T15:13:35.999Z</time></trkpt><trkpt lat="45.4007955082254" lon="9.090099907587263"><ele>106.0</ele><time>2026-03-27T15:13:36.999Z</time></trkpt><trkpt lat="45.40087174234337" lon="9.090086083441593"><ele>106.49999999999999</ele><time>2026-03-27T15:13:37.999Z</time></trkpt><trkpt lat="45.400946043050325" lon="9.090060437105205"><ele>107.0</ele><time>2026-03-27T15:13:38.999Z</time></trkpt><trkpt lat="45.40101481005544" lon="9.090031077019233"><ele>106.99999999999999</ele><time>2026-03-27T15:13:39.999Z</time></trkpt><trkpt lat="45.401079613164896" lon="9.090007413079364"><ele>107.0</ele><time>2026-03-27T15:13:40.999Z</time></trkpt><trkpt lat="45.40114077429303" lon="9.089986022529038"><ele>107.0</ele><time>2026-03-27T15:13:41.999Z</time></trkpt><trkpt lat="45.401236122171504" lon="9.089950385859689"><ele>107.0</ele><time>2026-03-27T15:13:43.999Z</time></trkpt><trkpt lat="45.401319476054844" lon="9.089925516093087"><ele>106.99999999999999</ele><time>2026-03-27T15:13:45.999Z</time></trkpt><trkpt lat="45.4013926817495" lon="9.089939317344596"><ele>107.0</ele><time>2026-03-27T15:13:48.999Z</time></trkpt><trkpt lat="45.40148414054039" lon="9.08993185854912"><ele>107.16666666666666</ele><time>2026-03-27T15:13:54.999Z</time></trkpt><trkpt lat="45.401552004632975" lon="9.08991151062098"><ele>107.33333333333333</ele><time>2026-03-27T15:13:55.999Z</time></trkpt><trkpt lat="45.401632052152166" lon="9.0898726371751"><ele>107.5</ele><time>2026-03-27T15:13:56.999Z</time></trkpt><trkpt lat="45.401703544299025" lon="9.089843253881401"><ele>107.66666666666666</ele><time>2026-03-27T15:13:57.999Z</time></trkpt><trkpt lat="45.40179020663521" lon="9.089806523287567"><ele>107.83333333333333</ele><time>2026-03-27T15:13:58.999Z</time></trkpt><trkpt lat="45.401876148030475" lon="9.089770221052817"><ele>108.0</ele><time>2026-03-27T15:13:59.999Z</time></trkpt><trkpt lat="45.40195938966176" lon="9.089733168164912"><ele>108.0</ele><time>2026-03-27T15:14:00.999Z</time></trkpt><trkpt lat="45.402044915435155" lon="9.089704895053142"><ele>108.00000000000001</ele><time>2026-03-27T15:14:01.999Z</time></trkpt><trkpt lat="45.40213309881853" lon="9.089672197840432"><ele>108.00000000000001</ele><time>2026-03-27T15:14:02.999Z</time></trkpt><trkpt lat="45.40223586819759" lon="9.089629828607823"><ele>108.0</ele><time>2026-03-27T15:14:03.999Z</time></trkpt><trkpt lat="45.40234642531201" lon="9.089584404879295"><ele>108.0</ele><time>2026-03-27T15:14:04.999Z</time></trkpt><trkpt lat="45.40244466557278" lon="9.089543179242222"><ele>107.80000000000001</ele><time>2026-03-27T15:14:05.999Z</time></trkpt><trkpt lat="45.402535256226294" lon="9.089505447745818"><ele>107.60000000000001</ele><time>2026-03-27T15:14:06.999Z</time></trkpt><trkpt lat="45.40263950450418" lon="9.089460507714433"><ele>107.39999999999999</ele><time>2026-03-27T15:14:07.999Z</time></trkpt><trkpt lat="45.40273317793693" lon="9.089420545409883"><ele>107.19999999999999</ele><time>2026-03-27T15:14:08.999Z</time></trkpt><trkpt lat="45.40281337522962" lon="9.089388142334933"><ele>107.0</ele><time>2026-03-27T15:14:09.999Z</time></trkpt><trkpt lat="45.402891909140465" lon="9.089356580652373"><ele>106.99999999999999</ele><time>2026-03-27T15:14:10.999Z</time></trkpt><trkpt lat="45.40296076718362" lon="9.089325602437228"><ele>107.0</ele><time>2026-03-27T15:14:11.999Z</time></trkpt><trkpt lat="45.4030312473941" lon="9.089294914870141"><ele>107.0</ele><time>2026-03-27T15:14:12.999Z</time></trkpt><trkpt lat="45.40309365306091" lon="9.089269811229487"><ele>107.0</ele><time>2026-03-27T15:14:13.999Z</time></trkpt><trkpt lat="45.403183395103916" lon="9.089214226736697"><ele>106.99999999999999</ele><time>2026-03-27T15:14:15.999Z</time></trkpt><trkpt lat="45.4032605378413" lon="9.089187634640462"><ele>107.0</ele><time>2026-03-27T15:14:18.999Z</time></trkpt><trkpt lat="45.40332930451342" lon="9.089295670420002"><ele>107.0</ele><time>2026-03-27T15:14:21.999Z</time></trkpt><trkpt lat="45.40326443973771" lon="9.089216559776117"><ele>106.99999999999999</ele><time>2026-03-27T15:15:44.999Z</time></trkpt><trkpt lat="45.40315818046583" lon="9.089239739295678"><ele>106.99999999999999</ele><time>2026-03-27T15:15:47.999Z</time></trkpt><trkpt lat="45.40309058080438" lon="9.089265229535243"><ele>107.0</ele><time>2026-03-27T15:15:48.999Z</time></trkpt><trkpt lat="45.40298040260119" lon="9.089319881566366"><ele>107.0</ele><time>2026-03-27T15:15:50.999Z</time></trkpt><trkpt lat="45.40287325711093" lon="9.089364477746107"><ele>106.99999999999999</ele><time>2026-03-27T15:15:52.999Z</time></trkpt><trkpt lat="45.40280502927407" lon="9.089394688144267"><ele>107.0</ele><time>2026-03-27T15:15:53.999Z</time></trkpt><trkpt lat="45.402723557075106" lon="9.089427593209765"><ele>107.0</ele><time>2026-03-27T15:15:54.999Z</time></trkpt><trkpt lat="45.4026353676643" lon="9.089461984643979"><ele>107.0</ele><time>2026-03-27T15:15:55.999Z</time></trkpt><trkpt lat="45.40256752040066" lon="9.089490343143606"><ele>106.99999999999999</ele><time>2026-03-27T15:15:56.999Z</time></trkpt><trkpt lat="45.402458937147685" lon="9.089535541788544"><ele>107.0</ele><time>2026-03-27T15:15:58.999Z</time></trkpt><trkpt lat="45.40237213366805" lon="9.089572841496208"><ele>107.0</ele><time>2026-03-27T15:16:00.999Z</time></trkpt><trkpt lat="45.40224555452206" lon="9.08962529081839"><ele>106.99999999999999</ele><time>2026-03-27T15:16:02.999Z</time></trkpt><trkpt lat="45.402151012075635" lon="9.089665154794012"><ele>106.99999999999999</ele><time>2026-03-27T15:16:03.999Z</time></trkpt><trkpt lat="45.40205779899592" lon="9.089702573110085"><ele>107.0</ele><time>2026-03-27T15:16:04.999Z</time></trkpt><trkpt lat="45.4019609488279" lon="9.089740413260776"><ele>107.0</ele><time>2026-03-27T15:16:05.999Z</time></trkpt><trkpt lat="45.401876430831855" lon="9.089775369829557"><ele>106.99999999999999</ele><time>2026-03-27T15:16:06.999Z</time></trkpt><trkpt lat="45.40179421357393" lon="9.089809785692696"><ele>107.0</ele><time>2026-03-27T15:16:07.999Z</time></trkpt><trkpt lat="45.40171071292412" lon="9.089842831294916"><ele>107.0</ele><time>2026-03-27T15:16:08.999Z</time></trkpt><trkpt lat="45.40162792200105" lon="9.089877447952507"><ele>107.0</ele><time>2026-03-27T15:16:09.999Z</time></trkpt><trkpt lat="45.40155146670142" lon="9.089909634564092"><ele>106.99999999999999</ele><time>2026-03-27T15:16:10.999Z</time></trkpt><trkpt lat="45.401478750051844" lon="9.089936065200522"><ele>107.0</ele><time>2026-03-27T15:16:11.999Z</time></trkpt><trkpt lat="45.401350487984615" lon="9.089951586264426"><ele>107.0</ele><time>2026-03-27T15:16:13.999Z</time></trkpt><trkpt lat="45.40128235735932" lon="9.089947971393187"><ele>106.99999999999999</ele><time>2026-03-27T15:16:14.999Z</time></trkpt><trkpt lat="45.401168807790775" lon="9.08999408224634"><ele>106.99999999999999</ele><time>2026-03-27T15:16:16.999Z</time></trkpt><trkpt lat="45.401059533014674" lon="9.090039568849619"><ele>107.0</ele><time>2026-03-27T15:16:18.999Z</time></trkpt><trkpt lat="45.40093581741848" lon="9.09007701650535"><ele>107.0</ele><time>2026-03-27T15:16:20.999Z</time></trkpt><trkpt lat="45.40086617235376" lon="9.090102164136988"><ele>106.99999999999999</ele><time>2026-03-27T15:16:21.999Z</time></trkpt><trkpt lat="45.400796576278026" lon="9.090121186111075"><ele>107.0</ele><time>2026-03-27T15:16:22.999Z</time></trkpt><trkpt lat="45.40071906653115" lon="9.090132872853255"><ele>107.0</ele><time>2026-03-27T15:16:23.999Z</time></trkpt><trkpt lat="45.400640234173004" lon="9.090139257400299"><ele>107.0</ele><time>2026-03-27T15:16:24.999Z</time></trkpt><trkpt lat="45.40055544763572" lon="9.09015026140602"><ele>106.99999999999999</ele><time>2026-03-27T15:16:25.999Z</time></trkpt><trkpt lat="45.40044685844688" lon="9.090172900338798"><ele>107.0</ele><time>2026-03-27T15:16:26.999Z</time></trkpt><trkpt lat="45.40033932470038" lon="9.090204186335876"><ele>106.49999999999999</ele><time>2026-03-27T15:16:27.999Z</time></trkpt><trkpt lat="45.400249013531926" lon="9.090229020938718"><ele>106.0</ele><time>2026-03-27T15:16:28.999Z</time></trkpt><trkpt lat="45.40016962582294" lon="9.090255699045729"><ele>105.5</ele><time>2026-03-27T15:16:29.999Z</time></trkpt><trkpt lat="45.40009003524012" lon="9.0902990848927"><ele>105.0</ele><time>2026-03-27T15:16:30.999Z</time></trkpt><trkpt lat="45.40002367569266" lon="9.090355773412561"><ele>104.49999999999999</ele><time>2026-03-27T15:16:31.999Z</time></trkpt><trkpt lat="45.39995447166714" lon="9.090413110192774"><ele>104.0</ele><time>2026-03-27T15:16:32.999Z</time></trkpt><trkpt lat="45.39986614362268" lon="9.090467123248333"><ele>103.99999999999999</ele><time>2026-03-27T15:16:33.999Z</time></trkpt><trkpt lat="45.3997816410199" lon="9.090510920901435"><ele>104.0</ele><time>2026-03-27T15:16:34.999Z</time></trkpt><trkpt lat="45.39970405610327" lon="9.090545601464108"><ele>104.0</ele><time>2026-03-27T15:16:35.999Z</time></trkpt><trkpt lat="45.39962780664751" lon="9.090575060498397"><ele>104.0</ele><time>2026-03-27T15:16:36.999Z</time></trkpt><trkpt lat="45.39954599835711" lon="9.090600623624448"><ele>103.99999999999999</ele><time>2026-03-27T15:16:37.999Z</time></trkpt><trkpt lat="45.39946585761399" lon="9.090614077959513"><ele>104.0</ele><time>2026-03-27T15:16:38.999Z</time></trkpt><trkpt lat="45.39937912414562" lon="9.0906170256298"><ele>104.2</ele><time>2026-03-27T15:16:39.999Z</time></trkpt><trkpt lat="45.39927071663747" lon="9.090624868218105"><ele>104.4</ele><time>2026-03-27T15:16:40.999Z</time></trkpt><trkpt lat="45.39917801847732" lon="9.090645055150196"><ele>104.6</ele><time>2026-03-27T15:16:41.999Z</time></trkpt><trkpt lat="45.39909036752662" lon="9.090673815776396"><ele>104.8</ele><time>2026-03-27T15:16:42.999Z</time></trkpt><trkpt lat="45.39899100309637" lon="9.090706632985203"><ele>105.0</ele><time>2026-03-27T15:16:43.999Z</time></trkpt><trkpt lat="45.3989051585544" lon="9.090732479625686"><ele>105.0</ele><time>2026-03-27T15:16:44.999Z</time></trkpt><trkpt lat="45.39882865366187" lon="9.09074842553513"><ele>105.0</ele><time>2026-03-27T15:16:45.999Z</time></trkpt><trkpt lat="45.39876313061928" lon="9.090753768118903"><ele>105.0</ele><time>2026-03-27T15:16:46.999Z</time></trkpt><trkpt lat="45.39869742327696" lon="9.090747030096791"><ele>105.0</ele><time>2026-03-27T15:16:47.999Z</time></trkpt><trkpt lat="45.398617661315186" lon="9.090741920136427"><ele>105.0</ele><time>2026-03-27T15:16:48.999Z</time></trkpt><trkpt lat="45.398546837211626" lon="9.090752072605612"><ele>105.0</ele><time>2026-03-27T15:16:49.999Z</time></trkpt><trkpt lat="45.39847049689579" lon="9.090787748165848"><ele>105.0</ele><time>2026-03-27T15:16:50.999Z</time></trkpt><trkpt lat="45.398385819352455" lon="9.090849375353105"><ele>105.0</ele><time>2026-03-27T15:16:51.999Z</time></trkpt><trkpt lat="45.39829787107272" lon="9.090917133358495"><ele>105.0</ele><time>2026-03-27T15:16:52.999Z</time></trkpt><trkpt lat="45.39820459728721" lon="9.090974337377046"><ele>105.0</ele><time>2026-03-27T15:16:53.999Z</time></trkpt><trkpt lat="45.3981226607939" lon="9.09101803874933"><ele>105.0</ele><time>2026-03-27T15:16:54.999Z</time></trkpt><trkpt lat="45.39805903806826" lon="9.091047071624637"><ele>105.0</ele><time>2026-03-27T15:16:55.999Z</time></trkpt><trkpt lat="45.39795176331058" lon="9.091104049291934"><ele>105.16666666666667</ele><time>2026-03-27T15:16:57.999Z</time></trkpt><trkpt lat="45.39788226115639" lon="9.09114857677674"><ele>105.33333333333334</ele><time>2026-03-27T15:16:58.999Z</time></trkpt><trkpt lat="45.39782420661703" lon="9.091186884638839"><ele>105.5</ele><time>2026-03-27T15:16:59.999Z</time></trkpt><trkpt lat="45.39773168949652" lon="9.091231320485559"><ele>105.66666666666667</ele><time>2026-03-27T15:17:01.999Z</time></trkpt><trkpt lat="45.39762909440902" lon="9.091276825117754"><ele>105.83333333333334</ele><time>2026-03-27T15:17:03.999Z</time></trkpt><trkpt lat="45.3975470963733" lon="9.0912916409486"><ele>106.0</ele><time>2026-03-27T15:17:05.999Z</time></trkpt><trkpt lat="45.397443292799274" lon="9.091269401174346"><ele>106.0</ele><time>2026-03-27T15:17:07.999Z</time></trkpt><trkpt lat="45.397328964682906" lon="9.09125959929283"><ele>106.0</ele><time>2026-03-27T15:17:09.999Z</time></trkpt><trkpt lat="45.39720160984202" lon="9.09124726403607"><ele>106.0</ele><time>2026-03-27T15:17:11.999Z</time></trkpt><trkpt lat="45.39710459235604" lon="9.091244759718743"><ele>106.0</ele><time>2026-03-27T15:17:13.999Z</time></trkpt><trkpt lat="45.39703439065721" lon="9.091264879972695"><ele>106.0</ele><time>2026-03-27T15:17:16.999Z</time></trkpt><trkpt lat="45.39697051946588" lon="9.09129089836625"><ele>106.19999999999999</ele><time>2026-03-27T15:17:22.999Z</time></trkpt><trkpt lat="45.39689961067627" lon="9.091317487837383"><ele>106.39999999999999</ele><time>2026-03-27T15:17:25.999Z</time></trkpt><trkpt lat="45.396832731843254" lon="9.091313800552989"><ele>106.6</ele><time>2026-03-27T15:17:28Z</time></trkpt><trkpt lat="45.396756958442566" lon="9.091246041403853"><ele>106.8</ele><time>2026-03-27T15:17:31Z</time></trkpt><trkpt lat="45.396662051250544" lon="9.091214056750035"><ele>107.0</ele><time>2026-03-27T15:17:34Z</time></trkpt><trkpt lat="45.39652743806018" lon="9.091286584380134"><ele>106.99999999999999</ele><time>2026-03-27T15:17:36Z</time></trkpt><trkpt lat="45.396446091459865" lon="9.091323186708369"><ele>107.0</ele><time>2026-03-27T15:17:37Z</time></trkpt><trkpt lat="45.396354106492005" lon="9.091360320215749"><ele>107.0</ele><time>2026-03-27T15:17:38Z</time></trkpt><trkpt lat="45.396277718783615" lon="9.091389630543551"><ele>107.0</ele><time>2026-03-27T15:17:39Z</time></trkpt><trkpt lat="45.39620285049694" lon="9.09142356447919"><ele>106.99999999999999</ele><time>2026-03-27T15:17:40Z</time></trkpt><trkpt lat="45.39612358930012" lon="9.091473285886229"><ele>107.0</ele><time>2026-03-27T15:17:41Z</time></trkpt><trkpt lat="45.3960523889225" lon="9.091546687996013"><ele>106.75</ele><time>2026-03-27T15:17:42Z</time></trkpt><trkpt lat="45.395967038065386" lon="9.091649166610424"><ele>106.5</ele><time>2026-03-27T15:17:43Z</time></trkpt><trkpt lat="45.39586957861222" lon="9.09174839669441"><ele>106.25</ele><time>2026-03-27T15:17:44Z</time></trkpt><trkpt lat="45.39577060426636" lon="9.091833469227854"><ele>106.0</ele><time>2026-03-27T15:17:45Z</time></trkpt><trkpt lat="45.39566893496404" lon="9.09191289367146"><ele>106.0</ele><time>2026-03-27T15:17:46Z</time></trkpt><trkpt lat="45.395557410164486" lon="9.091990513749916"><ele>106.0</ele><time>2026-03-27T15:17:47Z</time></trkpt><trkpt lat="45.39544559993623" lon="9.092058098609927"><ele>106.0</ele><time>2026-03-27T15:17:48Z</time></trkpt><trkpt lat="45.39533957037228" lon="9.092116556329941"><ele>106.0</ele><time>2026-03-27T15:17:49Z</time></trkpt><trkpt lat="45.3952377451822" lon="9.092171575652152"><ele>105.83333333333334</ele><time>2026-03-27T15:17:50Z</time></trkpt><trkpt lat="45.39514268783031" lon="9.092227690443902"><ele>105.66666666666667</ele><time>2026-03-27T15:17:51Z</time></trkpt><trkpt lat="45.39506226761592" lon="9.09228367323864"><ele>105.5</ele><time>2026-03-27T15:17:52Z</time></trkpt><trkpt lat="45.39498177606963" lon="9.092338901006803"><ele>105.33333333333334</ele><time>2026-03-27T15:17:53Z</time></trkpt><trkpt lat="45.39490655489953" lon="9.092386320604241"><ele>105.16666666666667</ele><time>2026-03-27T15:17:54Z</time></trkpt><trkpt lat="45.39484111060134" lon="9.092428846094196"><ele>105.0</ele><time>2026-03-27T15:17:55Z</time></trkpt><trkpt lat="45.3947609706371" lon="9.092464781202892"><ele>105.0</ele><time>2026-03-27T15:17:56Z</time></trkpt><trkpt lat="45.39466233349804" lon="9.092475793540736"><ele>105.0</ele><time>2026-03-27T15:17:56.999Z</time></trkpt><trkpt lat="45.39455638650801" lon="9.092474078172234"><ele>105.0</ele><time>2026-03-27T15:17:57.999Z</time></trkpt><trkpt lat="45.39445819761305" lon="9.092465050611855"><ele>105.0</ele><time>2026-03-27T15:17:58.999Z</time></trkpt><trkpt lat="45.39434485498826" lon="9.092448281976655"><ele>105.0</ele><time>2026-03-27T15:17:59.999Z</time></trkpt><trkpt lat="45.394228929662276" lon="9.092429723238748"><ele>105.0</ele><time>2026-03-27T15:18:00.999Z</time></trkpt><trkpt lat="45.394127271330476" lon="9.092409456406362"><ele>105.0</ele><time>2026-03-27T15:18:01.999Z</time></trkpt><trkpt lat="45.39404070186278" lon="9.092386796152919"><ele>105.0</ele><time>2026-03-27T15:18:02.999Z</time></trkpt><trkpt lat="45.3939493111691" lon="9.092361020524924"><ele>105.0</ele><time>2026-03-27T15:18:03.999Z</time></trkpt><trkpt lat="45.39385324195554" lon="9.092339438036799"><ele>105.0</ele><time>2026-03-27T15:18:04.999Z</time></trkpt><trkpt lat="45.39376988764401" lon="9.09232609040902"><ele>105.0</ele><time>2026-03-27T15:18:05.999Z</time></trkpt><trkpt lat="45.39368665742954" lon="9.092328567681871"><ele>105.0</ele><time>2026-03-27T15:18:06.999Z</time></trkpt><trkpt lat="45.393601176918004" lon="9.092351201494841"><ele>105.0</ele><time>2026-03-27T15:18:07.999Z</time></trkpt><trkpt lat="45.39350067664035" lon="9.092381188154778"><ele>105.0</ele><time>2026-03-27T15:18:08.999Z</time></trkpt><trkpt lat="45.39341976191135" lon="9.092407164872993"><ele>105.0</ele><time>2026-03-27T15:18:09.999Z</time></trkpt><trkpt lat="45.39334643294651" lon="9.092426560037183"><ele>105.0</ele><time>2026-03-27T15:18:10.999Z</time></trkpt><trkpt lat="45.39328334332776" lon="9.092444993110147"><ele>105.0</ele><time>2026-03-27T15:18:11.999Z</time></trkpt><trkpt lat="45.39319628875787" lon="9.092491381553522"><ele>105.0</ele><time>2026-03-27T15:18:13.999Z</time></trkpt><trkpt lat="45.39312922099458" lon="9.092550210367751"><ele>105.0</ele><time>2026-03-27T15:18:15.999Z</time></trkpt><trkpt lat="45.393076951663595" lon="9.09264304238653"><ele>105.0</ele><time>2026-03-27T15:18:19.999Z</time></trkpt><trkpt lat="45.39298356939971" lon="9.092690828519235"><ele>105.0</ele><time>2026-03-27T15:18:22.999Z</time></trkpt><trkpt lat="45.39292199159067" lon="9.092720294023863"><ele>105.0</ele><time>2026-03-27T15:18:23.999Z</time></trkpt><trkpt lat="45.39283815417728" lon="9.092776369578877"><ele>105.33333333333333</ele><time>2026-03-27T15:18:25.999Z</time></trkpt><trkpt lat="45.39275444638067" lon="9.092843105945093"><ele>105.66666666666666</ele><time>2026-03-27T15:18:27.999Z</time></trkpt><trkpt lat="45.39268760260999" lon="9.092900308721777"><ele>106.0</ele><time>2026-03-27T15:18:29.999Z</time></trkpt><trkpt lat="45.39262147643889" lon="9.092985655663464"><ele>106.33333333333333</ele><time>2026-03-27T15:18:32.999Z</time></trkpt><trkpt lat="45.392585567997266" lon="9.093064757173195"><ele>106.66666666666666</ele><time>2026-03-27T15:18:33.999Z</time></trkpt><trkpt lat="45.39253992118291" lon="9.093163164872134"><ele>107.0</ele><time>2026-03-27T15:18:34.999Z</time></trkpt><trkpt lat="45.3924771388435" lon="9.093245270110883"><ele>106.8</ele><time>2026-03-27T15:18:35.999Z</time></trkpt><trkpt lat="45.39239881693938" lon="9.09332760021995"><ele>106.6</ele><time>2026-03-27T15:18:36.999Z</time></trkpt><trkpt lat="45.392331702301625" lon="9.09340390617613"><ele>106.39999999999999</ele><time>2026-03-27T15:18:37.999Z</time></trkpt><trkpt lat="45.392276394547" lon="9.09347210742006"><ele>106.19999999999999</ele><time>2026-03-27T15:18:38.999Z</time></trkpt><trkpt lat="45.39219371137083" lon="9.093584933138636"><ele>106.0</ele><time>2026-03-27T15:18:40.999Z</time></trkpt><trkpt lat="45.39219342412625" lon="9.09374640999576"><ele>106.00000000000001</ele><time>2026-03-27T15:18:42.999Z</time></trkpt><trkpt lat="45.392247716904556" lon="9.09384381600589"><ele>106.0</ele><time>2026-03-27T15:18:43.999Z</time></trkpt><trkpt lat="45.39231647709116" lon="9.093936907796756"><ele>106.0</ele><time>2026-03-27T15:18:44.999Z</time></trkpt><trkpt lat="45.392378746812746" lon="9.094016201690975"><ele>106.0</ele><time>2026-03-27T15:18:45.999Z</time></trkpt><trkpt lat="45.39242195864087" lon="9.094087719300042"><ele>106.00000000000001</ele><time>2026-03-27T15:18:46.999Z</time></trkpt><trkpt lat="45.392463256560255" lon="9.09418332700423"><ele>106.0</ele><time>2026-03-27T15:18:48.999Z</time></trkpt><trkpt lat="45.392455989030495" lon="9.094281248385895"><ele>106.0</ele><time>2026-03-27T15:18:50.999Z</time></trkpt><trkpt lat="45.39237693044074" lon="9.09435570170394"><ele>106.0</ele><time>2026-03-27T15:18:52.999Z</time></trkpt><trkpt lat="45.392302991818966" lon="9.09443555879314"><ele>106.0</ele><time>2026-03-27T15:18:54.999Z</time></trkpt><trkpt lat="45.39225364966984" lon="9.094498914845065"><ele>106.0</ele><time>2026-03-27T15:18:55.999Z</time></trkpt><trkpt lat="45.3921813905436" lon="9.094580907798202"><ele>106.0</ele><time>2026-03-27T15:18:56.999Z</time></trkpt><trkpt lat="45.3920929597605" lon="9.094678167087173"><ele>106.0</ele><time>2026-03-27T15:18:57.999Z</time></trkpt><trkpt lat="45.39201426717899" lon="9.094759437794616"><ele>106.0</ele><time>2026-03-27T15:18:58.999Z</time></trkpt><trkpt lat="45.39194456851964" lon="9.094831837909338"><ele>106.0</ele><time>2026-03-27T15:18:59.999Z</time></trkpt><trkpt lat="45.39188373957256" lon="9.09489634117726"><ele>106.0</ele><time>2026-03-27T15:19:00.999Z</time></trkpt><trkpt lat="45.39180560966591" lon="9.095011088648144"><ele>106.0</ele><time>2026-03-27T15:19:02.999Z</time></trkpt><trkpt lat="45.3918892700901" lon="9.09520199433707"><ele>106.0</ele><time>2026-03-27T15:19:04.999Z</time></trkpt><trkpt lat="45.391963724293106" lon="9.095335523533691"><ele>106.0</ele><time>2026-03-27T15:19:05.999Z</time></trkpt><trkpt lat="45.39204024167246" lon="9.095490670471943"><ele>106.0</ele><time>2026-03-27T15:19:06.999Z</time></trkpt><trkpt lat="45.392105150818644" lon="9.095617082943804"><ele>106.0</ele><time>2026-03-27T15:19:07.999Z</time></trkpt><trkpt lat="45.392144655181816" lon="9.09574312329456"><ele>105.8</ele><time>2026-03-27T15:19:08.999Z</time></trkpt><trkpt lat="45.3921978220908" lon="9.095816262720517"><ele>105.6</ele><time>2026-03-27T15:19:09.999Z</time></trkpt><trkpt lat="45.392196730009545" lon="9.095974942272743"><ele>105.4</ele><time>2026-03-27T15:19:11.999Z</time></trkpt><trkpt lat="45.3921790247983" lon="9.096079288827685"><ele>105.2</ele><time>2026-03-27T15:19:12.999Z</time></trkpt><trkpt lat="45.3920964433011" lon="9.096150080292173"><ele>105.0</ele><time>2026-03-27T15:19:13.999Z</time></trkpt><trkpt lat="45.39201375730439" lon="9.096265920503418"><ele>105.0</ele><time>2026-03-27T15:19:14.999Z</time></trkpt><trkpt lat="45.39192610931516" lon="9.096418850892801"><ele>105.0</ele><time>2026-03-27T15:19:15.999Z</time></trkpt><trkpt lat="45.39181881515594" lon="9.096564294404677"><ele>105.0</ele><time>2026-03-27T15:19:16.999Z</time></trkpt><trkpt lat="45.39170602960485" lon="9.09672259899819"><ele>105.0</ele><time>2026-03-27T15:19:17.999Z</time></trkpt><trkpt lat="45.39158996788671" lon="9.096882100115021"><ele>104.75</ele><time>2026-03-27T15:19:18.999Z</time></trkpt><trkpt lat="45.39149090078001" lon="9.097021457869381"><ele>104.5</ele><time>2026-03-27T15:19:19.999Z</time></trkpt><trkpt lat="45.391399258640526" lon="9.09714931917437"><ele>104.25</ele><time>2026-03-27T15:19:20.999Z</time></trkpt><trkpt lat="45.39132579544952" lon="9.097250595374305"><ele>104.0</ele><time>2026-03-27T15:19:21.999Z</time></trkpt><trkpt lat="45.39126631848027" lon="9.097330726278141"><ele>104.4</ele><time>2026-03-27T15:19:22.999Z</time></trkpt><trkpt lat="45.39121530464455" lon="9.097404042698235"><ele>104.80000000000001</ele><time>2026-03-27T15:19:23.999Z</time></trkpt><trkpt lat="45.39117084519327" lon="9.097563553338553"><ele>105.19999999999999</ele><time>2026-03-27T15:19:25.999Z</time></trkpt><trkpt lat="45.391188559453944" lon="9.09766834532612"><ele>105.6</ele><time>2026-03-27T15:19:26.999Z</time></trkpt><trkpt lat="45.39125058999909" lon="9.097769562573117"><ele>106.0</ele><time>2026-03-27T15:19:27.999Z</time></trkpt><trkpt lat="45.39133899124039" lon="9.097867324980342"><ele>105.5</ele><time>2026-03-27T15:19:28.999Z</time></trkpt><trkpt lat="45.39142377865542" lon="9.098004812999395"><ele>105.0</ele><time>2026-03-27T15:19:29.999Z</time></trkpt><trkpt lat="45.39143970638259" lon="9.098178792439048"><ele>104.5</ele><time>2026-03-27T15:19:30.999Z</time></trkpt><trkpt lat="45.39146358163117" lon="9.09837080388283"><ele>104.0</ele><time>2026-03-27T15:19:31.999Z</time></trkpt><trkpt lat="45.391506589427735" lon="9.098587643090207"><ele>104.0</ele><time>2026-03-27T15:19:33Z</time></trkpt><trkpt lat="45.391544275387155" lon="9.098829692505067"><ele>104.0</ele><time>2026-03-27T15:19:34Z</time></trkpt><trkpt lat="45.391584821083825" lon="9.099090152764939"><ele>104.0</ele><time>2026-03-27T15:19:35Z</time></trkpt><trkpt lat="45.39162056794666" lon="9.099360227167553"><ele>104.0</ele><time>2026-03-27T15:19:36Z</time></trkpt><trkpt lat="45.39165470094414" lon="9.099592396120965"><ele>104.0</ele><time>2026-03-27T15:19:37Z</time></trkpt><trkpt lat="45.39168467171564" lon="9.09979718312552"><ele>104.0</ele><time>2026-03-27T15:19:38Z</time></trkpt><trkpt lat="45.39171431754038" lon="9.099993708780982"><ele>104.0</ele><time>2026-03-27T15:19:39Z</time></trkpt><trkpt lat="45.39172625118892" lon="9.100179153219534"><ele>104.0</ele><time>2026-03-27T15:19:40Z</time></trkpt><trkpt lat="45.391750936691636" lon="9.100346762650187"><ele>104.0</ele><time>2026-03-27T15:19:41Z</time></trkpt><trkpt lat="45.39177432892584" lon="9.100503457775815"><ele>104.0</ele><time>2026-03-27T15:19:42Z</time></trkpt><trkpt lat="45.39181107133898" lon="9.100642204159731"><ele>104.0</ele><time>2026-03-27T15:19:43Z</time></trkpt><trkpt lat="45.39183317834502" lon="9.100775187266864"><ele>104.0</ele><time>2026-03-27T15:19:44Z</time></trkpt><trkpt lat="45.391840778193064" lon="9.100905322962298"><ele>104.0</ele><time>2026-03-27T15:19:45Z</time></trkpt><trkpt lat="45.39186325177151" lon="9.101018576165183"><ele>104.0</ele><time>2026-03-27T15:19:46Z</time></trkpt><trkpt lat="45.39189009172817" lon="9.101117561575132"><ele>104.0</ele><time>2026-03-27T15:19:47Z</time></trkpt><trkpt lat="45.39191000288035" lon="9.101266281185547"><ele>104.0</ele><time>2026-03-27T15:19:49Z</time></trkpt><trkpt lat="45.39181591004756" lon="9.101348708372972"><ele>104.0</ele><time>2026-03-27T15:19:51Z</time></trkpt><trkpt lat="45.3917228208832" lon="9.101337431610846"><ele>104.0</ele><time>2026-03-27T15:19:52Z</time></trkpt><trkpt lat="45.39160021907496" lon="9.101361799252564"><ele>104.0</ele><time>2026-03-27T15:19:53Z</time></trkpt><trkpt lat="45.391454455610805" lon="9.101402894697273"><ele>104.33333333333333</ele><time>2026-03-27T15:19:54Z</time></trkpt><trkpt lat="45.391294582656315" lon="9.10139077507486"><ele>104.66666666666666</ele><time>2026-03-27T15:19:55Z</time></trkpt><trkpt lat="45.391126830038445" lon="9.101386236237953"><ele>105.0</ele><time>2026-03-27T15:19:56Z</time></trkpt><trkpt lat="45.390975637052605" lon="9.101377157164709"><ele>105.0</ele><time>2026-03-27T15:19:57Z</time></trkpt><trkpt lat="45.390838492964505" lon="9.101394672164947"><ele>105.0</ele><time>2026-03-27T15:19:58Z</time></trkpt><trkpt lat="45.39070571521754" lon="9.101371076762907"><ele>105.0</ele><time>2026-03-27T15:19:59Z</time></trkpt><trkpt lat="45.39058271559185" lon="9.101376065199641"><ele>105.0</ele><time>2026-03-27T15:20:00Z</time></trkpt><trkpt lat="45.39047374917919" lon="9.101410834645279"><ele>104.4</ele><time>2026-03-27T15:20:01Z</time></trkpt><trkpt lat="45.39037368867865" lon="9.101416367861363"><ele>103.8</ele><time>2026-03-27T15:20:02Z</time></trkpt><trkpt lat="45.39028747854099" lon="9.101443534791978"><ele>103.19999999999999</ele><time>2026-03-27T15:20:03Z</time></trkpt><trkpt lat="45.39020859199983" lon="9.1014216676346"><ele>102.6</ele><time>2026-03-27T15:20:04Z</time></trkpt><trkpt lat="45.39010934508259" lon="9.101468157765511"><ele>102.0</ele><time>2026-03-27T15:20:06Z</time></trkpt><trkpt lat="45.39004456906797" lon="9.101527889391111"><ele>102.25</ele><time>2026-03-27T15:20:07Z</time></trkpt><trkpt lat="45.3899550889841" lon="9.101618429945203"><ele>102.5</ele><time>2026-03-27T15:20:08Z</time></trkpt><trkpt lat="45.38983565466463" lon="9.10172113370574"><ele>102.75</ele><time>2026-03-27T15:20:08.999Z</time></trkpt><trkpt lat="45.38970818637057" lon="9.101831426355178"><ele>103.0</ele><time>2026-03-27T15:20:09.999Z</time></trkpt><trkpt lat="45.38955702434669" lon="9.101966626778971"><ele>103.0</ele><time>2026-03-27T15:20:10.999Z</time></trkpt><trkpt lat="45.38937991028938" lon="9.102125035292266"><ele>103.0</ele><time>2026-03-27T15:20:11.999Z</time></trkpt><trkpt lat="45.38922141878222" lon="9.102261586030993"><ele>103.0</ele><time>2026-03-27T15:20:12.999Z</time></trkpt><trkpt lat="45.38908005008772" lon="9.102379136935237"><ele>103.0</ele><time>2026-03-27T15:20:13.999Z</time></trkpt><trkpt lat="45.38894863427814" lon="9.102491031461025"><ele>103.0</ele><time>2026-03-27T15:20:14.999Z</time></trkpt><trkpt lat="45.3888232338778" lon="9.102597867865745"><ele>103.0</ele><time>2026-03-27T15:20:15.999Z</time></trkpt><trkpt lat="45.38868906993503" lon="9.102709940010843"><ele>103.0</ele><time>2026-03-27T15:20:16.999Z</time></trkpt><trkpt lat="45.3885422161153" lon="9.102839681939715"><ele>103.0</ele><time>2026-03-27T15:20:17.999Z</time></trkpt><trkpt lat="45.38840205434935" lon="9.10296695925913"><ele>103.0</ele><time>2026-03-27T15:20:18.999Z</time></trkpt><trkpt lat="45.38827620916042" lon="9.103078447261193"><ele>103.0</ele><time>2026-03-27T15:20:19.999Z</time></trkpt><trkpt lat="45.38816283883994" lon="9.103179152912121"><ele>103.0</ele><time>2026-03-27T15:20:20.999Z</time></trkpt><trkpt lat="45.38805837089723" lon="9.103269191025452"><ele>103.0</ele><time>2026-03-27T15:20:21.999Z</time></trkpt><trkpt lat="45.38797184260684" lon="9.103339694243022"><ele>103.0</ele><time>2026-03-27T15:20:22.999Z</time></trkpt><trkpt lat="45.387905159795345" lon="9.10339394356848"><ele>103.0</ele><time>2026-03-27T15:20:23.999Z</time></trkpt><trkpt lat="45.38783861130744" lon="9.103448645608946"><ele>102.83333333333334</ele><time>2026-03-27T15:20:25.999Z</time></trkpt><trkpt lat="45.38777684692723" lon="9.103496900869795"><ele>102.66666666666667</ele><time>2026-03-27T15:20:28.999Z</time></trkpt><trkpt lat="45.38772774990469" lon="9.103560595044842"><ele>102.5</ele><time>2026-03-27T15:20:31.999Z</time></trkpt><trkpt lat="45.38777343315847" lon="9.103732927138191"><ele>102.33333333333334</ele><time>2026-03-27T15:20:34.999Z</time></trkpt><trkpt lat="45.3878308025791" lon="9.103830484802778"><ele>102.16666666666667</ele><time>2026-03-27T15:20:36.999Z</time></trkpt><trkpt lat="45.38786534583999" lon="9.103918159814834"><ele>102.0</ele><time>2026-03-27T15:21:52.999Z</time></trkpt><trkpt lat="45.38792613151754" lon="9.103998947863538"><ele>102.0</ele><time>2026-03-27T15:21:54.999Z</time></trkpt><trkpt lat="45.387963991637335" lon="9.104094666497971"><ele>102.0</ele><time>2026-03-27T15:21:55.999Z</time></trkpt><trkpt lat="45.388016341635726" lon="9.104160477347659"><ele>102.0</ele><time>2026-03-27T15:21:56.999Z</time></trkpt><trkpt lat="45.38805797906126" lon="9.104243181022108"><ele>102.0</ele><time>2026-03-27T15:21:57.999Z</time></trkpt><trkpt lat="45.38810522350077" lon="9.104331859466905"><ele>102.0</ele><time>2026-03-27T15:21:58.999Z</time></trkpt><trkpt lat="45.388151457217525" lon="9.104423823622486"><ele>102.0</ele><time>2026-03-27T15:21:59.999Z</time></trkpt><trkpt lat="45.38819723757217" lon="9.104518941430944"><ele>102.39999999999999</ele><time>2026-03-27T15:22:00.999Z</time></trkpt><trkpt lat="45.38824619671254" lon="9.104619871943784"><ele>102.8</ele><time>2026-03-27T15:22:01.999Z</time></trkpt><trkpt lat="45.38829829866494" lon="9.104728655864527"><ele>103.2</ele><time>2026-03-27T15:22:02.999Z</time></trkpt><trkpt lat="45.38835373832626" lon="9.10484891540466"><ele>103.6</ele><time>2026-03-27T15:22:03.999Z</time></trkpt><trkpt lat="45.3884116485781" lon="9.104977825926822"><ele>104.0</ele><time>2026-03-27T15:22:04.999Z</time></trkpt><trkpt lat="45.388473358298214" lon="9.105117751249768"><ele>104.25</ele><time>2026-03-27T15:22:05.999Z</time></trkpt><trkpt lat="45.38852976321205" lon="9.105253699835425"><ele>104.5</ele><time>2026-03-27T15:22:06.999Z</time></trkpt><trkpt lat="45.38863876561456" lon="9.10547209521968"><ele>104.75</ele><time>2026-03-27T15:22:07.999Z</time></trkpt><trkpt lat="45.38871854523759" lon="9.105645447225088"><ele>105.0</ele><time>2026-03-27T15:22:08.999Z</time></trkpt><trkpt lat="45.38878853075023" lon="9.105800192879629"><ele>104.5</ele><time>2026-03-27T15:22:09.999Z</time></trkpt><trkpt lat="45.388858592254" lon="9.105951824344915"><ele>104.0</ele><time>2026-03-27T15:22:10.999Z</time></trkpt><trkpt lat="45.38892825467856" lon="9.106099749939155"><ele>103.5</ele><time>2026-03-27T15:22:11.999Z</time></trkpt><trkpt lat="45.388990156512506" lon="9.106234070445549"><ele>103.0</ele><time>2026-03-27T15:22:12.999Z</time></trkpt><trkpt lat="45.38901757246498" lon="9.10640029047575"><ele>103.0</ele><time>2026-03-27T15:22:13.999Z</time></trkpt><trkpt lat="45.38902427731704" lon="9.10657820906193"><ele>103.0</ele><time>2026-03-27T15:22:14.999Z</time></trkpt><trkpt lat="45.38902397963798" lon="9.106783865064875"><ele>103.0</ele><time>2026-03-27T15:22:15.999Z</time></trkpt><trkpt lat="45.389042071514716" lon="9.107004256899607"><ele>103.0</ele><time>2026-03-27T15:22:16.999Z</time></trkpt><trkpt lat="45.38905772686684" lon="9.107233100737671"><ele>103.0</ele><time>2026-03-27T15:22:17.999Z</time></trkpt><trkpt lat="45.389084346949076" lon="9.10747165039716"><ele>103.0</ele><time>2026-03-27T15:22:18.999Z</time></trkpt><trkpt lat="45.38911867719263" lon="9.10769052613665"><ele>103.0</ele><time>2026-03-27T15:22:19.999Z</time></trkpt><trkpt lat="45.3891661132274" lon="9.107934196536954"><ele>103.0</ele><time>2026-03-27T15:22:20.999Z</time></trkpt><trkpt lat="45.3892122657478" lon="9.108147472116592"><ele>103.0</ele><time>2026-03-27T15:22:21.999Z</time></trkpt><trkpt lat="45.38925359000452" lon="9.108343669512267"><ele>103.0</ele><time>2026-03-27T15:22:22.999Z</time></trkpt><trkpt lat="45.38929986202389" lon="9.108559904969946"><ele>103.0</ele><time>2026-03-27T15:22:23.999Z</time></trkpt><trkpt lat="45.38934245898984" lon="9.108751638595745"><ele>103.0</ele><time>2026-03-27T15:22:24.999Z</time></trkpt><trkpt lat="45.38938016329204" lon="9.108933296657177"><ele>103.0</ele><time>2026-03-27T15:22:25.999Z</time></trkpt><trkpt lat="45.389405367178746" lon="9.109103103706122"><ele>103.0</ele><time>2026-03-27T15:22:26.999Z</time></trkpt><trkpt lat="45.38941601106694" lon="9.10925200457292"><ele>103.0</ele><time>2026-03-27T15:22:27.999Z</time></trkpt><trkpt lat="45.389419319726315" lon="9.109390214498978"><ele>103.0</ele><time>2026-03-27T15:22:28.999Z</time></trkpt><trkpt lat="45.38942508866584" lon="9.10954228227633"><ele>103.0</ele><time>2026-03-27T15:22:29.999Z</time></trkpt><trkpt lat="45.389430600281024" lon="9.109687341389028"><ele>103.0</ele><time>2026-03-27T15:22:30.999Z</time></trkpt><trkpt lat="45.3894250281944" lon="9.109816923555648"><ele>103.0</ele><time>2026-03-27T15:22:31.999Z</time></trkpt><trkpt lat="45.38939569185869" lon="9.10995969401356"><ele>103.5</ele><time>2026-03-27T15:22:32.999Z</time></trkpt><trkpt lat="45.389391275703005" lon="9.110126619518775"><ele>104.0</ele><time>2026-03-27T15:22:33.999Z</time></trkpt><trkpt lat="45.38936353417561" lon="9.110310927685838"><ele>104.5</ele><time>2026-03-27T15:22:34.999Z</time></trkpt><trkpt lat="45.38935014538215" lon="9.11050737523694"><ele>105.0</ele><time>2026-03-27T15:22:35.999Z</time></trkpt><trkpt lat="45.389313372057714" lon="9.110704128301846"><ele>105.5</ele><time>2026-03-27T15:22:36.999Z</time></trkpt><trkpt lat="45.38930325767767" lon="9.110871381925085"><ele>106.0</ele><time>2026-03-27T15:22:37.999Z</time></trkpt><trkpt lat="45.38928438952642" lon="9.111007490978295"><ele>106.5</ele><time>2026-03-27T15:22:38.999Z</time></trkpt><trkpt lat="45.389243197856295" lon="9.111222676505477"><ele>107.0</ele><time>2026-03-27T15:22:39.999Z</time></trkpt><trkpt lat="45.38919248604203" lon="9.111433989445441"><ele>107.0</ele><time>2026-03-27T15:22:40.999Z</time></trkpt><trkpt lat="45.38918587196362" lon="9.111573828825039"><ele>106.99999999999999</ele><time>2026-03-27T15:22:41.999Z</time></trkpt><trkpt lat="45.38916546918363" lon="9.111718158379027"><ele>106.99999999999999</ele><time>2026-03-27T15:22:42.999Z</time></trkpt><trkpt lat="45.38914187405298" lon="9.111877009530492"><ele>107.0</ele><time>2026-03-27T15:22:43.999Z</time></trkpt><trkpt lat="45.38911554990504" lon="9.112060430710725"><ele>107.0</ele><time>2026-03-27T15:22:44.999Z</time></trkpt><trkpt lat="45.38908274552906" lon="9.112221171862664"><ele>106.99999999999999</ele><time>2026-03-27T15:22:45.999Z</time></trkpt><trkpt lat="45.389060956518456" lon="9.112363152952677"><ele>107.0</ele><time>2026-03-27T15:22:46.999Z</time></trkpt><trkpt lat="45.38904377783492" lon="9.112487479540688"><ele>107.0</ele><time>2026-03-27T15:22:47.999Z</time></trkpt><trkpt lat="45.389031848111635" lon="9.112590007905471"><ele>107.0</ele><time>2026-03-27T15:22:48.999Z</time></trkpt><trkpt lat="45.38902430265903" lon="9.112716678182595"><ele>106.99999999999999</ele><time>2026-03-27T15:22:50.999Z</time></trkpt><trkpt lat="45.38900033135622" lon="9.1128130148304"><ele>107.0</ele><time>2026-03-27T15:22:53.999Z</time></trkpt><trkpt lat="45.389266566955875" lon="9.11288835262365"><ele>107.0</ele><time>2026-03-27T15:22:55.999Z</time></trkpt><trkpt lat="45.389391712088496" lon="9.112916433386136"><ele>107.0</ele><time>2026-03-27T15:22:56.999Z</time></trkpt><trkpt lat="45.3895307978515" lon="9.112957540728184"><ele>107.0</ele><time>2026-03-27T15:22:57.999Z</time></trkpt><trkpt lat="45.389670039496366" lon="9.113000827753961"><ele>107.0</ele><time>2026-03-27T15:22:58.999Z</time></trkpt><trkpt lat="45.38978865454396" lon="9.113038405454947"><ele>107.19999999999999</ele><time>2026-03-27T15:22:59.999Z</time></trkpt><trkpt lat="45.38989926131647" lon="9.113073379963675"><ele>107.39999999999999</ele><time>2026-03-27T15:23:00.999Z</time></trkpt><trkpt lat="45.389998934945964" lon="9.113105037015433"><ele>107.60000000000001</ele><time>2026-03-27T15:23:01.999Z</time></trkpt><trkpt lat="45.390089751936884" lon="9.113135301315152"><ele>107.80000000000001</ele><time>2026-03-27T15:23:02.999Z</time></trkpt><trkpt lat="45.39017068396682" lon="9.113162055204036"><ele>108.0</ele><time>2026-03-27T15:23:03.999Z</time></trkpt><trkpt lat="45.39023784397543" lon="9.11318312763133"><ele>108.0</ele><time>2026-03-27T15:23:04.999Z</time></trkpt><trkpt lat="45.390320488022084" lon="9.113196752472343"><ele>108.00000000000001</ele><time>2026-03-27T15:23:06.999Z</time></trkpt><trkpt lat="45.39038254548467" lon="9.113058498894633"><ele>108.00000000000001</ele><time>2026-03-27T15:23:12.999Z</time></trkpt><trkpt lat="45.39038307007971" lon="9.11294369432341"><ele>108.0</ele><time>2026-03-27T15:23:16.999Z</time></trkpt><trkpt lat="45.39038534548555" lon="9.112763826822084"><ele>108.0</ele><time>2026-03-27T15:23:19.999Z</time></trkpt><trkpt lat="45.39038470273706" lon="9.112643680257957"><ele>108.0</ele><time>2026-03-27T15:23:20.999Z</time></trkpt><trkpt lat="45.390371696226495" lon="9.112510562137139"><ele>108.00000000000001</ele><time>2026-03-27T15:23:21.999Z</time></trkpt><trkpt lat="45.39036298284059" lon="9.112381352258906"><ele>108.00000000000001</ele><time>2026-03-27T15:23:22.999Z</time></trkpt><trkpt lat="45.39036063860924" lon="9.112241288414562"><ele>108.0</ele><time>2026-03-27T15:23:23.999Z</time></trkpt><trkpt lat="45.39035787585142" lon="9.11209529946216"><ele>108.0</ele><time>2026-03-27T15:23:24.999Z</time></trkpt><trkpt lat="45.39036870666428" lon="9.111966236721807"><ele>107.83333333333333</ele><time>2026-03-27T15:23:25.999Z</time></trkpt><trkpt lat="45.39036627008092" lon="9.11185086822847"><ele>107.66666666666666</ele><time>2026-03-27T15:23:26.999Z</time></trkpt><trkpt lat="45.39036429205713" lon="9.111757211787278"><ele>107.5</ele><time>2026-03-27T15:23:27.999Z</time></trkpt><trkpt lat="45.390360763147704" lon="9.111590123267563"><ele>107.33333333333333</ele><time>2026-03-27T15:23:29.999Z</time></trkpt><trkpt lat="45.39035816396082" lon="9.111467055677366"><ele>107.16666666666666</ele><time>2026-03-27T15:23:31.999Z</time></trkpt><trkpt lat="45.390349704917995" lon="9.111369645406644"><ele>107.0</ele><time>2026-03-27T15:23:33.999Z</time></trkpt><trkpt lat="45.3906072679744" lon="9.11128626937973"><ele>106.25</ele><time>2026-03-27T15:23:36.999Z</time></trkpt><trkpt lat="45.390732436624766" lon="9.111248302506443"><ele>105.5</ele><time>2026-03-27T15:23:37.999Z</time></trkpt><trkpt lat="45.39086384643104" lon="9.111202106500635"><ele>104.75</ele><time>2026-03-27T15:23:38.999Z</time></trkpt><trkpt lat="45.3909846952166" lon="9.111157232486708"><ele>104.0</ele><time>2026-03-27T15:23:39.999Z</time></trkpt><trkpt lat="45.391116650715226" lon="9.111115943675692"><ele>104.0</ele><time>2026-03-27T15:23:40.999Z</time></trkpt><trkpt lat="45.39125689368961" lon="9.111071694202854"><ele>104.0</ele><time>2026-03-27T15:23:41.999Z</time></trkpt><trkpt lat="45.39138451699867" lon="9.111026995398635"><ele>104.0</ele><time>2026-03-27T15:23:42.999Z</time></trkpt><trkpt lat="45.39150285636618" lon="9.11098287328241"><ele>104.0</ele><time>2026-03-27T15:23:43.999Z</time></trkpt><trkpt lat="45.39162644184685" lon="9.110943926255938"><ele>104.0</ele><time>2026-03-27T15:23:45Z</time></trkpt><trkpt lat="45.391759170798316" lon="9.110910064911847"><ele>104.0</ele><time>2026-03-27T15:23:46Z</time></trkpt><trkpt lat="45.39187646645248" lon="9.110878199510083"><ele>104.0</ele><time>2026-03-27T15:23:47Z</time></trkpt><trkpt lat="45.39198086704532" lon="9.11084395136524"><ele>104.0</ele><time>2026-03-27T15:23:48Z</time></trkpt><trkpt lat="45.392090802021755" lon="9.11081373347917"><ele>104.0</ele><time>2026-03-27T15:23:49Z</time></trkpt><trkpt lat="45.39220610000916" lon="9.110785648757634"><ele>104.0</ele><time>2026-03-27T15:23:50Z</time></trkpt><trkpt lat="45.392307107641614" lon="9.110754015903503"><ele>104.0</ele><time>2026-03-27T15:23:51.001Z</time></trkpt><trkpt lat="45.39241042352894" lon="9.110713711375944"><ele>104.0</ele><time>2026-03-27T15:23:52.001Z</time></trkpt><trkpt lat="45.39253022329204" lon="9.110679014922335"><ele>103.75</ele><time>2026-03-27T15:23:53.001Z</time></trkpt><trkpt lat="45.39265734290069" lon="9.11064200522533"><ele>103.5</ele><time>2026-03-27T15:23:54.001Z</time></trkpt><trkpt lat="45.39277316583796" lon="9.110605692050136"><ele>103.25</ele><time>2026-03-27T15:23:55.001Z</time></trkpt><trkpt lat="45.39287268992831" lon="9.110575064114126"><ele>103.0</ele><time>2026-03-27T15:23:56.001Z</time></trkpt><trkpt lat="45.39296990549418" lon="9.110543123656822"><ele>103.2</ele><time>2026-03-27T15:23:57.001Z</time></trkpt><trkpt lat="45.39306016517998" lon="9.110512742256441"><ele>103.4</ele><time>2026-03-27T15:23:58.001Z</time></trkpt><trkpt lat="45.39314223402715" lon="9.110490006797933"><ele>103.60000000000001</ele><time>2026-03-27T15:23:59.001Z</time></trkpt><trkpt lat="45.39324595421893" lon="9.110461371066714"><ele>103.80000000000001</ele><time>2026-03-27T15:24:00.001Z</time></trkpt><trkpt lat="45.39335604898573" lon="9.110430645997635"><ele>104.0</ele><time>2026-03-27T15:24:01.001Z</time></trkpt><trkpt lat="45.39348618435257" lon="9.110387262117934"><ele>104.0</ele><time>2026-03-27T15:24:02.001Z</time></trkpt><trkpt lat="45.393601002797965" lon="9.110346483986127"><ele>104.0</ele><time>2026-03-27T15:24:03.001Z</time></trkpt><trkpt lat="45.393692726120555" lon="9.110311848665607"><ele>104.0</ele><time>2026-03-27T15:24:04.001Z</time></trkpt><trkpt lat="45.39377590487281" lon="9.110280674561462"><ele>104.0</ele><time>2026-03-27T15:24:05.001Z</time></trkpt><trkpt lat="45.39386373779619" lon="9.110247835357182"><ele>104.0</ele><time>2026-03-27T15:24:06.001Z</time></trkpt><trkpt lat="45.39396314093615" lon="9.110207316557602"><ele>103.83333333333333</ele><time>2026-03-27T15:24:07.001Z</time></trkpt><trkpt lat="45.39404916734829" lon="9.110174379688857"><ele>103.66666666666666</ele><time>2026-03-27T15:24:08.001Z</time></trkpt><trkpt lat="45.39413166029491" lon="9.110143800141083"><ele>103.5</ele><time>2026-03-27T15:24:09.001Z</time></trkpt><trkpt lat="45.394197887308145" lon="9.11011769383448"><ele>103.33333333333334</ele><time>2026-03-27T15:24:10.001Z</time></trkpt><trkpt lat="45.394312290198236" lon="9.110076181916694"><ele>103.16666666666667</ele><time>2026-03-27T15:24:12.001Z</time></trkpt><trkpt lat="45.39437541119907" lon="9.110055788535936"><ele>103.0</ele><time>2026-03-27T15:24:13.001Z</time></trkpt><trkpt lat="45.39444035507022" lon="9.110028149520643"><ele>103.00000000000001</ele><time>2026-03-27T15:24:14.001Z</time></trkpt><trkpt lat="45.394504807030884" lon="9.110007546726603"><ele>103.0</ele><time>2026-03-27T15:24:15.001Z</time></trkpt><trkpt lat="45.394610144514914" lon="9.1099926447454"><ele>103.0</ele><time>2026-03-27T15:24:17.001Z</time></trkpt><trkpt lat="45.394683230376046" lon="9.109970976444833"><ele>103.0</ele><time>2026-03-27T15:24:19.001Z</time></trkpt><trkpt lat="45.39474624474608" lon="9.109898051056327"><ele>103.00000000000001</ele><time>2026-03-27T15:24:22.001Z</time></trkpt><trkpt lat="45.39475137359812" lon="9.10976164152119"><ele>103.0</ele><time>2026-03-27T15:24:24.001Z</time></trkpt><trkpt lat="45.39473635064407" lon="9.109672881325848"><ele>103.2</ele><time>2026-03-27T15:24:25.001Z</time></trkpt><trkpt lat="45.39469869466388" lon="9.109513092684757"><ele>103.4</ele><time>2026-03-27T15:24:27.001Z</time></trkpt><trkpt lat="45.394672610091604" lon="9.109404437405964"><ele>103.60000000000001</ele><time>2026-03-27T15:24:28.001Z</time></trkpt><trkpt lat="45.39464413605011" lon="9.10927468238331"><ele>103.80000000000001</ele><time>2026-03-27T15:24:29Z</time></trkpt><trkpt lat="45.394612831676376" lon="9.109138136677998"><ele>104.0</ele><time>2026-03-27T15:24:30Z</time></trkpt><trkpt lat="45.39457939202717" lon="9.109020109634557"><ele>104.49999999999999</ele><time>2026-03-27T15:24:31Z</time></trkpt><trkpt lat="45.39454918037922" lon="9.108929952118258"><ele>105.0</ele><time>2026-03-27T15:24:32Z</time></trkpt><trkpt lat="45.394527233704494" lon="9.108836792723796"><ele>105.5</ele><time>2026-03-27T15:24:33Z</time></trkpt><trkpt lat="45.39450444276779" lon="9.108734502980917"><ele>106.0</ele><time>2026-03-27T15:24:34Z</time></trkpt><trkpt lat="45.39448478375279" lon="9.108580512342346"><ele>106.49999999999999</ele><time>2026-03-27T15:24:36Z</time></trkpt><trkpt lat="45.39452916024865" lon="9.108464264005683"><ele>107.0</ele><time>2026-03-27T15:24:38Z</time></trkpt><trkpt lat="45.39464458143106" lon="9.108415663705633"><ele>106.39999999999999</ele><time>2026-03-27T15:24:40Z</time></trkpt><trkpt lat="45.39473093660356" lon="9.108408181246965"><ele>105.79999999999998</ele><time>2026-03-27T15:24:41Z</time></trkpt><trkpt lat="45.39484586357852" lon="9.108398389432205"><ele>105.2</ele><time>2026-03-27T15:24:42Z</time></trkpt><trkpt lat="45.394967554279425" lon="9.10838363420663"><ele>104.6</ele><time>2026-03-27T15:24:43Z</time></trkpt><trkpt lat="45.395073451016614" lon="9.108362772787286"><ele>104.0</ele><time>2026-03-27T15:24:44Z</time></trkpt><trkpt lat="45.39517017725686" lon="9.108331172470598"><ele>104.0</ele><time>2026-03-27T15:24:45Z</time></trkpt><trkpt lat="45.395254920981614" lon="9.10830790410258"><ele>104.0</ele><time>2026-03-27T15:24:46Z</time></trkpt><trkpt lat="45.395345396535824" lon="9.10828145576621"><ele>104.0</ele><time>2026-03-27T15:24:47Z</time></trkpt><trkpt lat="45.39544258040205" lon="9.108246181054545"><ele>104.0</ele><time>2026-03-27T15:24:48Z</time></trkpt><trkpt lat="45.39552655847515" lon="9.108225957936298"><ele>104.0</ele><time>2026-03-27T15:24:49Z</time></trkpt><trkpt lat="45.39562147219479" lon="9.10822250166409"><ele>104.16666666666666</ele><time>2026-03-27T15:24:51Z</time></trkpt><trkpt lat="45.39568507416441" lon="9.108204203465204"><ele>104.33333333333333</ele><time>2026-03-27T15:24:53Z</time></trkpt><trkpt lat="45.39571300575005" lon="9.10809758809459"><ele>104.5</ele><time>2026-03-27T15:24:55Z</time></trkpt><trkpt lat="45.39567482176443" lon="9.107955141841714"><ele>104.66666666666666</ele><time>2026-03-27T15:24:57Z</time></trkpt><trkpt lat="45.39563729223035" lon="9.107871074073037"><ele>104.83333333333333</ele><time>2026-03-27T15:24:58Z</time></trkpt><trkpt lat="45.395597018801034" lon="9.107768220382585"><ele>105.0</ele><time>2026-03-27T15:24:59Z</time></trkpt><trkpt lat="45.39557805333116" lon="9.107665828285366"><ele>105.0</ele><time>2026-03-27T15:25:00Z</time></trkpt><trkpt lat="45.39557514612062" lon="9.107541066568608"><ele>105.0</ele><time>2026-03-27T15:25:01Z</time></trkpt><trkpt lat="45.395568841279776" lon="9.107382554540129"><ele>105.0</ele><time>2026-03-27T15:25:02Z</time></trkpt><trkpt lat="45.39555226080539" lon="9.107225085591562"><ele>105.0</ele><time>2026-03-27T15:25:03Z</time></trkpt><trkpt lat="45.39553345367114" lon="9.107099642249201"><ele>105.0</ele><time>2026-03-27T15:25:04Z</time></trkpt><trkpt lat="45.39551998786498" lon="9.106987318796726"><ele>105.0</ele><time>2026-03-27T15:25:05Z</time></trkpt><trkpt lat="45.39551474100841" lon="9.106880173760192"><ele>105.0</ele><time>2026-03-27T15:25:06Z</time></trkpt><trkpt lat="45.395510296368734" lon="9.106767402324538"><ele>105.0</ele><time>2026-03-27T15:25:07Z</time></trkpt><trkpt lat="45.395501544804716" lon="9.106660788483598"><ele>105.0</ele><time>2026-03-27T15:25:08Z</time></trkpt><trkpt lat="45.39548315585907" lon="9.106560215524452"><ele>105.0</ele><time>2026-03-27T15:25:09Z</time></trkpt><trkpt lat="45.39547428155552" lon="9.106405726219728"><ele>105.0</ele><time>2026-03-27T15:25:11Z</time></trkpt><trkpt lat="45.3954687742724" lon="9.106288898916008"><ele>105.2</ele><time>2026-03-27T15:25:13Z</time></trkpt><trkpt lat="45.39541094259397" lon="9.106196935953907"><ele>105.4</ele><time>2026-03-27T15:25:15Z</time></trkpt><trkpt lat="45.39535271299477" lon="9.106131230534867"><ele>105.6</ele><time>2026-03-27T15:25:17Z</time></trkpt><trkpt lat="45.395262796313936" lon="9.106095213199405"><ele>105.8</ele><time>2026-03-27T15:25:20Z</time></trkpt><trkpt lat="45.395134353380435" lon="9.106116981952008"><ele>106.0</ele><time>2026-03-27T15:25:22Z</time></trkpt><trkpt lat="45.395035018308484" lon="9.106129951975083"><ele>106.0</ele><time>2026-03-27T15:25:23Z</time></trkpt><trkpt lat="45.39491633549366" lon="9.106146922954853"><ele>106.0</ele><time>2026-03-27T15:25:24Z</time></trkpt><trkpt lat="45.394787197165165" lon="9.10616767030883"><ele>106.0</ele><time>2026-03-27T15:25:25Z</time></trkpt><trkpt lat="45.39467731522737" lon="9.106184428802484"><ele>106.0</ele><time>2026-03-27T15:25:26Z</time></trkpt><trkpt lat="45.3945740222882" lon="9.106194292022913"><ele>105.8</ele><time>2026-03-27T15:25:27Z</time></trkpt><trkpt lat="45.39446663026082" lon="9.106192571558065"><ele>105.6</ele><time>2026-03-27T15:25:28Z</time></trkpt><trkpt lat="45.3943612096686" lon="9.106175201542495"><ele>105.4</ele><time>2026-03-27T15:25:29Z</time></trkpt><trkpt lat="45.39427043753364" lon="9.106146869535042"><ele>105.2</ele><time>2026-03-27T15:25:30Z</time></trkpt><trkpt lat="45.394193668481364" lon="9.106103927324604"><ele>105.0</ele><time>2026-03-27T15:25:31Z</time></trkpt><trkpt lat="45.39413179570922" lon="9.106054730867326"><ele>105.0</ele><time>2026-03-27T15:25:32Z</time></trkpt><trkpt lat="45.39401890816802" lon="9.105996102741079"><ele>105.0</ele><time>2026-03-27T15:25:34Z</time></trkpt><trkpt lat="45.39389097557016" lon="9.10601602516549"><ele>105.0</ele><time>2026-03-27T15:25:36Z</time></trkpt><trkpt lat="45.39382861837673" lon="9.106069166144497"><ele>105.0</ele><time>2026-03-27T15:25:37Z</time></trkpt><trkpt lat="45.393756363161486" lon="9.106154209627178"><ele>105.0</ele><time>2026-03-27T15:25:38Z</time></trkpt><trkpt lat="45.39365652326369" lon="9.106276390991356"><ele>104.75</ele><time>2026-03-27T15:25:39Z</time></trkpt><trkpt lat="45.39354206460823" lon="9.106400340324631"><ele>104.5</ele><time>2026-03-27T15:25:40Z</time></trkpt><trkpt lat="45.39344172980429" lon="9.106506928809956"><ele>104.25</ele><time>2026-03-27T15:25:41Z</time></trkpt><trkpt lat="45.39334066537259" lon="9.106612234752491"><ele>104.0</ele><time>2026-03-27T15:25:42Z</time></trkpt><trkpt lat="45.39324065392647" lon="9.106712487376011"><ele>104.0</ele><time>2026-03-27T15:25:43Z</time></trkpt><trkpt lat="45.393150788426915" lon="9.10680174880257"><ele>104.0</ele><time>2026-03-27T15:25:44Z</time></trkpt><trkpt lat="45.39306458258791" lon="9.106891534584028"><ele>104.0</ele><time>2026-03-27T15:25:45Z</time></trkpt><trkpt lat="45.392974647066616" lon="9.106990003971962"><ele>104.0</ele><time>2026-03-27T15:25:46Z</time></trkpt><trkpt lat="45.39288814129982" lon="9.107086831842187"><ele>104.0</ele><time>2026-03-27T15:25:47Z</time></trkpt><trkpt lat="45.392806756975446" lon="9.107171237927384"><ele>104.0</ele><time>2026-03-27T15:25:48Z</time></trkpt><trkpt lat="45.392713540046515" lon="9.10721547049393"><ele>104.0</ele><time>2026-03-27T15:25:49Z</time></trkpt><trkpt lat="45.392643547800496" lon="9.107289975945339"><ele>104.0</ele><time>2026-03-27T15:25:50Z</time></trkpt><trkpt lat="45.392567517707676" lon="9.107392880856269"><ele>104.0</ele><time>2026-03-27T15:25:51.001Z</time></trkpt><trkpt lat="45.39245931948423" lon="9.10749839788483"><ele>104.0</ele><time>2026-03-27T15:25:52.001Z</time></trkpt><trkpt lat="45.39234261816354" lon="9.107607643857266"><ele>103.5</ele><time>2026-03-27T15:25:53.001Z</time></trkpt><trkpt lat="45.39224157491491" lon="9.10769633539906"><ele>103.0</ele><time>2026-03-27T15:25:54.001Z</time></trkpt><trkpt lat="45.39214985975122" lon="9.107808835110847"><ele>102.5</ele><time>2026-03-27T15:25:55.001Z</time></trkpt><trkpt lat="45.39205336755343" lon="9.10790912375006"><ele>102.0</ele><time>2026-03-27T15:25:56.001Z</time></trkpt><trkpt lat="45.3919536183109" lon="9.108016045320982"><ele>102.0</ele><time>2026-03-27T15:25:57.001Z</time></trkpt><trkpt lat="45.391868237186344" lon="9.108117674932602"><ele>102.0</ele><time>2026-03-27T15:25:58.001Z</time></trkpt><trkpt lat="45.391788248803174" lon="9.108210908811127"><ele>102.0</ele><time>2026-03-27T15:25:59.001Z</time></trkpt><trkpt lat="45.39171202681804" lon="9.108303178340384"><ele>102.0</ele><time>2026-03-27T15:26:00.001Z</time></trkpt><trkpt lat="45.391630436873044" lon="9.108403110713478"><ele>102.0</ele><time>2026-03-27T15:26:01.001Z</time></trkpt><trkpt lat="45.3915621872171" lon="9.108485593556821"><ele>102.16666666666667</ele><time>2026-03-27T15:26:02.001Z</time></trkpt><trkpt lat="45.39150529628141" lon="9.108575145878513"><ele>102.33333333333334</ele><time>2026-03-27T15:26:03.001Z</time></trkpt><trkpt lat="45.39144241804581" lon="9.108661091683025"><ele>102.5</ele><time>2026-03-27T15:26:04.001Z</time></trkpt><trkpt lat="45.39137197632203" lon="9.108724253166605"><ele>102.66666666666667</ele><time>2026-03-27T15:26:05.001Z</time></trkpt><trkpt lat="45.391303634290566" lon="9.10880240081843"><ele>102.83333333333334</ele><time>2026-03-27T15:26:06.001Z</time></trkpt><trkpt lat="45.391220077697554" lon="9.108873954228143"><ele>103.0</ele><time>2026-03-27T15:26:07.001Z</time></trkpt><trkpt lat="45.391131294775846" lon="9.10891321863354"><ele>103.5</ele><time>2026-03-27T15:26:08.001Z</time></trkpt><trkpt lat="45.39102375025211" lon="9.108966441238822"><ele>104.0</ele><time>2026-03-27T15:26:09.001Z</time></trkpt><trkpt lat="45.390906317615716" lon="9.10904327128519"><ele>104.5</ele><time>2026-03-27T15:26:10.001Z</time></trkpt><trkpt lat="45.39076442486654" lon="9.109095104010864"><ele>105.0</ele><time>2026-03-27T15:26:11.001Z</time></trkpt><trkpt lat="45.39064452244499" lon="9.109179548749612"><ele>105.0</ele><time>2026-03-27T15:26:12.001Z</time></trkpt><trkpt lat="45.39054485180712" lon="9.109230547334882"><ele>105.0</ele><time>2026-03-27T15:26:13.001Z</time></trkpt><trkpt lat="45.39044439179473" lon="9.109285056429558"><ele>105.0</ele><time>2026-03-27T15:26:14.001Z</time></trkpt><trkpt lat="45.39034108406186" lon="9.109338781776277"><ele>105.0</ele><time>2026-03-27T15:26:15.001Z</time></trkpt><trkpt lat="45.39022626547611" lon="9.109402359937372"><ele>105.0</ele><time>2026-03-27T15:26:16.001Z</time></trkpt><trkpt lat="45.39011198278514" lon="9.109463948084246"><ele>105.0</ele><time>2026-03-27T15:26:17.001Z</time></trkpt><trkpt lat="45.39001307389537" lon="9.109520231716923"><ele>105.0</ele><time>2026-03-27T15:26:18.001Z</time></trkpt><trkpt lat="45.38993358661043" lon="9.109562018292278"><ele>105.0</ele><time>2026-03-27T15:26:19.001Z</time></trkpt><trkpt lat="45.38986616311705" lon="9.109599787579425"><ele>105.0</ele><time>2026-03-27T15:26:20.001Z</time></trkpt><trkpt lat="45.389806124494456" lon="9.109633858378073"><ele>105.0</ele><time>2026-03-27T15:26:21.001Z</time></trkpt><trkpt lat="45.38972768321436" lon="9.109718345915649"><ele>105.0</ele><time>2026-03-27T15:26:23.001Z</time></trkpt><trkpt lat="45.389636995779234" lon="9.109799900893258"><ele>105.0</ele><time>2026-03-27T15:26:25.001Z</time></trkpt><trkpt lat="45.38956990343305" lon="9.109857332932052"><ele>105.0</ele><time>2026-03-27T15:26:27.001Z</time></trkpt><trkpt lat="45.389499819354135" lon="9.109885073170013"><ele>105.0</ele><time>2026-03-27T15:26:30.001Z</time></trkpt><trkpt lat="45.38942993708218" lon="9.109923186005954"><ele>105.0</ele><time>2026-03-27T15:26:34.001Z</time></trkpt><trkpt lat="45.389445357111974" lon="9.109745908533599"><ele>105.0</ele><time>2026-03-27T15:26:36Z</time></trkpt><trkpt lat="45.38945303187303" lon="9.109605547832532"><ele>104.75</ele><time>2026-03-27T15:26:37Z</time></trkpt><trkpt lat="45.389449221687244" lon="9.109470135494089"><ele>104.5</ele><time>2026-03-27T15:26:38Z</time></trkpt><trkpt lat="45.38944089620834" lon="9.109311116620784"><ele>104.25</ele><time>2026-03-27T15:26:39Z</time></trkpt><trkpt lat="45.38942596777513" lon="9.109141665293839"><ele>104.0</ele><time>2026-03-27T15:26:40Z</time></trkpt><trkpt lat="45.389402578014355" lon="9.108950911963738"><ele>104.0</ele><time>2026-03-27T15:26:41Z</time></trkpt><trkpt lat="45.38936242673835" lon="9.108726532678448"><ele>104.0</ele><time>2026-03-27T15:26:42Z</time></trkpt><trkpt lat="45.38930377501343" lon="9.108450031706939"><ele>104.0</ele><time>2026-03-27T15:26:43Z</time></trkpt><trkpt lat="45.389251456008715" lon="9.108195761554141"><ele>103.66666666666666</ele><time>2026-03-27T15:26:44Z</time></trkpt><trkpt lat="45.389198839657496" lon="9.107929889908448"><ele>103.33333333333334</ele><time>2026-03-27T15:26:45Z</time></trkpt><trkpt lat="45.38915512700965" lon="9.107684220517301"><ele>103.0</ele><time>2026-03-27T15:26:46Z</time></trkpt><trkpt lat="45.38911294237557" lon="9.107453972869646"><ele>103.0</ele><time>2026-03-27T15:26:47Z</time></trkpt><trkpt lat="45.389076892003956" lon="9.107236448351744"><ele>103.0</ele><time>2026-03-27T15:26:48Z</time></trkpt><trkpt lat="45.389061201531234" lon="9.107035596452777"><ele>103.0</ele><time>2026-03-27T15:26:49Z</time></trkpt><trkpt lat="45.389058387551955" lon="9.10684911642173"><ele>103.0</ele><time>2026-03-27T15:26:50Z</time></trkpt><trkpt lat="45.389057899354924" lon="9.106660422939633"><ele>103.0</ele><time>2026-03-27T15:26:51Z</time></trkpt><trkpt lat="45.389041293000105" lon="9.10648227484191"><ele>103.0</ele><time>2026-03-27T15:26:52Z</time></trkpt><trkpt lat="45.389022609359046" lon="9.106317392458584"><ele>103.0</ele><time>2026-03-27T15:26:53Z</time></trkpt><trkpt lat="45.38896818305343" lon="9.106148483663361"><ele>103.0</ele><time>2026-03-27T15:26:54Z</time></trkpt><trkpt lat="45.38888236844184" lon="9.105976468425789"><ele>103.66666666666667</ele><time>2026-03-27T15:26:55Z</time></trkpt><trkpt lat="45.388799357152266" lon="9.105750865287309"><ele>104.33333333333334</ele><time>2026-03-27T15:26:56Z</time></trkpt><trkpt lat="45.38868835220461" lon="9.105503880805122"><ele>105.0</ele><time>2026-03-27T15:26:57Z</time></trkpt><trkpt lat="45.38858871928683" lon="9.105285852765759"><ele>105.0</ele><time>2026-03-27T15:26:58Z</time></trkpt><trkpt lat="45.38849965137298" lon="9.105093801815668"><ele>105.0</ele><time>2026-03-27T15:26:59Z</time></trkpt><trkpt lat="45.38841432047792" lon="9.104913675020962"><ele>105.0</ele><time>2026-03-27T15:27:00Z</time></trkpt><trkpt lat="45.388322502954786" lon="9.104718676586419"><ele>104.75</ele><time>2026-03-27T15:27:01Z</time></trkpt><trkpt lat="45.38823241368051" lon="9.104535442970763"><ele>104.5</ele><time>2026-03-27T15:27:02Z</time></trkpt><trkpt lat="45.388149162145446" lon="9.10436874276335"><ele>104.25</ele><time>2026-03-27T15:27:03Z</time></trkpt><trkpt lat="45.38807355426829" lon="9.104223363056699"><ele>104.0</ele><time>2026-03-27T15:27:04Z</time></trkpt><trkpt lat="45.3880087727261" lon="9.104100071909535"><ele>103.66666666666666</ele><time>2026-03-27T15:27:05Z</time></trkpt><trkpt lat="45.38794917537323" lon="9.103989221731046"><ele>103.33333333333333</ele><time>2026-03-27T15:27:06Z</time></trkpt><trkpt lat="45.387893544222635" lon="9.103885748525572"><ele>103.0</ele><time>2026-03-27T15:27:07Z</time></trkpt><trkpt lat="45.387842262377035" lon="9.103792890779486"><ele>102.66666666666666</ele><time>2026-03-27T15:27:08Z</time></trkpt><trkpt lat="45.38778985640954" lon="9.103726919765796"><ele>102.33333333333333</ele><time>2026-03-27T15:27:09Z</time></trkpt><trkpt lat="45.38776629973634" lon="9.103618770285523"><ele>102.0</ele><time>2026-03-27T15:27:10Z</time></trkpt><trkpt lat="45.387739081599044" lon="9.103508780016657"><ele>102.0</ele><time>2026-03-27T15:27:11Z</time></trkpt><trkpt lat="45.38768857911203" lon="9.103411770499179"><ele>102.0</ele><time>2026-03-27T15:27:12Z</time></trkpt><trkpt lat="45.387636525634015" lon="9.103307841075589"><ele>102.0</ele><time>2026-03-27T15:27:13Z</time></trkpt><trkpt lat="45.38758151307298" lon="9.103198763072026"><ele>102.0</ele><time>2026-03-27T15:27:14Z</time></trkpt><trkpt lat="45.387506894329604" lon="9.103050177330328"><ele>102.0</ele><time>2026-03-27T15:27:15Z</time></trkpt><trkpt lat="45.3874212791553" lon="9.102880500447856"><ele>102.0</ele><time>2026-03-27T15:27:16Z</time></trkpt><trkpt lat="45.38734136916116" lon="9.102722194662666"><ele>102.0</ele><time>2026-03-27T15:27:17Z</time></trkpt><trkpt lat="45.38725640458302" lon="9.102553931755098"><ele>102.0</ele><time>2026-03-27T15:27:18Z</time></trkpt><trkpt lat="45.387176027835025" lon="9.102396334754662"><ele>102.0</ele><time>2026-03-27T15:27:19Z</time></trkpt><trkpt lat="45.38708943015692" lon="9.102226539987967"><ele>102.0</ele><time>2026-03-27T15:27:20Z</time></trkpt><trkpt lat="45.38699582173528" lon="9.102040909365932"><ele>102.0</ele><time>2026-03-27T15:27:21Z</time></trkpt><trkpt lat="45.38691319806458" lon="9.101872616975514"><ele>102.0</ele><time>2026-03-27T15:27:22Z</time></trkpt><trkpt lat="45.38682769288018" lon="9.10169845531953"><ele>102.0</ele><time>2026-03-27T15:27:23Z</time></trkpt><trkpt lat="45.38674576268414" lon="9.101535793768878"><ele>102.0</ele><time>2026-03-27T15:27:24Z</time></trkpt><trkpt lat="45.38666548158677" lon="9.10138243627921"><ele>102.0</ele><time>2026-03-27T15:27:25Z</time></trkpt><trkpt lat="45.38659413766118" lon="9.101247751190508"><ele>102.0</ele><time>2026-03-27T15:27:26Z</time></trkpt><trkpt lat="45.38651760079976" lon="9.10110739826356"><ele>102.0</ele><time>2026-03-27T15:27:27Z</time></trkpt><trkpt lat="45.386436749138916" lon="9.100946077344178"><ele>102.0</ele><time>2026-03-27T15:27:28Z</time></trkpt><trkpt lat="45.386349005421614" lon="9.100769001818737"><ele>102.0</ele><time>2026-03-27T15:27:29Z</time></trkpt><trkpt lat="45.38626774647088" lon="9.100608949540092"><ele>102.0</ele><time>2026-03-27T15:27:30Z</time></trkpt><trkpt lat="45.38617949185117" lon="9.100438891838792"><ele>102.25</ele><time>2026-03-27T15:27:31Z</time></trkpt><trkpt lat="45.38609578304665" lon="9.100276701773026"><ele>102.5</ele><time>2026-03-27T15:27:32Z</time></trkpt><trkpt lat="45.386016551719806" lon="9.100123186913157"><ele>102.75</ele><time>2026-03-27T15:27:33Z</time></trkpt><trkpt lat="45.38593557271887" lon="9.099957121303598"><ele>103.0</ele><time>2026-03-27T15:27:34Z</time></trkpt><trkpt lat="45.385871312713945" lon="9.099801745579763"><ele>103.25</ele><time>2026-03-27T15:27:35Z</time></trkpt><trkpt lat="45.385785816770905" lon="9.099656702061095"><ele>103.5</ele><time>2026-03-27T15:27:36Z</time></trkpt><trkpt lat="45.385710530055235" lon="9.099498652256294"><ele>103.75</ele><time>2026-03-27T15:27:37Z</time></trkpt><trkpt lat="45.38562907887484" lon="9.099345539590137"><ele>104.0</ele><time>2026-03-27T15:27:38Z</time></trkpt><trkpt lat="45.385548097247984" lon="9.099220243245778"><ele>104.25</ele><time>2026-03-27T15:27:39Z</time></trkpt><trkpt lat="45.38547305764136" lon="9.099102110412934"><ele>104.5</ele><time>2026-03-27T15:27:40Z</time></trkpt><trkpt lat="45.385405836963926" lon="9.098976515235996"><ele>104.75</ele><time>2026-03-27T15:27:41Z</time></trkpt><trkpt lat="45.38534912829272" lon="9.098814421520599"><ele>105.0</ele><time>2026-03-27T15:27:42Z</time></trkpt><trkpt lat="45.38526670211279" lon="9.09864350480664"><ele>105.0</ele><time>2026-03-27T15:27:43Z</time></trkpt><trkpt lat="45.385177065044836" lon="9.09848234677729"><ele>105.0</ele><time>2026-03-27T15:27:44Z</time></trkpt><trkpt lat="45.38510236448798" lon="9.098313952381542"><ele>105.0</ele><time>2026-03-27T15:27:45Z</time></trkpt><trkpt lat="45.385028883995105" lon="9.098161447685172"><ele>105.0</ele><time>2026-03-27T15:27:46Z</time></trkpt><trkpt lat="45.38495969962741" lon="9.098024451728177"><ele>104.75</ele><time>2026-03-27T15:27:47Z</time></trkpt><trkpt lat="45.384894237247124" lon="9.097896549310624"><ele>104.5</ele><time>2026-03-27T15:27:48Z</time></trkpt><trkpt lat="45.38481344651078" lon="9.097739487892023"><ele>104.25</ele><time>2026-03-27T15:27:49Z</time></trkpt><trkpt lat="45.384739663837095" lon="9.097594806513271"><ele>104.0</ele><time>2026-03-27T15:27:50Z</time></trkpt><trkpt lat="45.38467650724706" lon="9.09746877214197"><ele>104.2</ele><time>2026-03-27T15:27:51Z</time></trkpt><trkpt lat="45.38462305369461" lon="9.097356673736005"><ele>104.4</ele><time>2026-03-27T15:27:52Z</time></trkpt><trkpt lat="45.3845794565884" lon="9.097254213007293"><ele>104.6</ele><time>2026-03-27T15:27:53Z</time></trkpt><trkpt lat="45.384544449346286" lon="9.097172405883722"><ele>104.8</ele><time>2026-03-27T15:27:54Z</time></trkpt><trkpt lat="45.38446118275488" lon="9.097044778627271"><ele>105.0</ele><time>2026-03-27T15:27:56Z</time></trkpt><trkpt lat="45.38439145541586" lon="9.096928276908338"><ele>105.0</ele><time>2026-03-27T15:27:58.001Z</time></trkpt><trkpt lat="45.38432960039979" lon="9.09689834991089"><ele>105.0</ele><time>2026-03-27T15:27:59.001Z</time></trkpt><trkpt lat="45.38425664983601" lon="9.09692122831632"><ele>105.0</ele><time>2026-03-27T15:28:00.001Z</time></trkpt><trkpt lat="45.38419233293199" lon="9.09699828929473"><ele>105.0</ele><time>2026-03-27T15:28:01.001Z</time></trkpt><trkpt lat="45.38412898091333" lon="9.097098290657605"><ele>105.0</ele><time>2026-03-27T15:28:02.001Z</time></trkpt><trkpt lat="45.38403546578176" lon="9.097216107232416"><ele>105.0</ele><time>2026-03-27T15:28:03.001Z</time></trkpt><trkpt lat="45.38392518605617" lon="9.097350291732004"><ele>105.0</ele><time>2026-03-27T15:28:04.001Z</time></trkpt><trkpt lat="45.38379350727021" lon="9.097479690076005"><ele>105.0</ele><time>2026-03-27T15:28:05.001Z</time></trkpt><trkpt lat="45.38369258114146" lon="9.097595555662796"><ele>105.0</ele><time>2026-03-27T15:28:06.001Z</time></trkpt><trkpt lat="45.3835924291994" lon="9.097708346434096"><ele>105.0</ele><time>2026-03-27T15:28:07.001Z</time></trkpt><trkpt lat="45.38350055832716" lon="9.09780676109135"><ele>105.0</ele><time>2026-03-27T15:28:08.001Z</time></trkpt><trkpt lat="45.38341797813471" lon="9.09788665288893"><ele>105.0</ele><time>2026-03-27T15:28:09.001Z</time></trkpt><trkpt lat="45.38334289153139" lon="9.097960182689743"><ele>105.0</ele><time>2026-03-27T15:28:10.001Z</time></trkpt><trkpt lat="45.38327655808794" lon="9.098032311677708"><ele>105.0</ele><time>2026-03-27T15:28:11.001Z</time></trkpt><trkpt lat="45.38322813853961" lon="9.098094905093722"><ele>105.0</ele><time>2026-03-27T15:28:12.001Z</time></trkpt><trkpt lat="45.38316990517664" lon="9.098184371373737"><ele>105.0</ele><time>2026-03-27T15:28:14.001Z</time></trkpt><trkpt lat="45.383130426376646" lon="9.098269523750302"><ele>105.0</ele><time>2026-03-27T15:28:16.001Z</time></trkpt><trkpt lat="45.3830467586296" lon="9.09821549584238"><ele>105.0</ele><time>2026-03-27T15:28:19.001Z</time></trkpt><trkpt lat="45.383028126097436" lon="9.098086832067185"><ele>105.0</ele><time>2026-03-27T15:28:21.001Z</time></trkpt><trkpt lat="45.38295131969379" lon="9.097943424770836"><ele>105.0</ele><time>2026-03-27T15:28:23.001Z</time></trkpt><trkpt lat="45.382909948987994" lon="9.0978552046815"><ele>105.0</ele><time>2026-03-27T15:28:24.001Z</time></trkpt><trkpt lat="45.38281754858386" lon="9.09776238169659"><ele>105.16666666666667</ele><time>2026-03-27T15:28:26.001Z</time></trkpt><trkpt lat="45.38274140015318" lon="9.097838372005045"><ele>105.33333333333334</ele><time>2026-03-27T15:28:27.001Z</time></trkpt><trkpt lat="45.382675490521265" lon="9.097907152053942"><ele>105.5</ele><time>2026-03-27T15:28:28.001Z</time></trkpt><trkpt lat="45.38260600162638" lon="9.09796076984737"><ele>105.66666666666667</ele><time>2026-03-27T15:28:29.001Z</time></trkpt><trkpt lat="45.38255386555965" lon="9.098019050242096"><ele>105.83333333333334</ele><time>2026-03-27T15:28:30.001Z</time></trkpt><trkpt lat="45.38247959348504" lon="9.098127496235284"><ele>106.0</ele><time>2026-03-27T15:28:32.001Z</time></trkpt><trkpt lat="45.382366584832106" lon="9.098234624870507"><ele>105.8</ele><time>2026-03-27T15:28:34.001Z</time></trkpt><trkpt lat="45.38226380072817" lon="9.098333559673847"><ele>105.6</ele><time>2026-03-27T15:28:35.001Z</time></trkpt><trkpt lat="45.38216421606889" lon="9.098427619477185"><ele>105.4</ele><time>2026-03-27T15:28:36.001Z</time></trkpt><trkpt lat="45.3820749660541" lon="9.098481146034663"><ele>105.2</ele><time>2026-03-27T15:28:37.001Z</time></trkpt><trkpt lat="45.38200313390344" lon="9.098554674514883"><ele>105.0</ele><time>2026-03-27T15:28:38.001Z</time></trkpt><trkpt lat="45.381948218588306" lon="9.098635977828751"><ele>104.85714285714286</ele><time>2026-03-27T15:28:39.001Z</time></trkpt><trkpt lat="45.38188446498493" lon="9.098693412959312"><ele>104.71428571428572</ele><time>2026-03-27T15:28:40.001Z</time></trkpt><trkpt lat="45.381826397505435" lon="9.098754585062986"><ele>104.57142857142857</ele><time>2026-03-27T15:28:41.001Z</time></trkpt><trkpt lat="45.381757620818874" lon="9.098828252855009"><ele>104.42857142857143</ele><time>2026-03-27T15:28:42.001Z</time></trkpt><trkpt lat="45.38169490836099" lon="9.09889652782031"><ele>104.28571428571429</ele><time>2026-03-27T15:28:43.001Z</time></trkpt><trkpt lat="45.38165379131391" lon="9.098966847893465"><ele>104.14285714285714</ele><time>2026-03-27T15:28:44.001Z</time></trkpt><trkpt lat="45.381602594466955" lon="9.09902143740683"><ele>104.0</ele><time>2026-03-27T15:28:45.001Z</time></trkpt><trkpt lat="45.38154098348639" lon="9.09908825781673"><ele>104.0</ele><time>2026-03-27T15:28:46.001Z</time></trkpt><trkpt lat="45.381458705212694" lon="9.099173405907381"><ele>104.0</ele><time>2026-03-27T15:28:47.001Z</time></trkpt><trkpt lat="45.38138536902993" lon="9.099250480773037"><ele>104.0</ele><time>2026-03-27T15:28:48.001Z</time></trkpt><trkpt lat="45.381328205357704" lon="9.099313517090158"><ele>104.0</ele><time>2026-03-27T15:28:49.001Z</time></trkpt><trkpt lat="45.38121434260052" lon="9.099293089301835"><ele>104.0</ele><time>2026-03-27T15:28:51Z</time></trkpt><trkpt lat="45.381162180419935" lon="9.099178908759027"><ele>104.4</ele><time>2026-03-27T15:28:52Z</time></trkpt><trkpt lat="45.38106181925808" lon="9.099058326036326"><ele>104.80000000000001</ele><time>2026-03-27T15:28:53Z</time></trkpt><trkpt lat="45.3809691554181" lon="9.098973500432963"><ele>105.19999999999999</ele><time>2026-03-27T15:28:54Z</time></trkpt><trkpt lat="45.38090485564803" lon="9.09889773679451"><ele>105.6</ele><time>2026-03-27T15:28:55Z</time></trkpt><trkpt lat="45.38079174546056" lon="9.098852802948892"><ele>106.0</ele><time>2026-03-27T15:28:57Z</time></trkpt><trkpt lat="45.38071775650631" lon="9.098896495534143"><ele>106.0</ele><time>2026-03-27T15:28:58Z</time></trkpt><trkpt lat="45.38061907204868" lon="9.09898378338174"><ele>106.0</ele><time>2026-03-27T15:28:59Z</time></trkpt><trkpt lat="45.380496658009086" lon="9.099066171701498"><ele>106.0</ele><time>2026-03-27T15:29:00Z</time></trkpt><trkpt lat="45.380407972921866" lon="9.09913944312553"><ele>106.0</ele><time>2026-03-27T15:29:01Z</time></trkpt><trkpt lat="45.380316626503564" lon="9.099220605891071"><ele>106.0</ele><time>2026-03-27T15:29:03Z</time></trkpt><trkpt lat="45.38025251733198" lon="9.09925197305708"><ele>106.0</ele><time>2026-03-27T15:29:05Z</time></trkpt><trkpt lat="45.38018742599574" lon="9.099076468362073"><ele>106.0</ele><time>2026-03-27T15:29:06Z</time></trkpt><trkpt lat="45.38011684796421" lon="9.09898010876023"><ele>106.0</ele><time>2026-03-27T15:29:07Z</time></trkpt><trkpt lat="45.38004132493619" lon="9.098877726948155"><ele>106.0</ele><time>2026-03-27T15:29:08Z</time></trkpt><trkpt lat="45.37998128374308" lon="9.098794641894754"><ele>106.0</ele><time>2026-03-27T15:29:09Z</time></trkpt><trkpt lat="45.379932792115504" lon="9.098717548746013"><ele>106.0</ele><time>2026-03-27T15:29:10Z</time></trkpt><trkpt lat="45.37992575942785" lon="9.098564003747645"><ele>106.0</ele><time>2026-03-27T15:29:12Z</time></trkpt><trkpt lat="45.37997028943226" lon="9.098469390849761"><ele>106.0</ele><time>2026-03-27T15:29:13Z</time></trkpt><trkpt lat="45.38006880395875" lon="9.098440543611888"><ele>106.0</ele><time>2026-03-27T15:29:14Z</time></trkpt><trkpt lat="45.380151566744196" lon="9.098357315376958"><ele>106.0</ele><time>2026-03-27T15:29:15Z</time></trkpt><trkpt lat="45.38024753695014" lon="9.098241072324791"><ele>106.0</ele><time>2026-03-27T15:29:16Z</time></trkpt><trkpt lat="45.380379319668656" lon="9.098127698327849"><ele>106.0</ele><time>2026-03-27T15:29:17Z</time></trkpt><trkpt lat="45.38049799651943" lon="9.097999355424056"><ele>106.0</ele><time>2026-03-27T15:29:18Z</time></trkpt><trkpt lat="45.38060177406558" lon="9.097931470081859"><ele>106.0</ele><time>2026-03-27T15:29:19Z</time></trkpt><trkpt lat="45.380696976170626" lon="9.097854331701877"><ele>106.0</ele><time>2026-03-27T15:29:20Z</time></trkpt><trkpt lat="45.38079764542088" lon="9.09778984847328"><ele>106.0</ele><time>2026-03-27T15:29:21Z</time></trkpt><trkpt lat="45.38089436396002" lon="9.09772572747368"><ele>106.0</ele><time>2026-03-27T15:29:22Z</time></trkpt><trkpt lat="45.38092431449865" lon="9.097644563646911"><ele>106.0</ele><time>2026-03-27T15:29:23Z</time></trkpt><trkpt lat="45.380957305005396" lon="9.097546058045404"><ele>106.0</ele><time>2026-03-27T15:29:24Z</time></trkpt><trkpt lat="45.38094410421513" lon="9.097403941512594"><ele>106.0</ele><time>2026-03-27T15:29:25Z</time></trkpt><trkpt lat="45.38089256930628" lon="9.097260286669878"><ele>106.0</ele><time>2026-03-27T15:29:26Z</time></trkpt><trkpt lat="45.380804607870296" lon="9.097093510083049"><ele>106.0</ele><time>2026-03-27T15:29:27Z</time></trkpt><trkpt lat="45.380717359361846" lon="9.096900832636358"><ele>106.0</ele><time>2026-03-27T15:29:28Z</time></trkpt><trkpt lat="45.38066098572636" lon="9.096752333378895"><ele>106.0</ele><time>2026-03-27T15:29:29Z</time></trkpt><trkpt lat="45.38061955799884" lon="9.096620322389771"><ele>106.0</ele><time>2026-03-27T15:29:30Z</time></trkpt><trkpt lat="45.380593895968445" lon="9.096531753263566"><ele>106.0</ele><time>2026-03-27T15:29:31Z</time></trkpt><trkpt lat="45.38058774461642" lon="9.09643092011923"><ele>106.0</ele><time>2026-03-27T15:29:33Z</time></trkpt><trkpt lat="45.38060469529118" lon="9.096251304225932"><ele>105.83333333333334</ele><time>2026-03-27T15:29:35Z</time></trkpt><trkpt lat="45.380606398816504" lon="9.096153899497729"><ele>105.66666666666667</ele><time>2026-03-27T15:29:36Z</time></trkpt><trkpt lat="45.38057287115396" lon="9.096060704699532"><ele>105.5</ele><time>2026-03-27T15:29:37Z</time></trkpt><trkpt lat="45.380499233958794" lon="9.095994713948686"><ele>105.33333333333334</ele><time>2026-03-27T15:29:38Z</time></trkpt><trkpt lat="45.380432793758274" lon="9.095938808625109"><ele>105.16666666666667</ele><time>2026-03-27T15:29:39Z</time></trkpt><trkpt lat="45.380428730530404" lon="9.095847132151281"><ele>105.0</ele><time>2026-03-27T15:29:40Z</time></trkpt><trkpt lat="45.38039627318299" lon="9.095704472825304"><ele>104.6</ele><time>2026-03-27T15:29:42Z</time></trkpt><trkpt lat="45.38037374748449" lon="9.095598837671806"><ele>104.2</ele><time>2026-03-27T15:29:43Z</time></trkpt><trkpt lat="45.380345722598086" lon="9.09546741390107"><ele>103.80000000000001</ele><time>2026-03-27T15:29:44Z</time></trkpt><trkpt lat="45.380317002259325" lon="9.095346970980893"><ele>103.4</ele><time>2026-03-27T15:29:45Z</time></trkpt><trkpt lat="45.380281937075424" lon="9.095211557363372"><ele>103.0</ele><time>2026-03-27T15:29:46Z</time></trkpt><trkpt lat="45.380236123631526" lon="9.09509823514775"><ele>103.0</ele><time>2026-03-27T15:29:47Z</time></trkpt><trkpt lat="45.38018496850914" lon="9.094993109795906"><ele>103.0</ele><time>2026-03-27T15:29:48Z</time></trkpt><trkpt lat="45.380114966963276" lon="9.09490397508143"><ele>103.0</ele><time>2026-03-27T15:29:49Z</time></trkpt><trkpt lat="45.380038586120946" lon="9.09482447195595"><ele>103.0</ele><time>2026-03-27T15:29:50Z</time></trkpt><trkpt lat="45.37996171246013" lon="9.094777313995891"><ele>103.0</ele><time>2026-03-27T15:29:51Z</time></trkpt><trkpt lat="45.379884751125246" lon="9.094687489846766"><ele>103.0</ele><time>2026-03-27T15:29:52Z</time></trkpt><trkpt lat="45.37979590490761" lon="9.094613087878344"><ele>103.0</ele><time>2026-03-27T15:29:53Z</time></trkpt><trkpt lat="45.379705903315724" lon="9.094538323549177"><ele>103.0</ele><time>2026-03-27T15:29:54Z</time></trkpt><trkpt lat="45.37961980621396" lon="9.094458542150145"><ele>103.0</ele><time>2026-03-27T15:29:55Z</time></trkpt><trkpt lat="45.37953243218945" lon="9.094370576209396"><ele>103.0</ele><time>2026-03-27T15:29:56Z</time></trkpt><trkpt lat="45.37946195572334" lon="9.094272046849307"><ele>102.75</ele><time>2026-03-27T15:29:57Z</time></trkpt><trkpt lat="45.379416101042445" lon="9.09415273794855"><ele>102.5</ele><time>2026-03-27T15:29:58Z</time></trkpt><trkpt lat="45.379353598193994" lon="9.09400436404167"><ele>102.25</ele><time>2026-03-27T15:29:59Z</time></trkpt><trkpt lat="45.37928158198988" lon="9.09382671631286"><ele>102.0</ele><time>2026-03-27T15:30:00Z</time></trkpt><trkpt lat="45.379202188004136" lon="9.093634678713466"><ele>102.0</ele><time>2026-03-27T15:30:01Z</time></trkpt><trkpt lat="45.37913100398428" lon="9.093463733517293"><ele>102.0</ele><time>2026-03-27T15:30:02Z</time></trkpt><trkpt lat="45.379070179316614" lon="9.093307829857094"><ele>102.0</ele><time>2026-03-27T15:30:03.001Z</time></trkpt><trkpt lat="45.379009687664094" lon="9.093147199254972"><ele>102.0</ele><time>2026-03-27T15:30:04.001Z</time></trkpt><trkpt lat="45.378955595159965" lon="9.093004266781342"><ele>102.0</ele><time>2026-03-27T15:30:05.001Z</time></trkpt><trkpt lat="45.37890481537911" lon="9.092877076289211"><ele>102.0</ele><time>2026-03-27T15:30:06.001Z</time></trkpt><trkpt lat="45.37885785545541" lon="9.092764538808902"><ele>102.0</ele><time>2026-03-27T15:30:07.001Z</time></trkpt><trkpt lat="45.37880051510472" lon="9.092628705182705"><ele>102.0</ele><time>2026-03-27T15:30:08.001Z</time></trkpt><trkpt lat="45.37874901328325" lon="9.092513613980655"><ele>102.0</ele><time>2026-03-27T15:30:09.001Z</time></trkpt><trkpt lat="45.37870245743584" lon="9.0924158230019"><ele>102.19999999999999</ele><time>2026-03-27T15:30:10.001Z</time></trkpt><trkpt lat="45.37866258909095" lon="9.092337416849952"><ele>102.4</ele><time>2026-03-27T15:30:11.001Z</time></trkpt><trkpt lat="45.378625594496064" lon="9.092264662473452"><ele>102.6</ele><time>2026-03-27T15:30:12.001Z</time></trkpt><trkpt lat="45.37856471973755" lon="9.09215683379929"><ele>102.80000000000001</ele><time>2026-03-27T15:30:14.001Z</time></trkpt><trkpt lat="45.37852657748554" lon="9.092082069680718"><ele>103.0</ele><time>2026-03-27T15:30:16.001Z</time></trkpt><trkpt lat="45.37838162872942" lon="9.092203922710654"><ele>103.0</ele><time>2026-03-27T15:30:18.001Z</time></trkpt><trkpt lat="45.378325589462186" lon="9.092270393931571"><ele>103.0</ele><time>2026-03-27T15:30:19.001Z</time></trkpt><trkpt lat="45.37824696439784" lon="9.092342990453103"><ele>103.0</ele><time>2026-03-27T15:30:20.001Z</time></trkpt><trkpt lat="45.37816006929922" lon="9.09242117742599"><ele>103.0</ele><time>2026-03-27T15:30:21.001Z</time></trkpt><trkpt lat="45.37808069388978" lon="9.092488046570617"><ele>103.0</ele><time>2026-03-27T15:30:22.001Z</time></trkpt><trkpt lat="45.37798311790221" lon="9.092560702750571"><ele>102.60000000000001</ele><time>2026-03-27T15:30:23.001Z</time></trkpt><trkpt lat="45.37790665026987" lon="9.092620327513876"><ele>102.2</ele><time>2026-03-27T15:30:24.001Z</time></trkpt><trkpt lat="45.37783098521013" lon="9.092677612862701"><ele>101.8</ele><time>2026-03-27T15:30:25.001Z</time></trkpt><trkpt lat="45.377753177227504" lon="9.09272760173995"><ele>101.4</ele><time>2026-03-27T15:30:26.001Z</time></trkpt><trkpt lat="45.37766391652735" lon="9.092792688601836"><ele>101.0</ele><time>2026-03-27T15:30:27.001Z</time></trkpt><trkpt lat="45.37757532640928" lon="9.09287311456806"><ele>101.0</ele><time>2026-03-27T15:30:28.001Z</time></trkpt><trkpt lat="45.3774863849399" lon="9.092941614844392"><ele>101.0</ele><time>2026-03-27T15:30:29.001Z</time></trkpt><trkpt lat="45.377409817643645" lon="9.093005112201991"><ele>101.0</ele><time>2026-03-27T15:30:30.001Z</time></trkpt><trkpt lat="45.37732247038312" lon="9.093080203219372"><ele>101.0</ele><time>2026-03-27T15:30:31.001Z</time></trkpt><trkpt lat="45.37724307970168" lon="9.093144506856099"><ele>101.0</ele><time>2026-03-27T15:30:32.001Z</time></trkpt><trkpt lat="45.37716959404409" lon="9.093197444047625"><ele>101.19999999999999</ele><time>2026-03-27T15:30:33.001Z</time></trkpt><trkpt lat="45.37710679857268" lon="9.093240699437855"><ele>101.39999999999999</ele><time>2026-03-27T15:30:34.001Z</time></trkpt><trkpt lat="45.37698655956823" lon="9.093279687935334"><ele>101.6</ele><time>2026-03-27T15:30:36.001Z</time></trkpt><trkpt lat="45.376880467917985" lon="9.09322971395297"><ele>101.8</ele><time>2026-03-27T15:30:38.001Z</time></trkpt><trkpt lat="45.376820920242494" lon="9.093162837335782"><ele>102.0</ele><time>2026-03-27T15:30:39.001Z</time></trkpt><trkpt lat="45.37676982619091" lon="9.09306813957802"><ele>102.0</ele><time>2026-03-27T15:30:40.001Z</time></trkpt><trkpt lat="45.376723234094726" lon="9.092949195458294"><ele>102.0</ele><time>2026-03-27T15:30:41.001Z</time></trkpt><trkpt lat="45.37669179871783" lon="9.092835847997618"><ele>102.0</ele><time>2026-03-27T15:30:42.001Z</time></trkpt><trkpt lat="45.37666510668744" lon="9.092715030948138"><ele>102.0</ele><time>2026-03-27T15:30:43Z</time></trkpt><trkpt lat="45.376650122045106" lon="9.092590392906502"><ele>102.0</ele><time>2026-03-27T15:30:44Z</time></trkpt><trkpt lat="45.37663954777171" lon="9.09245625968677"><ele>101.83333333333333</ele><time>2026-03-27T15:30:45Z</time></trkpt><trkpt lat="45.376636100293595" lon="9.092333653276592"><ele>101.66666666666666</ele><time>2026-03-27T15:30:46Z</time></trkpt><trkpt lat="45.376639150456" lon="9.092225874343622"><ele>101.5</ele><time>2026-03-27T15:30:47Z</time></trkpt><trkpt lat="45.37662925158488" lon="9.092118646283373"><ele>101.33333333333333</ele><time>2026-03-27T15:30:48Z</time></trkpt><trkpt lat="45.37660304803107" lon="9.091996607778206"><ele>101.16666666666666</ele><time>2026-03-27T15:30:49Z</time></trkpt><trkpt lat="45.37656499173716" lon="9.091864140889477"><ele>101.0</ele><time>2026-03-27T15:30:50Z</time></trkpt><trkpt lat="45.37651858381743" lon="9.091724863252557"><ele>101.0</ele><time>2026-03-27T15:30:51Z</time></trkpt><trkpt lat="45.37647397493993" lon="9.091600446212132"><ele>101.0</ele><time>2026-03-27T15:30:52Z</time></trkpt><trkpt lat="45.37642678049891" lon="9.09145970718622"><ele>101.0</ele><time>2026-03-27T15:30:53Z</time></trkpt><trkpt lat="45.37637894541769" lon="9.091318492032089"><ele>101.0</ele><time>2026-03-27T15:30:54Z</time></trkpt><trkpt lat="45.37633069178555" lon="9.091182244161962"><ele>101.0</ele><time>2026-03-27T15:30:55Z</time></trkpt><trkpt lat="45.37628532044203" lon="9.091048960206379"><ele>101.0</ele><time>2026-03-27T15:30:56Z</time></trkpt><trkpt lat="45.37624492888124" lon="9.09093020296543"><ele>101.0</ele><time>2026-03-27T15:30:57Z</time></trkpt><trkpt lat="45.37620074401045" lon="9.090811475577071"><ele>101.0</ele><time>2026-03-27T15:30:58Z</time></trkpt><trkpt lat="45.37615076779401" lon="9.090677994143649"><ele>101.0</ele><time>2026-03-27T15:30:59Z</time></trkpt><trkpt lat="45.376105595780814" lon="9.090540750493531"><ele>101.0</ele><time>2026-03-27T15:31:00Z</time></trkpt><trkpt lat="45.37606266571713" lon="9.090412570767121"><ele>101.0</ele><time>2026-03-27T15:31:01Z</time></trkpt><trkpt lat="45.37602449435017" lon="9.090297874005566"><ele>101.0</ele><time>2026-03-27T15:31:02Z</time></trkpt><trkpt lat="45.37598907555424" lon="9.090182697954297"><ele>101.0</ele><time>2026-03-27T15:31:03Z</time></trkpt><trkpt lat="45.375947921525814" lon="9.090050884694042"><ele>101.0</ele><time>2026-03-27T15:31:04Z</time></trkpt><trkpt lat="45.37589641802559" lon="9.089913968157243"><ele>101.0</ele><time>2026-03-27T15:31:05Z</time></trkpt><trkpt lat="45.375845229883325" lon="9.089788904234911"><ele>101.0</ele><time>2026-03-27T15:31:06Z</time></trkpt><trkpt lat="45.375799199021685" lon="9.089668992580556"><ele>101.0</ele><time>2026-03-27T15:31:07Z</time></trkpt><trkpt lat="45.37576230676964" lon="9.089562310262766"><ele>101.0</ele><time>2026-03-27T15:31:08Z</time></trkpt><trkpt lat="45.375730613313124" lon="9.089469577381845"><ele>101.0</ele><time>2026-03-27T15:31:09Z</time></trkpt><trkpt lat="45.375706943760555" lon="9.089291935866314"><ele>101.0</ele><time>2026-03-27T15:31:11Z</time></trkpt><trkpt lat="45.37571870785689" lon="9.089187475276994"><ele>101.0</ele><time>2026-03-27T15:31:12Z</time></trkpt><trkpt lat="45.37574593248231" lon="9.08907194571933"><ele>101.0</ele><time>2026-03-27T15:31:13Z</time></trkpt><trkpt lat="45.37577941373392" lon="9.088937564967694"><ele>101.0</ele><time>2026-03-27T15:31:14Z</time></trkpt><trkpt lat="45.37581696885945" lon="9.088784885017455"><ele>101.0</ele><time>2026-03-27T15:31:15Z</time></trkpt><trkpt lat="45.37585691162475" lon="9.088620851489377"><ele>101.0</ele><time>2026-03-27T15:31:16Z</time></trkpt><trkpt lat="45.37589449575666" lon="9.08846637507226"><ele>101.0</ele><time>2026-03-27T15:31:17Z</time></trkpt><trkpt lat="45.37592502094051" lon="9.088321996937855"><ele>101.0</ele><time>2026-03-27T15:31:18Z</time></trkpt><trkpt lat="45.37595725581239" lon="9.088177362596952"><ele>101.0</ele><time>2026-03-27T15:31:19Z</time></trkpt><trkpt lat="45.37598527042234" lon="9.088043309208333"><ele>101.0</ele><time>2026-03-27T15:31:20Z</time></trkpt><trkpt lat="45.37601003632626" lon="9.087920092927476"><ele>101.0</ele><time>2026-03-27T15:31:21Z</time></trkpt><trkpt lat="45.37603414855889" lon="9.087813752212053"><ele>101.33333333333333</ele><time>2026-03-27T15:31:22Z</time></trkpt><trkpt lat="45.376060055585604" lon="9.087702130083617"><ele>101.66666666666666</ele><time>2026-03-27T15:31:23Z</time></trkpt><trkpt lat="45.376081052893696" lon="9.087604404390007"><ele>102.0</ele><time>2026-03-27T15:31:24Z</time></trkpt><trkpt lat="45.37609724190631" lon="9.087517308541006"><ele>102.33333333333334</ele><time>2026-03-27T15:31:25Z</time></trkpt><trkpt lat="45.37611550020789" lon="9.087377564536254"><ele>102.66666666666667</ele><time>2026-03-27T15:31:27Z</time></trkpt><trkpt lat="45.37614872700956" lon="9.087231745291167"><ele>103.0</ele><time>2026-03-27T15:31:29Z</time></trkpt><trkpt lat="45.3761224491533" lon="9.08708139501253"><ele>103.0</ele><time>2026-03-27T15:31:31Z</time></trkpt><trkpt lat="45.37609240884362" lon="9.086962061528391"><ele>103.0</ele><time>2026-03-27T15:31:32Z</time></trkpt><trkpt lat="45.37605407343273" lon="9.086817662557836"><ele>103.0</ele><time>2026-03-27T15:31:33Z</time></trkpt><trkpt lat="45.37600675254273" lon="9.086636731860333"><ele>103.0</ele><time>2026-03-27T15:31:34Z</time></trkpt><trkpt lat="45.375964460968454" lon="9.0864557116846"><ele>103.0</ele><time>2026-03-27T15:31:35Z</time></trkpt><trkpt lat="45.375924616707" lon="9.086273865751668"><ele>103.0</ele><time>2026-03-27T15:31:36Z</time></trkpt><trkpt lat="45.3758964566493" lon="9.086129166429314"><ele>103.0</ele><time>2026-03-27T15:31:37Z</time></trkpt><trkpt lat="45.37587073699247" lon="9.085996774060153"><ele>103.0</ele><time>2026-03-27T15:31:38Z</time></trkpt><trkpt lat="45.37584746342128" lon="9.085873241109491"><ele>103.0</ele><time>2026-03-27T15:31:39Z</time></trkpt><trkpt lat="45.37582341587983" lon="9.085737858919762"><ele>103.0</ele><time>2026-03-27T15:31:40Z</time></trkpt><trkpt lat="45.375796282751935" lon="9.0855810200137"><ele>103.0</ele><time>2026-03-27T15:31:41Z</time></trkpt><trkpt lat="45.37577218078018" lon="9.085445501993764"><ele>103.0</ele><time>2026-03-27T15:31:42Z</time></trkpt><trkpt lat="45.375750831715976" lon="9.08532431748106"><ele>103.0</ele><time>2026-03-27T15:31:43Z</time></trkpt><trkpt lat="45.3757324307591" lon="9.085226325012778"><ele>103.0</ele><time>2026-03-27T15:31:44Z</time></trkpt><trkpt lat="45.37570977531174" lon="9.085087335432842"><ele>103.0</ele><time>2026-03-27T15:31:46Z</time></trkpt><trkpt lat="45.375672719188934" lon="9.084999995612126"><ele>103.0</ele><time>2026-03-27T15:31:48Z</time></trkpt><trkpt lat="45.37558388043174" lon="9.084976186564152"><ele>103.0</ele><time>2026-03-27T15:31:50Z</time></trkpt><trkpt lat="45.37551628946903" lon="9.084970961884869"><ele>103.0</ele><time>2026-03-27T15:31:51Z</time></trkpt><trkpt lat="45.3754167626624" lon="9.085004951529003"><ele>103.0</ele><time>2026-03-27T15:31:52Z</time></trkpt><trkpt lat="45.3752906529924" lon="9.085048011500222"><ele>103.0</ele><time>2026-03-27T15:31:53Z</time></trkpt><trkpt lat="45.37516868913086" lon="9.085089539692246"><ele>103.0</ele><time>2026-03-27T15:31:54Z</time></trkpt><trkpt lat="45.375062117164276" lon="9.085125826864639"><ele>103.0</ele><time>2026-03-27T15:31:55Z</time></trkpt><trkpt lat="45.374944201366986" lon="9.08516711871452"><ele>103.0</ele><time>2026-03-27T15:31:56Z</time></trkpt><trkpt lat="45.37484182243322" lon="9.08520446694084"><ele>103.0</ele><time>2026-03-27T15:31:57Z</time></trkpt><trkpt lat="45.37472206625035" lon="9.085248057130787"><ele>103.0</ele><time>2026-03-27T15:31:58Z</time></trkpt><trkpt lat="45.37458055794183" lon="9.085296485548294"><ele>103.0</ele><time>2026-03-27T15:31:59Z</time></trkpt><trkpt lat="45.374433867391275" lon="9.085349111026792"><ele>103.0</ele><time>2026-03-27T15:32:00Z</time></trkpt><trkpt lat="45.374278554261" lon="9.085406719238796"><ele>103.5</ele><time>2026-03-27T15:32:01Z</time></trkpt><trkpt lat="45.37413705185945" lon="9.085463872495373"><ele>104.0</ele><time>2026-03-27T15:32:02Z</time></trkpt><trkpt lat="45.37401053104379" lon="9.085517120709078"><ele>104.5</ele><time>2026-03-27T15:32:03Z</time></trkpt><trkpt lat="45.3739031717574" lon="9.085563314844785"><ele>105.0</ele><time>2026-03-27T15:32:04Z</time></trkpt><trkpt lat="45.373781962157246" lon="9.085615468375254"><ele>105.0</ele><time>2026-03-27T15:32:05Z</time></trkpt><trkpt lat="45.37365122513944" lon="9.085671757476076"><ele>105.0</ele><time>2026-03-27T15:32:06Z</time></trkpt><trkpt lat="45.373529452723844" lon="9.085726291785843"><ele>105.0</ele><time>2026-03-27T15:32:07Z</time></trkpt><trkpt lat="45.37340195434097" lon="9.08578339049501"><ele>105.0</ele><time>2026-03-27T15:32:08Z</time></trkpt><trkpt lat="45.37328532959175" lon="9.085835619541603"><ele>104.6</ele><time>2026-03-27T15:32:09.001Z</time></trkpt><trkpt lat="45.37316722672157" lon="9.08589148194055"><ele>104.2</ele><time>2026-03-27T15:32:10.001Z</time></trkpt><trkpt lat="45.373066238159325" lon="9.085939723958816"><ele>103.80000000000001</ele><time>2026-03-27T15:32:11.001Z</time></trkpt><trkpt lat="45.372974284054806" lon="9.085983289150986"><ele>103.4</ele><time>2026-03-27T15:32:12.001Z</time></trkpt><trkpt lat="45.372892207431214" lon="9.086020443173203"><ele>103.0</ele><time>2026-03-27T15:32:13.001Z</time></trkpt><trkpt lat="45.372818957454314" lon="9.08605487137632"><ele>102.80000000000001</ele><time>2026-03-27T15:32:14.001Z</time></trkpt><trkpt lat="45.37272189439694" lon="9.086112695283164"><ele>102.6</ele><time>2026-03-27T15:32:16.001Z</time></trkpt><trkpt lat="45.372630825578355" lon="9.08609592782053"><ele>102.4</ele><time>2026-03-27T15:32:18.001Z</time></trkpt><trkpt lat="45.37257121711624" lon="9.085956498398208"><ele>102.19999999999999</ele><time>2026-03-27T15:32:20.001Z</time></trkpt><trkpt lat="45.37256352663204" lon="9.085852348051871"><ele>102.0</ele><time>2026-03-27T15:32:21.001Z</time></trkpt><trkpt lat="45.37255356350202" lon="9.085747688766713"><ele>102.0</ele><time>2026-03-27T15:32:22.001Z</time></trkpt><trkpt lat="45.372532785886136" lon="9.085587509551107"><ele>102.0</ele><time>2026-03-27T15:32:24.001Z</time></trkpt><trkpt lat="45.37251183128401" lon="9.085473093768814"><ele>102.0</ele><time>2026-03-27T15:32:26.001Z</time></trkpt><trkpt lat="45.37248513246532" lon="9.085365441150044"><ele>102.0</ele><time>2026-03-27T15:32:30.001Z</time></trkpt><trkpt lat="45.37243246916994" lon="9.085271664915924"><ele>102.0</ele><time>2026-03-27T15:32:32.001Z</time></trkpt><trkpt lat="45.37234269250856" lon="9.085268867794406"><ele>102.0</ele><time>2026-03-27T15:32:34.001Z</time></trkpt><trkpt lat="45.37224984129522" lon="9.085271064421011"><ele>102.0</ele><time>2026-03-27T15:32:36.001Z</time></trkpt><trkpt lat="45.37213999430056" lon="9.085249034066289"><ele>102.0</ele><time>2026-03-27T15:32:38.001Z</time></trkpt><trkpt lat="45.372065459524364" lon="9.085243607057913"><ele>102.0</ele><time>2026-03-27T15:32:39.001Z</time></trkpt><trkpt lat="45.371975728703944" lon="9.085230277268778"><ele>102.0</ele><time>2026-03-27T15:32:40Z</time></trkpt><trkpt lat="45.37188933746052" lon="9.085215960571995"><ele>102.0</ele><time>2026-03-27T15:32:41Z</time></trkpt><trkpt lat="45.37178056853284" lon="9.085195532768779"><ele>102.0</ele><time>2026-03-27T15:32:42Z</time></trkpt><trkpt lat="45.37164478927794" lon="9.085169402660242"><ele>102.0</ele><time>2026-03-27T15:32:43Z</time></trkpt><trkpt lat="45.37152281059822" lon="9.085145928387842"><ele>102.0</ele><time>2026-03-27T15:32:44Z</time></trkpt><trkpt lat="45.37139466160264" lon="9.085120858670418"><ele>102.0</ele><time>2026-03-27T15:32:45Z</time></trkpt><trkpt lat="45.37124326793592" lon="9.08508963810166"><ele>102.0</ele><time>2026-03-27T15:32:46Z</time></trkpt><trkpt lat="45.37111021416727" lon="9.085061565856773"><ele>102.0</ele><time>2026-03-27T15:32:47Z</time></trkpt><trkpt lat="45.37097509208425" lon="9.085033057222516"><ele>102.0</ele><time>2026-03-27T15:32:48Z</time></trkpt><trkpt lat="45.37085275182809" lon="9.085006345367043"><ele>102.0</ele><time>2026-03-27T15:32:49Z</time></trkpt><trkpt lat="45.37074362882558" lon="9.084981069568485"><ele>102.0</ele><time>2026-03-27T15:32:50Z</time></trkpt><trkpt lat="45.37061892343435" lon="9.084951261573197"><ele>102.0</ele><time>2026-03-27T15:32:51Z</time></trkpt><trkpt lat="45.370499453967" lon="9.08492331593589"><ele>102.0</ele><time>2026-03-27T15:32:52Z</time></trkpt><trkpt lat="45.370409332915784" lon="9.084901949003342"><ele>102.0</ele><time>2026-03-27T15:32:53Z</time></trkpt><trkpt lat="45.37034434716415" lon="9.084886497315642"><ele>101.8</ele><time>2026-03-27T15:32:54Z</time></trkpt><trkpt lat="45.370278306335955" lon="9.084870794999828"><ele>101.6</ele><time>2026-03-27T15:32:56Z</time></trkpt><trkpt lat="45.370172326608916" lon="9.08484559633878"><ele>101.39999999999999</ele><time>2026-03-27T15:32:58Z</time></trkpt><trkpt lat="45.37007997965268" lon="9.084823639107539"><ele>101.19999999999999</ele><time>2026-03-27T15:33:00Z</time></trkpt><trkpt lat="45.36998429063165" lon="9.084802341630597"><ele>101.0</ele><time>2026-03-27T15:33:02Z</time></trkpt><trkpt lat="45.36988224610359" lon="9.084779955911204"><ele>101.0</ele><time>2026-03-27T15:33:04Z</time></trkpt><trkpt lat="45.3697513634474" lon="9.084753064407375"><ele>101.0</ele><time>2026-03-27T15:33:06Z</time></trkpt><trkpt lat="45.36966774042417" lon="9.084734456737083"><ele>101.0</ele><time>2026-03-27T15:33:07Z</time></trkpt><trkpt lat="45.36960252776222" lon="9.084715144328339"><ele>101.0</ele><time>2026-03-27T15:33:08Z</time></trkpt><trkpt lat="45.369521709258365" lon="9.084671832902519"><ele>101.0</ele><time>2026-03-27T15:33:10Z</time></trkpt><trkpt lat="45.36944352091829" lon="9.084525590057963"><ele>101.16666666666666</ele><time>2026-03-27T15:33:12Z</time></trkpt><trkpt lat="45.369401625055374" lon="9.084439870053851"><ele>101.33333333333333</ele><time>2026-03-27T15:33:13Z</time></trkpt><trkpt lat="45.36934606174787" lon="9.084367080059335"><ele>101.5</ele><time>2026-03-27T15:33:14Z</time></trkpt><trkpt lat="45.36932310094092" lon="9.084270275767919"><ele>101.66666666666666</ele><time>2026-03-27T15:33:15Z</time></trkpt><trkpt lat="45.36926205195182" lon="9.084139369342848"><ele>101.83333333333333</ele><time>2026-03-27T15:33:17Z</time></trkpt><trkpt lat="45.369170372110325" lon="9.084067947243868"><ele>102.0</ele><time>2026-03-27T15:33:19Z</time></trkpt><trkpt lat="45.369102678476914" lon="9.084065043837418"><ele>102.0</ele><time>2026-03-27T15:33:20Z</time></trkpt><trkpt lat="45.369028403925704" lon="9.084102876218772"><ele>102.0</ele><time>2026-03-27T15:33:21Z</time></trkpt><trkpt lat="45.36891873915081" lon="9.084109051277839"><ele>102.0</ele><time>2026-03-27T15:33:22Z</time></trkpt><trkpt lat="45.36879039590823" lon="9.084129579721877"><ele>102.0</ele><time>2026-03-27T15:33:23Z</time></trkpt><trkpt lat="45.36866820025979" lon="9.084141504131605"><ele>102.0</ele><time>2026-03-27T15:33:24Z</time></trkpt><trkpt lat="45.36855429434333" lon="9.084152453818602"><ele>102.19999999999999</ele><time>2026-03-27T15:33:25Z</time></trkpt><trkpt lat="45.36844692668789" lon="9.084162774988844"><ele>102.4</ele><time>2026-03-27T15:33:26Z</time></trkpt><trkpt lat="45.36832734523002" lon="9.08417565794787"><ele>102.6</ele><time>2026-03-27T15:33:27Z</time></trkpt><trkpt lat="45.368219540079586" lon="9.08418880250968"><ele>102.80000000000001</ele><time>2026-03-27T15:33:28Z</time></trkpt><trkpt lat="45.36811173100112" lon="9.084205838375114"><ele>103.0</ele><time>2026-03-27T15:33:29Z</time></trkpt><trkpt lat="45.36799908889774" lon="9.08422431475116"><ele>102.60000000000001</ele><time>2026-03-27T15:33:30Z</time></trkpt><trkpt lat="45.36788398449734" lon="9.08424584667674"><ele>102.2</ele><time>2026-03-27T15:33:31Z</time></trkpt><trkpt lat="45.36777554654505" lon="9.084266131549564"><ele>101.8</ele><time>2026-03-27T15:33:32Z</time></trkpt><trkpt lat="45.367664127044335" lon="9.084283059447284"><ele>101.4</ele><time>2026-03-27T15:33:33Z</time></trkpt><trkpt lat="45.367562559743796" lon="9.084298087138196"><ele>101.0</ele><time>2026-03-27T15:33:34Z</time></trkpt><trkpt lat="45.36745479730389" lon="9.084314028326009"><ele>101.0</ele><time>2026-03-27T15:33:35Z</time></trkpt><trkpt lat="45.36735181928187" lon="9.084351773352472"><ele>101.0</ele><time>2026-03-27T15:33:36Z</time></trkpt><trkpt lat="45.36723033636905" lon="9.084360287304763"><ele>101.0</ele><time>2026-03-27T15:33:37Z</time></trkpt><trkpt lat="45.36712367399044" lon="9.084397222299755"><ele>101.0</ele><time>2026-03-27T15:33:38Z</time></trkpt><trkpt lat="45.36701095715598" lon="9.084444302931024"><ele>101.19999999999999</ele><time>2026-03-27T15:33:39Z</time></trkpt><trkpt lat="45.366904501376055" lon="9.08445728138064"><ele>101.39999999999999</ele><time>2026-03-27T15:33:40Z</time></trkpt><trkpt lat="45.366807462894506" lon="9.084472438834611"><ele>101.6</ele><time>2026-03-27T15:33:41Z</time></trkpt><trkpt lat="45.36672670003625" lon="9.08448018417142"><ele>101.8</ele><time>2026-03-27T15:33:42Z</time></trkpt><trkpt lat="45.36661540506009" lon="9.084485193025605"><ele>102.0</ele><time>2026-03-27T15:33:43Z</time></trkpt><trkpt lat="45.36647298681588" lon="9.08448808434976"><ele>101.8</ele><time>2026-03-27T15:33:44Z</time></trkpt><trkpt lat="45.36635788737979" lon="9.08450655488722"><ele>101.6</ele><time>2026-03-27T15:33:45Z</time></trkpt><trkpt lat="45.36625920876231" lon="9.084467970016766"><ele>101.39999999999999</ele><time>2026-03-27T15:33:46Z</time></trkpt><trkpt lat="45.36616662918021" lon="9.084439901325585"><ele>101.19999999999999</ele><time>2026-03-27T15:33:47Z</time></trkpt><trkpt lat="45.36606701532213" lon="9.084406202749165"><ele>101.0</ele><time>2026-03-27T15:33:48Z</time></trkpt><trkpt lat="45.36595114676055" lon="9.084372814915108"><ele>101.0</ele><time>2026-03-27T15:33:49Z</time></trkpt><trkpt lat="45.36582015168091" lon="9.084353214944976"><ele>101.0</ele><time>2026-03-27T15:33:50Z</time></trkpt><trkpt lat="45.365683986706394" lon="9.084364513745312"><ele>101.0</ele><time>2026-03-27T15:33:51Z</time></trkpt><trkpt lat="45.36556123510605" lon="9.084358648984365"><ele>101.0</ele><time>2026-03-27T15:33:52Z</time></trkpt><trkpt lat="45.36544277268213" lon="9.084348394639767"><ele>101.25</ele><time>2026-03-27T15:33:53Z</time></trkpt><trkpt lat="45.36533506090755" lon="9.084354332367182"><ele>101.5</ele><time>2026-03-27T15:33:54Z</time></trkpt><trkpt lat="45.365214128314705" lon="9.084358568895938"><ele>101.75</ele><time>2026-03-27T15:33:55Z</time></trkpt><trkpt lat="45.36509932054099" lon="9.084359786906974"><ele>102.0</ele><time>2026-03-27T15:33:56Z</time></trkpt><trkpt lat="45.36498484987076" lon="9.08435982226078"><ele>102.0</ele><time>2026-03-27T15:33:57Z</time></trkpt><trkpt lat="45.36487769791374" lon="9.084356727624659"><ele>102.0</ele><time>2026-03-27T15:33:58Z</time></trkpt><trkpt lat="45.36476889133055" lon="9.084349935914434"><ele>102.0</ele><time>2026-03-27T15:33:59Z</time></trkpt><trkpt lat="45.36466704909188" lon="9.084351049866887"><ele>102.0</ele><time>2026-03-27T15:34:00Z</time></trkpt><trkpt lat="45.36458087261684" lon="9.084343388698567"><ele>102.0</ele><time>2026-03-27T15:34:01Z</time></trkpt><trkpt lat="45.36449796313826" lon="9.084339965505318"><ele>102.0</ele><time>2026-03-27T15:34:02Z</time></trkpt><trkpt lat="45.36442234687818" lon="9.084303984240558"><ele>102.0</ele><time>2026-03-27T15:34:03Z</time></trkpt><trkpt lat="45.36434393807074" lon="9.084282650116814"><ele>102.0</ele><time>2026-03-27T15:34:04Z</time></trkpt><trkpt lat="45.36423400170989" lon="9.084248738401277"><ele>102.0</ele><time>2026-03-27T15:34:06Z</time></trkpt><trkpt lat="45.36414700951545" lon="9.084218989684343"><ele>102.0</ele><time>2026-03-27T15:34:08Z</time></trkpt><trkpt lat="45.364066376514124" lon="9.084193262383394"><ele>102.0</ele><time>2026-03-27T15:34:10Z</time></trkpt><trkpt lat="45.36396490701982" lon="9.084208924331291"><ele>102.0</ele><time>2026-03-27T15:34:12Z</time></trkpt><trkpt lat="45.36393619001492" lon="9.084105284605727"><ele>102.0</ele><time>2026-03-27T15:34:14Z</time></trkpt><trkpt lat="45.36390810582379" lon="9.084020069683465"><ele>102.0</ele><time>2026-03-27T15:34:15.001Z</time></trkpt><trkpt lat="45.363881743173344" lon="9.083932223210512"><ele>102.0</ele><time>2026-03-27T15:34:16.001Z</time></trkpt><trkpt lat="45.36384157204791" lon="9.083814342003771"><ele>102.0</ele><time>2026-03-27T15:34:18.001Z</time></trkpt><trkpt lat="45.36378388263725" lon="9.083710527113595"><ele>102.0</ele><time>2026-03-27T15:34:20.001Z</time></trkpt><trkpt lat="45.363710786057986" lon="9.083681072812777"><ele>102.19999999999999</ele><time>2026-03-27T15:34:21.001Z</time></trkpt><trkpt lat="45.3636142049389" lon="9.083622091755563"><ele>102.4</ele><time>2026-03-27T15:34:23.001Z</time></trkpt><trkpt lat="45.36347878880348" lon="9.083582464392379"><ele>102.6</ele><time>2026-03-27T15:34:25.001Z</time></trkpt><trkpt lat="45.363401705823335" lon="9.083560860927815"><ele>102.80000000000001</ele><time>2026-03-27T15:34:26.001Z</time></trkpt><trkpt lat="45.36330244510536" lon="9.08352097698208"><ele>103.0</ele><time>2026-03-27T15:34:28.001Z</time></trkpt><trkpt lat="45.36323134213258" lon="9.083473170389079"><ele>103.00000000000001</ele><time>2026-03-27T15:34:31.001Z</time></trkpt><trkpt lat="45.36317526542953" lon="9.083534232523267"><ele>103.0</ele><time>2026-03-27T15:34:36.001Z</time></trkpt><trkpt lat="45.3632261315742" lon="9.083474578755036"><ele>103.0</ele><time>2026-03-27T15:34:37Z</time></trkpt><trkpt lat="45.36328955985472" lon="9.08352180024012"><ele>103.0</ele><time>2026-03-27T15:34:39Z</time></trkpt><trkpt lat="45.36337282883651" lon="9.083594085192386"><ele>103.00000000000001</ele><time>2026-03-27T15:34:41Z</time></trkpt><trkpt lat="45.36349987170023" lon="9.083636706830013"><ele>103.0</ele><time>2026-03-27T15:34:43Z</time></trkpt><trkpt lat="45.363572048673134" lon="9.08365495445528"><ele>103.00000000000001</ele><time>2026-03-27T15:34:44Z</time></trkpt><trkpt lat="45.36366012933878" lon="9.083672181316771"><ele>103.0</ele><time>2026-03-27T15:34:45Z</time></trkpt><trkpt lat="45.36373425141823" lon="9.083709208069445"><ele>103.0</ele><time>2026-03-27T15:34:46Z</time></trkpt><trkpt lat="45.363802685961716" lon="9.083788363970369"><ele>103.0</ele><time>2026-03-27T15:34:47Z</time></trkpt><trkpt lat="45.36384097990797" lon="9.083890315183316"><ele>103.00000000000001</ele><time>2026-03-27T15:34:48Z</time></trkpt><trkpt lat="45.36386322781692" lon="9.083980159649832"><ele>103.0</ele><time>2026-03-27T15:34:49Z</time></trkpt><trkpt lat="45.36389709019111" lon="9.084116630817508"><ele>102.80000000000001</ele><time>2026-03-27T15:34:51Z</time></trkpt><trkpt lat="45.363933070411846" lon="9.08419395130518"><ele>102.6</ele><time>2026-03-27T15:34:53Z</time></trkpt><trkpt lat="45.36402834121102" lon="9.084223993996211"><ele>102.4</ele><time>2026-03-27T15:34:55Z</time></trkpt><trkpt lat="45.364141225276676" lon="9.08423947975761"><ele>102.19999999999999</ele><time>2026-03-27T15:34:57Z</time></trkpt><trkpt lat="45.36422126165353" lon="9.084272642049845"><ele>102.0</ele><time>2026-03-27T15:34:58Z</time></trkpt><trkpt lat="45.36431934706317" lon="9.084308703972736"><ele>102.0</ele><time>2026-03-27T15:34:59Z</time></trkpt><trkpt lat="45.364421755232684" lon="9.08433549644163"><ele>102.0</ele><time>2026-03-27T15:35:00Z</time></trkpt><trkpt lat="45.36453385999248" lon="9.084351766093272"><ele>102.0</ele><time>2026-03-27T15:35:01Z</time></trkpt><trkpt lat="45.36463817474514" lon="9.084363720253595"><ele>102.0</ele><time>2026-03-27T15:35:02Z</time></trkpt><trkpt lat="45.36473738290571" lon="9.084377292293029"><ele>102.0</ele><time>2026-03-27T15:35:03Z</time></trkpt><trkpt lat="45.36484604225621" lon="9.08439378384565"><ele>102.0</ele><time>2026-03-27T15:35:04Z</time></trkpt><trkpt lat="45.36496733182162" lon="9.084408419647959"><ele>102.0</ele><time>2026-03-27T15:35:05Z</time></trkpt><trkpt lat="45.36508316752117" lon="9.084417949995151"><ele>102.0</ele><time>2026-03-27T15:35:06Z</time></trkpt><trkpt lat="45.365196103745824" lon="9.084411892005614"><ele>102.0</ele><time>2026-03-27T15:35:07Z</time></trkpt><trkpt lat="45.36531023575967" lon="9.084394839517813"><ele>102.0</ele><time>2026-03-27T15:35:08Z</time></trkpt><trkpt lat="45.36541307034672" lon="9.084381038081867"><ele>102.0</ele><time>2026-03-27T15:35:09Z</time></trkpt><trkpt lat="45.36551579216823" lon="9.084374229792939"><ele>102.0</ele><time>2026-03-27T15:35:10Z</time></trkpt><trkpt lat="45.36561843510024" lon="9.08439301693189"><ele>102.0</ele><time>2026-03-27T15:35:11Z</time></trkpt><trkpt lat="45.36571689084229" lon="9.084375072085454"><ele>102.0</ele><time>2026-03-27T15:35:12Z</time></trkpt><trkpt lat="45.36582422602518" lon="9.084377304295144"><ele>101.8</ele><time>2026-03-27T15:35:13Z</time></trkpt><trkpt lat="45.36592659116586" lon="9.08440465296892"><ele>101.6</ele><time>2026-03-27T15:35:14Z</time></trkpt><trkpt lat="45.36603546333435" lon="9.084437991412853"><ele>101.39999999999999</ele><time>2026-03-27T15:35:15Z</time></trkpt><trkpt lat="45.36614216480446" lon="9.08447381552409"><ele>101.19999999999999</ele><time>2026-03-27T15:35:16Z</time></trkpt><trkpt lat="45.366234675665574" lon="9.08450708627589"><ele>101.0</ele><time>2026-03-27T15:35:17Z</time></trkpt><trkpt lat="45.36633359891163" lon="9.084514881702905"><ele>101.19999999999999</ele><time>2026-03-27T15:35:18Z</time></trkpt><trkpt lat="45.366448098067906" lon="9.084513117097774"><ele>101.39999999999999</ele><time>2026-03-27T15:35:19Z</time></trkpt><trkpt lat="45.36655520854953" lon="9.084534340590563"><ele>101.6</ele><time>2026-03-27T15:35:20Z</time></trkpt><trkpt lat="45.36665565459291" lon="9.084510330697672"><ele>101.8</ele><time>2026-03-27T15:35:21Z</time></trkpt><trkpt lat="45.366758414753996" lon="9.084504721810033"><ele>102.0</ele><time>2026-03-27T15:35:22Z</time></trkpt><trkpt lat="45.36687792761435" lon="9.084510530555576"><ele>102.0</ele><time>2026-03-27T15:35:23Z</time></trkpt><trkpt lat="45.36699348248461" lon="9.084483931276605"><ele>102.0</ele><time>2026-03-27T15:35:24Z</time></trkpt><trkpt lat="45.36708342860489" lon="9.08445799629019"><ele>102.0</ele><time>2026-03-27T15:35:25Z</time></trkpt><trkpt lat="45.3671781843505" lon="9.084428292509953"><ele>102.0</ele><time>2026-03-27T15:35:26Z</time></trkpt><trkpt lat="45.367295408832994" lon="9.08439144302783"><ele>102.0</ele><time>2026-03-27T15:35:27Z</time></trkpt><trkpt lat="45.36742622935581" lon="9.084365739699773"><ele>101.8</ele><time>2026-03-27T15:35:28Z</time></trkpt><trkpt lat="45.3675379486868" lon="9.084340918000517"><ele>101.6</ele><time>2026-03-27T15:35:29Z</time></trkpt><trkpt lat="45.367644318199964" lon="9.084328474788908"><ele>101.39999999999999</ele><time>2026-03-27T15:35:30Z</time></trkpt><trkpt lat="45.36775464992347" lon="9.084313661856878"><ele>101.19999999999999</ele><time>2026-03-27T15:35:31Z</time></trkpt><trkpt lat="45.367868218131896" lon="9.084296718474176"><ele>101.0</ele><time>2026-03-27T15:35:32Z</time></trkpt><trkpt lat="45.36797381000648" lon="9.084274610085696"><ele>101.4</ele><time>2026-03-27T15:35:33Z</time></trkpt><trkpt lat="45.36807034347657" lon="9.084254114244862"><ele>101.8</ele><time>2026-03-27T15:35:34Z</time></trkpt><trkpt lat="45.368161372222225" lon="9.084238795673812"><ele>102.2</ele><time>2026-03-27T15:35:35Z</time></trkpt><trkpt lat="45.36826198969591" lon="9.084221330082965"><ele>102.60000000000001</ele><time>2026-03-27T15:35:36Z</time></trkpt><trkpt lat="45.36837185264542" lon="9.084199256749981"><ele>103.0</ele><time>2026-03-27T15:35:37Z</time></trkpt><trkpt lat="45.3684741742261" lon="9.084183937025422"><ele>103.0</ele><time>2026-03-27T15:35:38Z</time></trkpt><trkpt lat="45.36858979960424" lon="9.084176987614285"><ele>103.0</ele><time>2026-03-27T15:35:39Z</time></trkpt><trkpt lat="45.36869410177585" lon="9.084171740360144"><ele>103.0</ele><time>2026-03-27T15:35:40Z</time></trkpt><trkpt lat="45.36878366814174" lon="9.084165022351021"><ele>103.0</ele><time>2026-03-27T15:35:41Z</time></trkpt><trkpt lat="45.36887350072944" lon="9.084149648502054"><ele>103.0</ele><time>2026-03-27T15:35:42Z</time></trkpt><trkpt lat="45.36895720952418" lon="9.084133155620165"><ele>102.83333333333334</ele><time>2026-03-27T15:35:43Z</time></trkpt><trkpt lat="45.36903226139978" lon="9.084135718842752"><ele>102.66666666666667</ele><time>2026-03-27T15:35:44Z</time></trkpt><trkpt lat="45.3691427184422" lon="9.084119716893591"><ele>102.5</ele><time>2026-03-27T15:35:46Z</time></trkpt><trkpt lat="45.36922294883283" lon="9.084135261529724"><ele>102.33333333333334</ele><time>2026-03-27T15:35:48Z</time></trkpt><trkpt lat="45.369288114307125" lon="9.084238616568236"><ele>102.16666666666667</ele><time>2026-03-27T15:35:50Z</time></trkpt><trkpt lat="45.36932348027879" lon="9.084334610156404"><ele>102.0</ele><time>2026-03-27T15:35:51Z</time></trkpt><trkpt lat="45.36937064655712" lon="9.08442561020916"><ele>102.0</ele><time>2026-03-27T15:35:52Z</time></trkpt><trkpt lat="45.36940678271727" lon="9.084499451204762"><ele>102.0</ele><time>2026-03-27T15:35:53Z</time></trkpt><trkpt lat="45.36946043628443" lon="9.084652372059503"><ele>102.0</ele><time>2026-03-27T15:35:55Z</time></trkpt><trkpt lat="45.3695604275056" lon="9.0847494481037"><ele>102.0</ele><time>2026-03-27T15:35:57Z</time></trkpt><trkpt lat="45.36963573909554" lon="9.084772619098493"><ele>102.0</ele><time>2026-03-27T15:35:58Z</time></trkpt><trkpt lat="45.369717186788364" lon="9.084782267944005"><ele>101.83333333333333</ele><time>2026-03-27T15:35:59Z</time></trkpt><trkpt lat="45.369817604240545" lon="9.084810316987339"><ele>101.66666666666666</ele><time>2026-03-27T15:36:01Z</time></trkpt><trkpt lat="45.36990589588566" lon="9.08484342394357"><ele>101.5</ele><time>2026-03-27T15:36:03Z</time></trkpt><trkpt lat="45.369994952907454" lon="9.084866972617963"><ele>101.33333333333333</ele><time>2026-03-27T15:36:05Z</time></trkpt><trkpt lat="45.370071079662765" lon="9.084867988082593"><ele>101.16666666666666</ele><time>2026-03-27T15:36:07Z</time></trkpt><trkpt lat="45.37013465594732" lon="9.084884527437266"><ele>101.0</ele><time>2026-03-27T15:36:09Z</time></trkpt><trkpt lat="45.37021561853737" lon="9.084903777826964"><ele>100.99999999999999</ele><time>2026-03-27T15:36:11Z</time></trkpt><trkpt lat="45.370286673569574" lon="9.08489817492135"><ele>101.0</ele><time>2026-03-27T15:36:13Z</time></trkpt><trkpt lat="45.37037093796203" lon="9.084920946487834"><ele>101.0</ele><time>2026-03-27T15:36:15Z</time></trkpt><trkpt lat="45.37044111704506" lon="9.084949536546407"><ele>101.0</ele><time>2026-03-27T15:36:16Z</time></trkpt><trkpt lat="45.37053098549173" lon="9.0849719404036"><ele>100.99999999999999</ele><time>2026-03-27T15:36:17Z</time></trkpt><trkpt lat="45.37062101561361" lon="9.084991547271864"><ele>101.0</ele><time>2026-03-27T15:36:18Z</time></trkpt><trkpt lat="45.37071729585329" lon="9.085013393103866"><ele>101.19999999999999</ele><time>2026-03-27T15:36:19Z</time></trkpt><trkpt lat="45.3708209241324" lon="9.085038772304447"><ele>101.39999999999999</ele><time>2026-03-27T15:36:20Z</time></trkpt><trkpt lat="45.37092415200509" lon="9.085062608315114"><ele>101.6</ele><time>2026-03-27T15:36:21Z</time></trkpt><trkpt lat="45.37102600544288" lon="9.08508303220548"><ele>101.8</ele><time>2026-03-27T15:36:22.001Z</time></trkpt><trkpt lat="45.37113121626962" lon="9.08510234834151"><ele>102.0</ele><time>2026-03-27T15:36:23Z</time></trkpt><trkpt lat="45.371228974965504" lon="9.085118428165483"><ele>102.0</ele><time>2026-03-27T15:36:24Z</time></trkpt><trkpt lat="45.37131905167405" lon="9.085136520132766"><ele>102.0</ele><time>2026-03-27T15:36:25.001Z</time></trkpt><trkpt lat="45.37142221346431" lon="9.085151504532849"><ele>102.0</ele><time>2026-03-27T15:36:26.001Z</time></trkpt><trkpt lat="45.37154803763754" lon="9.085175926676525"><ele>102.0</ele><time>2026-03-27T15:36:27.001Z</time></trkpt><trkpt lat="45.371663466994946" lon="9.085201611317876"><ele>102.0</ele><time>2026-03-27T15:36:28.001Z</time></trkpt><trkpt lat="45.37175624014008" lon="9.085222046827512"><ele>102.0</ele><time>2026-03-27T15:36:29Z</time></trkpt><trkpt lat="45.371839338377484" lon="9.085240982247514"><ele>102.0</ele><time>2026-03-27T15:36:30Z</time></trkpt><trkpt lat="45.37191532006129" lon="9.085263526173021"><ele>102.0</ele><time>2026-03-27T15:36:31Z</time></trkpt><trkpt lat="45.37198854602078" lon="9.085275608769342"><ele>102.0</ele><time>2026-03-27T15:36:32Z</time></trkpt><trkpt lat="45.37205882381219" lon="9.085272933402672"><ele>102.0</ele><time>2026-03-27T15:36:33Z</time></trkpt><trkpt lat="45.372132569894326" lon="9.085284942419376"><ele>102.0</ele><time>2026-03-27T15:36:34Z</time></trkpt><trkpt lat="45.3722205978932" lon="9.085297290158046"><ele>102.0</ele><time>2026-03-27T15:36:36Z</time></trkpt><trkpt lat="45.37229224755576" lon="9.085311890392974"><ele>102.0</ele><time>2026-03-27T15:36:38Z</time></trkpt><trkpt lat="45.3723715835268" lon="9.085321480032936"><ele>102.0</ele><time>2026-03-27T15:36:40Z</time></trkpt><trkpt lat="45.37245410502174" lon="9.085367796474868"><ele>102.0</ele><time>2026-03-27T15:36:44Z</time></trkpt><trkpt lat="45.37248042875351" lon="9.085454787905205"><ele>102.0</ele><time>2026-03-27T15:36:46Z</time></trkpt><trkpt lat="45.37250577116967" lon="9.085624705884644"><ele>102.0</ele><time>2026-03-27T15:36:48Z</time></trkpt><trkpt lat="45.37251676780857" lon="9.08573019416485"><ele>102.0</ele><time>2026-03-27T15:36:49Z</time></trkpt><trkpt lat="45.37252514081166" lon="9.085827911951297"><ele>102.0</ele><time>2026-03-27T15:36:50Z</time></trkpt><trkpt lat="45.372551797896705" lon="9.085970206575947"><ele>102.0</ele><time>2026-03-27T15:36:52Z</time></trkpt><trkpt lat="45.372602199938655" lon="9.08609397118285"><ele>102.0</ele><time>2026-03-27T15:36:54Z</time></trkpt><trkpt lat="45.37271819718318" lon="9.08615041779228"><ele>102.0</ele><time>2026-03-27T15:36:56Z</time></trkpt><trkpt lat="45.37279529079262" lon="9.086094852728843"><ele>102.0</ele><time>2026-03-27T15:36:57Z</time></trkpt><trkpt lat="45.37288843648752" lon="9.08605411076326"><ele>102.0</ele><time>2026-03-27T15:36:58Z</time></trkpt><trkpt lat="45.3729959885407" lon="9.086015074836435"><ele>102.0</ele><time>2026-03-27T15:36:59Z</time></trkpt><trkpt lat="45.37308700086786" lon="9.085968489281514"><ele>102.0</ele><time>2026-03-27T15:37:00Z</time></trkpt><trkpt lat="45.37316323036837" lon="9.085928899730629"><ele>102.0</ele><time>2026-03-27T15:37:01Z</time></trkpt><trkpt lat="45.37324471045534" lon="9.085891312670006"><ele>102.19999999999999</ele><time>2026-03-27T15:37:02Z</time></trkpt><trkpt lat="45.373337196508366" lon="9.08585301573432"><ele>102.4</ele><time>2026-03-27T15:37:03Z</time></trkpt><trkpt lat="45.37343750628655" lon="9.085803970068163"><ele>102.6</ele><time>2026-03-27T15:37:04Z</time></trkpt><trkpt lat="45.37355199519258" lon="9.08574394526299"><ele>102.80000000000001</ele><time>2026-03-27T15:37:05Z</time></trkpt><trkpt lat="45.3736598564899" lon="9.08571742234506"><ele>103.0</ele><time>2026-03-27T15:37:06Z</time></trkpt><trkpt lat="45.37376314300428" lon="9.085653264797712"><ele>103.4</ele><time>2026-03-27T15:37:07Z</time></trkpt><trkpt lat="45.37385066592965" lon="9.085618810183957"><ele>103.80000000000001</ele><time>2026-03-27T15:37:08Z</time></trkpt><trkpt lat="45.373942533613906" lon="9.085572025480662"><ele>104.2</ele><time>2026-03-27T15:37:09Z</time></trkpt><trkpt lat="45.37406122242154" lon="9.085523992156062"><ele>104.6</ele><time>2026-03-27T15:37:10Z</time></trkpt><trkpt lat="45.37416923150928" lon="9.085481015193455"><ele>105.0</ele><time>2026-03-27T15:37:11Z</time></trkpt><trkpt lat="45.374264057596825" lon="9.085442884814194"><ele>105.0</ele><time>2026-03-27T15:37:12Z</time></trkpt><trkpt lat="45.37436634959346" lon="9.0854099905378"><ele>105.0</ele><time>2026-03-27T15:37:13Z</time></trkpt><trkpt lat="45.37448302042785" lon="9.085365232284389"><ele>105.0</ele><time>2026-03-27T15:37:14Z</time></trkpt><trkpt lat="45.37461310891705" lon="9.085318173634462"><ele>105.0</ele><time>2026-03-27T15:37:15Z</time></trkpt><trkpt lat="45.37475510095906" lon="9.085269982819252"><ele>104.5</ele><time>2026-03-27T15:37:16Z</time></trkpt><trkpt lat="45.37490694496302" lon="9.08521840321182"><ele>104.0</ele><time>2026-03-27T15:37:17Z</time></trkpt><trkpt lat="45.37503994267768" lon="9.085172603341219"><ele>103.5</ele><time>2026-03-27T15:37:18Z</time></trkpt><trkpt lat="45.375159944887685" lon="9.085134418856983"><ele>103.0</ele><time>2026-03-27T15:37:19Z</time></trkpt><trkpt lat="45.375258188553744" lon="9.085098997974525"><ele>103.00000000000001</ele><time>2026-03-27T15:37:20Z</time></trkpt><trkpt lat="45.37534421440323" lon="9.085064758987695"><ele>103.0</ele><time>2026-03-27T15:37:21Z</time></trkpt><trkpt lat="45.37542166192277" lon="9.08503313502908"><ele>103.0</ele><time>2026-03-27T15:37:22Z</time></trkpt><trkpt lat="45.37548711642944" lon="9.085007771144342"><ele>103.0</ele><time>2026-03-27T15:37:23Z</time></trkpt><trkpt lat="45.37559164320344" lon="9.084972146565633"><ele>103.00000000000001</ele><time>2026-03-27T15:37:25Z</time></trkpt><trkpt lat="45.37566500581873" lon="9.084992029290252"><ele>103.0</ele><time>2026-03-27T15:37:27Z</time></trkpt><trkpt lat="45.37571647803847" lon="9.085110711190064"><ele>103.0</ele><time>2026-03-27T15:37:29Z</time></trkpt><trkpt lat="45.37573616279136" lon="9.085214405483715"><ele>103.0</ele><time>2026-03-27T15:37:30Z</time></trkpt><trkpt lat="45.37576033792056" lon="9.085358143510424"><ele>103.0</ele><time>2026-03-27T15:37:31Z</time></trkpt><trkpt lat="45.37578978482762" lon="9.085515862532931"><ele>103.0</ele><time>2026-03-27T15:37:32Z</time></trkpt><trkpt lat="45.37581579949055" lon="9.085666733684482"><ele>103.0</ele><time>2026-03-27T15:37:33Z</time></trkpt><trkpt lat="45.37583994413718" lon="9.085804539208297"><ele>103.2</ele><time>2026-03-27T15:37:34Z</time></trkpt><trkpt lat="45.37586169512112" lon="9.08593587219467"><ele>103.4</ele><time>2026-03-27T15:37:35Z</time></trkpt><trkpt lat="45.37588765222667" lon="9.086069801253704"><ele>103.60000000000001</ele><time>2026-03-27T15:37:36Z</time></trkpt><trkpt lat="45.375918260280024" lon="9.08622535237851"><ele>103.80000000000001</ele><time>2026-03-27T15:37:37Z</time></trkpt><trkpt lat="45.375947704392225" lon="9.086377901296002"><ele>104.0</ele><time>2026-03-27T15:37:38Z</time></trkpt><trkpt lat="45.375976932371714" lon="9.086513745320765"><ele>103.83333333333333</ele><time>2026-03-27T15:37:39Z</time></trkpt><trkpt lat="45.37600305033066" lon="9.086626243703206"><ele>103.66666666666666</ele><time>2026-03-27T15:37:40Z</time></trkpt><trkpt lat="45.37603283120672" lon="9.086742598425257"><ele>103.5</ele><time>2026-03-27T15:37:41Z</time></trkpt><trkpt lat="45.37606064988667" lon="9.086849909666645"><ele>103.33333333333334</ele><time>2026-03-27T15:37:42Z</time></trkpt><trkpt lat="45.37608818729097" lon="9.086953881440893"><ele>103.16666666666667</ele><time>2026-03-27T15:37:43Z</time></trkpt><trkpt lat="45.37611062074785" lon="9.087040702004616"><ele>103.0</ele><time>2026-03-27T15:37:44Z</time></trkpt><trkpt lat="45.37614683019736" lon="9.087181151586"><ele>103.0</ele><time>2026-03-27T15:37:46Z</time></trkpt><trkpt lat="45.37613783208239" lon="9.087342154720236"><ele>103.0</ele><time>2026-03-27T15:37:48Z</time></trkpt><trkpt lat="45.37610929307037" lon="9.087439732452562"><ele>103.0</ele><time>2026-03-27T15:37:49Z</time></trkpt><trkpt lat="45.37607214396277" lon="9.087576432281498"><ele>103.0</ele><time>2026-03-27T15:37:50Z</time></trkpt><trkpt lat="45.3760325828787" lon="9.087745078221598"><ele>103.0</ele><time>2026-03-27T15:37:51Z</time></trkpt><trkpt lat="45.375995736201894" lon="9.087919223005283"><ele>103.0</ele><time>2026-03-27T15:37:52Z</time></trkpt><trkpt lat="45.37596053663598" lon="9.08808218100359"><ele>103.0</ele><time>2026-03-27T15:37:53Z</time></trkpt><trkpt lat="45.375926389360764" lon="9.088246701023827"><ele>103.0</ele><time>2026-03-27T15:37:54Z</time></trkpt><trkpt lat="45.37589119346842" lon="9.08841051008722"><ele>103.0</ele><time>2026-03-27T15:37:55Z</time></trkpt><trkpt lat="45.375859600393916" lon="9.088553647992091"><ele>102.66666666666667</ele><time>2026-03-27T15:37:56Z</time></trkpt><trkpt lat="45.375828453833115" lon="9.088680264305284"><ele>102.33333333333334</ele><time>2026-03-27T15:37:57Z</time></trkpt><trkpt lat="45.3757984882005" lon="9.088801474658807"><ele>102.0</ele><time>2026-03-27T15:37:58Z</time></trkpt><trkpt lat="45.375772013048376" lon="9.088914522223815"><ele>101.66666666666666</ele><time>2026-03-27T15:37:59Z</time></trkpt><trkpt lat="45.375747798281004" lon="9.08903272789826"><ele>101.33333333333333</ele><time>2026-03-27T15:38:00Z</time></trkpt><trkpt lat="45.375727582937074" lon="9.0891307647131"><ele>101.0</ele><time>2026-03-27T15:38:01Z</time></trkpt><trkpt lat="45.37571390657525" lon="9.08921926843121"><ele>101.0</ele><time>2026-03-27T15:38:02Z</time></trkpt><trkpt lat="45.37571531092789" lon="9.089399207750457"><ele>101.0</ele><time>2026-03-27T15:38:04Z</time></trkpt><trkpt lat="45.37573302275364" lon="9.089498286299204"><ele>101.0</ele><time>2026-03-27T15:38:05Z</time></trkpt><trkpt lat="45.37576910269434" lon="9.089601935135477"><ele>101.0</ele><time>2026-03-27T15:38:06Z</time></trkpt><trkpt lat="45.37582438315966" lon="9.089742768292064"><ele>101.0</ele><time>2026-03-27T15:38:07Z</time></trkpt><trkpt lat="45.37587906069219" lon="9.089901083268739"><ele>101.0</ele><time>2026-03-27T15:38:08Z</time></trkpt><trkpt lat="45.37594439148607" lon="9.090047282726706"><ele>101.0</ele><time>2026-03-27T15:38:09Z</time></trkpt><trkpt lat="45.376002451635365" lon="9.090204907323532"><ele>101.0</ele><time>2026-03-27T15:38:10Z</time></trkpt><trkpt lat="45.376052086190725" lon="9.090360759452661"><ele>101.0</ele><time>2026-03-27T15:38:11Z</time></trkpt><trkpt lat="45.376095415587415" lon="9.090500756459775"><ele>101.0</ele><time>2026-03-27T15:38:12Z</time></trkpt><trkpt lat="45.37613831063323" lon="9.090636840061238"><ele>101.0</ele><time>2026-03-27T15:38:13Z</time></trkpt><trkpt lat="45.37619481502024" lon="9.090800638934576"><ele>101.0</ele><time>2026-03-27T15:38:14Z</time></trkpt><trkpt lat="45.37625066102149" lon="9.090956543131414"><ele>101.0</ele><time>2026-03-27T15:38:15Z</time></trkpt><trkpt lat="45.37630676287617" lon="9.091110503830302"><ele>101.0</ele><time>2026-03-27T15:38:16Z</time></trkpt><trkpt lat="45.37635655541105" lon="9.091255954247174"><ele>101.0</ele><time>2026-03-27T15:38:17Z</time></trkpt><trkpt lat="45.37640097034662" lon="9.091383653133924"><ele>101.0</ele><time>2026-03-27T15:38:18Z</time></trkpt><trkpt lat="45.37644707119426" lon="9.091517416693675"><ele>101.0</ele><time>2026-03-27T15:38:18.999Z</time></trkpt><trkpt lat="45.37648709774523" lon="9.091640683851026"><ele>101.0</ele><time>2026-03-27T15:38:19.999Z</time></trkpt><trkpt lat="45.3765243770688" lon="9.091759758192905"><ele>100.99999999999999</ele><time>2026-03-27T15:38:20.999Z</time></trkpt><trkpt lat="45.3765585162101" lon="9.091866600577859"><ele>101.0</ele><time>2026-03-27T15:38:21.999Z</time></trkpt><trkpt lat="45.37659025798247" lon="9.091972108447044"><ele>101.0</ele><time>2026-03-27T15:38:22.999Z</time></trkpt><trkpt lat="45.37661675496582" lon="9.092079275214763"><ele>101.0</ele><time>2026-03-27T15:38:23.999Z</time></trkpt><trkpt lat="45.376637776730384" lon="9.092199786325628"><ele>100.99999999999999</ele><time>2026-03-27T15:38:24.999Z</time></trkpt><trkpt lat="45.376647011808515" lon="9.09230192177063"><ele>101.0</ele><time>2026-03-27T15:38:25.999Z</time></trkpt><trkpt lat="45.37664653272353" lon="9.09240226654026"><ele>101.16666666666666</ele><time>2026-03-27T15:38:27Z</time></trkpt><trkpt lat="45.376644237711346" lon="9.092509439598915"><ele>101.33333333333333</ele><time>2026-03-27T15:38:28Z</time></trkpt><trkpt lat="45.37664942250323" lon="9.092608836417535"><ele>101.5</ele><time>2026-03-27T15:38:29Z</time></trkpt><trkpt lat="45.376682137426414" lon="9.092778440488086"><ele>101.66666666666666</ele><time>2026-03-27T15:38:31Z</time></trkpt><trkpt lat="45.376701227143045" lon="9.09286938400788"><ele>101.83333333333333</ele><time>2026-03-27T15:38:32Z</time></trkpt><trkpt lat="45.376730069563365" lon="9.092960000641963"><ele>102.0</ele><time>2026-03-27T15:38:33Z</time></trkpt><trkpt lat="45.376763921043676" lon="9.093046165854393"><ele>102.0</ele><time>2026-03-27T15:38:34Z</time></trkpt><trkpt lat="45.376834777346964" lon="9.093174992210157"><ele>102.0</ele><time>2026-03-27T15:38:36Z</time></trkpt><trkpt lat="45.37692506582" lon="9.093256428170497"><ele>102.0</ele><time>2026-03-27T15:38:38Z</time></trkpt><trkpt lat="45.377038193495046" lon="9.093278455294508"><ele>102.0</ele><time>2026-03-27T15:38:40Z</time></trkpt><trkpt lat="45.37709929436405" lon="9.093255350219312"><ele>102.0</ele><time>2026-03-27T15:38:41Z</time></trkpt><trkpt lat="45.3771755534544" lon="9.0932050401146"><ele>101.8</ele><time>2026-03-27T15:38:42Z</time></trkpt><trkpt lat="45.377268970784" lon="9.093129326115546"><ele>101.6</ele><time>2026-03-27T15:38:43Z</time></trkpt><trkpt lat="45.37738169342888" lon="9.093036939846357"><ele>101.39999999999999</ele><time>2026-03-27T15:38:44Z</time></trkpt><trkpt lat="45.37747372021786" lon="9.092956817089947"><ele>101.19999999999999</ele><time>2026-03-27T15:38:45Z</time></trkpt><trkpt lat="45.37754906368293" lon="9.092893955080065"><ele>101.0</ele><time>2026-03-27T15:38:46Z</time></trkpt><trkpt lat="45.37762438719407" lon="9.092838251064098"><ele>101.0</ele><time>2026-03-27T15:38:47Z</time></trkpt><trkpt lat="45.377707247934" lon="9.092768710465583"><ele>101.0</ele><time>2026-03-27T15:38:48Z</time></trkpt><trkpt lat="45.37778466650262" lon="9.092700385867332"><ele>101.0</ele><time>2026-03-27T15:38:49Z</time></trkpt><trkpt lat="45.37786201985596" lon="9.092643527189376"><ele>101.0</ele><time>2026-03-27T15:38:50Z</time></trkpt><trkpt lat="45.37795446154068" lon="9.092569590547553"><ele>101.0</ele><time>2026-03-27T15:38:51Z</time></trkpt><trkpt lat="45.378058497953006" lon="9.092484836418675"><ele>101.33333333333333</ele><time>2026-03-27T15:38:52Z</time></trkpt><trkpt lat="45.378144965008396" lon="9.09241350988631"><ele>101.66666666666666</ele><time>2026-03-27T15:38:53Z</time></trkpt><trkpt lat="45.37821983844446" lon="9.092350507353009"><ele>102.0</ele><time>2026-03-27T15:38:54Z</time></trkpt><trkpt lat="45.37828291016812" lon="9.092295627038"><ele>102.33333333333334</ele><time>2026-03-27T15:38:55Z</time></trkpt><trkpt lat="45.378337955377134" lon="9.092243336841031"><ele>102.66666666666667</ele><time>2026-03-27T15:38:56Z</time></trkpt><trkpt lat="45.378432232087405" lon="9.09215619842927"><ele>103.0</ele><time>2026-03-27T15:38:58Z</time></trkpt><trkpt lat="45.37848481598895" lon="9.092103387100366"><ele>103.0</ele><time>2026-03-27T15:38:59Z</time></trkpt><trkpt lat="45.37857634091964" lon="9.092000360742155"><ele>103.0</ele><time>2026-03-27T15:39:01Z</time></trkpt><trkpt lat="45.37865555063376" lon="9.091955179099799"><ele>103.0</ele><time>2026-03-27T15:39:03Z</time></trkpt><trkpt lat="45.37872756984686" lon="9.091878970378128"><ele>103.0</ele><time>2026-03-27T15:39:05Z</time></trkpt><trkpt lat="45.378842519000564" lon="9.091788858267703"><ele>103.0</ele><time>2026-03-27T15:39:07Z</time></trkpt><trkpt lat="45.3789096333178" lon="9.091734204290265"><ele>103.2</ele><time>2026-03-27T15:39:08Z</time></trkpt><trkpt lat="45.37899167614287" lon="9.091667260179687"><ele>103.4</ele><time>2026-03-27T15:39:09Z</time></trkpt><trkpt lat="45.37907074224189" lon="9.091601459979547"><ele>103.60000000000001</ele><time>2026-03-27T15:39:10Z</time></trkpt><trkpt lat="45.37914145331961" lon="9.091549499952338"><ele>103.80000000000001</ele><time>2026-03-27T15:39:11Z</time></trkpt><trkpt lat="45.3792215223199" lon="9.091485291581789"><ele>104.0</ele><time>2026-03-27T15:39:12Z</time></trkpt><trkpt lat="45.379306487891995" lon="9.091419485498276"><ele>103.80000000000001</ele><time>2026-03-27T15:39:13Z</time></trkpt><trkpt lat="45.37937334684647" lon="9.091360081389963"><ele>103.60000000000001</ele><time>2026-03-27T15:39:14Z</time></trkpt><trkpt lat="45.379490044037304" lon="9.091269607130846"><ele>103.4</ele><time>2026-03-27T15:39:16Z</time></trkpt><trkpt lat="45.37956969095334" lon="9.091213110529605"><ele>103.2</ele><time>2026-03-27T15:39:17Z</time></trkpt><trkpt lat="45.379655465593736" lon="9.091149715094373"><ele>103.0</ele><time>2026-03-27T15:39:18Z</time></trkpt><trkpt lat="45.37972652134202" lon="9.091086333863414"><ele>103.00000000000001</ele><time>2026-03-27T15:39:19Z</time></trkpt><trkpt lat="45.37979644200473" lon="9.09103285558856"><ele>103.0</ele><time>2026-03-27T15:39:20Z</time></trkpt><trkpt lat="45.37985920418659" lon="9.090987104756383"><ele>103.0</ele><time>2026-03-27T15:39:21Z</time></trkpt><trkpt lat="45.37992205736432" lon="9.09093722640705"><ele>103.0</ele><time>2026-03-27T15:39:22Z</time></trkpt><trkpt lat="45.379975406718955" lon="9.090889261010297"><ele>103.00000000000001</ele><time>2026-03-27T15:39:23Z</time></trkpt><trkpt lat="45.3800691901489" lon="9.090824146398015"><ele>103.0</ele><time>2026-03-27T15:39:25Z</time></trkpt><trkpt lat="45.3801196625929" lon="9.090740710822228"><ele>103.00000000000001</ele><time>2026-03-27T15:39:27Z</time></trkpt><trkpt lat="45.38021401393826" lon="9.090682663161"><ele>103.0</ele><time>2026-03-27T15:39:30Z</time></trkpt><trkpt lat="45.38027767243867" lon="9.090649249524416"><ele>103.0</ele><time>2026-03-27T15:39:31Z</time></trkpt><trkpt lat="45.38036353970869" lon="9.090594848694547"><ele>103.0</ele><time>2026-03-27T15:39:32Z</time></trkpt><trkpt lat="45.38043724319142" lon="9.090526056445036"><ele>103.00000000000001</ele><time>2026-03-27T15:39:33Z</time></trkpt><trkpt lat="45.38050708578985" lon="9.0904655243158"><ele>103.0</ele><time>2026-03-27T15:39:34Z</time></trkpt><trkpt lat="45.38056608882192" lon="9.090420172142785"><ele>103.2</ele><time>2026-03-27T15:39:35Z</time></trkpt><trkpt lat="45.380644111048106" lon="9.090353047081322"><ele>103.4</ele><time>2026-03-27T15:39:37Z</time></trkpt><trkpt lat="45.38071819684323" lon="9.090366941513526"><ele>103.60000000000001</ele><time>2026-03-27T15:39:39Z</time></trkpt><trkpt lat="45.38081797095832" lon="9.090486099958472"><ele>103.80000000000001</ele><time>2026-03-27T15:39:41Z</time></trkpt><trkpt lat="45.38089063311019" lon="9.090578426291911"><ele>104.0</ele><time>2026-03-27T15:39:42Z</time></trkpt><trkpt lat="45.380972517750585" lon="9.090659536269717"><ele>104.0</ele><time>2026-03-27T15:39:43Z</time></trkpt><trkpt lat="45.38105292125989" lon="9.090726424320907"><ele>104.0</ele><time>2026-03-27T15:39:44Z</time></trkpt><trkpt lat="45.38113032477074" lon="9.090789114237284"><ele>104.0</ele><time>2026-03-27T15:39:45Z</time></trkpt><trkpt lat="45.38122279216904" lon="9.090880755941761"><ele>104.0</ele><time>2026-03-27T15:39:46Z</time></trkpt><trkpt lat="45.381325224447224" lon="9.090986923089602"><ele>104.0</ele><time>2026-03-27T15:39:47Z</time></trkpt><trkpt lat="45.381431567531536" lon="9.091092461185298"><ele>103.80000000000001</ele><time>2026-03-27T15:39:48Z</time></trkpt><trkpt lat="45.38152068688584" lon="9.091185784870637"><ele>103.60000000000001</ele><time>2026-03-27T15:39:49Z</time></trkpt><trkpt lat="45.38159887108585" lon="9.091268875500816"><ele>103.4</ele><time>2026-03-27T15:39:50Z</time></trkpt><trkpt lat="45.3816717984245" lon="9.091346179627912"><ele>103.2</ele><time>2026-03-27T15:39:51Z</time></trkpt><trkpt lat="45.38174550375134" lon="9.091422307126873"><ele>103.0</ele><time>2026-03-27T15:39:52Z</time></trkpt><trkpt lat="45.38182824599118" lon="9.091502796567598"><ele>103.0</ele><time>2026-03-27T15:39:53Z</time></trkpt><trkpt lat="45.38189851524713" lon="9.09157002430541"><ele>103.0</ele><time>2026-03-27T15:39:54Z</time></trkpt><trkpt lat="45.38195873506372" lon="9.091629612794554"><ele>103.0</ele><time>2026-03-27T15:39:55Z</time></trkpt><trkpt lat="45.3820646536741" lon="9.09172230958228"><ele>103.0</ele><time>2026-03-27T15:39:57Z</time></trkpt><trkpt lat="45.38215024758202" lon="9.091771273866463"><ele>103.0</ele><time>2026-03-27T15:39:59Z</time></trkpt><trkpt lat="45.38225330227073" lon="9.09177621491519"><ele>103.0</ele><time>2026-03-27T15:40:01Z</time></trkpt><trkpt lat="45.38230492916274" lon="9.09170373929777"><ele>103.0</ele><time>2026-03-27T15:40:02Z</time></trkpt><trkpt lat="45.382378610203965" lon="9.091646752890854"><ele>103.0</ele><time>2026-03-27T15:40:03Z</time></trkpt><trkpt lat="45.382462096892546" lon="9.091573257763438"><ele>103.0</ele><time>2026-03-27T15:40:04Z</time></trkpt><trkpt lat="45.38255757389587" lon="9.091490275878655"><ele>103.0</ele><time>2026-03-27T15:40:05Z</time></trkpt><trkpt lat="45.38265969913472" lon="9.091407712405719"><ele>103.0</ele><time>2026-03-27T15:40:06Z</time></trkpt><trkpt lat="45.38275967580344" lon="9.091330312313048"><ele>103.0</ele><time>2026-03-27T15:40:07Z</time></trkpt><trkpt lat="45.38285176383864" lon="9.091256314524529"><ele>103.0</ele><time>2026-03-27T15:40:08Z</time></trkpt><trkpt lat="45.382935720975006" lon="9.09119118275581"><ele>103.0</ele><time>2026-03-27T15:40:09Z</time></trkpt><trkpt lat="45.383028930438456" lon="9.091114992926837"><ele>103.0</ele><time>2026-03-27T15:40:10Z</time></trkpt><trkpt lat="45.38313766729901" lon="9.09102108468544"><ele>103.25</ele><time>2026-03-27T15:40:11Z</time></trkpt><trkpt lat="45.38326297436102" lon="9.090915977659904"><ele>103.5</ele><time>2026-03-27T15:40:12Z</time></trkpt><trkpt lat="45.38337715382471" lon="9.090820691323"><ele>103.75</ele><time>2026-03-27T15:40:13Z</time></trkpt><trkpt lat="45.383497161396335" lon="9.090724246357883"><ele>104.0</ele><time>2026-03-27T15:40:14Z</time></trkpt><trkpt lat="45.38361001320958" lon="9.09063820092429"><ele>104.0</ele><time>2026-03-27T15:40:15Z</time></trkpt><trkpt lat="45.38371668967289" lon="9.090547426996528"><ele>104.0</ele><time>2026-03-27T15:40:16Z</time></trkpt><trkpt lat="45.38383115948015" lon="9.090466801200009"><ele>104.0</ele><time>2026-03-27T15:40:17Z</time></trkpt><trkpt lat="45.3839527795282" lon="9.09037204979461"><ele>104.0</ele><time>2026-03-27T15:40:18Z</time></trkpt><trkpt lat="45.38407311209402" lon="9.090277854097522"><ele>104.25</ele><time>2026-03-27T15:40:19Z</time></trkpt><trkpt lat="45.384191487651435" lon="9.09019496834145"><ele>104.5</ele><time>2026-03-27T15:40:19.999Z</time></trkpt><trkpt lat="45.38430034086834" lon="9.090108619923182"><ele>104.75</ele><time>2026-03-27T15:40:20.999Z</time></trkpt><trkpt lat="45.38439321904619" lon="9.090024538658977"><ele>105.0</ele><time>2026-03-27T15:40:21.999Z</time></trkpt><trkpt lat="45.38447980524194" lon="9.08995599437523"><ele>105.2</ele><time>2026-03-27T15:40:22.999Z</time></trkpt><trkpt lat="45.384555063140596" lon="9.089895145442387"><ele>105.4</ele><time>2026-03-27T15:40:23.999Z</time></trkpt><trkpt lat="45.38461942860442" lon="9.08984378994699"><ele>105.6</ele><time>2026-03-27T15:40:24.999Z</time></trkpt><trkpt lat="45.38471254364656" lon="9.089765755590461"><ele>105.8</ele><time>2026-03-27T15:40:26.999Z</time></trkpt><trkpt lat="45.38477652289655" lon="9.089693982113088"><ele>106.0</ele><time>2026-03-27T15:40:28.999Z</time></trkpt><trkpt lat="45.38478687954792" lon="9.089526383153373"><ele>106.16666666666667</ele><time>2026-03-27T15:40:30.999Z</time></trkpt><trkpt lat="45.384775666735244" lon="9.08941148523312"><ele>106.33333333333334</ele><time>2026-03-27T15:40:33Z</time></trkpt><trkpt lat="45.384825329844915" lon="9.089352964500799"><ele>106.5</ele><time>2026-03-27T15:40:36Z</time></trkpt><trkpt lat="45.38492102538583" lon="9.089348020789425"><ele>106.66666666666666</ele><time>2026-03-27T15:40:38Z</time></trkpt><trkpt lat="45.38502398465558" lon="9.089326381896488"><ele>106.83333333333333</ele><time>2026-03-27T15:40:40Z</time></trkpt><trkpt lat="45.38508912492807" lon="9.08930835204172"><ele>107.0</ele><time>2026-03-27T15:40:42Z</time></trkpt><trkpt lat="45.38514592757042" lon="9.089255841850088"><ele>107.0</ele><time>2026-03-27T15:40:44Z</time></trkpt><trkpt lat="45.38517618247672" lon="9.089107857928669"><ele>106.99999999999999</ele><time>2026-03-27T15:40:46Z</time></trkpt><trkpt lat="45.38516005285986" lon="9.088995688914745"><ele>106.99999999999999</ele><time>2026-03-27T15:40:47Z</time></trkpt><trkpt lat="45.3851591496281" lon="9.08886490201225"><ele>107.0</ele><time>2026-03-27T15:40:48Z</time></trkpt><trkpt lat="45.38516023965338" lon="9.088725612523152"><ele>107.0</ele><time>2026-03-27T15:40:49Z</time></trkpt><trkpt lat="45.38516272118695" lon="9.088596895978272"><ele>107.0</ele><time>2026-03-27T15:40:50Z</time></trkpt><trkpt lat="45.38516724231731" lon="9.088451139648884"><ele>106.99999999999999</ele><time>2026-03-27T15:40:51Z</time></trkpt><trkpt lat="45.38517494791195" lon="9.088312607065983"><ele>106.99999999999999</ele><time>2026-03-27T15:40:52Z</time></trkpt><trkpt lat="45.38518530302753" lon="9.088195427591009"><ele>107.0</ele><time>2026-03-27T15:40:53Z</time></trkpt><trkpt lat="45.385194443170896" lon="9.088089594331507"><ele>107.0</ele><time>2026-03-27T15:40:54Z</time></trkpt><trkpt lat="45.38520534037604" lon="9.087904354883563"><ele>107.00000000000001</ele><time>2026-03-27T15:40:56Z</time></trkpt><trkpt lat="45.3852106092737" lon="9.08780728717038"><ele>107.0</ele><time>2026-03-27T15:40:57Z</time></trkpt><trkpt lat="45.38521691924649" lon="9.08770293749534"><ele>107.0</ele><time>2026-03-27T15:40:58Z</time></trkpt><trkpt lat="45.38522295740583" lon="9.087604022178308"><ele>107.0</ele><time>2026-03-27T15:40:59Z</time></trkpt><trkpt lat="45.385214904161266" lon="9.087505234594103"><ele>107.0</ele><time>2026-03-27T15:41:00Z</time></trkpt><trkpt lat="45.38523052809058" lon="9.087399911957531"><ele>107.00000000000001</ele><time>2026-03-27T15:41:01Z</time></trkpt><trkpt lat="45.38525956496137" lon="9.087277239105916"><ele>107.0</ele><time>2026-03-27T15:41:02Z</time></trkpt><trkpt lat="45.385262503710585" lon="9.087160172356562"><ele>107.0</ele><time>2026-03-27T15:41:03Z</time></trkpt><trkpt lat="45.385259367050416" lon="9.087030954692189"><ele>106.99999999999999</ele><time>2026-03-27T15:41:04Z</time></trkpt><trkpt lat="45.38524489756507" lon="9.086874278176097"><ele>106.99999999999999</ele><time>2026-03-27T15:41:05Z</time></trkpt><trkpt lat="45.38522959032207" lon="9.086726029475265"><ele>107.0</ele><time>2026-03-27T15:41:06Z</time></trkpt><trkpt lat="45.38521901387222" lon="9.086601764274102"><ele>107.0</ele><time>2026-03-27T15:41:07Z</time></trkpt><trkpt lat="45.385214263152214" lon="9.086483405848726"><ele>106.8</ele><time>2026-03-27T15:41:08Z</time></trkpt><trkpt lat="45.3852141022922" lon="9.086362686987444"><ele>106.6</ele><time>2026-03-27T15:41:09Z</time></trkpt><trkpt lat="45.385221432417076" lon="9.086215120950273"><ele>106.39999999999999</ele><time>2026-03-27T15:41:10Z</time></trkpt><trkpt lat="45.38523963409596" lon="9.086052015796584"><ele>106.19999999999999</ele><time>2026-03-27T15:41:11Z</time></trkpt><trkpt lat="45.385256069653906" lon="9.08590275122353"><ele>106.0</ele><time>2026-03-27T15:41:12Z</time></trkpt><trkpt lat="45.38526403808618" lon="9.085794271861724"><ele>105.83333333333334</ele><time>2026-03-27T15:41:13Z</time></trkpt><trkpt lat="45.38527843938784" lon="9.085651379504966"><ele>105.66666666666667</ele><time>2026-03-27T15:41:15Z</time></trkpt><trkpt lat="45.38531261567129" lon="9.08556793603629"><ele>105.5</ele><time>2026-03-27T15:41:17Z</time></trkpt><trkpt lat="45.3853604299573" lon="9.085490811311074"><ele>105.33333333333334</ele><time>2026-03-27T15:41:20Z</time></trkpt><trkpt lat="45.38538622089357" lon="9.085383492418963"><ele>105.16666666666667</ele><time>2026-03-27T15:41:22Z</time></trkpt><trkpt lat="45.3853370215019" lon="9.085284847495204"><ele>105.0</ele><time>2026-03-27T15:41:23Z</time></trkpt><trkpt lat="45.38528362826405" lon="9.085184011637834"><ele>105.0</ele><time>2026-03-27T15:41:24Z</time></trkpt><trkpt lat="45.38523286165032" lon="9.085056134423183"><ele>105.0</ele><time>2026-03-27T15:41:25Z</time></trkpt><trkpt lat="45.385184143886704" lon="9.084902640140685"><ele>105.0</ele><time>2026-03-27T15:41:26Z</time></trkpt><trkpt lat="45.385146046225195" lon="9.084727651633232"><ele>105.0</ele><time>2026-03-27T15:41:27Z</time></trkpt><trkpt lat="45.38510517040242" lon="9.084543321841943"><ele>104.8</ele><time>2026-03-27T15:41:28Z</time></trkpt><trkpt lat="45.38506924145719" lon="9.084387060189785"><ele>104.6</ele><time>2026-03-27T15:41:29Z</time></trkpt><trkpt lat="45.385037916386686" lon="9.084256021306395"><ele>104.4</ele><time>2026-03-27T15:41:30Z</time></trkpt><trkpt lat="45.38500830555105" lon="9.084145524486356"><ele>104.2</ele><time>2026-03-27T15:41:31Z</time></trkpt><trkpt lat="45.38497819672789" lon="9.084044449146557"><ele>104.0</ele><time>2026-03-27T15:41:32Z</time></trkpt><trkpt lat="45.384931427983524" lon="9.083898315670908"><ele>104.0</ele><time>2026-03-27T15:41:34Z</time></trkpt><trkpt lat="45.38489267077101" lon="9.083789991709626"><ele>104.0</ele><time>2026-03-27T15:41:37Z</time></trkpt><trkpt lat="45.38494431965806" lon="9.083714171370675"><ele>104.0</ele><time>2026-03-27T15:41:39Z</time></trkpt><trkpt lat="45.38506571140264" lon="9.083627797205306"><ele>104.0</ele><time>2026-03-27T15:41:41Z</time></trkpt><trkpt lat="45.38514774595336" lon="9.083570644499563"><ele>104.0</ele><time>2026-03-27T15:41:42Z</time></trkpt><trkpt lat="45.38525550286752" lon="9.083488551032753"><ele>104.0</ele><time>2026-03-27T15:41:43Z</time></trkpt><trkpt lat="45.385361017522555" lon="9.083420280788125"><ele>104.0</ele><time>2026-03-27T15:41:44Z</time></trkpt><trkpt lat="45.38545272559136" lon="9.083341710391899"><ele>104.0</ele><time>2026-03-27T15:41:45Z</time></trkpt><trkpt lat="45.38553822991065" lon="9.083279615801592"><ele>104.0</ele><time>2026-03-27T15:41:46Z</time></trkpt><trkpt lat="45.38560895062815" lon="9.08322597127292"><ele>104.0</ele><time>2026-03-27T15:41:47Z</time></trkpt><trkpt lat="45.38569385809084" lon="9.083167193945835"><ele>104.6</ele><time>2026-03-27T15:41:48Z</time></trkpt><trkpt lat="45.38577574367195" lon="9.083103592211192"><ele>105.2</ele><time>2026-03-27T15:41:49Z</time></trkpt><trkpt lat="45.38586142084939" lon="9.083038572269077"><ele>105.79999999999998</ele><time>2026-03-27T15:41:50Z</time></trkpt><trkpt lat="45.38596284801519" lon="9.082989834253024"><ele>106.39999999999999</ele><time>2026-03-27T15:41:51Z</time></trkpt><trkpt lat="45.38604826138811" lon="9.082900486596118"><ele>107.0</ele><time>2026-03-27T15:41:52Z</time></trkpt><trkpt lat="45.38614963775293" lon="9.082825658373245"><ele>107.0</ele><time>2026-03-27T15:41:53Z</time></trkpt><trkpt lat="45.38625358521345" lon="9.08277483981114"><ele>106.99999999999999</ele><time>2026-03-27T15:41:54Z</time></trkpt><trkpt lat="45.386343998723824" lon="9.082708263127612"><ele>106.99999999999999</ele><time>2026-03-27T15:41:55Z</time></trkpt><trkpt lat="45.38642867176531" lon="9.082619645973757"><ele>107.0</ele><time>2026-03-27T15:41:56Z</time></trkpt><trkpt lat="45.386531276913864" lon="9.082544371847614"><ele>107.0</ele><time>2026-03-27T15:41:57Z</time></trkpt><trkpt lat="45.38663404099336" lon="9.08249570536156"><ele>106.6</ele><time>2026-03-27T15:41:58Z</time></trkpt><trkpt lat="45.38671791872696" lon="9.082434771093052"><ele>106.19999999999999</ele><time>2026-03-27T15:41:59Z</time></trkpt><trkpt lat="45.386806840977684" lon="9.082369733785878"><ele>105.8</ele><time>2026-03-27T15:42:00Z</time></trkpt><trkpt lat="45.386907011668" lon="9.08229622895914"><ele>105.4</ele><time>2026-03-27T15:42:01Z</time></trkpt><trkpt lat="45.386988487119666" lon="9.082209403293506"><ele>105.0</ele><time>2026-03-27T15:42:02Z</time></trkpt><trkpt lat="45.38708095803645" lon="9.082141097822719"><ele>105.0</ele><time>2026-03-27T15:42:03Z</time></trkpt><trkpt lat="45.38717409958991" lon="9.082095409278494"><ele>105.0</ele><time>2026-03-27T15:42:04Z</time></trkpt><trkpt lat="45.38725382214941" lon="9.082011594430778"><ele>105.0</ele><time>2026-03-27T15:42:05Z</time></trkpt><trkpt lat="45.38733232708958" lon="9.0819557631829"><ele>105.0</ele><time>2026-03-27T15:42:06Z</time></trkpt><trkpt lat="45.3874065405543" lon="9.081899442592624"><ele>105.0</ele><time>2026-03-27T15:42:07Z</time></trkpt><trkpt lat="45.38748236788099" lon="9.081851965760922"><ele>104.83333333333333</ele><time>2026-03-27T15:42:08Z</time></trkpt><trkpt lat="45.38755011422319" lon="9.081810418151349"><ele>104.66666666666666</ele><time>2026-03-27T15:42:09Z</time></trkpt><trkpt lat="45.38760763275841" lon="9.081770258133002"><ele>104.5</ele><time>2026-03-27T15:42:10Z</time></trkpt><trkpt lat="45.38766314561082" lon="9.08172631042049"><ele>104.33333333333333</ele><time>2026-03-27T15:42:11Z</time></trkpt><trkpt lat="45.38773606085945" lon="9.081676719482456"><ele>104.16666666666666</ele><time>2026-03-27T15:42:13Z</time></trkpt><trkpt lat="45.38780254255874" lon="9.081571726536767"><ele>104.0</ele><time>2026-03-27T15:42:15.999Z</time></trkpt><trkpt lat="45.3877301910529" lon="9.081413308084475"><ele>104.0</ele><time>2026-03-27T15:42:17.999Z</time></trkpt><trkpt lat="45.38769174992035" lon="9.081331695709414"><ele>104.0</ele><time>2026-03-27T15:42:18.999Z</time></trkpt><trkpt lat="45.387640783012394" lon="9.08122698773585"><ele>104.0</ele><time>2026-03-27T15:42:19.999Z</time></trkpt><trkpt lat="45.38757740159414" lon="9.081102035754208"><ele>104.0</ele><time>2026-03-27T15:42:20.999Z</time></trkpt><trkpt lat="45.38752617667718" lon="9.080982159624215"><ele>104.0</ele><time>2026-03-27T15:42:21.999Z</time></trkpt><trkpt lat="45.387486181569855" lon="9.08087228403322"><ele>104.16666666666666</ele><time>2026-03-27T15:42:22.999Z</time></trkpt><trkpt lat="45.38744932329653" lon="9.080755428747503"><ele>104.33333333333333</ele><time>2026-03-27T15:42:23.999Z</time></trkpt><trkpt lat="45.38742554244073" lon="9.080646659080408"><ele>104.5</ele><time>2026-03-27T15:42:24.999Z</time></trkpt><trkpt lat="45.38740527116527" lon="9.080546162692722"><ele>104.66666666666666</ele><time>2026-03-27T15:42:25.999Z</time></trkpt><trkpt lat="45.387384976934676" lon="9.08043226047037"><ele>104.83333333333333</ele><time>2026-03-27T15:42:26.999Z</time></trkpt><trkpt lat="45.38736671870755" lon="9.08032419009428"><ele>105.0</ele><time>2026-03-27T15:42:27.999Z</time></trkpt><trkpt lat="45.38734934291219" lon="9.080224996224624"><ele>105.0</ele><time>2026-03-27T15:42:28.999Z</time></trkpt><trkpt lat="45.387329931885716" lon="9.080079108812125"><ele>105.0</ele><time>2026-03-27T15:42:30.999Z</time></trkpt><trkpt lat="45.3873443554446" lon="9.079960723952176"><ele>105.0</ele><time>2026-03-27T15:42:32.999Z</time></trkpt><trkpt lat="45.38740953196428" lon="9.079932714352935"><ele>105.0</ele><time>2026-03-27T15:42:33.999Z</time></trkpt><trkpt lat="45.38748075602013" lon="9.07986701018923"><ele>105.0</ele><time>2026-03-27T15:42:34.999Z</time></trkpt><trkpt lat="45.38756686747051" lon="9.079768239273289"><ele>105.25</ele><time>2026-03-27T15:42:35.999Z</time></trkpt><trkpt lat="45.387678510756075" lon="9.079669575449975"><ele>105.5</ele><time>2026-03-27T15:42:36.999Z</time></trkpt><trkpt lat="45.387792459817376" lon="9.079597114110518"><ele>105.75</ele><time>2026-03-27T15:42:37.999Z</time></trkpt><trkpt lat="45.38788602229911" lon="9.079488094599808"><ele>106.0</ele><time>2026-03-27T15:42:39Z</time></trkpt><trkpt lat="45.38799712155515" lon="9.079394114792642"><ele>105.8</ele><time>2026-03-27T15:42:40Z</time></trkpt><trkpt lat="45.38809211003311" lon="9.0793070580346"><ele>105.6</ele><time>2026-03-27T15:42:41Z</time></trkpt><trkpt lat="45.38817942596827" lon="9.079229527115443"><ele>105.4</ele><time>2026-03-27T15:42:42Z</time></trkpt><trkpt lat="45.38826685279269" lon="9.07913996231656"><ele>105.2</ele><time>2026-03-27T15:42:43Z</time></trkpt><trkpt lat="45.388361320838484" lon="9.079052898153515"><ele>105.0</ele><time>2026-03-27T15:42:44Z</time></trkpt><trkpt lat="45.3884582960766" lon="9.078981027605062"><ele>105.0</ele><time>2026-03-27T15:42:45Z</time></trkpt><trkpt lat="45.3885429960613" lon="9.078917207466576"><ele>105.0</ele><time>2026-03-27T15:42:46Z</time></trkpt><trkpt lat="45.38862001210495" lon="9.078856045574286"><ele>105.0</ele><time>2026-03-27T15:42:47Z</time></trkpt><trkpt lat="45.38870748090854" lon="9.07877717553829"><ele>105.0</ele><time>2026-03-27T15:42:48Z</time></trkpt><trkpt lat="45.3887842926644" lon="9.07871718846102"><ele>105.0</ele><time>2026-03-27T15:42:49Z</time></trkpt><trkpt lat="45.3888464468411" lon="9.07867714182966"><ele>105.0</ele><time>2026-03-27T15:42:50Z</time></trkpt><trkpt lat="45.388925185294895" lon="9.07861747255864"><ele>105.0</ele><time>2026-03-27T15:42:52Z</time></trkpt><trkpt lat="45.38898382636894" lon="9.07852008481956"><ele>105.0</ele><time>2026-03-27T15:42:54Z</time></trkpt><trkpt lat="45.388979664573846" lon="9.078420496315404"><ele>105.0</ele><time>2026-03-27T15:42:55Z</time></trkpt><trkpt lat="45.38893113537422" lon="9.078322938144643"><ele>105.0</ele><time>2026-03-27T15:42:56Z</time></trkpt><trkpt lat="45.38893792765" lon="9.078172630161163"><ele>105.0</ele><time>2026-03-27T15:42:58Z</time></trkpt><trkpt lat="45.3888919331945" lon="9.078012985375569"><ele>105.0</ele><time>2026-03-27T15:43:00Z</time></trkpt><trkpt lat="45.38884678370753" lon="9.077937752477606"><ele>105.0</ele><time>2026-03-27T15:43:01Z</time></trkpt><trkpt lat="45.38876979451548" lon="9.077877534541011"><ele>105.0</ele><time>2026-03-27T15:43:02Z</time></trkpt><trkpt lat="45.388685070650475" lon="9.077812866881693"><ele>105.0</ele><time>2026-03-27T15:43:03Z</time></trkpt><trkpt lat="45.388598405006164" lon="9.07775502054341"><ele>105.0</ele><time>2026-03-27T15:43:04Z</time></trkpt><trkpt lat="45.38851710652434" lon="9.077705072223006"><ele>105.0</ele><time>2026-03-27T15:43:05Z</time></trkpt><trkpt lat="45.38844699834275" lon="9.07766762910927"><ele>105.0</ele><time>2026-03-27T15:43:06Z</time></trkpt><trkpt lat="45.388344003062386" lon="9.077611482957957"><ele>105.0</ele><time>2026-03-27T15:43:08Z</time></trkpt><trkpt lat="45.38826677183387" lon="9.077534804862188"><ele>105.0</ele><time>2026-03-27T15:43:10Z</time></trkpt><trkpt lat="45.38823429876929" lon="9.0773497501957"><ele>105.0</ele><time>2026-03-27T15:43:12Z</time></trkpt><trkpt lat="45.38821687717125" lon="9.077241260109924"><ele>105.0</ele><time>2026-03-27T15:43:13Z</time></trkpt><trkpt lat="45.38819706884677" lon="9.07712533797588"><ele>105.2</ele><time>2026-03-27T15:43:14Z</time></trkpt><trkpt lat="45.38816928055784" lon="9.076981947488875"><ele>105.4</ele><time>2026-03-27T15:43:15Z</time></trkpt><trkpt lat="45.38814199622986" lon="9.07684701335345"><ele>105.6</ele><time>2026-03-27T15:43:16Z</time></trkpt><trkpt lat="45.38811376762904" lon="9.076707409360951"><ele>105.8</ele><time>2026-03-27T15:43:17Z</time></trkpt><trkpt lat="45.38807924611647" lon="9.07653641146776"><ele>106.0</ele><time>2026-03-27T15:43:18Z</time></trkpt><trkpt lat="45.38804426601715" lon="9.07636066274309"><ele>106.0</ele><time>2026-03-27T15:43:19Z</time></trkpt><trkpt lat="45.38801062861939" lon="9.07618413155646"><ele>106.0</ele><time>2026-03-27T15:43:20Z</time></trkpt><trkpt lat="45.38797699680455" lon="9.076007630478815"><ele>106.0</ele><time>2026-03-27T15:43:21Z</time></trkpt><trkpt lat="45.38794398292661" lon="9.075834372026499"><ele>106.0</ele><time>2026-03-27T15:43:22Z</time></trkpt><trkpt lat="45.38791289480585" lon="9.075671220131015"><ele>106.0</ele><time>2026-03-27T15:43:23Z</time></trkpt><trkpt lat="45.38788220784283" lon="9.075513968678903"><ele>106.0</ele><time>2026-03-27T15:43:24Z</time></trkpt><trkpt lat="45.38785490920011" lon="9.075381906176693"><ele>106.0</ele><time>2026-03-27T15:43:25Z</time></trkpt><trkpt lat="45.3878282593706" lon="9.075254018205433"><ele>106.0</ele><time>2026-03-27T15:43:26Z</time></trkpt><trkpt lat="45.38780403652788" lon="9.075130885498169"><ele>106.0</ele><time>2026-03-27T15:43:27Z</time></trkpt><trkpt lat="45.38779155395441" lon="9.075000502992944"><ele>106.25</ele><time>2026-03-27T15:43:28Z</time></trkpt><trkpt lat="45.387784302683905" lon="9.074840148487004"><ele>106.5</ele><time>2026-03-27T15:43:29Z</time></trkpt><trkpt lat="45.38777541373945" lon="9.074664637963501"><ele>106.75</ele><time>2026-03-27T15:43:30Z</time></trkpt><trkpt lat="45.38776229033024" lon="9.074481893326222"><ele>107.0</ele><time>2026-03-27T15:43:31Z</time></trkpt><trkpt lat="45.38774943432549" lon="9.074324048188526"><ele>107.0</ele><time>2026-03-27T15:43:32Z</time></trkpt><trkpt lat="45.3877375723956" lon="9.074174417050509"><ele>106.99999999999999</ele><time>2026-03-27T15:43:33Z</time></trkpt><trkpt lat="45.38772638007" lon="9.074027027731342"><ele>106.99999999999999</ele><time>2026-03-27T15:43:34Z</time></trkpt><trkpt lat="45.387715394527554" lon="9.073874758498372"><ele>107.0</ele><time>2026-03-27T15:43:35Z</time></trkpt><trkpt lat="45.3877052469875" lon="9.073725220750687"><ele>107.0</ele><time>2026-03-27T15:43:36Z</time></trkpt><trkpt lat="45.38769590406342" lon="9.07357063186207"><ele>107.0</ele><time>2026-03-27T15:43:37Z</time></trkpt><trkpt lat="45.38768675331576" lon="9.073418064622242"><ele>107.0</ele><time>2026-03-27T15:43:38Z</time></trkpt><trkpt lat="45.38767648055224" lon="9.073246489887927"><ele>107.0</ele><time>2026-03-27T15:43:39Z</time></trkpt><trkpt lat="45.387664990281806" lon="9.073071958013134"><ele>107.0</ele><time>2026-03-27T15:43:40Z</time></trkpt><trkpt lat="45.387654644805274" lon="9.072920604432232"><ele>106.99999999999999</ele><time>2026-03-27T15:43:41Z</time></trkpt><trkpt lat="45.38764488709654" lon="9.072785184063813"><ele>107.0</ele><time>2026-03-27T15:43:42Z</time></trkpt><trkpt lat="45.38763526630158" lon="9.072667449593471"><ele>107.0</ele><time>2026-03-27T15:43:43Z</time></trkpt><trkpt lat="45.38761103289382" lon="9.072571171877177"><ele>107.0</ele><time>2026-03-27T15:43:44Z</time></trkpt><trkpt lat="45.38760145853782" lon="9.072398105361328"><ele>106.99999999999999</ele><time>2026-03-27T15:43:46Z</time></trkpt><trkpt lat="45.38759422285767" lon="9.072306653542736"><ele>107.0</ele><time>2026-03-27T15:43:47Z</time></trkpt><trkpt lat="45.38757523258968" lon="9.072165054539282"><ele>106.8</ele><time>2026-03-27T15:43:49Z</time></trkpt><trkpt lat="45.38757536995553" lon="9.072055977358126"><ele>106.6</ele><time>2026-03-27T15:43:51Z</time></trkpt><trkpt lat="45.38745686764625" lon="9.071930285197656"><ele>106.39999999999999</ele><time>2026-03-27T15:43:54Z</time></trkpt><trkpt lat="45.38738352981692" lon="9.071910476986135"><ele>106.19999999999999</ele><time>2026-03-27T15:43:55Z</time></trkpt><trkpt lat="45.38728887910237" lon="9.07187085176378"><ele>106.0</ele><time>2026-03-27T15:43:56Z</time></trkpt><trkpt lat="45.387173675502765" lon="9.07184075335137"><ele>105.8</ele><time>2026-03-27T15:43:57Z</time></trkpt><trkpt lat="45.38706584494855" lon="9.071839549207908"><ele>105.6</ele><time>2026-03-27T15:43:58Z</time></trkpt><trkpt lat="45.38696729723038" lon="9.071852634978152"><ele>105.4</ele><time>2026-03-27T15:43:59Z</time></trkpt><trkpt lat="45.386862941672945" lon="9.071890183914372"><ele>105.2</ele><time>2026-03-27T15:44:00Z</time></trkpt><trkpt lat="45.38675673134106" lon="9.071943316044118"><ele>105.0</ele><time>2026-03-27T15:44:01Z</time></trkpt><trkpt lat="45.386651145482226" lon="9.072008314244755"><ele>105.0</ele><time>2026-03-27T15:44:02Z</time></trkpt><trkpt lat="45.38655104820052" lon="9.07208128803512"><ele>105.0</ele><time>2026-03-27T15:44:03Z</time></trkpt><trkpt lat="45.38643761646516" lon="9.072160202835159"><ele>105.0</ele><time>2026-03-27T15:44:04Z</time></trkpt><trkpt lat="45.386331394272425" lon="9.07223105035893"><ele>105.0</ele><time>2026-03-27T15:44:05Z</time></trkpt><trkpt lat="45.38623641079317" lon="9.072283454576827"><ele>105.25</ele><time>2026-03-27T15:44:06Z</time></trkpt><trkpt lat="45.38612871649308" lon="9.072329997986154"><ele>105.5</ele><time>2026-03-27T15:44:07Z</time></trkpt><trkpt lat="45.38600577507161" lon="9.072374228075551"><ele>105.75</ele><time>2026-03-27T15:44:08Z</time></trkpt><trkpt lat="45.38588309891645" lon="9.072402519480688"><ele>106.0</ele><time>2026-03-27T15:44:09Z</time></trkpt><trkpt lat="45.38576273921782" lon="9.072406928610269"><ele>106.0</ele><time>2026-03-27T15:44:10Z</time></trkpt><trkpt lat="45.38564613294165" lon="9.07240538150703"><ele>106.0</ele><time>2026-03-27T15:44:11Z</time></trkpt><trkpt lat="45.38553607977556" lon="9.072403402832078"><ele>106.0</ele><time>2026-03-27T15:44:12Z</time></trkpt><trkpt lat="45.38541256556505" lon="9.07240047122435"><ele>106.0</ele><time>2026-03-27T15:44:13Z</time></trkpt><trkpt lat="45.38528465697385" lon="9.072395975889634"><ele>105.75</ele><time>2026-03-27T15:44:14Z</time></trkpt><trkpt lat="45.38516047772781" lon="9.072395113298192"><ele>105.5</ele><time>2026-03-27T15:44:15Z</time></trkpt><trkpt lat="45.385022067569885" lon="9.072425277884442"><ele>105.25</ele><time>2026-03-27T15:44:16Z</time></trkpt><trkpt lat="45.384886346285626" lon="9.072497534940114"><ele>105.0</ele><time>2026-03-27T15:44:17Z</time></trkpt><trkpt lat="45.38474273652077" lon="9.072592554180623"><ele>105.33333333333334</ele><time>2026-03-27T15:44:18Z</time></trkpt><trkpt lat="45.384588101088696" lon="9.072700480140913"><ele>105.66666666666667</ele><time>2026-03-27T15:44:19Z</time></trkpt><trkpt lat="45.38444579046303" lon="9.072806492655186"><ele>106.0</ele><time>2026-03-27T15:44:19.999Z</time></trkpt><trkpt lat="45.38430474867789" lon="9.072911096192897"><ele>106.0</ele><time>2026-03-27T15:44:20.999Z</time></trkpt><trkpt lat="45.38416307590127" lon="9.073020625153337"><ele>106.0</ele><time>2026-03-27T15:44:21.999Z</time></trkpt><trkpt lat="45.384050332840516" lon="9.073149720700414"><ele>106.0</ele><time>2026-03-27T15:44:22.999Z</time></trkpt><trkpt lat="45.3839471155705" lon="9.073250611773668"><ele>106.0</ele><time>2026-03-27T15:44:23.999Z</time></trkpt><trkpt lat="45.38383651151925" lon="9.073346435913988"><ele>105.66666666666667</ele><time>2026-03-27T15:44:24.999Z</time></trkpt><trkpt lat="45.38370386803469" lon="9.073420535782622"><ele>105.33333333333334</ele><time>2026-03-27T15:44:25.999Z</time></trkpt><trkpt lat="45.3835490075096" lon="9.073493775257454"><ele>105.0</ele><time>2026-03-27T15:44:26.999Z</time></trkpt><trkpt lat="45.383382670937564" lon="9.073569997630946"><ele>105.0</ele><time>2026-03-27T15:44:27.999Z</time></trkpt><trkpt lat="45.38323684969892" lon="9.073638041705859"><ele>105.0</ele><time>2026-03-27T15:44:28.999Z</time></trkpt><trkpt lat="45.38309410250993" lon="9.073706359145264"><ele>105.0</ele><time>2026-03-27T15:44:29.999Z</time></trkpt><trkpt lat="45.382928696525845" lon="9.07378300518928"><ele>104.75</ele><time>2026-03-27T15:44:30.999Z</time></trkpt><trkpt lat="45.382785413901445" lon="9.073853802413602"><ele>104.5</ele><time>2026-03-27T15:44:31.999Z</time></trkpt><trkpt lat="45.382651883033695" lon="9.073912433243489"><ele>104.25</ele><time>2026-03-27T15:44:32.999Z</time></trkpt><trkpt lat="45.38253071863268" lon="9.073971450197158"><ele>104.0</ele><time>2026-03-27T15:44:33.999Z</time></trkpt><trkpt lat="45.38240587204415" lon="9.074035134259297"><ele>104.0</ele><time>2026-03-27T15:44:34.999Z</time></trkpt><trkpt lat="45.3822945027638" lon="9.074086732214228"><ele>104.0</ele><time>2026-03-27T15:44:35.999Z</time></trkpt><trkpt lat="45.382189605998214" lon="9.074131915821797"><ele>104.0</ele><time>2026-03-27T15:44:36.999Z</time></trkpt><trkpt lat="45.38209818037882" lon="9.07415562856087"><ele>104.0</ele><time>2026-03-27T15:44:37.999Z</time></trkpt><trkpt lat="45.382002252281076" lon="9.074171376810662"><ele>104.0</ele><time>2026-03-27T15:44:38.999Z</time></trkpt><trkpt lat="45.38190123420049" lon="9.074180590368776"><ele>103.99999999999999</ele><time>2026-03-27T15:44:39.999Z</time></trkpt><trkpt lat="45.381811928933125" lon="9.074207269965502"><ele>104.0</ele><time>2026-03-27T15:44:40.999Z</time></trkpt><trkpt lat="45.381713777732344" lon="9.074258787319957"><ele>104.0</ele><time>2026-03-27T15:44:41.999Z</time></trkpt><trkpt lat="45.381636498723026" lon="9.074313817506136"><ele>104.0</ele><time>2026-03-27T15:44:42.999Z</time></trkpt><trkpt lat="45.38156842454869" lon="9.074348068541408"><ele>103.99999999999999</ele><time>2026-03-27T15:44:43.999Z</time></trkpt><trkpt lat="45.381509430642446" lon="9.074382857458431"><ele>104.0</ele><time>2026-03-27T15:44:45Z</time></trkpt><trkpt lat="45.38141602155352" lon="9.07442741916949"><ele>103.99999999999999</ele><time>2026-03-27T15:44:47Z</time></trkpt><trkpt lat="45.381407316072426" lon="9.07456828750378"><ele>104.0</ele><time>2026-03-27T15:44:51Z</time></trkpt><trkpt lat="45.38146550257609" lon="9.0746280125466"><ele>104.0</ele><time>2026-03-27T15:44:53Z</time></trkpt><trkpt lat="45.38152087110935" lon="9.074674418956349"><ele>104.0</ele><time>2026-03-27T15:44:54Z</time></trkpt><trkpt lat="45.381577717723594" lon="9.074714404239264"><ele>103.99999999999999</ele><time>2026-03-27T15:44:55Z</time></trkpt><trkpt lat="45.38166955057578" lon="9.07480858960111"><ele>104.0</ele><time>2026-03-27T15:44:57Z</time></trkpt><trkpt lat="45.381771395018546" lon="9.074928137489563"><ele>104.0</ele><time>2026-03-27T15:44:59Z</time></trkpt><trkpt lat="45.381821876559606" lon="9.075001288989693"><ele>104.0</ele><time>2026-03-27T15:45:00Z</time></trkpt><trkpt lat="45.38188652201414" lon="9.07511839414524"><ele>104.0</ele><time>2026-03-27T15:45:02Z</time></trkpt><trkpt lat="45.381947970422964" lon="9.075233627424675"><ele>104.0</ele><time>2026-03-27T15:45:04Z</time></trkpt><trkpt lat="45.381937026065266" lon="9.075367837901917"><ele>104.0</ele><time>2026-03-27T15:45:07Z</time></trkpt><trkpt lat="45.38182894607809" lon="9.07544259642885"><ele>104.0</ele><time>2026-03-27T15:45:09Z</time></trkpt><trkpt lat="45.381750046884285" lon="9.07551308292809"><ele>104.0</ele><time>2026-03-27T15:45:10Z</time></trkpt><trkpt lat="45.38165040274073" lon="9.07561174577141"><ele>104.0</ele><time>2026-03-27T15:45:11Z</time></trkpt><trkpt lat="45.38157407875398" lon="9.075691707246554"><ele>104.0</ele><time>2026-03-27T15:45:12Z</time></trkpt><trkpt lat="45.38150234615261" lon="9.075761133349223"><ele>104.0</ele><time>2026-03-27T15:45:13Z</time></trkpt><trkpt lat="45.381430542711264" lon="9.075823577329253"><ele>103.99999999999999</ele><time>2026-03-27T15:45:14Z</time></trkpt><trkpt lat="45.38136840760924" lon="9.075878357007749"><ele>104.0</ele><time>2026-03-27T15:45:15Z</time></trkpt><trkpt lat="45.38129670666541" lon="9.075950808059119"><ele>104.0</ele><time>2026-03-27T15:45:16Z</time></trkpt><trkpt lat="45.38122802053808" lon="9.07602732547251"><ele>104.0</ele><time>2026-03-27T15:45:17Z</time></trkpt><trkpt lat="45.381164385778156" lon="9.076107753178142"><ele>103.99999999999999</ele><time>2026-03-27T15:45:18Z</time></trkpt><trkpt lat="45.381111865466295" lon="9.076173810088404"><ele>104.0</ele><time>2026-03-27T15:45:19Z</time></trkpt><trkpt lat="45.38106298921471" lon="9.076265145951494"><ele>104.0</ele><time>2026-03-27T15:45:20Z</time></trkpt><trkpt lat="45.38097739663816" lon="9.076322718385855"><ele>104.0</ele><time>2026-03-27T15:45:21Z</time></trkpt><trkpt lat="45.38089450816065" lon="9.07638023296019"><ele>104.0</ele><time>2026-03-27T15:45:22Z</time></trkpt><trkpt lat="45.380792736917314" lon="9.076423639940637"><ele>104.0</ele><time>2026-03-27T15:45:23Z</time></trkpt><trkpt lat="45.38067987125897" lon="9.076469373255144"><ele>104.0</ele><time>2026-03-27T15:45:24Z</time></trkpt><trkpt lat="45.380573892750554" lon="9.076537171868484"><ele>104.0</ele><time>2026-03-27T15:45:25Z</time></trkpt><trkpt lat="45.38046703324269" lon="9.076588361182715"><ele>104.0</ele><time>2026-03-27T15:45:26Z</time></trkpt><trkpt lat="45.38037319774041" lon="9.076635245407319"><ele>104.0</ele><time>2026-03-27T15:45:27Z</time></trkpt><trkpt lat="45.38028917491719" lon="9.076647010622198"><ele>104.0</ele><time>2026-03-27T15:45:28Z</time></trkpt><trkpt lat="45.38022547854737" lon="9.076672374623467"><ele>104.0</ele><time>2026-03-27T15:45:29Z</time></trkpt><trkpt lat="45.38013563927819" lon="9.076718100852759"><ele>103.99999999999999</ele><time>2026-03-27T15:45:31Z</time></trkpt><trkpt lat="45.380066544985795" lon="9.076759174389794"><ele>104.0</ele><time>2026-03-27T15:45:33Z</time></trkpt><trkpt lat="45.38002734601529" lon="9.076877676414245"><ele>104.0</ele><time>2026-03-27T15:45:35Z</time></trkpt><trkpt lat="45.380064236764404" lon="9.077008091870358"><ele>104.0</ele><time>2026-03-27T15:45:37Z</time></trkpt><trkpt lat="45.38008468287644" lon="9.07710831992535"><ele>103.99999999999999</ele><time>2026-03-27T15:45:38Z</time></trkpt><trkpt lat="45.38011345259797" lon="9.077224776745583"><ele>104.0</ele><time>2026-03-27T15:45:39Z</time></trkpt><trkpt lat="45.38014629046864" lon="9.07737549645781"><ele>103.80000000000001</ele><time>2026-03-27T15:45:40Z</time></trkpt><trkpt lat="45.380173801454944" lon="9.077522206993793"><ele>103.60000000000001</ele><time>2026-03-27T15:45:41Z</time></trkpt><trkpt lat="45.38020336643402" lon="9.077662173158867"><ele>103.4</ele><time>2026-03-27T15:45:42Z</time></trkpt><trkpt lat="45.380233668359445" lon="9.077815109798182"><ele>103.2</ele><time>2026-03-27T15:45:43Z</time></trkpt><trkpt lat="45.380261795107586" lon="9.077957230003522"><ele>103.0</ele><time>2026-03-27T15:45:44Z</time></trkpt><trkpt lat="45.38029059935235" lon="9.0780873219888"><ele>103.0</ele><time>2026-03-27T15:45:45Z</time></trkpt><trkpt lat="45.38031427212356" lon="9.078224928158559"><ele>103.0</ele><time>2026-03-27T15:45:46Z</time></trkpt><trkpt lat="45.38034488508651" lon="9.078383276157847"><ele>103.0</ele><time>2026-03-27T15:45:47Z</time></trkpt><trkpt lat="45.380376478711206" lon="9.078528717671134"><ele>103.0</ele><time>2026-03-27T15:45:48Z</time></trkpt><trkpt lat="45.3804060599234" lon="9.078648061536825"><ele>103.0</ele><time>2026-03-27T15:45:49Z</time></trkpt><trkpt lat="45.380435890548355" lon="9.078756449525319"><ele>103.0</ele><time>2026-03-27T15:45:50Z</time></trkpt><trkpt lat="45.380460970175605" lon="9.078873498616593"><ele>103.0</ele><time>2026-03-27T15:45:51Z</time></trkpt><trkpt lat="45.38049034851134" lon="9.079027261375698"><ele>103.0</ele><time>2026-03-27T15:45:52Z</time></trkpt><trkpt lat="45.380524502588294" lon="9.079194439607775"><ele>103.0</ele><time>2026-03-27T15:45:53Z</time></trkpt><trkpt lat="45.380559097021646" lon="9.079374019134887"><ele>103.0</ele><time>2026-03-27T15:45:54Z</time></trkpt><trkpt lat="45.38059540639989" lon="9.079545016553139"><ele>103.0</ele><time>2026-03-27T15:45:55Z</time></trkpt><trkpt lat="45.380627343827506" lon="9.079699438392495"><ele>103.0</ele><time>2026-03-27T15:45:56Z</time></trkpt><trkpt lat="45.380658773653224" lon="9.079856217229846"><ele>103.0</ele><time>2026-03-27T15:45:57Z</time></trkpt><trkpt lat="45.380691812782494" lon="9.080014791561311"><ele>103.25</ele><time>2026-03-27T15:45:58Z</time></trkpt><trkpt lat="45.38072670556964" lon="9.080181222322881"><ele>103.5</ele><time>2026-03-27T15:45:59Z</time></trkpt><trkpt lat="45.38075982828671" lon="9.080337769771237"><ele>103.75</ele><time>2026-03-27T15:46:00Z</time></trkpt><trkpt lat="45.38079098337108" lon="9.080499738133478"><ele>104.0</ele><time>2026-03-27T15:46:01Z</time></trkpt><trkpt lat="45.38082055391924" lon="9.080647724134947"><ele>104.0</ele><time>2026-03-27T15:46:02Z</time></trkpt><trkpt lat="45.38084534603553" lon="9.080768003605954"><ele>104.0</ele><time>2026-03-27T15:46:03Z</time></trkpt><trkpt lat="45.38087307373183" lon="9.080891366394813"><ele>104.0</ele><time>2026-03-27T15:46:04Z</time></trkpt><trkpt lat="45.38090307633075" lon="9.081031622401968"><ele>104.0</ele><time>2026-03-27T15:46:05Z</time></trkpt><trkpt lat="45.38093469649767" lon="9.081197659993558"><ele>104.0</ele><time>2026-03-27T15:46:06Z</time></trkpt><trkpt lat="45.38096250442094" lon="9.081342692016387"><ele>103.99999999999999</ele><time>2026-03-27T15:46:07Z</time></trkpt><trkpt lat="45.380992841157095" lon="9.08149220400104"><ele>104.0</ele><time>2026-03-27T15:46:08Z</time></trkpt><trkpt lat="45.38102068585045" lon="9.08162682729078"><ele>104.0</ele><time>2026-03-27T15:46:09Z</time></trkpt><trkpt lat="45.381047742426965" lon="9.081742828062666"><ele>104.0</ele><time>2026-03-27T15:46:10Z</time></trkpt><trkpt lat="45.381079472046544" lon="9.081841872023071"><ele>103.99999999999999</ele><time>2026-03-27T15:46:11Z</time></trkpt><trkpt lat="45.38110522957497" lon="9.081931480141604"><ele>104.0</ele><time>2026-03-27T15:46:12Z</time></trkpt><trkpt lat="45.38112590425651" lon="9.082060422382849"><ele>104.0</ele><time>2026-03-27T15:46:14Z</time></trkpt><trkpt lat="45.38113589400015" lon="9.082155998917436"><ele>104.0</ele><time>2026-03-27T15:46:16Z</time></trkpt><trkpt lat="45.381115127391325" lon="9.082255888551764"><ele>104.0</ele><time>2026-03-27T15:46:17.999Z</time></trkpt><trkpt lat="45.381110152660575" lon="9.082381912118862"><ele>104.0</ele><time>2026-03-27T15:46:19.999Z</time></trkpt><trkpt lat="45.381217055633996" lon="9.082572198926018"><ele>104.0</ele><time>2026-03-27T15:46:21.999Z</time></trkpt><trkpt lat="45.38124025073119" lon="9.082693005694965"><ele>104.0</ele><time>2026-03-27T15:46:22.999Z</time></trkpt><trkpt lat="45.38126826328068" lon="9.082821022273013"><ele>104.0</ele><time>2026-03-27T15:46:23.999Z</time></trkpt><trkpt lat="45.38129897282893" lon="9.08294893097149"><ele>104.0</ele><time>2026-03-27T15:46:24.999Z</time></trkpt><trkpt lat="45.381331259065206" lon="9.08307428299878"><ele>104.0</ele><time>2026-03-27T15:46:25.999Z</time></trkpt><trkpt lat="45.38136533729797" lon="9.083214303668134"><ele>104.0</ele><time>2026-03-27T15:46:26.999Z</time></trkpt><trkpt lat="45.38139367368318" lon="9.083345824381162"><ele>103.83333333333333</ele><time>2026-03-27T15:46:27.999Z</time></trkpt><trkpt lat="45.38142003001857" lon="9.083479499075578"><ele>103.66666666666666</ele><time>2026-03-27T15:46:28.999Z</time></trkpt><trkpt lat="45.38144491664956" lon="9.083607973650233"><ele>103.5</ele><time>2026-03-27T15:46:29.999Z</time></trkpt><trkpt lat="45.38146561385362" lon="9.083717426803432"><ele>103.33333333333334</ele><time>2026-03-27T15:46:30.999Z</time></trkpt><trkpt lat="45.38148799845133" lon="9.083820920838926"><ele>103.16666666666667</ele><time>2026-03-27T15:46:31.999Z</time></trkpt><trkpt lat="45.381511114536" lon="9.083938990089077"><ele>103.0</ele><time>2026-03-27T15:46:32.999Z</time></trkpt><trkpt lat="45.381528407712835" lon="9.084033146605966"><ele>103.2</ele><time>2026-03-27T15:46:33.999Z</time></trkpt><trkpt lat="45.38155716982933" lon="9.084194075836823"><ele>103.4</ele><time>2026-03-27T15:46:35.999Z</time></trkpt><trkpt lat="45.38158264850541" lon="9.084333810539398"><ele>103.60000000000001</ele><time>2026-03-27T15:46:37.999Z</time></trkpt><trkpt lat="45.38161146338234" lon="9.084500982426144"><ele>103.80000000000001</ele><time>2026-03-27T15:46:39.999Z</time></trkpt><trkpt lat="45.381634957241474" lon="9.084645707161858"><ele>104.0</ele><time>2026-03-27T15:46:41.999Z</time></trkpt><trkpt lat="45.38165440166122" lon="9.084773288623033"><ele>103.99999999999999</ele><time>2026-03-27T15:46:43.999Z</time></trkpt><trkpt lat="45.38168000482745" lon="9.084912667473645"><ele>104.0</ele><time>2026-03-27T15:46:45.999Z</time></trkpt><trkpt lat="45.381695357692024" lon="9.0850134231685"><ele>104.0</ele><time>2026-03-27T15:46:46.999Z</time></trkpt><trkpt lat="45.38171359345296" lon="9.085120782488957"><ele>104.0</ele><time>2026-03-27T15:46:47.999Z</time></trkpt><trkpt lat="45.38172657257764" lon="9.08521243159198"><ele>103.99999999999999</ele><time>2026-03-27T15:46:48.999Z</time></trkpt><trkpt lat="45.38174162515541" lon="9.085301684710682"><ele>104.0</ele><time>2026-03-27T15:46:49.999Z</time></trkpt><trkpt lat="45.381772372316256" lon="9.085445779193813"><ele>103.99999999999999</ele><time>2026-03-27T15:46:52Z</time></trkpt><trkpt lat="45.38180140582367" lon="9.085589777438685"><ele>104.0</ele><time>2026-03-27T15:46:54Z</time></trkpt><trkpt lat="45.38181727720587" lon="9.085695285311733"><ele>104.0</ele><time>2026-03-27T15:46:55Z</time></trkpt><trkpt lat="45.38183360250093" lon="9.085828433988064"><ele>104.0</ele><time>2026-03-27T15:46:57Z</time></trkpt><trkpt lat="45.381855073127376" lon="9.085923138891992"><ele>103.99999999999999</ele><time>2026-03-27T15:46:59Z</time></trkpt><trkpt lat="45.38187475605383" lon="9.086012664719815"><ele>104.0</ele><time>2026-03-27T15:47:01Z</time></trkpt><trkpt lat="45.38183541019967" lon="9.086106539774596"><ele>104.2</ele><time>2026-03-27T15:47:04Z</time></trkpt><trkpt lat="45.38174547947282" lon="9.086162846318347"><ele>104.4</ele><time>2026-03-27T15:47:06Z</time></trkpt><trkpt lat="45.381684003338485" lon="9.086183423834939"><ele>104.6</ele><time>2026-03-27T15:47:07Z</time></trkpt><trkpt lat="45.38157952094452" lon="9.086235565219898"><ele>104.8</ele><time>2026-03-27T15:47:09Z</time></trkpt><trkpt lat="45.381492046672484" lon="9.086286700602477"><ele>105.0</ele><time>2026-03-27T15:47:11Z</time></trkpt><trkpt lat="45.38137181564133" lon="9.086345806991337"><ele>104.8</ele><time>2026-03-27T15:47:13Z</time></trkpt><trkpt lat="45.381307859449024" lon="9.086378389749106"><ele>104.6</ele><time>2026-03-27T15:47:14Z</time></trkpt><trkpt lat="45.381196287986214" lon="9.086424329261222"><ele>104.4</ele><time>2026-03-27T15:47:16Z</time></trkpt><trkpt lat="45.38113112855538" lon="9.086462014085761"><ele>104.2</ele><time>2026-03-27T15:47:17Z</time></trkpt><trkpt lat="45.38105674908805" lon="9.086500313281723"><ele>104.0</ele><time>2026-03-27T15:47:18Z</time></trkpt><trkpt lat="45.38093006279244" lon="9.086566066754594"><ele>103.99999999999999</ele><time>2026-03-27T15:47:20Z</time></trkpt><trkpt lat="45.38086785065345" lon="9.086596766960547"><ele>104.0</ele><time>2026-03-27T15:47:21Z</time></trkpt><trkpt lat="45.380788329451285" lon="9.08663767126871"><ele>104.0</ele><time>2026-03-27T15:47:22Z</time></trkpt><trkpt lat="45.3807139601685" lon="9.08667749266674"><ele>104.0</ele><time>2026-03-27T15:47:23Z</time></trkpt><trkpt lat="45.38064939601246" lon="9.086713092707392"><ele>103.99999999999999</ele><time>2026-03-27T15:47:24Z</time></trkpt><trkpt lat="45.38057109859308" lon="9.086753469640316"><ele>104.0</ele><time>2026-03-27T15:47:25Z</time></trkpt><trkpt lat="45.38049373085184" lon="9.086792193311759"><ele>103.99999999999999</ele><time>2026-03-27T15:47:26Z</time></trkpt><trkpt lat="45.3804255994216" lon="9.086825791853373"><ele>104.0</ele><time>2026-03-27T15:47:27Z</time></trkpt><trkpt lat="45.38035430375596" lon="9.086867093489639"><ele>104.0</ele><time>2026-03-27T15:47:28Z</time></trkpt><trkpt lat="45.380273937030466" lon="9.086911858821379"><ele>104.0</ele><time>2026-03-27T15:47:29Z</time></trkpt><trkpt lat="45.380199552077045" lon="9.08695005229218"><ele>103.99999999999999</ele><time>2026-03-27T15:47:30Z</time></trkpt><trkpt lat="45.380113026081375" lon="9.08699210751485"><ele>104.0</ele><time>2026-03-27T15:47:31Z</time></trkpt><trkpt lat="45.38002611783576" lon="9.087037058822311"><ele>103.99999999999999</ele><time>2026-03-27T15:47:32Z</time></trkpt><trkpt lat="45.37993899449877" lon="9.087085311317937"><ele>104.0</ele><time>2026-03-27T15:47:33Z</time></trkpt><trkpt lat="45.37985658111515" lon="9.087131842015781"><ele>104.0</ele><time>2026-03-27T15:47:34Z</time></trkpt><trkpt lat="45.37977048890752" lon="9.087174592938016"><ele>104.0</ele><time>2026-03-27T15:47:35Z</time></trkpt><trkpt lat="45.379685483083875" lon="9.087219983132886"><ele>103.99999999999999</ele><time>2026-03-27T15:47:36Z</time></trkpt><trkpt lat="45.379608387408574" lon="9.087262971060584"><ele>104.0</ele><time>2026-03-27T15:47:37Z</time></trkpt><trkpt lat="45.3795297382195" lon="9.087302839159587"><ele>103.99999999999999</ele><time>2026-03-27T15:47:38Z</time></trkpt><trkpt lat="45.37945883825888" lon="9.08734451191301"><ele>104.0</ele><time>2026-03-27T15:47:39Z</time></trkpt><trkpt lat="45.37938402312568" lon="9.087384038794728"><ele>104.0</ele><time>2026-03-27T15:47:40Z</time></trkpt><trkpt lat="45.37931855732711" lon="9.087418738541336"><ele>104.0</ele><time>2026-03-27T15:47:41Z</time></trkpt><trkpt lat="45.37923104461497" lon="9.087463123621793"><ele>103.99999999999999</ele><time>2026-03-27T15:47:43Z</time></trkpt><trkpt lat="45.379166423995244" lon="9.087501440114123"><ele>104.0</ele><time>2026-03-27T15:47:45Z</time></trkpt><trkpt lat="45.37911469799666" lon="9.087567063624048"><ele>104.0</ele><time>2026-03-27T15:47:47Z</time></trkpt><trkpt lat="45.37910394772885" lon="9.087656186577748"><ele>104.0</ele><time>2026-03-27T15:47:49Z</time></trkpt><trkpt lat="45.37913632074399" lon="9.087746114431598"><ele>104.0</ele><time>2026-03-27T15:47:51Z</time></trkpt><trkpt lat="45.37918364633031" lon="9.087870779467737"><ele>104.0</ele><time>2026-03-27T15:47:53Z</time></trkpt><trkpt lat="45.37924754303752" lon="9.088053161535795"><ele>104.0</ele><time>2026-03-27T15:47:55Z</time></trkpt><trkpt lat="45.37928737531022" lon="9.08816988890667"><ele>103.83333333333333</ele><time>2026-03-27T15:47:56Z</time></trkpt><trkpt lat="45.37932374397592" lon="9.088285914773815"><ele>103.66666666666666</ele><time>2026-03-27T15:47:57Z</time></trkpt><trkpt lat="45.379360647534384" lon="9.088392037252065"><ele>103.5</ele><time>2026-03-27T15:47:58Z</time></trkpt><trkpt lat="45.379375193855125" lon="9.088490573671674"><ele>103.33333333333334</ele><time>2026-03-27T15:47:59Z</time></trkpt><trkpt lat="45.37940609666026" lon="9.088587815230484"><ele>103.16666666666667</ele><time>2026-03-27T15:48:00Z</time></trkpt><trkpt lat="45.379439731323004" lon="9.088693653062345"><ele>103.0</ele><time>2026-03-27T15:48:01Z</time></trkpt><trkpt lat="45.379479886342295" lon="9.088820519617625"><ele>103.0</ele><time>2026-03-27T15:48:02Z</time></trkpt><trkpt lat="45.37951909961271" lon="9.088944724440513"><ele>103.0</ele><time>2026-03-27T15:48:03Z</time></trkpt><trkpt lat="45.37955436041736" lon="9.089056409488832"><ele>103.0</ele><time>2026-03-27T15:48:04Z</time></trkpt><trkpt lat="45.37959374410587" lon="9.089180808194753"><ele>103.0</ele><time>2026-03-27T15:48:05Z</time></trkpt><trkpt lat="45.379639884636774" lon="9.089323526218996"><ele>103.0</ele><time>2026-03-27T15:48:06Z</time></trkpt><trkpt lat="45.37968201220112" lon="9.089453039348536"><ele>103.0</ele><time>2026-03-27T15:48:07Z</time></trkpt><trkpt lat="45.379727732643644" lon="9.089588168343932"><ele>103.0</ele><time>2026-03-27T15:48:08Z</time></trkpt><trkpt lat="45.37977329659623" lon="9.089720368520718"><ele>103.0</ele><time>2026-03-27T15:48:09Z</time></trkpt><trkpt lat="45.3798143393477" lon="9.089835746304885"><ele>103.0</ele><time>2026-03-27T15:48:10Z</time></trkpt><trkpt lat="45.37985686103764" lon="9.089953299816964"><ele>103.0</ele><time>2026-03-27T15:48:11Z</time></trkpt><trkpt lat="45.37991326495362" lon="9.090059773549656"><ele>103.00000000000001</ele><time>2026-03-27T15:48:12Z</time></trkpt><trkpt lat="45.37995102567503" lon="9.090171256882073"><ele>103.0</ele><time>2026-03-27T15:48:13Z</time></trkpt><trkpt lat="45.37998596324865" lon="9.090269697890328"><ele>103.0</ele><time>2026-03-27T15:48:14Z</time></trkpt><trkpt lat="45.38001488407318" lon="9.090354471380046"><ele>103.0</ele><time>2026-03-27T15:48:15Z</time></trkpt><trkpt lat="45.3800644334027" lon="9.090490635047269"><ele>103.00000000000001</ele><time>2026-03-27T15:48:16.999Z</time></trkpt><trkpt lat="45.38008945759838" lon="9.090596384268602"><ele>103.0</ele><time>2026-03-27T15:48:18.999Z</time></trkpt><trkpt lat="45.38009194268468" lon="9.090711209371843"><ele>103.0</ele><time>2026-03-27T15:48:20.999Z</time></trkpt><trkpt lat="45.38004372939791" lon="9.090836150921401"><ele>103.0</ele><time>2026-03-27T15:48:22.999Z</time></trkpt><trkpt lat="45.379934379319415" lon="9.090888083618491"><ele>103.0</ele><time>2026-03-27T15:48:24.999Z</time></trkpt><trkpt lat="45.37986867166809" lon="9.090939349180273"><ele>103.0</ele><time>2026-03-27T15:48:25.999Z</time></trkpt><trkpt lat="45.37979509845883" lon="9.090995640000504"><ele>103.0</ele><time>2026-03-27T15:48:26.999Z</time></trkpt><trkpt lat="45.379710322165586" lon="9.091060502265469"><ele>102.75</ele><time>2026-03-27T15:48:27.999Z</time></trkpt><trkpt lat="45.37959167776735" lon="9.091154220205407"><ele>102.5</ele><time>2026-03-27T15:48:28.999Z</time></trkpt><trkpt lat="45.379468020995155" lon="9.091254069845572"><ele>102.25</ele><time>2026-03-27T15:48:29.999Z</time></trkpt><trkpt lat="45.379336363695536" lon="9.091360379465227"><ele>102.0</ele><time>2026-03-27T15:48:30.999Z</time></trkpt><trkpt lat="45.37922169066241" lon="9.091479188946602"><ele>102.0</ele><time>2026-03-27T15:48:31.999Z</time></trkpt><trkpt lat="45.3791063750108" lon="9.09155947010397"><ele>102.0</ele><time>2026-03-27T15:48:32.999Z</time></trkpt><trkpt lat="45.37900785348284" lon="9.091646244267494"><ele>102.0</ele><time>2026-03-27T15:48:33.999Z</time></trkpt><trkpt lat="45.37890514774605" lon="9.091699598943478"><ele>102.0</ele><time>2026-03-27T15:48:34.999Z</time></trkpt><trkpt lat="45.37882498725476" lon="9.091788758689189"><ele>102.16666666666667</ele><time>2026-03-27T15:48:35.999Z</time></trkpt><trkpt lat="45.37874070400658" lon="9.091849937807975"><ele>102.33333333333334</ele><time>2026-03-27T15:48:36.999Z</time></trkpt><trkpt lat="45.37866930462039" lon="9.091908859012973"><ele>102.5</ele><time>2026-03-27T15:48:37.999Z</time></trkpt><trkpt lat="45.37861281849344" lon="9.091948426710044"><ele>102.66666666666667</ele><time>2026-03-27T15:48:38.999Z</time></trkpt><trkpt lat="45.37852811682046" lon="9.092029785004426"><ele>102.83333333333334</ele><time>2026-03-27T15:48:40.999Z</time></trkpt><trkpt lat="45.37850207124167" lon="9.092111461080352"><ele>103.0</ele><time>2026-03-27T15:48:41.999Z</time></trkpt><trkpt lat="45.378518232504746" lon="9.092219248218232"><ele>103.0</ele><time>2026-03-27T15:48:42.999Z</time></trkpt><trkpt lat="45.378596499507545" lon="9.09231147324866"><ele>103.0</ele><time>2026-03-27T15:48:43.999Z</time></trkpt><trkpt lat="45.37865643973943" lon="9.092416097695137"><ele>103.0</ele><time>2026-03-27T15:48:44.999Z</time></trkpt><trkpt lat="45.37872545779647" lon="9.092556046847488"><ele>103.0</ele><time>2026-03-27T15:48:45.999Z</time></trkpt><trkpt lat="45.378786602034694" lon="9.092693137381923"><ele>103.0</ele><time>2026-03-27T15:48:46.999Z</time></trkpt><trkpt lat="45.378847746269045" lon="9.092838282976041"><ele>103.2</ele><time>2026-03-27T15:48:47.999Z</time></trkpt><trkpt lat="45.378901228947036" lon="9.092966922659578"><ele>103.4</ele><time>2026-03-27T15:48:48.999Z</time></trkpt><trkpt lat="45.37895122460958" lon="9.093097175878233"><ele>103.60000000000001</ele><time>2026-03-27T15:48:49.999Z</time></trkpt><trkpt lat="45.379006637836305" lon="9.09324012003418"><ele>103.80000000000001</ele><time>2026-03-27T15:48:50.999Z</time></trkpt><trkpt lat="45.37907288687891" lon="9.093374881198269"><ele>104.0</ele><time>2026-03-27T15:48:51.999Z</time></trkpt><trkpt lat="45.37912859720779" lon="9.093535309422915"><ele>103.6</ele><time>2026-03-27T15:48:52.999Z</time></trkpt><trkpt lat="45.37918675005461" lon="9.093683125124315"><ele>103.2</ele><time>2026-03-27T15:48:53.999Z</time></trkpt><trkpt lat="45.37924024660273" lon="9.093808401594844"><ele>102.8</ele><time>2026-03-27T15:48:54.999Z</time></trkpt><trkpt lat="45.37928914098629" lon="9.093933222149223"><ele>102.39999999999999</ele><time>2026-03-27T15:48:55.999Z</time></trkpt><trkpt lat="45.37933538609763" lon="9.094047228794311"><ele>102.0</ele><time>2026-03-27T15:48:57Z</time></trkpt><trkpt lat="45.37937883018696" lon="9.09415082976483"><ele>101.8</ele><time>2026-03-27T15:48:58Z</time></trkpt><trkpt lat="45.37942421726304" lon="9.094246915659442"><ele>101.6</ele><time>2026-03-27T15:48:59Z</time></trkpt><trkpt lat="45.379465425054086" lon="9.094334535489345"><ele>101.39999999999999</ele><time>2026-03-27T15:49:00Z</time></trkpt><trkpt lat="45.37952223072211" lon="9.094420803668067"><ele>101.19999999999999</ele><time>2026-03-27T15:49:01Z</time></trkpt><trkpt lat="45.379609483740985" lon="9.094513364592617"><ele>101.0</ele><time>2026-03-27T15:49:02Z</time></trkpt><trkpt lat="45.379712316385" lon="9.094593208653839"><ele>101.33333333333333</ele><time>2026-03-27T15:49:03Z</time></trkpt><trkpt lat="45.379801302876714" lon="9.094658102194373"><ele>101.66666666666666</ele><time>2026-03-27T15:49:04Z</time></trkpt><trkpt lat="45.379871425720886" lon="9.094723745101216"><ele>102.0</ele><time>2026-03-27T15:49:05Z</time></trkpt><trkpt lat="45.379952585853744" lon="9.094790792247906"><ele>102.33333333333334</ele><time>2026-03-27T15:49:06Z</time></trkpt><trkpt lat="45.38003076768545" lon="9.094845613452774"><ele>102.66666666666667</ele><time>2026-03-27T15:49:07Z</time></trkpt><trkpt lat="45.38008445245622" lon="9.09492448695755"><ele>103.0</ele><time>2026-03-27T15:49:08Z</time></trkpt><trkpt lat="45.38013637944097" lon="9.094990829459185"><ele>103.0</ele><time>2026-03-27T15:49:09Z</time></trkpt><trkpt lat="45.38020132813179" lon="9.095076029499964"><ele>103.0</ele><time>2026-03-27T15:49:10Z</time></trkpt><trkpt lat="45.380250241086564" lon="9.095200900514982"><ele>103.0</ele><time>2026-03-27T15:49:11Z</time></trkpt><trkpt lat="45.3802875809896" lon="9.095335628999866"><ele>103.0</ele><time>2026-03-27T15:49:12Z</time></trkpt><trkpt lat="45.38031389657809" lon="9.095457241722354"><ele>103.0</ele><time>2026-03-27T15:49:13Z</time></trkpt><trkpt lat="45.38033615216269" lon="9.095561573193041"><ele>103.0</ele><time>2026-03-27T15:49:14Z</time></trkpt><trkpt lat="45.38035552959514" lon="9.095650602974557"><ele>103.0</ele><time>2026-03-27T15:49:15Z</time></trkpt><trkpt lat="45.38038407524881" lon="9.095792045156752"><ele>103.0</ele><time>2026-03-27T15:49:17Z</time></trkpt><trkpt lat="45.38041910413518" lon="9.095947920979759"><ele>103.0</ele><time>2026-03-27T15:49:19Z</time></trkpt><trkpt lat="45.380420902026906" lon="9.096043442107307"><ele>103.0</ele><time>2026-03-27T15:49:20Z</time></trkpt><trkpt lat="45.380461470406075" lon="9.096176537192312"><ele>103.2</ele><time>2026-03-27T15:49:22Z</time></trkpt><trkpt lat="45.380491596422786" lon="9.096355323343024"><ele>103.4</ele><time>2026-03-27T15:49:24Z</time></trkpt><trkpt lat="45.38052166765472" lon="9.096460752021825"><ele>103.60000000000001</ele><time>2026-03-27T15:49:25Z</time></trkpt><trkpt lat="45.380565182975715" lon="9.096586031933409"><ele>103.80000000000001</ele><time>2026-03-27T15:49:26Z</time></trkpt><trkpt lat="45.38062995952704" lon="9.09673180590292"><ele>104.0</ele><time>2026-03-27T15:49:27Z</time></trkpt><trkpt lat="45.38069621563582" lon="9.096904759263484"><ele>104.4</ele><time>2026-03-27T15:49:28Z</time></trkpt><trkpt lat="45.38075704614795" lon="9.097049681062792"><ele>104.80000000000001</ele><time>2026-03-27T15:49:29Z</time></trkpt><trkpt lat="45.38080861669944" lon="9.097169973281563"><ele>105.19999999999999</ele><time>2026-03-27T15:49:30Z</time></trkpt><trkpt lat="45.380836152705754" lon="9.097293865117003"><ele>105.6</ele><time>2026-03-27T15:49:31Z</time></trkpt><trkpt lat="45.38087317979059" lon="9.097396314716692"><ele>106.0</ele><time>2026-03-27T15:49:32Z</time></trkpt><trkpt lat="45.380903778816645" lon="9.097488517779341"><ele>106.0</ele><time>2026-03-27T15:49:33Z</time></trkpt><trkpt lat="45.38087905144579" lon="9.097654859713467"><ele>106.0</ele><time>2026-03-27T15:49:35Z</time></trkpt><trkpt lat="45.38081046567253" lon="9.097749724125666"><ele>106.0</ele><time>2026-03-27T15:49:36Z</time></trkpt><trkpt lat="45.3806949050269" lon="9.097796746787052"><ele>106.0</ele><time>2026-03-27T15:49:37Z</time></trkpt><trkpt lat="45.38058197548016" lon="9.097891465674534"><ele>106.0</ele><time>2026-03-27T15:49:38Z</time></trkpt><trkpt lat="45.38048453474076" lon="9.097973193112159"><ele>106.0</ele><time>2026-03-27T15:49:39Z</time></trkpt><trkpt lat="45.38040192653208" lon="9.098048167344096"><ele>106.0</ele><time>2026-03-27T15:49:40Z</time></trkpt><trkpt lat="45.38033602802246" lon="9.098138177224552"><ele>106.0</ele><time>2026-03-27T15:49:41Z</time></trkpt><trkpt lat="45.38026544768406" lon="9.098205308534626"><ele>106.0</ele><time>2026-03-27T15:49:42Z</time></trkpt><trkpt lat="45.38019273502822" lon="9.09826786338384"><ele>106.0</ele><time>2026-03-27T15:49:43Z</time></trkpt><trkpt lat="45.38011932530601" lon="9.098332028535136"><ele>106.0</ele><time>2026-03-27T15:49:44Z</time></trkpt><trkpt lat="45.38005989571846" lon="9.098389304484677"><ele>106.0</ele><time>2026-03-27T15:49:45Z</time></trkpt><trkpt lat="45.37995692616889" lon="9.098480998960943"><ele>106.0</ele><time>2026-03-27T15:49:47Z</time></trkpt><trkpt lat="45.379905066834056" lon="9.098609390347782"><ele>106.0</ele><time>2026-03-27T15:49:49Z</time></trkpt><trkpt lat="45.37992046508473" lon="9.098705201154695"><ele>106.00000000000001</ele><time>2026-03-27T15:49:50Z</time></trkpt><trkpt lat="45.37997113571778" lon="9.098798939910688"><ele>106.0</ele><time>2026-03-27T15:49:51Z</time></trkpt><trkpt lat="45.38004276177183" lon="9.098906175100096"><ele>106.0</ele><time>2026-03-27T15:49:52Z</time></trkpt><trkpt lat="45.38011101488181" lon="9.099016291508821"><ele>106.0</ele><time>2026-03-27T15:49:53Z</time></trkpt><trkpt lat="45.3801594556231" lon="9.099107213491903"><ele>106.00000000000001</ele><time>2026-03-27T15:49:54Z</time></trkpt><trkpt lat="45.38020238277849" lon="9.099182998155506"><ele>106.0</ele><time>2026-03-27T15:49:55Z</time></trkpt><trkpt lat="45.380274244437366" lon="9.099291696139204"><ele>106.0</ele><time>2026-03-27T15:49:57Z</time></trkpt><trkpt lat="45.3803893056771" lon="9.099195558045668"><ele>106.0</ele><time>2026-03-27T15:49:58Z</time></trkpt><trkpt lat="45.380460579942536" lon="9.099129514545297"><ele>106.0</ele><time>2026-03-27T15:49:59Z</time></trkpt><trkpt lat="45.380563109380766" lon="9.099070220669862"><ele>106.0</ele><time>2026-03-27T15:50:00Z</time></trkpt><trkpt lat="45.3806502218204" lon="9.099008247619533"><ele>106.0</ele><time>2026-03-27T15:50:01Z</time></trkpt><trkpt lat="45.38072289674912" lon="9.098953713720734"><ele>106.0</ele><time>2026-03-27T15:50:02Z</time></trkpt><trkpt lat="45.380784808241906" lon="9.09891568770443"><ele>106.0</ele><time>2026-03-27T15:50:03Z</time></trkpt><trkpt lat="45.38089499654697" lon="9.098917314768004"><ele>106.0</ele><time>2026-03-27T15:50:05Z</time></trkpt><trkpt lat="45.38095968764099" lon="9.098990288551413"><ele>106.0</ele><time>2026-03-27T15:50:06Z</time></trkpt><trkpt lat="45.3810401611259" lon="9.099099691858504"><ele>106.0</ele><time>2026-03-27T15:50:07Z</time></trkpt><trkpt lat="45.38111670230145" lon="9.099191377878709"><ele>106.00000000000001</ele><time>2026-03-27T15:50:08Z</time></trkpt><trkpt lat="45.38117957223447" lon="9.099266825929586"><ele>106.0</ele><time>2026-03-27T15:50:09Z</time></trkpt><trkpt lat="45.381231872296695" lon="9.099325226014155"><ele>106.0</ele><time>2026-03-27T15:50:10Z</time></trkpt><trkpt lat="45.38129423507335" lon="9.099343905470189"><ele>106.0</ele><time>2026-03-27T15:50:11Z</time></trkpt><trkpt lat="45.381372101771916" lon="9.099336127182855"><ele>106.00000000000001</ele><time>2026-03-27T15:50:12Z</time></trkpt><trkpt lat="45.38144946258429" lon="9.099228535228324"><ele>106.0</ele><time>2026-03-27T15:50:13Z</time></trkpt><trkpt lat="45.3815303130693" lon="9.099113009804654"><ele>105.66666666666667</ele><time>2026-03-27T15:50:14Z</time></trkpt><trkpt lat="45.381626471385424" lon="9.09903057785089"><ele>105.33333333333334</ele><time>2026-03-27T15:50:15Z</time></trkpt><trkpt lat="45.38168796832157" lon="9.098938120796602"><ele>105.0</ele><time>2026-03-27T15:50:15.999Z</time></trkpt><trkpt lat="45.38174721123211" lon="9.098871989594903"><ele>104.66666666666666</ele><time>2026-03-27T15:50:16.999Z</time></trkpt><trkpt lat="45.38181342815719" lon="9.098808177322624"><ele>104.33333333333333</ele><time>2026-03-27T15:50:17.999Z</time></trkpt><trkpt lat="45.38188863491857" lon="9.098731403986568"><ele>104.0</ele><time>2026-03-27T15:50:18.999Z</time></trkpt><trkpt lat="45.38196523661438" lon="9.09864313280037"><ele>104.0</ele><time>2026-03-27T15:50:19.999Z</time></trkpt><trkpt lat="45.382040029412636" lon="9.098545530079443"><ele>104.0</ele><time>2026-03-27T15:50:20.999Z</time></trkpt><trkpt lat="45.382134876606706" lon="9.09848853746405"><ele>104.0</ele><time>2026-03-27T15:50:21.999Z</time></trkpt><trkpt lat="45.38222563884009" lon="9.098406854893875"><ele>104.0</ele><time>2026-03-27T15:50:22.999Z</time></trkpt><trkpt lat="45.38233315529801" lon="9.098305082919511"><ele>104.0</ele><time>2026-03-27T15:50:23.999Z</time></trkpt><trkpt lat="45.382418656409286" lon="9.098193629091499"><ele>104.33333333333333</ele><time>2026-03-27T15:50:24.999Z</time></trkpt><trkpt lat="45.38250962564586" lon="9.098127648819151"><ele>104.66666666666666</ele><time>2026-03-27T15:50:25.999Z</time></trkpt><trkpt lat="45.38258107407067" lon="9.098048876352225"><ele>105.0</ele><time>2026-03-27T15:50:26.999Z</time></trkpt><trkpt lat="45.382644052627285" lon="9.097980609977611"><ele>105.33333333333334</ele><time>2026-03-27T15:50:27.999Z</time></trkpt><trkpt lat="45.38269922810026" lon="9.097925720047266"><ele>105.66666666666667</ele><time>2026-03-27T15:50:28.999Z</time></trkpt><trkpt lat="45.38278110810772" lon="9.097828313232467"><ele>106.0</ele><time>2026-03-27T15:50:30.999Z</time></trkpt><trkpt lat="45.38286260377496" lon="9.097840021860259"><ele>106.00000000000001</ele><time>2026-03-27T15:50:32.999Z</time></trkpt><trkpt lat="45.382953351946526" lon="9.097981165944416"><ele>106.0</ele><time>2026-03-27T15:50:34.999Z</time></trkpt><trkpt lat="45.382988948010116" lon="9.098090151979388"><ele>106.0</ele><time>2026-03-27T15:50:35.999Z</time></trkpt><trkpt lat="45.383024080688706" lon="9.098165239488536"><ele>106.0</ele><time>2026-03-27T15:50:36.999Z</time></trkpt><trkpt lat="45.38306064263636" lon="9.098239521728244"><ele>106.00000000000001</ele><time>2026-03-27T15:50:38.999Z</time></trkpt><trkpt lat="45.38311881406946" lon="9.098292632207242"><ele>106.0</ele><time>2026-03-27T15:50:40.999Z</time></trkpt><trkpt lat="45.38322080707341" lon="9.09821988528544"><ele>105.8</ele><time>2026-03-27T15:50:42.999Z</time></trkpt><trkpt lat="45.3832674716627" lon="9.09809468311191"><ele>105.6</ele><time>2026-03-27T15:50:43.999Z</time></trkpt><trkpt lat="45.38334877861491" lon="9.097999058902952"><ele>105.4</ele><time>2026-03-27T15:50:44.999Z</time></trkpt><trkpt lat="45.38343300541697" lon="9.097903173076624"><ele>105.2</ele><time>2026-03-27T15:50:45.999Z</time></trkpt><trkpt lat="45.383510974038074" lon="9.09782796827378"><ele>105.0</ele><time>2026-03-27T15:50:46.999Z</time></trkpt><trkpt lat="45.38357576361777" lon="9.097756969370465"><ele>105.0</ele><time>2026-03-27T15:50:47.999Z</time></trkpt><trkpt lat="45.383663834487784" lon="9.097688561264663"><ele>105.0</ele><time>2026-03-27T15:50:48.999Z</time></trkpt><trkpt lat="45.38373649267483" lon="9.09760626599606"><ele>105.0</ele><time>2026-03-27T15:50:49.999Z</time></trkpt><trkpt lat="45.38381146803295" lon="9.09751986782199"><ele>105.0</ele><time>2026-03-27T15:50:50.999Z</time></trkpt><trkpt lat="45.38388974811273" lon="9.097430123385811"><ele>105.0</ele><time>2026-03-27T15:50:51.999Z</time></trkpt><trkpt lat="45.38398132245624" lon="9.097331313300602"><ele>105.0</ele><time>2026-03-27T15:50:52.999Z</time></trkpt><trkpt lat="45.38406017511554" lon="9.097240808246141"><ele>105.0</ele><time>2026-03-27T15:50:53.999Z</time></trkpt><trkpt lat="45.384121790300036" lon="9.097162609591477"><ele>105.0</ele><time>2026-03-27T15:50:54.999Z</time></trkpt><trkpt lat="45.384172007588234" lon="9.097098876443072"><ele>105.0</ele><time>2026-03-27T15:50:55.999Z</time></trkpt><trkpt lat="45.38424464363458" lon="9.096991248119004"><ele>105.0</ele><time>2026-03-27T15:50:57.999Z</time></trkpt><trkpt lat="45.38432637229623" lon="9.096953338516713"><ele>105.0</ele><time>2026-03-27T15:50:59.999Z</time></trkpt><trkpt lat="45.384417205103446" lon="9.097003647174542"><ele>105.0</ele><time>2026-03-27T15:51:01.999Z</time></trkpt><trkpt lat="45.38446765576124" lon="9.097078912412586"><ele>105.0</ele><time>2026-03-27T15:51:03Z</time></trkpt><trkpt lat="45.384522167293376" lon="9.09719016799712"><ele>105.0</ele><time>2026-03-27T15:51:04Z</time></trkpt><trkpt lat="45.38458617586544" lon="9.097332927603716"><ele>105.0</ele><time>2026-03-27T15:51:05Z</time></trkpt><trkpt lat="45.3846564078533" lon="9.097492260141507"><ele>105.0</ele><time>2026-03-27T15:51:06Z</time></trkpt><trkpt lat="45.38472957695634" lon="9.09764884696253"><ele>105.0</ele><time>2026-03-27T15:51:07Z</time></trkpt><trkpt lat="45.384803622621455" lon="9.09779907488353"><ele>105.0</ele><time>2026-03-27T15:51:08Z</time></trkpt><trkpt lat="45.384882411705064" lon="9.097955487995796"><ele>105.0</ele><time>2026-03-27T15:51:09Z</time></trkpt><trkpt lat="45.38496831178192" lon="9.098119260544534"><ele>105.0</ele><time>2026-03-27T15:51:10Z</time></trkpt><trkpt lat="45.38503846041095" lon="9.09826037692731"><ele>105.0</ele><time>2026-03-27T15:51:11Z</time></trkpt><trkpt lat="45.38509964714905" lon="9.09839546884896"><ele>105.0</ele><time>2026-03-27T15:51:12Z</time></trkpt><trkpt lat="45.385163707249674" lon="9.098523315821335"><ele>105.0</ele><time>2026-03-27T15:51:13Z</time></trkpt><trkpt lat="45.3852376362344" lon="9.098661863262238"><ele>105.0</ele><time>2026-03-27T15:51:14Z</time></trkpt><trkpt lat="45.38531012574134" lon="9.098809522858549"><ele>105.0</ele><time>2026-03-27T15:51:15Z</time></trkpt><trkpt lat="45.385374191283915" lon="9.098942979598716"><ele>105.0</ele><time>2026-03-27T15:51:16Z</time></trkpt><trkpt lat="45.38541465787252" lon="9.099077228622383"><ele>105.0</ele><time>2026-03-27T15:51:17Z</time></trkpt><trkpt lat="45.38548181327898" lon="9.099166124611235"><ele>105.0</ele><time>2026-03-27T15:51:18Z</time></trkpt><trkpt lat="45.38553543397451" lon="9.099257115333737"><ele>105.0</ele><time>2026-03-27T15:51:19Z</time></trkpt><trkpt lat="45.38559345645477" lon="9.099350800857831"><ele>104.8</ele><time>2026-03-27T15:51:20Z</time></trkpt><trkpt lat="45.38565652446766" lon="9.099461138297894"><ele>104.6</ele><time>2026-03-27T15:51:21Z</time></trkpt><trkpt lat="45.38573221883094" lon="9.099600212028522"><ele>104.4</ele><time>2026-03-27T15:51:22Z</time></trkpt><trkpt lat="45.385804471158025" lon="9.0997425591777"><ele>104.2</ele><time>2026-03-27T15:51:23Z</time></trkpt><trkpt lat="45.38586394611672" lon="9.09986159845202"><ele>104.0</ele><time>2026-03-27T15:51:24Z</time></trkpt><trkpt lat="45.38591623658348" lon="9.099965149340207"><ele>103.85714285714285</ele><time>2026-03-27T15:51:25Z</time></trkpt><trkpt lat="45.38594711099773" lon="9.100067387593416"><ele>103.71428571428572</ele><time>2026-03-27T15:51:26Z</time></trkpt><trkpt lat="45.38600017561962" lon="9.100132053052132"><ele>103.57142857142857</ele><time>2026-03-27T15:51:27Z</time></trkpt><trkpt lat="45.38603133335828" lon="9.100212168414247"><ele>103.42857142857142</ele><time>2026-03-27T15:51:28Z</time></trkpt><trkpt lat="45.38606958341048" lon="9.100290854537432"><ele>103.28571428571428</ele><time>2026-03-27T15:51:29Z</time></trkpt><trkpt lat="45.38610670000971" lon="9.100375499637083"><ele>103.14285714285714</ele><time>2026-03-27T15:51:30Z</time></trkpt><trkpt lat="45.386149015764325" lon="9.100458107924203"><ele>103.0</ele><time>2026-03-27T15:51:31Z</time></trkpt><trkpt lat="45.386206515359795" lon="9.100573903977192"><ele>103.00000000000001</ele><time>2026-03-27T15:51:33Z</time></trkpt><trkpt lat="45.386259796464444" lon="9.100656808956373"><ele>103.0</ele><time>2026-03-27T15:51:37Z</time></trkpt><trkpt lat="45.38629708060273" lon="9.100729411025208"><ele>103.0</ele><time>2026-03-27T15:53:03.999Z</time></trkpt><trkpt lat="45.38636664131777" lon="9.100869358148381"><ele>103.0</ele><time>2026-03-27T15:53:05.999Z</time></trkpt><trkpt lat="45.38641684182166" lon="9.100969524039257"><ele>103.00000000000001</ele><time>2026-03-27T15:53:06.999Z</time></trkpt><trkpt lat="45.38646228478261" lon="9.101055933195576"><ele>103.0</ele><time>2026-03-27T15:53:08Z</time></trkpt><trkpt lat="45.38650662392386" lon="9.101147820479454"><ele>102.80000000000001</ele><time>2026-03-27T15:53:09Z</time></trkpt><trkpt lat="45.38655990931449" lon="9.10125282132758"><ele>102.6</ele><time>2026-03-27T15:53:10Z</time></trkpt><trkpt lat="45.38662141122145" lon="9.10137035823663"><ele>102.4</ele><time>2026-03-27T15:53:11Z</time></trkpt><trkpt lat="45.38669006665318" lon="9.1015002135435"><ele>102.19999999999999</ele><time>2026-03-27T15:53:12Z</time></trkpt><trkpt lat="45.38675849171019" lon="9.101632402780323"><ele>102.0</ele><time>2026-03-27T15:53:13Z</time></trkpt><trkpt lat="45.386821891168374" lon="9.10176098196744"><ele>102.0</ele><time>2026-03-27T15:53:14Z</time></trkpt><trkpt lat="45.386890291287514" lon="9.101901171584684"><ele>102.0</ele><time>2026-03-27T15:53:15Z</time></trkpt><trkpt lat="45.38695506969906" lon="9.10202915417795"><ele>102.0</ele><time>2026-03-27T15:53:16Z</time></trkpt><trkpt lat="45.387016386815915" lon="9.102147054025531"><ele>102.0</ele><time>2026-03-27T15:53:17Z</time></trkpt><trkpt lat="45.387086264702454" lon="9.102275711161946"><ele>102.0</ele><time>2026-03-27T15:53:18Z</time></trkpt><trkpt lat="45.38715625682624" lon="9.102409746351286"><ele>102.0</ele><time>2026-03-27T15:53:19Z</time></trkpt><trkpt lat="45.38721085056788" lon="9.102521076572202"><ele>102.0</ele><time>2026-03-27T15:53:20Z</time></trkpt><trkpt lat="45.38725862591306" lon="9.10261829157173"><ele>102.0</ele><time>2026-03-27T15:53:21Z</time></trkpt><trkpt lat="45.38729702885102" lon="9.1026917675484"><ele>102.0</ele><time>2026-03-27T15:53:22Z</time></trkpt><trkpt lat="45.387334944251954" lon="9.102766233862612"><ele>102.0</ele><time>2026-03-27T15:53:23Z</time></trkpt><trkpt lat="45.38739445387326" lon="9.102889447226415"><ele>102.0</ele><time>2026-03-27T15:53:25Z</time></trkpt><trkpt lat="45.387464100456455" lon="9.103032700592305"><ele>102.0</ele><time>2026-03-27T15:53:27Z</time></trkpt><trkpt lat="45.38750318259498" lon="9.103107251459049"><ele>102.0</ele><time>2026-03-27T15:53:28Z</time></trkpt><trkpt lat="45.38755787370175" lon="9.10322409707403"><ele>102.0</ele><time>2026-03-27T15:53:30Z</time></trkpt><trkpt lat="45.387608660236815" lon="9.103323557833429"><ele>102.0</ele><time>2026-03-27T15:53:32Z</time></trkpt><trkpt lat="45.387651000221695" lon="9.103397768887287"><ele>102.0</ele><time>2026-03-27T15:53:34Z</time></trkpt><trkpt lat="45.38769637211892" lon="9.103501378197842"><ele>102.0</ele><time>2026-03-27T15:53:37Z</time></trkpt><trkpt lat="45.38773029276644" lon="9.103608746411984"><ele>102.0</ele><time>2026-03-27T15:53:40Z</time></trkpt><trkpt lat="45.387773941600194" lon="9.10370781698857"><ele>102.0</ele><time>2026-03-27T15:53:43Z</time></trkpt><trkpt lat="45.38781665618185" lon="9.10379921025938"><ele>102.0</ele><time>2026-03-27T15:53:46Z</time></trkpt><trkpt lat="45.3878777115625" lon="9.103905921562026"><ele>102.0</ele><time>2026-03-27T15:53:49Z</time></trkpt><trkpt lat="45.3879429188875" lon="9.104031137699259"><ele>102.0</ele><time>2026-03-27T15:53:51Z</time></trkpt><trkpt lat="45.38799104253477" lon="9.104124405508157"><ele>102.0</ele><time>2026-03-27T15:53:52Z</time></trkpt><trkpt lat="45.388034774412894" lon="9.104207598240844"><ele>102.33333333333333</ele><time>2026-03-27T15:53:53Z</time></trkpt><trkpt lat="45.38807249522476" lon="9.104282027412419"><ele>102.66666666666666</ele><time>2026-03-27T15:53:54Z</time></trkpt><trkpt lat="45.38814302817603" lon="9.104420242445606"><ele>103.0</ele><time>2026-03-27T15:53:56Z</time></trkpt><trkpt lat="45.38818440858332" lon="9.10450127948147"><ele>103.33333333333333</ele><time>2026-03-27T15:53:57Z</time></trkpt><trkpt lat="45.38823485245969" lon="9.104601761222662"><ele>103.66666666666666</ele><time>2026-03-27T15:53:58Z</time></trkpt><trkpt lat="45.38829240105491" lon="9.104716445483236"><ele>104.0</ele><time>2026-03-27T15:53:59Z</time></trkpt><trkpt lat="45.3883547146271" lon="9.104845413791308"><ele>104.25</ele><time>2026-03-27T15:54:00Z</time></trkpt><trkpt lat="45.38841417437337" lon="9.104969268405446"><ele>104.5</ele><time>2026-03-27T15:54:01Z</time></trkpt><trkpt lat="45.388476446038666" lon="9.105103157454362"><ele>104.75</ele><time>2026-03-27T15:54:02Z</time></trkpt><trkpt lat="45.38854522349259" lon="9.10525526454397"><ele>105.0</ele><time>2026-03-27T15:54:03Z</time></trkpt><trkpt lat="45.38861203500304" lon="9.105395572730082"><ele>105.0</ele><time>2026-03-27T15:54:04Z</time></trkpt><trkpt lat="45.38867648940535" lon="9.105527576508178"><ele>105.0</ele><time>2026-03-27T15:54:05Z</time></trkpt><trkpt lat="45.38873429109503" lon="9.10565099000561"><ele>105.0</ele><time>2026-03-27T15:54:06Z</time></trkpt><trkpt lat="45.38878168635686" lon="9.105763823513364"><ele>105.0</ele><time>2026-03-27T15:54:07Z</time></trkpt><trkpt lat="45.38883175281709" lon="9.105872752162036"><ele>105.0</ele><time>2026-03-27T15:54:08Z</time></trkpt><trkpt lat="45.38888672242876" lon="9.106000246309184"><ele>104.6</ele><time>2026-03-27T15:54:09Z</time></trkpt><trkpt lat="45.3889315113802" lon="9.10610929469999"><ele>104.2</ele><time>2026-03-27T15:54:10Z</time></trkpt><trkpt lat="45.38897794706736" lon="9.106220294237263"><ele>103.80000000000001</ele><time>2026-03-27T15:54:11Z</time></trkpt><trkpt lat="45.38901062869301" lon="9.106350722390372"><ele>103.4</ele><time>2026-03-27T15:54:12Z</time></trkpt><trkpt lat="45.38903003972461" lon="9.106503778816226"><ele>103.0</ele><time>2026-03-27T15:54:13Z</time></trkpt><trkpt lat="45.38903408147944" lon="9.106672332552442"><ele>103.0</ele><time>2026-03-27T15:54:14Z</time></trkpt><trkpt lat="45.38903385600536" lon="9.106823167249543"><ele>103.0</ele><time>2026-03-27T15:54:15Z</time></trkpt><trkpt lat="45.389034340466424" lon="9.106963958651429"><ele>103.0</ele><time>2026-03-27T15:54:16Z</time></trkpt><trkpt lat="45.38903652013248" lon="9.107089699019477"><ele>103.0</ele><time>2026-03-27T15:54:17Z</time></trkpt><trkpt lat="45.38904668135264" lon="9.107203823828739"><ele>103.0</ele><time>2026-03-27T15:54:18Z</time></trkpt><trkpt lat="45.38905993809555" lon="9.107320227930844"><ele>103.0</ele><time>2026-03-27T15:54:19Z</time></trkpt><trkpt lat="45.389084867118726" lon="9.107453837075791"><ele>103.0</ele><time>2026-03-27T15:54:20Z</time></trkpt><trkpt lat="45.38910485139943" lon="9.107599615816744"><ele>103.0</ele><time>2026-03-27T15:54:21Z</time></trkpt><trkpt lat="45.38914004838687" lon="9.107717933907804"><ele>103.0</ele><time>2026-03-27T15:54:23Z</time></trkpt><trkpt lat="45.389160145617794" lon="9.107836001369693"><ele>103.0</ele><time>2026-03-27T15:54:24Z</time></trkpt><trkpt lat="45.38917874072434" lon="9.107957838174713"><ele>103.00000000000001</ele><time>2026-03-27T15:54:25Z</time></trkpt><trkpt lat="45.38919841306034" lon="9.108054894472943"><ele>103.0</ele><time>2026-03-27T15:54:25.999Z</time></trkpt><trkpt lat="45.38921886013544" lon="9.10816187690494"><ele>103.0</ele><time>2026-03-27T15:54:26.999Z</time></trkpt><trkpt lat="45.389241677114946" lon="9.108278109026955"><ele>103.0</ele><time>2026-03-27T15:54:27.999Z</time></trkpt><trkpt lat="45.389263878187734" lon="9.108381532421758"><ele>103.00000000000001</ele><time>2026-03-27T15:54:28.999Z</time></trkpt><trkpt lat="45.3892901022546" lon="9.108498817689963"><ele>103.0</ele><time>2026-03-27T15:54:29.999Z</time></trkpt><trkpt lat="45.389313496790365" lon="9.108613760393986"><ele>103.00000000000001</ele><time>2026-03-27T15:54:30.999Z</time></trkpt><trkpt lat="45.38933634336986" lon="9.108723213652786"><ele>103.0</ele><time>2026-03-27T15:54:31.999Z</time></trkpt><trkpt lat="45.38935313779858" lon="9.108817141800401"><ele>103.0</ele><time>2026-03-27T15:54:32.999Z</time></trkpt><trkpt lat="45.389372549508536" lon="9.108914682177561"><ele>103.0</ele><time>2026-03-27T15:54:33.999Z</time></trkpt><trkpt lat="45.389389093145255" lon="9.10902638031474"><ele>103.00000000000001</ele><time>2026-03-27T15:54:34.999Z</time></trkpt><trkpt lat="45.38940575240565" lon="9.109147449577803"><ele>103.0</ele><time>2026-03-27T15:54:35.999Z</time></trkpt><trkpt lat="45.389418350168256" lon="9.10927273110319"><ele>103.00000000000001</ele><time>2026-03-27T15:54:36.999Z</time></trkpt><trkpt lat="45.389426163969304" lon="9.109372759079532"><ele>103.0</ele><time>2026-03-27T15:54:37.999Z</time></trkpt><trkpt lat="45.38942740122058" lon="9.109477917867636"><ele>103.0</ele><time>2026-03-27T15:54:38.999Z</time></trkpt><trkpt lat="45.389431244428565" lon="9.109578838036747"><ele>103.0</ele><time>2026-03-27T15:54:39.999Z</time></trkpt><trkpt lat="45.389430113511935" lon="9.109668780453978"><ele>103.00000000000001</ele><time>2026-03-27T15:54:40.999Z</time></trkpt><trkpt lat="45.38942313576176" lon="9.109804540432668"><ele>103.0</ele><time>2026-03-27T15:54:42.999Z</time></trkpt><trkpt lat="45.38939963298868" lon="9.109913757429794"><ele>103.4</ele><time>2026-03-27T15:54:44.999Z</time></trkpt><trkpt lat="45.38940040759562" lon="9.11002852808793"><ele>103.80000000000001</ele><time>2026-03-27T15:54:47.999Z</time></trkpt><trkpt lat="45.389371494662946" lon="9.110203455259006"><ele>104.2</ele><time>2026-03-27T15:54:50.999Z</time></trkpt><trkpt lat="45.389360128096286" lon="9.110310277611223"><ele>104.6</ele><time>2026-03-27T15:54:51.999Z</time></trkpt><trkpt lat="45.38934230682929" lon="9.11046961786275"><ele>105.0</ele><time>2026-03-27T15:54:52.999Z</time></trkpt><trkpt lat="45.389321556584015" lon="9.110640941861606"><ele>105.66666666666666</ele><time>2026-03-27T15:54:53.999Z</time></trkpt><trkpt lat="45.38929345095728" lon="9.110848019416412"><ele>106.33333333333333</ele><time>2026-03-27T15:54:54.999Z</time></trkpt><trkpt lat="45.38927394726095" lon="9.11107326041412"><ele>107.0</ele><time>2026-03-27T15:54:55.999Z</time></trkpt><trkpt lat="45.38923447635341" lon="9.111312066147304"><ele>107.0</ele><time>2026-03-27T15:54:56.999Z</time></trkpt><trkpt lat="45.38920428138005" lon="9.11151608037065"><ele>107.0</ele><time>2026-03-27T15:54:57.999Z</time></trkpt><trkpt lat="45.38916393227837" lon="9.111697552690591"><ele>107.0</ele><time>2026-03-27T15:54:58.999Z</time></trkpt><trkpt lat="45.38913930818458" lon="9.11186268642385"><ele>107.0</ele><time>2026-03-27T15:54:59.999Z</time></trkpt><trkpt lat="45.38912301974978" lon="9.112053829477704"><ele>107.0</ele><time>2026-03-27T15:55:00.999Z</time></trkpt><trkpt lat="45.38908799014176" lon="9.112230517458576"><ele>106.99999999999999</ele><time>2026-03-27T15:55:01.999Z</time></trkpt><trkpt lat="45.38906523135011" lon="9.112393719125322"><ele>106.99999999999999</ele><time>2026-03-27T15:55:02.999Z</time></trkpt><trkpt lat="45.389049887583084" lon="9.112518918350602"><ele>107.0</ele><time>2026-03-27T15:55:03.999Z</time></trkpt><trkpt lat="45.38902978227305" lon="9.112613536168492"><ele>107.0</ele><time>2026-03-27T15:55:04.999Z</time></trkpt><trkpt lat="45.389015563611" lon="9.112733349110385"><ele>107.0</ele><time>2026-03-27T15:55:06.999Z</time></trkpt><trkpt lat="45.38900942694499" lon="9.112851513986497"><ele>107.0</ele><time>2026-03-27T15:55:09.999Z</time></trkpt><trkpt lat="45.38917915715038" lon="9.11287549146598"><ele>107.0</ele><time>2026-03-27T15:55:10.999Z</time></trkpt><trkpt lat="45.389281288984726" lon="9.112881672177322"><ele>107.0</ele><time>2026-03-27T15:55:11.999Z</time></trkpt><trkpt lat="45.389401380276084" lon="9.1129321178585"><ele>107.0</ele><time>2026-03-27T15:55:12.999Z</time></trkpt><trkpt lat="45.389563018637695" lon="9.112970418991198"><ele>107.0</ele><time>2026-03-27T15:55:14Z</time></trkpt><trkpt lat="45.38973965482874" lon="9.11303114844385"><ele>107.0</ele><time>2026-03-27T15:55:15Z</time></trkpt><trkpt lat="45.38988693530551" lon="9.113072949662527"><ele>107.19999999999999</ele><time>2026-03-27T15:55:16Z</time></trkpt><trkpt lat="45.38999700836115" lon="9.113101079460323"><ele>107.39999999999999</ele><time>2026-03-27T15:55:17Z</time></trkpt><trkpt lat="45.390083525882936" lon="9.113135292590572"><ele>107.60000000000001</ele><time>2026-03-27T15:55:18Z</time></trkpt><trkpt lat="45.390149900656084" lon="9.113158001768591"><ele>107.80000000000001</ele><time>2026-03-27T15:55:19Z</time></trkpt><trkpt lat="45.39025955501239" lon="9.11319614534109"><ele>108.0</ele><time>2026-03-27T15:55:21Z</time></trkpt><trkpt lat="45.39033386096687" lon="9.113205989653899"><ele>108.0</ele><time>2026-03-27T15:55:23Z</time></trkpt><trkpt lat="45.390382545488706" lon="9.11309044316743"><ele>108.0</ele><time>2026-03-27T15:55:27Z</time></trkpt><trkpt lat="45.39038254549021" lon="9.112983429374093"><ele>108.0</ele><time>2026-03-27T15:55:31Z</time></trkpt><trkpt lat="45.39038494274868" lon="9.112827054167818"><ele>108.0</ele><time>2026-03-27T15:55:34Z</time></trkpt><trkpt lat="45.39038534548938" lon="9.11272164082551"><ele>108.0</ele><time>2026-03-27T15:55:35Z</time></trkpt><trkpt lat="45.390375160866945" lon="9.112611302292953"><ele>108.0</ele><time>2026-03-27T15:55:36Z</time></trkpt><trkpt lat="45.39036452637512" lon="9.112474004974189"><ele>107.80000000000001</ele><time>2026-03-27T15:55:37Z</time></trkpt><trkpt lat="45.39036230411622" lon="9.112316823285955"><ele>107.60000000000001</ele><time>2026-03-27T15:55:38Z</time></trkpt><trkpt lat="45.39035873083879" lon="9.112169637362245"><ele>107.39999999999999</ele><time>2026-03-27T15:55:39Z</time></trkpt><trkpt lat="45.39035550458185" lon="9.1120323611742"><ele>107.19999999999999</ele><time>2026-03-27T15:55:40Z</time></trkpt><trkpt lat="45.39036765648305" lon="9.111916512062285"><ele>107.0</ele><time>2026-03-27T15:55:41Z</time></trkpt><trkpt lat="45.390365292334344" lon="9.111804573289998"><ele>106.99999999999999</ele><time>2026-03-27T15:55:42Z</time></trkpt><trkpt lat="45.39036335908478" lon="9.111713036606977"><ele>107.0</ele><time>2026-03-27T15:55:43Z</time></trkpt><trkpt lat="45.390360080535636" lon="9.111557802403828"><ele>107.0</ele><time>2026-03-27T15:55:45Z</time></trkpt><trkpt lat="45.39034832004628" lon="9.111436071848999"><ele>107.0</ele><time>2026-03-27T15:55:47Z</time></trkpt><trkpt lat="45.39042416402504" lon="9.11134942237968"><ele>106.99999999999999</ele><time>2026-03-27T15:55:49Z</time></trkpt><trkpt lat="45.390492329015295" lon="9.11132098119593"><ele>107.0</ele><time>2026-03-27T15:55:50Z</time></trkpt><trkpt lat="45.39058604151963" lon="9.111298074874696"><ele>106.25</ele><time>2026-03-27T15:55:51Z</time></trkpt><trkpt lat="45.39070259425566" lon="9.111269181946653"><ele>105.5</ele><time>2026-03-27T15:55:52Z</time></trkpt><trkpt lat="45.39083318639266" lon="9.111224474395451"><ele>104.75</ele><time>2026-03-27T15:55:53Z</time></trkpt><trkpt lat="45.39095572120749" lon="9.11117932458083"><ele>104.0</ele><time>2026-03-27T15:55:54Z</time></trkpt><trkpt lat="45.3910863094524" lon="9.111137268696202"><ele>104.0</ele><time>2026-03-27T15:55:55Z</time></trkpt><trkpt lat="45.391217739106835" lon="9.11109484402568"><ele>104.0</ele><time>2026-03-27T15:55:56Z</time></trkpt><trkpt lat="45.39135054482129" lon="9.111051541359181"><ele>104.0</ele><time>2026-03-27T15:55:57Z</time></trkpt><trkpt lat="45.391464826842075" lon="9.111008576592146"><ele>104.0</ele><time>2026-03-27T15:55:58Z</time></trkpt><trkpt lat="45.391564521042746" lon="9.110977662851974"><ele>104.0</ele><time>2026-03-27T15:55:59Z</time></trkpt><trkpt lat="45.39166921526642" lon="9.11095083462351"><ele>104.0</ele><time>2026-03-27T15:56:00Z</time></trkpt><trkpt lat="45.391780665028186" lon="9.11091843429299"><ele>104.0</ele><time>2026-03-27T15:56:01Z</time></trkpt><trkpt lat="45.391883579693065" lon="9.110887439266119"><ele>104.0</ele><time>2026-03-27T15:56:02Z</time></trkpt><trkpt lat="45.3919824419226" lon="9.110858075959362"><ele>104.0</ele><time>2026-03-27T15:56:03Z</time></trkpt><trkpt lat="45.39209100288289" lon="9.110825225178719"><ele>104.0</ele><time>2026-03-27T15:56:04Z</time></trkpt><trkpt lat="45.39219724182866" lon="9.110799284542415"><ele>104.0</ele><time>2026-03-27T15:56:05Z</time></trkpt><trkpt lat="45.3922870082402" lon="9.110771619235901"><ele>104.0</ele><time>2026-03-27T15:56:06Z</time></trkpt><trkpt lat="45.3923937028959" lon="9.110731335919859"><ele>104.0</ele><time>2026-03-27T15:56:07Z</time></trkpt><trkpt lat="45.39251131731426" lon="9.110693709607915"><ele>104.0</ele><time>2026-03-27T15:56:08Z</time></trkpt><trkpt lat="45.39263317808923" lon="9.11065547350157"><ele>104.0</ele><time>2026-03-27T15:56:09Z</time></trkpt><trkpt lat="45.392751319782406" lon="9.110621628496634"><ele>104.0</ele><time>2026-03-27T15:56:10Z</time></trkpt><trkpt lat="45.39285221122098" lon="9.110590354969945"><ele>104.0</ele><time>2026-03-27T15:56:11Z</time></trkpt><trkpt lat="45.392945011121164" lon="9.110562693325283"><ele>104.0</ele><time>2026-03-27T15:56:12Z</time></trkpt><trkpt lat="45.39303890341794" lon="9.11054611691783"><ele>104.0</ele><time>2026-03-27T15:56:13Z</time></trkpt><trkpt lat="45.3931246933009" lon="9.110528362458384"><ele>104.0</ele><time>2026-03-27T15:56:14Z</time></trkpt><trkpt lat="45.3932088798957" lon="9.110492854643125"><ele>104.0</ele><time>2026-03-27T15:56:15Z</time></trkpt><trkpt lat="45.393301312547216" lon="9.110451620663525"><ele>104.0</ele><time>2026-03-27T15:56:16Z</time></trkpt><trkpt lat="45.39342421206663" lon="9.110414478490535"><ele>104.0</ele><time>2026-03-27T15:56:17Z</time></trkpt><trkpt lat="45.393549888846685" lon="9.110371813962516"><ele>104.0</ele><time>2026-03-27T15:56:18Z</time></trkpt><trkpt lat="45.393662072000296" lon="9.11033416741193"><ele>104.0</ele><time>2026-03-27T15:56:19Z</time></trkpt><trkpt lat="45.39375811991999" lon="9.110299188031867"><ele>104.0</ele><time>2026-03-27T15:56:20Z</time></trkpt><trkpt lat="45.39384238950718" lon="9.110265238857655"><ele>104.0</ele><time>2026-03-27T15:56:20.999Z</time></trkpt><trkpt lat="45.393936452187525" lon="9.1102300391631"><ele>104.0</ele><time>2026-03-27T15:56:21.999Z</time></trkpt><trkpt lat="45.3940222298561" lon="9.110196409515272"><ele>104.0</ele><time>2026-03-27T15:56:22.999Z</time></trkpt><trkpt lat="45.394101570935874" lon="9.110164657679906"><ele>103.83333333333333</ele><time>2026-03-27T15:56:23.999Z</time></trkpt><trkpt lat="45.39417668659624" lon="9.110137672703416"><ele>103.66666666666666</ele><time>2026-03-27T15:56:24.999Z</time></trkpt><trkpt lat="45.39428967316379" lon="9.110101900129694"><ele>103.5</ele><time>2026-03-27T15:56:26.999Z</time></trkpt><trkpt lat="45.39439988609565" lon="9.110057224635126"><ele>103.33333333333334</ele><time>2026-03-27T15:56:28.999Z</time></trkpt><trkpt lat="45.39446872811739" lon="9.11002806468382"><ele>103.16666666666667</ele><time>2026-03-27T15:56:29.999Z</time></trkpt><trkpt lat="45.394534205416306" lon="9.110008699676243"><ele>103.0</ele><time>2026-03-27T15:56:30.999Z</time></trkpt><trkpt lat="45.39462772176612" lon="9.109996798240324"><ele>103.16666666666667</ele><time>2026-03-27T15:56:32.999Z</time></trkpt><trkpt lat="45.394693664214714" lon="9.109978840654938"><ele>103.33333333333334</ele><time>2026-03-27T15:56:34.999Z</time></trkpt><trkpt lat="45.394748565909964" lon="9.109885836845777"><ele>103.5</ele><time>2026-03-27T15:56:37.999Z</time></trkpt><trkpt lat="45.39475257642109" lon="9.109736475937959"><ele>103.66666666666666</ele><time>2026-03-27T15:56:39.999Z</time></trkpt><trkpt lat="45.394723964926804" lon="9.10959812876838"><ele>103.83333333333333</ele><time>2026-03-27T15:56:41.999Z</time></trkpt><trkpt lat="45.394703851166895" lon="9.109508660125764"><ele>104.0</ele><time>2026-03-27T15:56:42.999Z</time></trkpt><trkpt lat="45.394645222370876" lon="9.109350659362446"><ele>104.16666666666666</ele><time>2026-03-27T15:56:44.999Z</time></trkpt><trkpt lat="45.39461612087795" lon="9.10922295791069"><ele>104.33333333333333</ele><time>2026-03-27T15:56:45.999Z</time></trkpt><trkpt lat="45.39458929207965" lon="9.109105619494937"><ele>104.5</ele><time>2026-03-27T15:56:46.999Z</time></trkpt><trkpt lat="45.39455657239599" lon="9.108976325724363"><ele>104.66666666666666</ele><time>2026-03-27T15:56:47.999Z</time></trkpt><trkpt lat="45.394534241440574" lon="9.108866633416367"><ele>104.83333333333333</ele><time>2026-03-27T15:56:48.999Z</time></trkpt><trkpt lat="45.39451493047577" lon="9.108771828216405"><ele>105.0</ele><time>2026-03-27T15:56:49.999Z</time></trkpt><trkpt lat="45.394484916367894" lon="9.108623518728493"><ele>104.8</ele><time>2026-03-27T15:56:51.999Z</time></trkpt><trkpt lat="45.39448925642028" lon="9.10851581078738"><ele>104.6</ele><time>2026-03-27T15:56:53.999Z</time></trkpt><trkpt lat="45.394554574607696" lon="9.108445406051022"><ele>104.4</ele><time>2026-03-27T15:56:55.999Z</time></trkpt><trkpt lat="45.39467159155508" lon="9.108421639116775"><ele>104.2</ele><time>2026-03-27T15:56:57.999Z</time></trkpt><trkpt lat="45.39477175464913" lon="9.108416230657607"><ele>104.0</ele><time>2026-03-27T15:56:58.999Z</time></trkpt><trkpt lat="45.39489676480469" lon="9.108401179376907"><ele>104.0</ele><time>2026-03-27T15:56:59.999Z</time></trkpt><trkpt lat="45.3950070255723" lon="9.108384974116074"><ele>104.0</ele><time>2026-03-27T15:57:00.999Z</time></trkpt><trkpt lat="45.39510011005488" lon="9.108374400550293"><ele>104.0</ele><time>2026-03-27T15:57:01.999Z</time></trkpt><trkpt lat="45.39518298467376" lon="9.10835829794869"><ele>104.0</ele><time>2026-03-27T15:57:02.999Z</time></trkpt><trkpt lat="45.39526951195193" lon="9.108321967145768"><ele>104.0</ele><time>2026-03-27T15:57:03.999Z</time></trkpt><trkpt lat="45.395359092028094" lon="9.108281079807622"><ele>103.99999999999999</ele><time>2026-03-27T15:57:04.999Z</time></trkpt><trkpt lat="45.395441445733645" lon="9.108253147923385"><ele>104.0</ele><time>2026-03-27T15:57:05.999Z</time></trkpt><trkpt lat="45.39551437574686" lon="9.108238007356677"><ele>104.0</ele><time>2026-03-27T15:57:06.999Z</time></trkpt><trkpt lat="45.395626356116736" lon="9.108225814729739"><ele>104.0</ele><time>2026-03-27T15:57:08.999Z</time></trkpt><trkpt lat="45.39569820111139" lon="9.108205866820306"><ele>103.99999999999999</ele><time>2026-03-27T15:57:10.999Z</time></trkpt><trkpt lat="45.3957159932984" lon="9.108119734473375"><ele>104.0</ele><time>2026-03-27T15:57:12.999Z</time></trkpt><trkpt lat="45.395689947616944" lon="9.10799014101215"><ele>104.2</ele><time>2026-03-27T15:57:14.999Z</time></trkpt><trkpt lat="45.395630778757926" lon="9.107852567931419"><ele>104.4</ele><time>2026-03-27T15:57:16.999Z</time></trkpt><trkpt lat="45.395598520870486" lon="9.107744532990425"><ele>104.6</ele><time>2026-03-27T15:57:17.999Z</time></trkpt><trkpt lat="45.39558173671879" lon="9.107613959423103"><ele>104.8</ele><time>2026-03-27T15:57:18.999Z</time></trkpt><trkpt lat="45.395569892257" lon="9.107471847459937"><ele>105.0</ele><time>2026-03-27T15:57:20Z</time></trkpt><trkpt lat="45.39555951264755" lon="9.107352013303707"><ele>105.0</ele><time>2026-03-27T15:57:21Z</time></trkpt><trkpt lat="45.3955525170309" lon="9.107228463428484"><ele>105.0</ele><time>2026-03-27T15:57:22Z</time></trkpt><trkpt lat="45.39553968276466" lon="9.10709755171033"><ele>105.0</ele><time>2026-03-27T15:57:23Z</time></trkpt><trkpt lat="45.39552411736913" lon="9.106983604558467"><ele>105.0</ele><time>2026-03-27T15:57:24Z</time></trkpt><trkpt lat="45.39551705819973" lon="9.106870780723277"><ele>105.0</ele><time>2026-03-27T15:57:25Z</time></trkpt><trkpt lat="45.395512508517136" lon="9.106756720674777"><ele>105.0</ele><time>2026-03-27T15:57:26Z</time></trkpt><trkpt lat="45.39550429897399" lon="9.106665214798054"><ele>105.16666666666667</ele><time>2026-03-27T15:57:27Z</time></trkpt><trkpt lat="45.39548764542387" lon="9.10656398280667"><ele>105.33333333333334</ele><time>2026-03-27T15:57:28Z</time></trkpt><trkpt lat="45.39547981702249" lon="9.106471789155398"><ele>105.5</ele><time>2026-03-27T15:57:29Z</time></trkpt><trkpt lat="45.39547629673136" lon="9.106328503469474"><ele>105.66666666666667</ele><time>2026-03-27T15:57:31Z</time></trkpt><trkpt lat="45.39543491640139" lon="9.106224720551278"><ele>105.83333333333334</ele><time>2026-03-27T15:57:33Z</time></trkpt><trkpt lat="45.395364066244746" lon="9.106144556980986"><ele>106.0</ele><time>2026-03-27T15:57:35Z</time></trkpt><trkpt lat="45.395329450475906" lon="9.106019332867337"><ele>106.0</ele><time>2026-03-27T15:57:37Z</time></trkpt><trkpt lat="45.39532105644456" lon="9.105919378242952"><ele>106.0</ele><time>2026-03-27T15:57:38Z</time></trkpt><trkpt lat="45.39531098367987" lon="9.105800618993111"><ele>106.0</ele><time>2026-03-27T15:57:39Z</time></trkpt><trkpt lat="45.39529251732646" lon="9.105712810508894"><ele>106.0</ele><time>2026-03-27T15:57:42Z</time></trkpt><trkpt lat="45.39528247113474" lon="9.105607296253732"><ele>106.0</ele><time>2026-03-27T15:57:45Z</time></trkpt><trkpt lat="45.3952637062639" lon="9.105506073814881"><ele>106.0</ele><time>2026-03-27T15:57:49Z</time></trkpt><trkpt lat="45.39524877424321" lon="9.10540727988201"><ele>106.0</ele><time>2026-03-27T15:57:51Z</time></trkpt><trkpt lat="45.39523218702135" lon="9.105306522554988"><ele>106.14285714285715</ele><time>2026-03-27T15:57:59Z</time></trkpt><trkpt lat="45.395222301481354" lon="9.105216365910204"><ele>106.28571428571428</ele><time>2026-03-27T15:58:01Z</time></trkpt><trkpt lat="45.39520648524015" lon="9.105115562149534"><ele>106.42857142857143</ele><time>2026-03-27T15:58:04Z</time></trkpt><trkpt lat="45.39520297080924" lon="9.105007105185914"><ele>106.57142857142858</ele><time>2026-03-27T15:58:08Z</time></trkpt><trkpt lat="45.39520040936688" lon="9.104897194475912"><ele>106.71428571428572</ele><time>2026-03-27T15:58:11Z</time></trkpt><trkpt lat="45.39519654816121" lon="9.104793583460527"><ele>106.85714285714286</ele><time>2026-03-27T15:58:13Z</time></trkpt><trkpt lat="45.39518600744417" lon="9.104686025957612"><ele>107.0</ele><time>2026-03-27T15:58:16Z</time></trkpt><trkpt lat="45.39517171209913" lon="9.104596883868169"><ele>106.99999999999999</ele><time>2026-03-27T15:58:19Z</time></trkpt><trkpt lat="45.395149815596135" lon="9.104466163858854"><ele>107.0</ele><time>2026-03-27T15:58:22Z</time></trkpt><trkpt lat="45.395136050160644" lon="9.104367506455098"><ele>107.0</ele><time>2026-03-27T15:58:24.999Z</time></trkpt><trkpt lat="45.39512489329669" lon="9.104267751669928"><ele>107.0</ele><time>2026-03-27T15:58:29.999Z</time></trkpt><trkpt lat="45.39510636559726" lon="9.104157542054544"><ele>106.99999999999999</ele><time>2026-03-27T15:58:34.999Z</time></trkpt><trkpt lat="45.39508590103484" lon="9.104038908421176"><ele>107.0</ele><time>2026-03-27T15:58:37.999Z</time></trkpt><trkpt lat="45.39505774134106" lon="9.103911667099565"><ele>106.99999999999999</ele><time>2026-03-27T15:58:40.999Z</time></trkpt><trkpt lat="45.39502056160889" lon="9.103766070929016"><ele>107.0</ele><time>2026-03-27T15:58:42.999Z</time></trkpt><trkpt lat="45.39500321360514" lon="9.103621315703755"><ele>107.0</ele><time>2026-03-27T15:58:44.999Z</time></trkpt><trkpt lat="45.39499533358743" lon="9.103525774045348"><ele>107.0</ele><time>2026-03-27T15:58:46.999Z</time></trkpt><trkpt lat="45.394995004876236" lon="9.103428202785338"><ele>106.99999999999999</ele><time>2026-03-27T15:58:50.999Z</time></trkpt><trkpt lat="45.39507495146669" lon="9.103391950417263"><ele>107.0</ele><time>2026-03-27T15:59:22.999Z</time></trkpt><trkpt lat="45.39515475043645" lon="9.103366196716731"><ele>107.00000000000001</ele><time>2026-03-27T15:59:29Z</time></trkpt><trkpt lat="45.39521664375654" lon="9.10334271558702"><ele>107.0</ele><time>2026-03-27T15:59:34Z</time></trkpt><trkpt lat="45.39527964753817" lon="9.1033088846965"><ele>107.0</ele><time>2026-03-27T15:59:39Z</time></trkpt><trkpt lat="45.395355896116996" lon="9.103271921895892"><ele>107.0</ele><time>2026-03-27T15:59:43Z</time></trkpt><trkpt lat="45.39542804086718" lon="9.103236162225008"><ele>107.0</ele><time>2026-03-27T15:59:47Z</time></trkpt><trkpt lat="45.39548775070257" lon="9.103195754242195"><ele>107.00000000000001</ele><time>2026-03-27T15:59:50Z</time></trkpt><trkpt lat="45.39555275891325" lon="9.103181096247777"><ele>107.0</ele><time>2026-03-27T15:59:53Z</time></trkpt><trkpt lat="45.395618768320546" lon="9.103177955680366"><ele>106.49999999999999</ele><time>2026-03-27T15:59:55Z</time></trkpt><trkpt lat="45.39569764886442" lon="9.10317651857007"><ele>106.0</ele><time>2026-03-27T15:59:57Z</time></trkpt><trkpt lat="45.39578025284039" lon="9.103179108928302"><ele>105.5</ele><time>2026-03-27T15:59:59Z</time></trkpt><trkpt lat="45.395860737996735" lon="9.103179775844874"><ele>105.0</ele><time>2026-03-27T16:00:01Z</time></trkpt><trkpt lat="45.39595952047117" lon="9.103173648909275"><ele>104.49999999999999</ele><time>2026-03-27T16:00:03Z</time></trkpt><trkpt lat="45.396043625029186" lon="9.103164749135454"><ele>104.0</ele><time>2026-03-27T16:00:05Z</time></trkpt><trkpt lat="45.39611708657402" lon="9.10315497394346"><ele>104.0</ele><time>2026-03-27T16:00:07Z</time></trkpt><trkpt lat="45.39620258433414" lon="9.103129841304424"><ele>104.0</ele><time>2026-03-27T16:00:09Z</time></trkpt><trkpt lat="45.3962759920577" lon="9.103099089880018"><ele>104.0</ele><time>2026-03-27T16:00:11Z</time></trkpt><trkpt lat="45.39634335903672" lon="9.103072900838162"><ele>104.0</ele><time>2026-03-27T16:00:14Z</time></trkpt><trkpt lat="45.396405478514986" lon="9.103039264744341"><ele>104.0</ele><time>2026-03-27T16:00:17Z</time></trkpt><trkpt lat="45.396480266408524" lon="9.10299825382394"><ele>104.0</ele><time>2026-03-27T16:00:19Z</time></trkpt><trkpt lat="45.39654394759898" lon="9.102963698113955"><ele>104.0</ele><time>2026-03-27T16:00:21Z</time></trkpt><trkpt lat="45.39662715737363" lon="9.102920354168056"><ele>104.49999999999999</ele><time>2026-03-27T16:00:24Z</time></trkpt><trkpt lat="45.396706607506886" lon="9.102875924630991"><ele>105.0</ele><time>2026-03-27T16:00:27Z</time></trkpt><trkpt lat="45.39676907085941" lon="9.102842169029794"><ele>105.5</ele><time>2026-03-27T16:00:29Z</time></trkpt><trkpt lat="45.39682994349293" lon="9.102803181660265"><ele>106.0</ele><time>2026-03-27T16:00:31Z</time></trkpt><trkpt lat="45.396895209793804" lon="9.10272532514945"><ele>106.49999999999999</ele><time>2026-03-27T16:00:33.999Z</time></trkpt><trkpt lat="45.396957552123425" lon="9.102658263660187"><ele>107.0</ele><time>2026-03-27T16:00:37.999Z</time></trkpt><trkpt lat="45.397022003303626" lon="9.102623747435858"><ele>106.99999999999999</ele><time>2026-03-27T16:00:40.999Z</time></trkpt><trkpt lat="45.39709286518654" lon="9.10263214894895"><ele>107.0</ele><time>2026-03-27T16:00:43.999Z</time></trkpt><trkpt lat="45.39717285874318" lon="9.102718272669803"><ele>107.0</ele><time>2026-03-27T16:00:46.999Z</time></trkpt><trkpt lat="45.397247294602444" lon="9.102758929674014"><ele>107.0</ele><time>2026-03-27T16:00:49.999Z</time></trkpt><trkpt lat="45.397296216482" lon="9.102856415904595"><ele>106.99999999999999</ele><time>2026-03-27T16:00:52.999Z</time></trkpt><trkpt lat="45.39732325532259" lon="9.10296423395832"><ele>107.0</ele><time>2026-03-27T16:00:54.999Z</time></trkpt><trkpt lat="45.39738847261957" lon="9.10304311870486"><ele>107.8</ele><time>2026-03-27T16:00:58.999Z</time></trkpt><trkpt lat="45.39746476056308" lon="9.102997673615425"><ele>108.6</ele><time>2026-03-27T16:01:01.999Z</time></trkpt><trkpt lat="45.397546398903664" lon="9.102919563046429"><ele>109.39999999999999</ele><time>2026-03-27T16:01:03.999Z</time></trkpt><trkpt lat="45.39765675244542" lon="9.102821554309507"><ele>110.19999999999999</ele><time>2026-03-27T16:01:05.999Z</time></trkpt><trkpt lat="45.397750299495755" lon="9.102739542303414"><ele>111.0</ele><time>2026-03-27T16:01:07.999Z</time></trkpt><trkpt lat="45.39782177785173" lon="9.102668580753226"><ele>111.0</ele><time>2026-03-27T16:01:09.999Z</time></trkpt><trkpt lat="45.39789658590063" lon="9.10260073659795"><ele>111.0</ele><time>2026-03-27T16:01:11.999Z</time></trkpt><trkpt lat="45.39797756715141" lon="9.102522138086853"><ele>111.0</ele><time>2026-03-27T16:01:13.999Z</time></trkpt><trkpt lat="45.39803993200996" lon="9.102455718189697"><ele>111.0</ele><time>2026-03-27T16:01:15.999Z</time></trkpt><trkpt lat="45.398098585646565" lon="9.1023771568135"><ele>111.0</ele><time>2026-03-27T16:01:17.999Z</time></trkpt><trkpt lat="45.39813401610727" lon="9.102283013707988"><ele>111.0</ele><time>2026-03-27T16:01:19.999Z</time></trkpt><trkpt lat="45.39813673107925" lon="9.102165537545142"><ele>110.33333333333333</ele><time>2026-03-27T16:01:22.999Z</time></trkpt><trkpt lat="45.398209527756485" lon="9.102114283435938"><ele>109.66666666666666</ele><time>2026-03-27T16:01:26.999Z</time></trkpt><trkpt lat="45.398291866231396" lon="9.102075196334054"><ele>109.0</ele><time>2026-03-27T16:01:29.999Z</time></trkpt><trkpt lat="45.39836931958466" lon="9.102024298696152"><ele>108.33333333333333</ele><time>2026-03-27T16:01:33Z</time></trkpt><trkpt lat="45.39843366297102" lon="9.101983551983299"><ele>107.66666666666666</ele><time>2026-03-27T16:01:51Z</time></trkpt><trkpt lat="45.39852064617539" lon="9.101926605421822"><ele>107.0</ele><time>2026-03-27T16:01:54Z</time></trkpt><trkpt lat="45.39859184773655" lon="9.101882244836544"><ele>107.0</ele><time>2026-03-27T16:01:56Z</time></trkpt><trkpt lat="45.398674789929245" lon="9.101840517393294"><ele>106.99999999999999</ele><time>2026-03-27T16:01:59Z</time></trkpt><trkpt lat="45.398749099297305" lon="9.101802728772348"><ele>106.99999999999999</ele><time>2026-03-27T16:02:01Z</time></trkpt><trkpt lat="45.39885175289415" lon="9.101749938271855"><ele>107.0</ele><time>2026-03-27T16:02:03Z</time></trkpt><trkpt lat="45.39897555818953" lon="9.101707746575359"><ele>107.0</ele><time>2026-03-27T16:02:05Z</time></trkpt><trkpt lat="45.39903876806647" lon="9.101692219360055"><ele>106.75</ele><time>2026-03-27T16:02:06Z</time></trkpt><trkpt lat="45.399143859228005" lon="9.101667242386437"><ele>106.5</ele><time>2026-03-27T16:02:08Z</time></trkpt><trkpt lat="45.39928850851486" lon="9.101650654787766"><ele>106.25</ele><time>2026-03-27T16:02:10Z</time></trkpt><trkpt lat="45.399399841133636" lon="9.101646214448543"><ele>106.0</ele><time>2026-03-27T16:02:11Z</time></trkpt><trkpt lat="45.399489500861854" lon="9.101636308628702"><ele>106.00000000000001</ele><time>2026-03-27T16:02:12Z</time></trkpt><trkpt lat="45.39956992781702" lon="9.101613767891587"><ele>106.0</ele><time>2026-03-27T16:02:13Z</time></trkpt><trkpt lat="45.399659357942596" lon="9.101565445281043"><ele>106.0</ele><time>2026-03-27T16:02:14Z</time></trkpt><trkpt lat="45.399754843385246" lon="9.101516489315502"><ele>106.0</ele><time>2026-03-27T16:02:15Z</time></trkpt><trkpt lat="45.39983844552118" lon="9.101494046403912"><ele>106.00000000000001</ele><time>2026-03-27T16:02:16Z</time></trkpt><trkpt lat="45.3999136565521" lon="9.101474610464704"><ele>106.0</ele><time>2026-03-27T16:02:17Z</time></trkpt><trkpt lat="45.399977760866015" lon="9.101450577337417"><ele>106.4</ele><time>2026-03-27T16:02:18Z</time></trkpt><trkpt lat="45.40005052846818" lon="9.101418075050017"><ele>106.8</ele><time>2026-03-27T16:02:19Z</time></trkpt><trkpt lat="45.40015753697342" lon="9.101384159430886"><ele>107.20000000000002</ele><time>2026-03-27T16:02:21Z</time></trkpt><trkpt lat="45.40022305264017" lon="9.10138866729299"><ele>107.60000000000001</ele><time>2026-03-27T16:02:23Z</time></trkpt><trkpt lat="45.400222080676556" lon="9.101146721936663"><ele>108.0</ele><time>2026-03-27T16:02:26Z</time></trkpt><trkpt lat="45.40019758738144" lon="9.101036425337194"><ele>108.0</ele><time>2026-03-27T16:02:26.999Z</time></trkpt><trkpt lat="45.40016505221224" lon="9.100898428584067"><ele>108.00000000000001</ele><time>2026-03-27T16:02:27.999Z</time></trkpt><trkpt lat="45.40013725097445" lon="9.100792242413323"><ele>108.00000000000001</ele><time>2026-03-27T16:02:28.999Z</time></trkpt><trkpt lat="45.40008992238869" lon="9.10063815972295"><ele>108.0</ele><time>2026-03-27T16:02:30.999Z</time></trkpt><trkpt lat="45.40008180177107" lon="9.10048088820175"><ele>108.0</ele><time>2026-03-27T16:02:32.999Z</time></trkpt><trkpt lat="45.40008262454779" lon="9.100366206509367"><ele>108.2</ele><time>2026-03-27T16:02:33.999Z</time></trkpt><trkpt lat="45.40008226555981" lon="9.100241946500141"><ele>108.4</ele><time>2026-03-27T16:02:34.999Z</time></trkpt><trkpt lat="45.40007578721185" lon="9.100067649377358"><ele>108.60000000000001</ele><time>2026-03-27T16:02:36.999Z</time></trkpt><trkpt lat="45.400073005429206" lon="9.099949137927014"><ele>108.80000000000001</ele><time>2026-03-27T16:02:37.999Z</time></trkpt><trkpt lat="45.40006178516218" lon="9.099856775935411"><ele>109.0</ele><time>2026-03-27T16:02:38.999Z</time></trkpt><trkpt lat="45.40005097181432" lon="9.099711391851464"><ele>108.33333333333334</ele><time>2026-03-27T16:02:40.999Z</time></trkpt><trkpt lat="45.40008279356019" lon="9.099606288797524"><ele>107.66666666666667</ele><time>2026-03-27T16:02:42.999Z</time></trkpt><trkpt lat="45.40015468611322" lon="9.099534327129447"><ele>107.0</ele><time>2026-03-27T16:02:44.999Z</time></trkpt><trkpt lat="45.40021657388397" lon="9.099511449635383"><ele>106.33333333333334</ele><time>2026-03-27T16:02:45.999Z</time></trkpt><trkpt lat="45.40029295626867" lon="9.099499305806676"><ele>105.66666666666667</ele><time>2026-03-27T16:02:46.999Z</time></trkpt><trkpt lat="45.400389905696755" lon="9.09949016592529"><ele>105.0</ele><time>2026-03-27T16:02:47.999Z</time></trkpt><trkpt lat="45.40048372481229" lon="9.099485338514326"><ele>105.16666666666667</ele><time>2026-03-27T16:02:48.999Z</time></trkpt><trkpt lat="45.40056999272023" lon="9.09946879126684"><ele>105.33333333333334</ele><time>2026-03-27T16:02:49.999Z</time></trkpt><trkpt lat="45.40065443685661" lon="9.099449208104962"><ele>105.5</ele><time>2026-03-27T16:02:50.999Z</time></trkpt><trkpt lat="45.40072737189968" lon="9.099431739807267"><ele>105.66666666666667</ele><time>2026-03-27T16:02:51.999Z</time></trkpt><trkpt lat="45.40081396058496" lon="9.09940830938912"><ele>105.83333333333334</ele><time>2026-03-27T16:02:52.999Z</time></trkpt><trkpt lat="45.400901055158954" lon="9.099377984322453"><ele>106.0</ele><time>2026-03-27T16:02:53.999Z</time></trkpt><trkpt lat="45.400971699818164" lon="9.099338055398402"><ele>106.0</ele><time>2026-03-27T16:02:54.999Z</time></trkpt><trkpt lat="45.40104324795806" lon="9.099294875865596"><ele>106.0</ele><time>2026-03-27T16:02:55.999Z</time></trkpt><trkpt lat="45.401133921188794" lon="9.09922214897842"><ele>106.0</ele><time>2026-03-27T16:02:56.999Z</time></trkpt><trkpt lat="45.40121712153015" lon="9.099132648201198"><ele>106.0</ele><time>2026-03-27T16:02:57.999Z</time></trkpt><trkpt lat="45.40132075417132" lon="9.09903896363502"><ele>106.0</ele><time>2026-03-27T16:02:58.999Z</time></trkpt><trkpt lat="45.4014397302023" lon="9.09893987690598"><ele>106.5</ele><time>2026-03-27T16:02:59.999Z</time></trkpt><trkpt lat="45.40154885919744" lon="9.098836928893505"><ele>107.0</ele><time>2026-03-27T16:03:00.999Z</time></trkpt><trkpt lat="45.40166028078235" lon="9.098734367361859"><ele>107.5</ele><time>2026-03-27T16:03:01.999Z</time></trkpt><trkpt lat="45.40178653098727" lon="9.098624556053375"><ele>108.0</ele><time>2026-03-27T16:03:02.999Z</time></trkpt><trkpt lat="45.40191384563082" lon="9.098512315128803"><ele>108.0</ele><time>2026-03-27T16:03:03.999Z</time></trkpt><trkpt lat="45.40202423447523" lon="9.098421898865578"><ele>108.0</ele><time>2026-03-27T16:03:04.999Z</time></trkpt><trkpt lat="45.40212231169182" lon="9.098318606186567"><ele>108.0</ele><time>2026-03-27T16:03:05.999Z</time></trkpt><trkpt lat="45.40223824737408" lon="9.098219202173095"><ele>108.0</ele><time>2026-03-27T16:03:06.999Z</time></trkpt><trkpt lat="45.40234038078579" lon="9.098131080724443"><ele>107.80000000000001</ele><time>2026-03-27T16:03:07.999Z</time></trkpt><trkpt lat="45.40244104407928" lon="9.098045889732049"><ele>107.60000000000001</ele><time>2026-03-27T16:03:08.999Z</time></trkpt><trkpt lat="45.402525063021955" lon="9.097975914278583"><ele>107.39999999999999</ele><time>2026-03-27T16:03:09.999Z</time></trkpt><trkpt lat="45.402613585287106" lon="9.097900730718749"><ele>107.19999999999999</ele><time>2026-03-27T16:03:10.999Z</time></trkpt><trkpt lat="45.40271507744908" lon="9.097815766587493"><ele>107.0</ele><time>2026-03-27T16:03:11.999Z</time></trkpt><trkpt lat="45.40281282757437" lon="9.097728539850786"><ele>106.99999999999999</ele><time>2026-03-27T16:03:12.999Z</time></trkpt><trkpt lat="45.402905085264884" lon="9.097649869761018"><ele>107.0</ele><time>2026-03-27T16:03:13.999Z</time></trkpt><trkpt lat="45.40298800451367" lon="9.097574040855688"><ele>107.0</ele><time>2026-03-27T16:03:14.999Z</time></trkpt><trkpt lat="45.40306235891392" lon="9.097507551325396"><ele>107.0</ele><time>2026-03-27T16:03:15.999Z</time></trkpt><trkpt lat="45.403121735609496" lon="9.09745322734746"><ele>106.99999999999999</ele><time>2026-03-27T16:03:16.999Z</time></trkpt><trkpt lat="45.40318360752012" lon="9.09741878635951"><ele>107.0</ele><time>2026-03-27T16:03:17.999Z</time></trkpt><trkpt lat="45.403242136023486" lon="9.097365782664669"><ele>106.66666666666666</ele><time>2026-03-27T16:03:18.999Z</time></trkpt><trkpt lat="45.403295592587675" lon="9.097317372135379"><ele>106.33333333333333</ele><time>2026-03-27T16:03:19.999Z</time></trkpt><trkpt lat="45.40336456853845" lon="9.09725490720145"><ele>106.0</ele><time>2026-03-27T16:03:20.999Z</time></trkpt><trkpt lat="45.403440229297374" lon="9.097186464876366"><ele>105.66666666666666</ele><time>2026-03-27T16:03:21.999Z</time></trkpt><trkpt lat="45.40349901890214" lon="9.097133498773895"><ele>105.33333333333333</ele><time>2026-03-27T16:03:22.999Z</time></trkpt><trkpt lat="45.40360897198711" lon="9.097037808405164"><ele>105.0</ele><time>2026-03-27T16:03:24.999Z</time></trkpt><trkpt lat="45.403694994007815" lon="9.096963193731188"><ele>105.0</ele><time>2026-03-27T16:03:25.999Z</time></trkpt><trkpt lat="45.403779245755786" lon="9.096888661779783"><ele>105.0</ele><time>2026-03-27T16:03:26.999Z</time></trkpt><trkpt lat="45.40384877040056" lon="9.096826641255527"><ele>105.0</ele><time>2026-03-27T16:03:27.999Z</time></trkpt><trkpt lat="45.40391013593922" lon="9.096771831901252"><ele>105.0</ele><time>2026-03-27T16:03:28.999Z</time></trkpt><trkpt lat="45.4039682640171" lon="9.096719763737356"><ele>105.0</ele><time>2026-03-27T16:03:29.999Z</time></trkpt><trkpt lat="45.404024877693665" lon="9.096667334587305"><ele>105.0</ele><time>2026-03-27T16:03:30.999Z</time></trkpt><trkpt lat="45.40410218605238" lon="9.096594182593794"><ele>105.0</ele><time>2026-03-27T16:03:32.999Z</time></trkpt><trkpt lat="45.40405457266144" lon="9.096662483266128"><ele>105.0</ele><time>2026-03-27T16:04:26Z</time></trkpt><trkpt lat="45.40397915230969" lon="9.096709836937709"><ele>105.0</ele><time>2026-03-27T16:04:28.999Z</time></trkpt><trkpt lat="45.40390539202536" lon="9.096764476908385"><ele>105.0</ele><time>2026-03-27T16:04:31.999Z</time></trkpt><trkpt lat="45.40379983381558" lon="9.096866010905373"><ele>105.0</ele><time>2026-03-27T16:04:33.999Z</time></trkpt><trkpt lat="45.403718564992715" lon="9.096923278970948"><ele>105.0</ele><time>2026-03-27T16:04:34.999Z</time></trkpt><trkpt lat="45.40364369469776" lon="9.096984071364087"><ele>105.0</ele><time>2026-03-27T16:04:35.999Z</time></trkpt><trkpt lat="45.40355813218207" lon="9.097059057677136"><ele>105.0</ele><time>2026-03-27T16:04:36.999Z</time></trkpt><trkpt lat="45.40347288974582" lon="9.097137221038087"><ele>105.0</ele><time>2026-03-27T16:04:37.999Z</time></trkpt><trkpt lat="45.40339059747879" lon="9.097207850770063"><ele>105.0</ele><time>2026-03-27T16:04:38.999Z</time></trkpt><trkpt lat="45.40331613394228" lon="9.097298266564255"><ele>105.0</ele><time>2026-03-27T16:04:39.999Z</time></trkpt><trkpt lat="45.40321469121909" lon="9.097363482754123"><ele>105.0</ele><time>2026-03-27T16:04:40.999Z</time></trkpt><trkpt lat="45.403122848899145" lon="9.097473808229534"><ele>105.0</ele><time>2026-03-27T16:04:41.999Z</time></trkpt><trkpt lat="45.40302203850993" lon="9.097543623276232"><ele>105.0</ele><time>2026-03-27T16:04:42.999Z</time></trkpt><trkpt lat="45.40292377659885" lon="9.097628201634915"><ele>105.5</ele><time>2026-03-27T16:04:43.999Z</time></trkpt><trkpt lat="45.402824608191516" lon="9.097743895858752"><ele>106.0</ele><time>2026-03-27T16:04:44.999Z</time></trkpt><trkpt lat="45.40269163607582" lon="9.097827485678735"><ele>106.5</ele><time>2026-03-27T16:04:45.999Z</time></trkpt><trkpt lat="45.40258115030247" lon="9.097942472751964"><ele>107.0</ele><time>2026-03-27T16:04:46.999Z</time></trkpt><trkpt lat="45.40247152369016" lon="9.098036917371372"><ele>107.0</ele><time>2026-03-27T16:04:47.999Z</time></trkpt><trkpt lat="45.40236184807778" lon="9.098142511222836"><ele>107.0</ele><time>2026-03-27T16:04:48.999Z</time></trkpt><trkpt lat="45.40223542105736" lon="9.098254632687558"><ele>107.0</ele><time>2026-03-27T16:04:49.999Z</time></trkpt><trkpt lat="45.402086420223405" lon="9.09834667996437"><ele>107.0</ele><time>2026-03-27T16:04:50.999Z</time></trkpt><trkpt lat="45.40196829537348" lon="9.098455178419439"><ele>107.25</ele><time>2026-03-27T16:04:51.999Z</time></trkpt><trkpt lat="45.40185394091004" lon="9.098556475816256"><ele>107.5</ele><time>2026-03-27T16:04:52.999Z</time></trkpt><trkpt lat="45.40173850157883" lon="9.098692890485282"><ele>107.75</ele><time>2026-03-27T16:04:53.999Z</time></trkpt><trkpt lat="45.40162926740845" lon="9.098792180121876"><ele>108.0</ele><time>2026-03-27T16:04:54.999Z</time></trkpt><trkpt lat="45.40152863694223" lon="9.098883649274994"><ele>108.0</ele><time>2026-03-27T16:04:55.999Z</time></trkpt><trkpt lat="45.40142533644652" lon="9.098940463731145"><ele>108.00000000000001</ele><time>2026-03-27T16:04:56.999Z</time></trkpt><trkpt lat="45.40133106538575" lon="9.099024720885923"><ele>108.00000000000001</ele><time>2026-03-27T16:04:57.999Z</time></trkpt><trkpt lat="45.40123972762997" lon="9.099110063066172"><ele>108.0</ele><time>2026-03-27T16:04:58.999Z</time></trkpt><trkpt lat="45.40115537247736" lon="9.09918132278642"><ele>108.0</ele><time>2026-03-27T16:04:59.999Z</time></trkpt><trkpt lat="45.40107563071708" lon="9.09925335976979"><ele>107.60000000000001</ele><time>2026-03-27T16:05:00.999Z</time></trkpt><trkpt lat="45.401008161673566" lon="9.099337846045506"><ele>107.20000000000002</ele><time>2026-03-27T16:05:01.999Z</time></trkpt><trkpt lat="45.4009338208364" lon="9.099412638107792"><ele>106.8</ele><time>2026-03-27T16:05:02.999Z</time></trkpt><trkpt lat="45.40084194394671" lon="9.099485640050158"><ele>106.4</ele><time>2026-03-27T16:05:03.999Z</time></trkpt><trkpt lat="45.40069020464574" lon="9.09944689323455"><ele>106.0</ele><time>2026-03-27T16:05:04.999Z</time></trkpt><trkpt lat="45.400574481465384" lon="9.099463793379357"><ele>105.8</ele><time>2026-03-27T16:05:05.999Z</time></trkpt><trkpt lat="45.40046654648154" lon="9.099485299879875"><ele>105.6</ele><time>2026-03-27T16:05:06.999Z</time></trkpt><trkpt lat="45.40036736588127" lon="9.099471140909541"><ele>105.4</ele><time>2026-03-27T16:05:07.999Z</time></trkpt><trkpt lat="45.40028465462105" lon="9.099481941229165"><ele>105.2</ele><time>2026-03-27T16:05:08.999Z</time></trkpt><trkpt lat="45.400220666617464" lon="9.099489212831012"><ele>105.0</ele><time>2026-03-27T16:05:09.999Z</time></trkpt><trkpt lat="45.40011990179353" lon="9.09950738390229"><ele>105.0</ele><time>2026-03-27T16:05:11.999Z</time></trkpt><trkpt lat="45.40004704165188" lon="9.099584885459848"><ele>105.0</ele><time>2026-03-27T16:05:13.999Z</time></trkpt><trkpt lat="45.400029243487154" lon="9.099679328664749"><ele>105.0</ele><time>2026-03-27T16:05:14.999Z</time></trkpt><trkpt lat="45.4000550728035" lon="9.099787924905778"><ele>105.0</ele><time>2026-03-27T16:05:15.999Z</time></trkpt><trkpt lat="45.40006375182627" lon="9.09990894393556"><ele>105.0</ele><time>2026-03-27T16:05:16.999Z</time></trkpt><trkpt lat="45.40006180672478" lon="9.100071136647012"><ele>105.0</ele><time>2026-03-27T16:05:17.999Z</time></trkpt><trkpt lat="45.40006455455347" lon="9.100217842142884"><ele>105.6</ele><time>2026-03-27T16:05:18.999Z</time></trkpt><trkpt lat="45.40006459787732" lon="9.100377156949785"><ele>106.2</ele><time>2026-03-27T16:05:19.999Z</time></trkpt><trkpt lat="45.40007363325777" lon="9.10051057248193"><ele>106.80000000000001</ele><time>2026-03-27T16:05:20.999Z</time></trkpt><trkpt lat="45.40009251231395" lon="9.100630196080852"><ele>107.4</ele><time>2026-03-27T16:05:21.999Z</time></trkpt><trkpt lat="45.40012592666998" lon="9.100755814590464"><ele>108.0</ele><time>2026-03-27T16:05:22.999Z</time></trkpt><trkpt lat="45.400157738917855" lon="9.100876525267415"><ele>108.0</ele><time>2026-03-27T16:05:23.999Z</time></trkpt><trkpt lat="45.40017960829959" lon="9.100973625582446"><ele>108.00000000000001</ele><time>2026-03-27T16:05:24.999Z</time></trkpt><trkpt lat="45.40020827002406" lon="9.101132679267472"><ele>108.00000000000001</ele><time>2026-03-27T16:05:26.999Z</time></trkpt><trkpt lat="45.40023271777727" lon="9.101254873140968"><ele>108.0</ele><time>2026-03-27T16:05:28.999Z</time></trkpt><trkpt lat="45.40026588992187" lon="9.10136355488975"><ele>108.0</ele><time>2026-03-27T16:05:30.999Z</time></trkpt><trkpt lat="45.4003823673686" lon="9.101319672859239"><ele>108.0</ele><time>2026-03-27T16:05:32.999Z</time></trkpt><trkpt lat="45.400456407244455" lon="9.101308748816573"><ele>108.0</ele><time>2026-03-27T16:05:33.999Z</time></trkpt><trkpt lat="45.40054091943827" lon="9.101269702164593"><ele>108.0</ele><time>2026-03-27T16:05:35.999Z</time></trkpt><trkpt lat="45.40061032764225" lon="9.101331927950035"><ele>108.0</ele><time>2026-03-27T16:05:38.999Z</time></trkpt><trkpt lat="45.40059182677913" lon="9.101485851780618"><ele>108.0</ele><time>2026-03-27T16:05:40.999Z</time></trkpt><trkpt lat="45.40058162163588" lon="9.101611227950764"><ele>108.0</ele><time>2026-03-27T16:05:41.999Z</time></trkpt><trkpt lat="45.40058685744893" lon="9.101773953332176"><ele>107.80000000000001</ele><time>2026-03-27T16:05:43Z</time></trkpt><trkpt lat="45.40059073747172" lon="9.101914330913674"><ele>107.60000000000001</ele><time>2026-03-27T16:05:44Z</time></trkpt><trkpt lat="45.40059372272062" lon="9.102048405651669"><ele>107.39999999999999</ele><time>2026-03-27T16:05:45Z</time></trkpt><trkpt lat="45.400593560060415" lon="9.10219586331338"><ele>107.19999999999999</ele><time>2026-03-27T16:05:46Z</time></trkpt><trkpt lat="45.400597006189855" lon="9.10234488780503"><ele>107.0</ele><time>2026-03-27T16:05:47Z</time></trkpt><trkpt lat="45.40059693397249" lon="9.102472615958266"><ele>107.33333333333333</ele><time>2026-03-27T16:05:48Z</time></trkpt><trkpt lat="45.40059768564029" lon="9.102574394163701"><ele>107.66666666666666</ele><time>2026-03-27T16:05:49Z</time></trkpt><trkpt lat="45.40060640826266" lon="9.102714998954433"><ele>108.0</ele><time>2026-03-27T16:05:51Z</time></trkpt><trkpt lat="45.40059569745748" lon="9.102830296360846"><ele>108.33333333333334</ele><time>2026-03-27T16:05:53Z</time></trkpt><trkpt lat="45.400591206018746" lon="9.10293733315624"><ele>108.66666666666667</ele><time>2026-03-27T16:05:56Z</time></trkpt><trkpt lat="45.40070080686738" lon="9.102998324861458"><ele>109.0</ele><time>2026-03-27T16:05:59Z</time></trkpt><trkpt lat="45.40082316434039" lon="9.10304505533145"><ele>109.0</ele><time>2026-03-27T16:06:01Z</time></trkpt><trkpt lat="45.40089284110945" lon="9.103095343942597"><ele>109.0</ele><time>2026-03-27T16:06:02Z</time></trkpt><trkpt lat="45.40099119708209" lon="9.103170640823937"><ele>109.0</ele><time>2026-03-27T16:06:04Z</time></trkpt><trkpt lat="45.401094788943375" lon="9.103216664881314"><ele>109.0</ele><time>2026-03-27T16:06:06Z</time></trkpt><trkpt lat="45.40120483870356" lon="9.103220060251667"><ele>109.0</ele><time>2026-03-27T16:06:08Z</time></trkpt><trkpt lat="45.40127941503088" lon="9.103203558260292"><ele>109.33333333333334</ele><time>2026-03-27T16:06:09Z</time></trkpt><trkpt lat="45.401356040988595" lon="9.103186619978073"><ele>109.66666666666667</ele><time>2026-03-27T16:06:10Z</time></trkpt><trkpt lat="45.40142370138123" lon="9.103180416216057"><ele>110.0</ele><time>2026-03-27T16:06:11Z</time></trkpt><trkpt lat="45.401498354840086" lon="9.103163745830335"><ele>110.33333333333334</ele><time>2026-03-27T16:06:12Z</time></trkpt><trkpt lat="45.401575853862546" lon="9.103132746514792"><ele>110.66666666666667</ele><time>2026-03-27T16:06:13Z</time></trkpt><trkpt lat="45.40166232934407" lon="9.103087191346106"><ele>111.0</ele><time>2026-03-27T16:06:14Z</time></trkpt><trkpt lat="45.40174480350359" lon="9.103042004437627"><ele>111.0</ele><time>2026-03-27T16:06:15Z</time></trkpt><trkpt lat="45.401814847813824" lon="9.103012807192174"><ele>111.0</ele><time>2026-03-27T16:06:16Z</time></trkpt><trkpt lat="45.40189383070969" lon="9.102981782208431"><ele>111.0</ele><time>2026-03-27T16:06:17Z</time></trkpt><trkpt lat="45.40198552461771" lon="9.102963579766413"><ele>111.0</ele><time>2026-03-27T16:06:18Z</time></trkpt><trkpt lat="45.40207942740156" lon="9.102947517348818"><ele>111.0</ele><time>2026-03-27T16:06:19Z</time></trkpt><trkpt lat="45.40216335207186" lon="9.102940803955232"><ele>111.0</ele><time>2026-03-27T16:06:20Z</time></trkpt><trkpt lat="45.402241282335225" lon="9.102928198981578"><ele>110.6</ele><time>2026-03-27T16:06:21Z</time></trkpt><trkpt lat="45.40231130244909" lon="9.10291151563558"><ele>110.19999999999999</ele><time>2026-03-27T16:06:22Z</time></trkpt><trkpt lat="45.40238527359575" lon="9.102880990589318"><ele>109.80000000000001</ele><time>2026-03-27T16:06:23Z</time></trkpt><trkpt lat="45.402470534063276" lon="9.102827247975148"><ele>109.4</ele><time>2026-03-27T16:06:24Z</time></trkpt><trkpt lat="45.402570150814995" lon="9.102761227818052"><ele>109.0</ele><time>2026-03-27T16:06:25Z</time></trkpt><trkpt lat="45.40266523814628" lon="9.102704362281429"><ele>109.0</ele><time>2026-03-27T16:06:26Z</time></trkpt><trkpt lat="45.40276052448465" lon="9.102660137344147"><ele>109.0</ele><time>2026-03-27T16:06:27Z</time></trkpt><trkpt lat="45.40286542465631" lon="9.102623234757703"><ele>109.0</ele><time>2026-03-27T16:06:28Z</time></trkpt><trkpt lat="45.40294928265178" lon="9.102592387646407"><ele>109.0</ele><time>2026-03-27T16:06:29Z</time></trkpt><trkpt lat="45.403015872120335" lon="9.102565217829063"><ele>109.0</ele><time>2026-03-27T16:06:30Z</time></trkpt><trkpt lat="45.40310179199858" lon="9.102516812901143"><ele>109.00000000000001</ele><time>2026-03-27T16:06:32Z</time></trkpt><trkpt lat="45.40317988655493" lon="9.102445687427778"><ele>109.0</ele><time>2026-03-27T16:06:34Z</time></trkpt><trkpt lat="45.40325646790567" lon="9.102386980738464"><ele>109.0</ele><time>2026-03-27T16:06:35.999Z</time></trkpt><trkpt lat="45.403320685874085" lon="9.102337131136062"><ele>109.0</ele><time>2026-03-27T16:06:37.999Z</time></trkpt><trkpt lat="45.40339184432224" lon="9.10230928852833"><ele>109.00000000000001</ele><time>2026-03-27T16:06:40.999Z</time></trkpt><trkpt lat="45.40343112361918" lon="9.102236633788275"><ele>109.0</ele><time>2026-03-27T16:06:43.999Z</time></trkpt><trkpt lat="45.40340953492243" lon="9.102138459044175"><ele>109.00000000000001</ele><time>2026-03-27T16:06:46.999Z</time></trkpt><trkpt lat="45.40343471262984" lon="9.10203526518942"><ele>109.0</ele><time>2026-03-27T16:06:50.999Z</time></trkpt><trkpt lat="45.40349764737198" lon="9.101978691685682"><ele>109.0</ele><time>2026-03-27T16:06:51.999Z</time></trkpt><trkpt lat="45.40358686518072" lon="9.101933115564957"><ele>109.0</ele><time>2026-03-27T16:06:52.999Z</time></trkpt><trkpt lat="45.40365461717888" lon="9.101872337893635"><ele>109.00000000000001</ele><time>2026-03-27T16:06:53.999Z</time></trkpt><trkpt lat="45.403707025073736" lon="9.10181132244058"><ele>109.0</ele><time>2026-03-27T16:06:54.999Z</time></trkpt><trkpt lat="45.40377516968849" lon="9.101717836872156"><ele>109.16666666666667</ele><time>2026-03-27T16:06:55.999Z</time></trkpt><trkpt lat="45.40385839875707" lon="9.101608676094443"><ele>109.33333333333334</ele><time>2026-03-27T16:06:56.999Z</time></trkpt><trkpt lat="45.40393490102411" lon="9.101517159050038"><ele>109.5</ele><time>2026-03-27T16:06:57.999Z</time></trkpt><trkpt lat="45.403998185176356" lon="9.101443142845282"><ele>109.66666666666666</ele><time>2026-03-27T16:06:58.999Z</time></trkpt><trkpt lat="45.40406068633677" lon="9.10137563535517"><ele>109.83333333333333</ele><time>2026-03-27T16:06:59.999Z</time></trkpt><trkpt lat="45.40411375562904" lon="9.101307715065378"><ele>110.0</ele><time>2026-03-27T16:07:00.999Z</time></trkpt><trkpt lat="45.40415862421128" lon="9.101241846551437"><ele>109.6</ele><time>2026-03-27T16:07:01.999Z</time></trkpt><trkpt lat="45.40423177930908" lon="9.10115664913099"><ele>109.2</ele><time>2026-03-27T16:07:03.999Z</time></trkpt><trkpt lat="45.404279284402435" lon="9.101016752539316"><ele>108.80000000000001</ele><time>2026-03-27T16:07:05.999Z</time></trkpt><trkpt lat="45.40430368745446" lon="9.100900754539452"><ele>108.4</ele><time>2026-03-27T16:07:06.999Z</time></trkpt><trkpt lat="45.404339783027346" lon="9.10077588514627"><ele>108.0</ele><time>2026-03-27T16:07:07.999Z</time></trkpt><trkpt lat="45.404386319680434" lon="9.100656969453903"><ele>108.0</ele><time>2026-03-27T16:07:08.999Z</time></trkpt><trkpt lat="45.40443682295594" lon="9.100555616759792"><ele>108.0</ele><time>2026-03-27T16:07:09.999Z</time></trkpt><trkpt lat="45.40447406651057" lon="9.100466317515695"><ele>108.0</ele><time>2026-03-27T16:07:10.999Z</time></trkpt><trkpt lat="45.4044982597593" lon="9.100367583312764"><ele>108.0</ele><time>2026-03-27T16:07:11.999Z</time></trkpt><trkpt lat="45.40452389382786" lon="9.100279153163779"><ele>108.0</ele><time>2026-03-27T16:07:12.999Z</time></trkpt><trkpt lat="45.40456146691237" lon="9.100191928112892"><ele>108.0</ele><time>2026-03-27T16:07:13.999Z</time></trkpt><trkpt lat="45.40462285681168" lon="9.100107263366128"><ele>108.0</ele><time>2026-03-27T16:07:14.999Z</time></trkpt><trkpt lat="45.40470433719349" lon="9.100016828974002"><ele>108.00000000000001</ele><time>2026-03-27T16:07:15.999Z</time></trkpt><trkpt lat="45.4047955770543" lon="9.099915368529675"><ele>108.00000000000001</ele><time>2026-03-27T16:07:16.999Z</time></trkpt><trkpt lat="45.4048640002215" lon="9.09982405692051"><ele>108.0</ele><time>2026-03-27T16:07:17.999Z</time></trkpt><trkpt lat="45.40491866685947" lon="9.099748086402096"><ele>108.0</ele><time>2026-03-27T16:07:18.999Z</time></trkpt><trkpt lat="45.404974060116366" lon="9.099690836232318"><ele>108.0</ele><time>2026-03-27T16:07:19.999Z</time></trkpt><trkpt lat="45.405052472246894" lon="9.09960008881056"><ele>108.0</ele><time>2026-03-27T16:07:21.999Z</time></trkpt><trkpt lat="45.40510405363918" lon="9.099507576309733"><ele>108.0</ele><time>2026-03-27T16:07:23.999Z</time></trkpt><trkpt lat="45.405133724756155" lon="9.099411653200615"><ele>108.0</ele><time>2026-03-27T16:07:25.999Z</time></trkpt><trkpt lat="45.40511725582913" lon="9.099280039831319"><ele>108.0</ele><time>2026-03-27T16:07:28.999Z</time></trkpt><trkpt lat="45.40515780493882" lon="9.099200091016353"><ele>108.0</ele><time>2026-03-27T16:07:30.999Z</time></trkpt><trkpt lat="45.405255657341094" lon="9.099091861669821"><ele>107.66666666666667</ele><time>2026-03-27T16:07:32.999Z</time></trkpt><trkpt lat="45.40535483509249" lon="9.098986152034586"><ele>107.33333333333334</ele><time>2026-03-27T16:07:34.999Z</time></trkpt><trkpt lat="45.40540569059396" lon="9.09891547491773"><ele>107.0</ele><time>2026-03-27T16:07:35.999Z</time></trkpt><trkpt lat="45.40544953148564" lon="9.098842860147482"><ele>106.66666666666667</ele><time>2026-03-27T16:07:36.999Z</time></trkpt><trkpt lat="45.40549576103792" lon="9.0987218035266"><ele>106.33333333333334</ele><time>2026-03-27T16:07:38.999Z</time></trkpt><trkpt lat="45.40555994697177" lon="9.098676971798527"><ele>106.0</ele><time>2026-03-27T16:07:41.999Z</time></trkpt><trkpt lat="45.40564355284903" lon="9.09876876310981"><ele>106.00000000000001</ele><time>2026-03-27T16:07:44.999Z</time></trkpt><trkpt lat="45.40567016840057" lon="9.098858513731578"><ele>106.0</ele><time>2026-03-27T16:07:45.999Z</time></trkpt><trkpt lat="45.405703637980984" lon="9.098969152390287"><ele>106.0</ele><time>2026-03-27T16:07:46.999Z</time></trkpt><trkpt lat="45.40573624358564" lon="9.099057457714782"><ele>106.0</ele><time>2026-03-27T16:07:47.999Z</time></trkpt><trkpt lat="45.40578501520901" lon="9.09919302912003"><ele>106.00000000000001</ele><time>2026-03-27T16:07:50Z</time></trkpt><trkpt lat="45.405824869865356" lon="9.099272894197641"><ele>106.0</ele><time>2026-03-27T16:07:52Z</time></trkpt><trkpt lat="45.40588633589244" lon="9.099295423367403"><ele>106.0</ele><time>2026-03-27T16:07:54Z</time></trkpt><trkpt lat="45.40599463560458" lon="9.09924647654741"><ele>106.0</ele><time>2026-03-27T16:07:56Z</time></trkpt><trkpt lat="45.40607200503996" lon="9.099231648371767"><ele>106.0</ele><time>2026-03-27T16:07:57Z</time></trkpt><trkpt lat="45.40617587150686" lon="9.099221649940294"><ele>106.0</ele><time>2026-03-27T16:07:58Z</time></trkpt><trkpt lat="45.40626379441927" lon="9.099206243312926"><ele>106.0</ele><time>2026-03-27T16:07:59Z</time></trkpt><trkpt lat="45.40633013259489" lon="9.099186880252862"><ele>106.19999999999999</ele><time>2026-03-27T16:08:00Z</time></trkpt><trkpt lat="45.40643826009591" lon="9.099185704116351"><ele>106.39999999999999</ele><time>2026-03-27T16:08:02Z</time></trkpt><trkpt lat="45.40652366511986" lon="9.099226118948469"><ele>106.6</ele><time>2026-03-27T16:08:04Z</time></trkpt><trkpt lat="45.40659622725898" lon="9.099236940101601"><ele>106.8</ele><time>2026-03-27T16:08:05Z</time></trkpt><trkpt lat="45.40667470095681" lon="9.099263202170109"><ele>107.0</ele><time>2026-03-27T16:08:06Z</time></trkpt><trkpt lat="45.406771672528606" lon="9.099311148876557"><ele>107.0</ele><time>2026-03-27T16:08:07Z</time></trkpt><trkpt lat="45.40687936619419" lon="9.099338545427887"><ele>106.99999999999999</ele><time>2026-03-27T16:08:08Z</time></trkpt><trkpt lat="45.406989698342905" lon="9.0993918855976"><ele>106.99999999999999</ele><time>2026-03-27T16:08:09Z</time></trkpt><trkpt lat="45.40708874851155" lon="9.099424097976534"><ele>107.0</ele><time>2026-03-27T16:08:10Z</time></trkpt><trkpt lat="45.40717636512427" lon="9.099447767537443"><ele>107.0</ele><time>2026-03-27T16:08:11Z</time></trkpt><trkpt lat="45.40724913484687" lon="9.09946599244861"><ele>107.6</ele><time>2026-03-27T16:08:12Z</time></trkpt><trkpt lat="45.40732943570418" lon="9.099489089858885"><ele>108.19999999999999</ele><time>2026-03-27T16:08:14Z</time></trkpt><trkpt lat="45.40739640375578" lon="9.099542416416114"><ele>108.8</ele><time>2026-03-27T16:08:19Z</time></trkpt><trkpt lat="45.40732328537236" lon="9.099734832396669"><ele>109.4</ele><time>2026-03-27T16:08:20Z</time></trkpt><trkpt lat="45.407262318761234" lon="9.099858161334833"><ele>110.0</ele><time>2026-03-27T16:08:22Z</time></trkpt><trkpt lat="45.40728295184778" lon="9.100002464796948"><ele>110.0</ele><time>2026-03-27T16:08:24Z</time></trkpt><trkpt lat="45.407314043748784" lon="9.100083429302659"><ele>110.0</ele><time>2026-03-27T16:08:25Z</time></trkpt><trkpt lat="45.407401995269986" lon="9.100097184945627"><ele>110.0</ele><time>2026-03-27T16:08:26Z</time></trkpt><trkpt lat="45.4074882715923" lon="9.100042170524679"><ele>110.0</ele><time>2026-03-27T16:08:27Z</time></trkpt><trkpt lat="45.40760312586647" lon="9.100002672557192"><ele>110.0</ele><time>2026-03-27T16:08:28Z</time></trkpt><trkpt lat="45.40773596447512" lon="9.099997531314667"><ele>110.0</ele><time>2026-03-27T16:08:29Z</time></trkpt><trkpt lat="45.40785030769899" lon="9.100008142658378"><ele>110.0</ele><time>2026-03-27T16:08:30Z</time></trkpt><trkpt lat="45.40796283016327" lon="9.100027371636154"><ele>110.0</ele><time>2026-03-27T16:08:31Z</time></trkpt><trkpt lat="45.4080640787476" lon="9.100043900453542"><ele>110.0</ele><time>2026-03-27T16:08:32Z</time></trkpt><trkpt lat="45.40818418401107" lon="9.100066492803352"><ele>109.66666666666666</ele><time>2026-03-27T16:08:33Z</time></trkpt><trkpt lat="45.40834513967426" lon="9.100099573880502"><ele>109.33333333333334</ele><time>2026-03-27T16:08:34Z</time></trkpt><trkpt lat="45.40852375053863" lon="9.100126879302367"><ele>109.0</ele><time>2026-03-27T16:08:35Z</time></trkpt><trkpt lat="45.40870296869768" lon="9.10015019261854"><ele>109.0</ele><time>2026-03-27T16:08:36Z</time></trkpt><trkpt lat="45.40888892017031" lon="9.100185116174051"><ele>109.0</ele><time>2026-03-27T16:08:37Z</time></trkpt><trkpt lat="45.4090675129429" lon="9.100221541753475"><ele>109.0</ele><time>2026-03-27T16:08:37.999Z</time></trkpt><trkpt lat="45.40923787105737" lon="9.10025113075065"><ele>109.0</ele><time>2026-03-27T16:08:38.999Z</time></trkpt><trkpt lat="45.4094193922367" lon="9.100280486363275"><ele>109.0</ele><time>2026-03-27T16:08:39.999Z</time></trkpt><trkpt lat="45.40963882247563" lon="9.100310309340689"><ele>109.0</ele><time>2026-03-27T16:08:40.999Z</time></trkpt><trkpt lat="45.409831486580316" lon="9.100332782922399"><ele>109.33333333333334</ele><time>2026-03-27T16:08:41.999Z</time></trkpt><trkpt lat="45.40999708745772" lon="9.100355417870876"><ele>109.66666666666666</ele><time>2026-03-27T16:08:42.999Z</time></trkpt><trkpt lat="45.41017834363804" lon="9.100385989080872"><ele>110.0</ele><time>2026-03-27T16:08:43.999Z</time></trkpt><trkpt lat="45.410362889081235" lon="9.100413652187244"><ele>109.66666666666666</ele><time>2026-03-27T16:08:44.999Z</time></trkpt><trkpt lat="45.410561016476606" lon="9.100445228898828"><ele>109.33333333333334</ele><time>2026-03-27T16:08:45.999Z</time></trkpt><trkpt lat="45.41075025614453" lon="9.10047664735218"><ele>109.0</ele><time>2026-03-27T16:08:46.999Z</time></trkpt><trkpt lat="45.410929718959835" lon="9.100502762145997"><ele>109.0</ele><time>2026-03-27T16:08:47.999Z</time></trkpt><trkpt lat="45.41110690293405" lon="9.100523089167618"><ele>109.0</ele><time>2026-03-27T16:08:48.999Z</time></trkpt><trkpt lat="45.41127355547256" lon="9.100541412299302"><ele>109.0</ele><time>2026-03-27T16:08:49.999Z</time></trkpt><trkpt lat="45.41142381092088" lon="9.100564922450939"><ele>109.33333333333334</ele><time>2026-03-27T16:08:50.999Z</time></trkpt><trkpt lat="45.41157749861879" lon="9.100603463854052"><ele>109.66666666666666</ele><time>2026-03-27T16:08:51.999Z</time></trkpt><trkpt lat="45.41173493308045" lon="9.100667796148523"><ele>110.0</ele><time>2026-03-27T16:08:52.999Z</time></trkpt><trkpt lat="45.411887861172104" lon="9.100739069567034"><ele>110.0</ele><time>2026-03-27T16:08:53.999Z</time></trkpt><trkpt lat="45.41202751816916" lon="9.100805592729373"><ele>110.0</ele><time>2026-03-27T16:08:54.999Z</time></trkpt><trkpt lat="45.412172730986626" lon="9.100883103551334"><ele>110.0</ele><time>2026-03-27T16:08:55.999Z</time></trkpt><trkpt lat="45.41232971104335" lon="9.100974283825837"><ele>110.25</ele><time>2026-03-27T16:08:56.999Z</time></trkpt><trkpt lat="45.412491030197266" lon="9.101070476586827"><ele>110.5</ele><time>2026-03-27T16:08:57.999Z</time></trkpt><trkpt lat="45.41262116971747" lon="9.101140937328951"><ele>110.75</ele><time>2026-03-27T16:08:58.999Z</time></trkpt><trkpt lat="45.412741235431525" lon="9.101209063280784"><ele>111.0</ele><time>2026-03-27T16:08:59.999Z</time></trkpt><trkpt lat="45.412882040472404" lon="9.101276100127981"><ele>111.33333333333334</ele><time>2026-03-27T16:09:00.999Z</time></trkpt><trkpt lat="45.413035953712914" lon="9.101327754694353"><ele>111.66666666666667</ele><time>2026-03-27T16:09:01.999Z</time></trkpt><trkpt lat="45.41318674926199" lon="9.101381158641187"><ele>112.0</ele><time>2026-03-27T16:09:02.999Z</time></trkpt><trkpt lat="45.41333483100928" lon="9.101417066320282"><ele>112.0</ele><time>2026-03-27T16:09:03.999Z</time></trkpt><trkpt lat="45.413504977763615" lon="9.101448160861992"><ele>112.0</ele><time>2026-03-27T16:09:04.999Z</time></trkpt><trkpt lat="45.4137080876255" lon="9.10148544842068"><ele>112.0</ele><time>2026-03-27T16:09:05.999Z</time></trkpt><trkpt lat="45.413933600528324" lon="9.101536998671651"><ele>112.33333333333334</ele><time>2026-03-27T16:09:06.999Z</time></trkpt><trkpt lat="45.41415263247793" lon="9.101586711624892"><ele>112.66666666666666</ele><time>2026-03-27T16:09:07.999Z</time></trkpt><trkpt lat="45.41434570623564" lon="9.101626623777388"><ele>113.0</ele><time>2026-03-27T16:09:08.999Z</time></trkpt><trkpt lat="45.414519072224806" lon="9.101662489856682"><ele>112.5</ele><time>2026-03-27T16:09:09.999Z</time></trkpt><trkpt lat="45.41466836276276" lon="9.1016952266299"><ele>112.0</ele><time>2026-03-27T16:09:10.999Z</time></trkpt><trkpt lat="45.414820412522324" lon="9.101729145347456"><ele>111.5</ele><time>2026-03-27T16:09:11.999Z</time></trkpt><trkpt lat="45.41495513035823" lon="9.101759596932453"><ele>111.0</ele><time>2026-03-27T16:09:12.999Z</time></trkpt><trkpt lat="45.41508493293025" lon="9.101787737493947"><ele>111.0</ele><time>2026-03-27T16:09:13.999Z</time></trkpt><trkpt lat="45.415201863084924" lon="9.101815691451378"><ele>111.0</ele><time>2026-03-27T16:09:14.999Z</time></trkpt><trkpt lat="45.41529272223522" lon="9.101836103783944"><ele>111.0</ele><time>2026-03-27T16:09:15.999Z</time></trkpt><trkpt lat="45.41537494546913" lon="9.101861073966592"><ele>111.0</ele><time>2026-03-27T16:09:16.999Z</time></trkpt><trkpt lat="45.41544571576062" lon="9.101893218904396"><ele>111.0</ele><time>2026-03-27T16:09:17.999Z</time></trkpt><trkpt lat="45.41551657416622" lon="9.101936114175576"><ele>111.0</ele><time>2026-03-27T16:09:18.999Z</time></trkpt><trkpt lat="45.415575711410185" lon="9.10200619122634"><ele>111.0</ele><time>2026-03-27T16:09:19.999Z</time></trkpt><trkpt lat="45.41564366509741" lon="9.102054776963874"><ele>111.0</ele><time>2026-03-27T16:09:20.999Z</time></trkpt><trkpt lat="45.41563754320641" lon="9.102305379914675"><ele>111.0</ele><time>2026-03-27T16:09:21.999Z</time></trkpt><trkpt lat="45.41566401888323" lon="9.102552920431783"><ele>111.0</ele><time>2026-03-27T16:09:22.999Z</time></trkpt><trkpt lat="45.4156943942009" lon="9.102843072536613"><ele>111.0</ele><time>2026-03-27T16:09:23.999Z</time></trkpt><trkpt lat="45.41572327789583" lon="9.103117217711478"><ele>111.0</ele><time>2026-03-27T16:09:24.999Z</time></trkpt><trkpt lat="45.415750940002084" lon="9.103344229000044"><ele>111.0</ele><time>2026-03-27T16:09:25.999Z</time></trkpt><trkpt lat="45.41577583936166" lon="9.103562231896396"><ele>111.0</ele><time>2026-03-27T16:09:26.999Z</time></trkpt><trkpt lat="45.415798579885475" lon="9.103780465880268"><ele>111.0</ele><time>2026-03-27T16:09:27.999Z</time></trkpt><trkpt lat="45.41582137383202" lon="9.104002700924681"><ele>111.0</ele><time>2026-03-27T16:09:28.999Z</time></trkpt><trkpt lat="45.41584357583408" lon="9.104203115690328"><ele>111.0</ele><time>2026-03-27T16:09:29.999Z</time></trkpt><trkpt lat="45.41586639271345" lon="9.10439026218172"><ele>111.0</ele><time>2026-03-27T16:09:30.999Z</time></trkpt><trkpt lat="45.415889120126806" lon="9.104596127803685"><ele>111.0</ele><time>2026-03-27T16:09:31.999Z</time></trkpt><trkpt lat="45.41590411596733" lon="9.104824090787494"><ele>111.0</ele><time>2026-03-27T16:09:32.999Z</time></trkpt><trkpt lat="45.41591848236255" lon="9.105054680224702"><ele>111.0</ele><time>2026-03-27T16:09:33.999Z</time></trkpt><trkpt lat="45.41593521309612" lon="9.105270029616612"><ele>111.0</ele><time>2026-03-27T16:09:34.999Z</time></trkpt><trkpt lat="45.415957402169944" lon="9.105507400827307"><ele>111.0</ele><time>2026-03-27T16:09:35.999Z</time></trkpt><trkpt lat="45.41598273920054" lon="9.105777749932653"><ele>111.33333333333334</ele><time>2026-03-27T16:09:36.999Z</time></trkpt><trkpt lat="45.41600740764095" lon="9.106049319164734"><ele>111.66666666666667</ele><time>2026-03-27T16:09:37.999Z</time></trkpt><trkpt lat="45.416032317980665" lon="9.106286175043717"><ele>112.0</ele><time>2026-03-27T16:09:38.999Z</time></trkpt><trkpt lat="45.416054521224645" lon="9.1065333431908"><ele>112.0</ele><time>2026-03-27T16:09:39.999Z</time></trkpt><trkpt lat="45.416080762791225" lon="9.106790805769212"><ele>112.0</ele><time>2026-03-27T16:09:40.999Z</time></trkpt><trkpt lat="45.416104186143144" lon="9.107024316386072"><ele>112.0</ele><time>2026-03-27T16:09:41.999Z</time></trkpt><trkpt lat="45.41612635172846" lon="9.107231139511025"><ele>112.0</ele><time>2026-03-27T16:09:42.999Z</time></trkpt><trkpt lat="45.4161476054572" lon="9.107424145456754"><ele>112.0</ele><time>2026-03-27T16:09:43.999Z</time></trkpt><trkpt lat="45.41616587290876" lon="9.107609188685613"><ele>112.0</ele><time>2026-03-27T16:09:44.999Z</time></trkpt><trkpt lat="45.416183096863556" lon="9.107782946554412"><ele>112.0</ele><time>2026-03-27T16:09:45.999Z</time></trkpt><trkpt lat="45.41620109360246" lon="9.107931070411924"><ele>112.0</ele><time>2026-03-27T16:09:46.999Z</time></trkpt><trkpt lat="45.416219306236385" lon="9.108072662261606"><ele>111.99999999999999</ele><time>2026-03-27T16:09:47.999Z</time></trkpt><trkpt lat="45.416234291444084" lon="9.108222196392958"><ele>111.99999999999999</ele><time>2026-03-27T16:09:48.999Z</time></trkpt><trkpt lat="45.41624777750584" lon="9.108358938066349"><ele>112.0</ele><time>2026-03-27T16:09:49.999Z</time></trkpt><trkpt lat="45.416259091423534" lon="9.108469472116138"><ele>112.0</ele><time>2026-03-27T16:09:50.999Z</time></trkpt><trkpt lat="45.416267515451786" lon="9.108568654733658"><ele>112.0</ele><time>2026-03-27T16:09:51.999Z</time></trkpt><trkpt lat="45.41626451258474" lon="9.108718990149605"><ele>111.99999999999999</ele><time>2026-03-27T16:09:53.999Z</time></trkpt><trkpt lat="45.41613568338558" lon="9.108791839337416"><ele>111.99999999999999</ele><time>2026-03-27T16:09:56Z</time></trkpt><trkpt lat="45.41606377214999" lon="9.108775852447383"><ele>112.0</ele><time>2026-03-27T16:09:57Z</time></trkpt><trkpt lat="45.4159601787673" lon="9.108728967478038"><ele>112.0</ele><time>2026-03-27T16:09:58Z</time></trkpt><trkpt lat="45.415811853946344" lon="9.108651412081965"><ele>112.0</ele><time>2026-03-27T16:09:59Z</time></trkpt><trkpt lat="45.41564507418167" lon="9.10856730256209"><ele>112.0</ele><time>2026-03-27T16:10:00Z</time></trkpt><trkpt lat="45.4154648515964" lon="9.108483245252197"><ele>112.0</ele><time>2026-03-27T16:10:01Z</time></trkpt><trkpt lat="45.41526980029704" lon="9.108391342896656"><ele>112.33333333333334</ele><time>2026-03-27T16:10:02Z</time></trkpt><trkpt lat="45.41510390247997" lon="9.108310091932761"><ele>112.66666666666666</ele><time>2026-03-27T16:10:03Z</time></trkpt><trkpt lat="45.41494724383043" lon="9.108232151600546"><ele>113.0</ele><time>2026-03-27T16:10:04Z</time></trkpt><trkpt lat="45.4147986227241" lon="9.108157988720919"><ele>112.0</ele><time>2026-03-27T16:10:05Z</time></trkpt><trkpt lat="45.41465741842107" lon="9.1080891686906"><ele>111.0</ele><time>2026-03-27T16:10:06Z</time></trkpt><trkpt lat="45.414502048317296" lon="9.10801654648725"><ele>110.0</ele><time>2026-03-27T16:10:07Z</time></trkpt><trkpt lat="45.414338981157336" lon="9.10794408740468"><ele>110.0</ele><time>2026-03-27T16:10:08Z</time></trkpt><trkpt lat="45.41418545768658" lon="9.10787020278634"><ele>110.0</ele><time>2026-03-27T16:10:09Z</time></trkpt><trkpt lat="45.41403474344185" lon="9.107795183395888"><ele>110.0</ele><time>2026-03-27T16:10:10Z</time></trkpt><trkpt lat="45.413881004896794" lon="9.107715724371277"><ele>110.0</ele><time>2026-03-27T16:10:11Z</time></trkpt><trkpt lat="45.41374355983957" lon="9.107646927248792"><ele>110.0</ele><time>2026-03-27T16:10:12Z</time></trkpt><trkpt lat="45.41361895824617" lon="9.107582540444465"><ele>110.0</ele><time>2026-03-27T16:10:13Z</time></trkpt><trkpt lat="45.41350732626497" lon="9.10752531631825"><ele>110.0</ele><time>2026-03-27T16:10:14Z</time></trkpt><trkpt lat="45.41338475407634" lon="9.107465337301045"><ele>110.5</ele><time>2026-03-27T16:10:15Z</time></trkpt><trkpt lat="45.41322051586496" lon="9.107384139427728"><ele>111.0</ele><time>2026-03-27T16:10:16Z</time></trkpt><trkpt lat="45.41308218009787" lon="9.107317044186324"><ele>111.5</ele><time>2026-03-27T16:10:17Z</time></trkpt><trkpt lat="45.41296483019927" lon="9.107270568915895"><ele>112.0</ele><time>2026-03-27T16:10:18Z</time></trkpt><trkpt lat="45.41284970105257" lon="9.107236185185352"><ele>112.25</ele><time>2026-03-27T16:10:19Z</time></trkpt><trkpt lat="45.41271893648232" lon="9.107230466278335"><ele>112.5</ele><time>2026-03-27T16:10:20Z</time></trkpt><trkpt lat="45.4125874827424" lon="9.107255770704855"><ele>112.75</ele><time>2026-03-27T16:10:21Z</time></trkpt><trkpt lat="45.41245194653888" lon="9.107295140705096"><ele>113.0</ele><time>2026-03-27T16:10:22Z</time></trkpt><trkpt lat="45.41232166193279" lon="9.107334705944552"><ele>113.0</ele><time>2026-03-27T16:10:23Z</time></trkpt><trkpt lat="45.41220333413349" lon="9.107364199742007"><ele>113.0</ele><time>2026-03-27T16:10:24Z</time></trkpt><trkpt lat="45.412081419562185" lon="9.107396092069758"><ele>113.0</ele><time>2026-03-27T16:10:25Z</time></trkpt><trkpt lat="45.41195986166139" lon="9.107424317120925"><ele>113.0</ele><time>2026-03-27T16:10:26Z</time></trkpt><trkpt lat="45.41183625973005" lon="9.107425320201436"><ele>113.0</ele><time>2026-03-27T16:10:27Z</time></trkpt><trkpt lat="45.41171269889801" lon="9.107454848618708"><ele>113.0</ele><time>2026-03-27T16:10:28Z</time></trkpt><trkpt lat="45.411593261447784" lon="9.107482570241237"><ele>113.0</ele><time>2026-03-27T16:10:29Z</time></trkpt><trkpt lat="45.411465235709" lon="9.107511110198185"><ele>113.0</ele><time>2026-03-27T16:10:30Z</time></trkpt><trkpt lat="45.4113357025756" lon="9.107559071106747"><ele>112.5</ele><time>2026-03-27T16:10:31Z</time></trkpt><trkpt lat="45.4112062956825" lon="9.107584361281445"><ele>112.0</ele><time>2026-03-27T16:10:32Z</time></trkpt><trkpt lat="45.41108366028601" lon="9.107615135054916"><ele>111.5</ele><time>2026-03-27T16:10:33Z</time></trkpt><trkpt lat="45.410978016281575" lon="9.107640366092923"><ele>111.0</ele><time>2026-03-27T16:10:34Z</time></trkpt><trkpt lat="45.41088631708152" lon="9.107672420761261"><ele>111.0</ele><time>2026-03-27T16:10:35Z</time></trkpt><trkpt lat="45.41080841194891" lon="9.107727608670364"><ele>111.0</ele><time>2026-03-27T16:10:36Z</time></trkpt><trkpt lat="45.41073238059344" lon="9.107772219131018"><ele>111.0</ele><time>2026-03-27T16:10:37Z</time></trkpt><trkpt lat="45.4107014625385" lon="9.10792415870782"><ele>111.0</ele><time>2026-03-27T16:10:38Z</time></trkpt><trkpt lat="45.410716357746374" lon="9.108098407033147"><ele>111.0</ele><time>2026-03-27T16:10:39Z</time></trkpt><trkpt lat="45.41076480715688" lon="9.108309881516998"><ele>111.0</ele><time>2026-03-27T16:10:40Z</time></trkpt><trkpt lat="45.41081949810411" lon="9.108542732528186"><ele>111.0</ele><time>2026-03-27T16:10:41Z</time></trkpt><trkpt lat="45.41089258786674" lon="9.108822498089351"><ele>111.0</ele><time>2026-03-27T16:10:42Z</time></trkpt><trkpt lat="45.410960175317754" lon="9.109144110741473"><ele>111.0</ele><time>2026-03-27T16:10:43Z</time></trkpt><trkpt lat="45.41102207150188" lon="9.1095057234865"><ele>111.0</ele><time>2026-03-27T16:10:44Z</time></trkpt><trkpt lat="45.41108048461" lon="9.109799220157756"><ele>110.0</ele><time>2026-03-27T16:10:45Z</time></trkpt><trkpt lat="45.411139842358665" lon="9.11010770855086"><ele>109.0</ele><time>2026-03-27T16:10:46Z</time></trkpt><trkpt lat="45.41117879525348" lon="9.110358459483004"><ele>108.0</ele><time>2026-03-27T16:10:47Z</time></trkpt><trkpt lat="45.41122825624484" lon="9.11062541316885"><ele>108.33333333333334</ele><time>2026-03-27T16:10:47.999Z</time></trkpt><trkpt lat="45.41127114837461" lon="9.110856345076707"><ele>108.66666666666667</ele><time>2026-03-27T16:10:48.999Z</time></trkpt><trkpt lat="45.41131321233083" lon="9.11107325690105"><ele>109.0</ele><time>2026-03-27T16:10:49.999Z</time></trkpt><trkpt lat="45.411355830928585" lon="9.111280065972085"><ele>109.0</ele><time>2026-03-27T16:10:50.999Z</time></trkpt><trkpt lat="45.41139444747814" lon="9.111474020629592"><ele>109.0</ele><time>2026-03-27T16:10:51.999Z</time></trkpt><trkpt lat="45.41143110159804" lon="9.111663957339928"><ele>109.0</ele><time>2026-03-27T16:10:52.999Z</time></trkpt><trkpt lat="45.411472310363514" lon="9.111904599781088"><ele>109.0</ele><time>2026-03-27T16:10:53.999Z</time></trkpt><trkpt lat="45.41151664090182" lon="9.112124752446594"><ele>109.0</ele><time>2026-03-27T16:10:54.999Z</time></trkpt><trkpt lat="45.41155917889858" lon="9.112312113358517"><ele>109.0</ele><time>2026-03-27T16:10:55.999Z</time></trkpt><trkpt lat="45.411598869076784" lon="9.112483557667925"><ele>109.0</ele><time>2026-03-27T16:10:56.999Z</time></trkpt><trkpt lat="45.4116275173968" lon="9.11264373462469"><ele>109.2</ele><time>2026-03-27T16:10:57.999Z</time></trkpt><trkpt lat="45.411644596978206" lon="9.112798027141414"><ele>109.4</ele><time>2026-03-27T16:10:58.999Z</time></trkpt><trkpt lat="45.411650220619165" lon="9.112950266756691"><ele>109.6</ele><time>2026-03-27T16:10:59.999Z</time></trkpt><trkpt lat="45.41161562270045" lon="9.113111999858317"><ele>109.8</ele><time>2026-03-27T16:11:00.999Z</time></trkpt><trkpt lat="45.41161229140382" lon="9.11325221540655"><ele>110.0</ele><time>2026-03-27T16:11:01.999Z</time></trkpt><trkpt lat="45.41162767651497" lon="9.11338938296238"><ele>110.25</ele><time>2026-03-27T16:11:02.999Z</time></trkpt><trkpt lat="45.41152227979218" lon="9.113513041032249"><ele>110.5</ele><time>2026-03-27T16:11:03.999Z</time></trkpt><trkpt lat="45.41146365996916" lon="9.113625291388816"><ele>110.75</ele><time>2026-03-27T16:11:04.999Z</time></trkpt><trkpt lat="45.41135807752817" lon="9.113659872994017"><ele>111.0</ele><time>2026-03-27T16:11:05.999Z</time></trkpt><trkpt lat="45.41124237703826" lon="9.113689379879261"><ele>111.0</ele><time>2026-03-27T16:11:06.999Z</time></trkpt><trkpt lat="45.411080638583414" lon="9.113756405398345"><ele>111.0</ele><time>2026-03-27T16:11:07.999Z</time></trkpt><trkpt lat="45.410892752427074" lon="9.113832898097286"><ele>111.0</ele><time>2026-03-27T16:11:08.999Z</time></trkpt><trkpt lat="45.41076025613057" lon="9.113887332767638"><ele>111.0</ele><time>2026-03-27T16:11:09.999Z</time></trkpt><trkpt lat="45.410662948112666" lon="9.113963166460058"><ele>111.0</ele><time>2026-03-27T16:11:10.999Z</time></trkpt><trkpt lat="45.410578894506536" lon="9.11399329249338"><ele>111.0</ele><time>2026-03-27T16:11:11.999Z</time></trkpt><trkpt lat="45.41050753097745" lon="9.114016986282488"><ele>111.0</ele><time>2026-03-27T16:11:12.999Z</time></trkpt><trkpt lat="45.4104079091539" lon="9.114035395779233"><ele>111.0</ele><time>2026-03-27T16:11:14.999Z</time></trkpt><trkpt lat="45.41043736316389" lon="9.114328685035096"><ele>110.75</ele><time>2026-03-27T16:11:15.999Z</time></trkpt><trkpt lat="45.41046698063815" lon="9.114511241439756"><ele>110.5</ele><time>2026-03-27T16:11:16.999Z</time></trkpt><trkpt lat="45.4105119684285" lon="9.114756521523015"><ele>110.25</ele><time>2026-03-27T16:11:17.999Z</time></trkpt><trkpt lat="45.41053603125464" lon="9.114949791965554"><ele>110.0</ele><time>2026-03-27T16:11:18.999Z</time></trkpt><trkpt lat="45.41057273656836" lon="9.115140005340551"><ele>110.0</ele><time>2026-03-27T16:11:19.999Z</time></trkpt><trkpt lat="45.410618428768736" lon="9.11540813992466"><ele>110.0</ele><time>2026-03-27T16:11:20.999Z</time></trkpt><trkpt lat="45.41065513640294" lon="9.115693948656332"><ele>110.0</ele><time>2026-03-27T16:11:21.999Z</time></trkpt><trkpt lat="45.410673118189" lon="9.115931480299865"><ele>110.0</ele><time>2026-03-27T16:11:22.999Z</time></trkpt><trkpt lat="45.410695923963225" lon="9.116148455574628"><ele>110.0</ele><time>2026-03-27T16:11:23.999Z</time></trkpt><trkpt lat="45.41072061070489" lon="9.11635654702646"><ele>110.0</ele><time>2026-03-27T16:11:24.999Z</time></trkpt><trkpt lat="45.41071905826075" lon="9.11653362407238"><ele>110.0</ele><time>2026-03-27T16:11:25.999Z</time></trkpt><trkpt lat="45.41073472184603" lon="9.116678140626178"><ele>109.99999999999999</ele><time>2026-03-27T16:11:26.999Z</time></trkpt><trkpt lat="45.41074851745256" lon="9.116798976459503"><ele>110.0</ele><time>2026-03-27T16:11:27.999Z</time></trkpt><trkpt lat="45.41076072129876" lon="9.116903236473307"><ele>110.0</ele><time>2026-03-27T16:11:28.999Z</time></trkpt><trkpt lat="45.41078646872496" lon="9.117036409026364"><ele>110.0</ele><time>2026-03-27T16:11:30.999Z</time></trkpt><trkpt lat="45.410792562809306" lon="9.1171604402247"><ele>109.99999999999999</ele><time>2026-03-27T16:11:32.999Z</time></trkpt><trkpt lat="45.41074855464906" lon="9.11727973550263"><ele>110.0</ele><time>2026-03-27T16:11:35.999Z</time></trkpt><trkpt lat="45.41068955082751" lon="9.117374960995864"><ele>109.75</ele><time>2026-03-27T16:11:36.999Z</time></trkpt><trkpt lat="45.41060224181659" lon="9.11743041486237"><ele>109.5</ele><time>2026-03-27T16:11:37.999Z</time></trkpt><trkpt lat="45.41047183405546" lon="9.11745633418541"><ele>109.25</ele><time>2026-03-27T16:11:38.999Z</time></trkpt><trkpt lat="45.41029638824379" lon="9.117470441975298"><ele>109.0</ele><time>2026-03-27T16:11:39.999Z</time></trkpt><trkpt lat="45.410134326692386" lon="9.117490765662016"><ele>109.0</ele><time>2026-03-27T16:11:40.999Z</time></trkpt><trkpt lat="45.4099883619664" lon="9.11750784751104"><ele>109.0</ele><time>2026-03-27T16:11:41.999Z</time></trkpt><trkpt lat="45.40986899812312" lon="9.11753027925292"><ele>109.0</ele><time>2026-03-27T16:11:42.999Z</time></trkpt><trkpt lat="45.4097594160203" lon="9.117546930226665"><ele>109.0</ele><time>2026-03-27T16:11:43.999Z</time></trkpt><trkpt lat="45.409653542094304" lon="9.117560980642144"><ele>109.0</ele><time>2026-03-27T16:11:44.999Z</time></trkpt><trkpt lat="45.40955926720752" lon="9.117578754866951"><ele>109.0</ele><time>2026-03-27T16:11:45.999Z</time></trkpt><trkpt lat="45.409477284860685" lon="9.117597512594818"><ele>109.0</ele><time>2026-03-27T16:11:46.999Z</time></trkpt><trkpt lat="45.40936780971882" lon="9.117631982993288"><ele>109.0</ele><time>2026-03-27T16:11:48.999Z</time></trkpt><trkpt lat="45.409222565582695" lon="9.117591899147206"><ele>109.0</ele><time>2026-03-27T16:11:50.999Z</time></trkpt><trkpt lat="45.409148172467376" lon="9.117536986296399"><ele>109.0</ele><time>2026-03-27T16:11:51.999Z</time></trkpt><trkpt lat="45.409102652446194" lon="9.117416835912945"><ele>109.0</ele><time>2026-03-27T16:11:52.999Z</time></trkpt><trkpt lat="45.409076111243216" lon="9.117259225220828"><ele>109.0</ele><time>2026-03-27T16:11:53.999Z</time></trkpt><trkpt lat="45.40907685913049" lon="9.117034195971584"><ele>109.0</ele><time>2026-03-27T16:11:54.999Z</time></trkpt><trkpt lat="45.40907396003653" lon="9.116778199642178"><ele>109.33333333333334</ele><time>2026-03-27T16:11:55.999Z</time></trkpt><trkpt lat="45.40906021481957" lon="9.116487569333046"><ele>109.66666666666666</ele><time>2026-03-27T16:11:56.999Z</time></trkpt><trkpt lat="45.40903860983957" lon="9.116183190956088"><ele>110.0</ele><time>2026-03-27T16:11:57.999Z</time></trkpt><trkpt lat="45.40901969100302" lon="9.115886142662378"><ele>110.0</ele><time>2026-03-27T16:11:58.999Z</time></trkpt><trkpt lat="45.409001771236895" lon="9.115621535585841"><ele>110.0</ele><time>2026-03-27T16:11:59.999Z</time></trkpt><trkpt lat="45.40898599689278" lon="9.11537807428157"><ele>110.0</ele><time>2026-03-27T16:12:01Z</time></trkpt><trkpt lat="45.40895973883823" lon="9.115140381492147"><ele>110.0</ele><time>2026-03-27T16:12:02Z</time></trkpt><trkpt lat="45.408906895751024" lon="9.114914813941631"><ele>110.0</ele><time>2026-03-27T16:12:03Z</time></trkpt><trkpt lat="45.4088082454073" lon="9.114712032807795"><ele>110.0</ele><time>2026-03-27T16:12:04Z</time></trkpt><trkpt lat="45.408669280963245" lon="9.114510658413929"><ele>109.5</ele><time>2026-03-27T16:12:05Z</time></trkpt><trkpt lat="45.40849616133324" lon="9.114290385074039"><ele>109.0</ele><time>2026-03-27T16:12:06Z</time></trkpt><trkpt lat="45.408311607992445" lon="9.114078803273635"><ele>110.0</ele><time>2026-03-27T16:12:07Z</time></trkpt><trkpt lat="45.408105658476956" lon="9.113859603900918"><ele>111.0</ele><time>2026-03-27T16:12:08Z</time></trkpt><trkpt lat="45.40789468501736" lon="9.113624721887811"><ele>111.0</ele><time>2026-03-27T16:12:09Z</time></trkpt><trkpt lat="45.407681719336956" lon="9.11338303738327"><ele>111.0</ele><time>2026-03-27T16:12:10Z</time></trkpt><trkpt lat="45.40749499761069" lon="9.113169662780374"><ele>111.0</ele><time>2026-03-27T16:12:11Z</time></trkpt><trkpt lat="45.40732075005472" lon="9.112969216456467"><ele>111.0</ele><time>2026-03-27T16:12:12Z</time></trkpt><trkpt lat="45.407128141926115" lon="9.112742545237248"><ele>111.0</ele><time>2026-03-27T16:12:13Z</time></trkpt><trkpt lat="45.40691720090784" lon="9.112498591026624"><ele>111.0</ele><time>2026-03-27T16:12:14Z</time></trkpt><trkpt lat="45.40671813486062" lon="9.11226714497369"><ele>111.0</ele><time>2026-03-27T16:12:15Z</time></trkpt><trkpt lat="45.40652262248013" lon="9.112042525562163"><ele>111.0</ele><time>2026-03-27T16:12:16Z</time></trkpt><trkpt lat="45.40629743074589" lon="9.111781820926915"><ele>109.0</ele><time>2026-03-27T16:12:17Z</time></trkpt><trkpt lat="45.406075510238225" lon="9.111524967968483"><ele>107.0</ele><time>2026-03-27T16:12:18Z</time></trkpt><trkpt lat="45.405883838127245" lon="9.111305089360783"><ele>107.0</ele><time>2026-03-27T16:12:19Z</time></trkpt><trkpt lat="45.405709251061886" lon="9.111103375538118"><ele>107.0</ele><time>2026-03-27T16:12:20Z</time></trkpt><trkpt lat="45.40555796297386" lon="9.110929285043207"><ele>107.0</ele><time>2026-03-27T16:12:21Z</time></trkpt><trkpt lat="45.405416295295595" lon="9.110762338999896"><ele>106.66666666666666</ele><time>2026-03-27T16:12:22Z</time></trkpt><trkpt lat="45.40527995624171" lon="9.110604538657686"><ele>106.33333333333334</ele><time>2026-03-27T16:12:23Z</time></trkpt><trkpt lat="45.40515321151639" lon="9.11045662178957"><ele>106.0</ele><time>2026-03-27T16:12:24Z</time></trkpt><trkpt lat="45.40503213394985" lon="9.11031508004161"><ele>106.0</ele><time>2026-03-27T16:12:25Z</time></trkpt><trkpt lat="45.404920916853335" lon="9.11018501696826"><ele>106.0</ele><time>2026-03-27T16:12:26Z</time></trkpt><trkpt lat="45.4048145777236" lon="9.110062908773928"><ele>106.0</ele><time>2026-03-27T16:12:27Z</time></trkpt><trkpt lat="45.404714644758634" lon="9.1099496797068"><ele>106.0</ele><time>2026-03-27T16:12:28Z</time></trkpt><trkpt lat="45.40462094891248" lon="9.109838958224815"><ele>106.5</ele><time>2026-03-27T16:12:29Z</time></trkpt><trkpt lat="45.404517800566936" lon="9.109731046266566"><ele>107.0</ele><time>2026-03-27T16:12:30Z</time></trkpt><trkpt lat="45.40440023631792" lon="9.109621081005601"><ele>107.5</ele><time>2026-03-27T16:12:31Z</time></trkpt><trkpt lat="45.404237689311024" lon="9.109589367564201"><ele>108.0</ele><time>2026-03-27T16:12:32Z</time></trkpt><trkpt lat="45.40407578376789" lon="9.109616609150581"><ele>108.0</ele><time>2026-03-27T16:12:33Z</time></trkpt><trkpt lat="45.40393707176698" lon="9.109644669957314"><ele>108.0</ele><time>2026-03-27T16:12:34Z</time></trkpt><trkpt lat="45.40381961514005" lon="9.109671353666213"><ele>108.0</ele><time>2026-03-27T16:12:35Z</time></trkpt><trkpt lat="45.40371020111244" lon="9.109712577830564"><ele>108.0</ele><time>2026-03-27T16:12:36Z</time></trkpt><trkpt lat="45.40359470475165" lon="9.1098372763747"><ele>107.66666666666666</ele><time>2026-03-27T16:12:37Z</time></trkpt><trkpt lat="45.403458752426666" lon="9.109995683181479"><ele>107.33333333333333</ele><time>2026-03-27T16:12:38Z</time></trkpt><trkpt lat="45.40327388132927" lon="9.110165209476225"><ele>107.0</ele><time>2026-03-27T16:12:39Z</time></trkpt><trkpt lat="45.40307107139571" lon="9.110377043886938"><ele>107.0</ele><time>2026-03-27T16:12:40Z</time></trkpt><trkpt lat="45.40284817471045" lon="9.110612209431972"><ele>107.0</ele><time>2026-03-27T16:12:41Z</time></trkpt><trkpt lat="45.402640402803925" lon="9.110831141448012"><ele>107.0</ele><time>2026-03-27T16:12:42Z</time></trkpt><trkpt lat="45.40244620326292" lon="9.111034879565954"><ele>107.0</ele><time>2026-03-27T16:12:43Z</time></trkpt><trkpt lat="45.40225231884642" lon="9.111230561158326"><ele>106.0</ele><time>2026-03-27T16:12:44Z</time></trkpt><trkpt lat="45.40205468641978" lon="9.11140784538948"><ele>105.0</ele><time>2026-03-27T16:12:45Z</time></trkpt><trkpt lat="45.401845735250106" lon="9.111558148564615"><ele>105.5</ele><time>2026-03-27T16:12:46Z</time></trkpt><trkpt lat="45.40163731190174" lon="9.111689921605015"><ele>106.0</ele><time>2026-03-27T16:12:47Z</time></trkpt><trkpt lat="45.40142600266843" lon="9.111819047000411"><ele>107.0</ele><time>2026-03-27T16:12:48Z</time></trkpt><trkpt lat="45.40119169438419" lon="9.111877725884616"><ele>108.0</ele><time>2026-03-27T16:12:49Z</time></trkpt><trkpt lat="45.40095625820832" lon="9.11191506084823"><ele>108.0</ele><time>2026-03-27T16:12:50Z</time></trkpt><trkpt lat="45.40071708259528" lon="9.11195144596465"><ele>108.0</ele><time>2026-03-27T16:12:51Z</time></trkpt><trkpt lat="45.400470651554635" lon="9.112039550328408"><ele>108.0</ele><time>2026-03-27T16:12:52Z</time></trkpt><trkpt lat="45.40024280800885" lon="9.112178800753506"><ele>108.0</ele><time>2026-03-27T16:12:53Z</time></trkpt><trkpt lat="45.39998752853561" lon="9.112287931856054"><ele>108.0</ele><time>2026-03-27T16:12:53.999Z</time></trkpt><trkpt lat="45.399717992568476" lon="9.112364741027061"><ele>108.0</ele><time>2026-03-27T16:12:54.999Z</time></trkpt><trkpt lat="45.39945026803951" lon="9.112485794544163"><ele>107.0</ele><time>2026-03-27T16:12:55.999Z</time></trkpt><trkpt lat="45.39919022414171" lon="9.11258672987478"><ele>106.0</ele><time>2026-03-27T16:12:56.999Z</time></trkpt><trkpt lat="45.39895308601131" lon="9.112653071726697"><ele>106.66666666666667</ele><time>2026-03-27T16:12:57.999Z</time></trkpt><trkpt lat="45.39873640903782" lon="9.112734894884595"><ele>107.33333333333334</ele><time>2026-03-27T16:12:58.999Z</time></trkpt><trkpt lat="45.39853307989597" lon="9.112811677607594"><ele>108.0</ele><time>2026-03-27T16:12:59.999Z</time></trkpt><trkpt lat="45.39834079710918" lon="9.112908168312345"><ele>108.0</ele><time>2026-03-27T16:13:00.999Z</time></trkpt><trkpt lat="45.39813049300111" lon="9.112982739108837"><ele>108.0</ele><time>2026-03-27T16:13:01.999Z</time></trkpt><trkpt lat="45.39793183251583" lon="9.113053754639047"><ele>108.0</ele><time>2026-03-27T16:13:02.999Z</time></trkpt><trkpt lat="45.39772976541083" lon="9.11312428120778"><ele>108.33333333333334</ele><time>2026-03-27T16:13:03.999Z</time></trkpt><trkpt lat="45.397526212941045" lon="9.113190197220897"><ele>108.66666666666667</ele><time>2026-03-27T16:13:04.999Z</time></trkpt><trkpt lat="45.39730798489466" lon="9.113198995673699"><ele>109.0</ele><time>2026-03-27T16:13:05.999Z</time></trkpt><trkpt lat="45.39705452143651" lon="9.113241267333144"><ele>109.0</ele><time>2026-03-27T16:13:06.999Z</time></trkpt><trkpt lat="45.39679594113455" lon="9.113261971970333"><ele>109.0</ele><time>2026-03-27T16:13:07.999Z</time></trkpt><trkpt lat="45.3965650677692" lon="9.11325364796441"><ele>109.0</ele><time>2026-03-27T16:13:08.999Z</time></trkpt><trkpt lat="45.39635693653593" lon="9.11326427977809"><ele>109.0</ele><time>2026-03-27T16:13:09.999Z</time></trkpt><trkpt lat="45.396164009904346" lon="9.113296452610417"><ele>109.0</ele><time>2026-03-27T16:13:10.999Z</time></trkpt><trkpt lat="45.395985905830905" lon="9.11330734464795"><ele>108.66666666666667</ele><time>2026-03-27T16:13:11.999Z</time></trkpt><trkpt lat="45.39581974210199" lon="9.113320693021832"><ele>108.33333333333334</ele><time>2026-03-27T16:13:12.999Z</time></trkpt><trkpt lat="45.39566491267106" lon="9.113336315153067"><ele>108.0</ele><time>2026-03-27T16:13:13.999Z</time></trkpt><trkpt lat="45.395507412452936" lon="9.113324299510873"><ele>107.33333333333334</ele><time>2026-03-27T16:13:14.999Z</time></trkpt><trkpt lat="45.39535201808882" lon="9.11333615381802"><ele>106.66666666666667</ele><time>2026-03-27T16:13:15.999Z</time></trkpt><trkpt lat="45.39520553799877" lon="9.113347855204902"><ele>106.0</ele><time>2026-03-27T16:13:16.999Z</time></trkpt><trkpt lat="45.395055159348864" lon="9.113359868023743"><ele>106.0</ele><time>2026-03-27T16:13:17.999Z</time></trkpt><trkpt lat="45.39490843361474" lon="9.113371589027418"><ele>106.0</ele><time>2026-03-27T16:13:18.999Z</time></trkpt><trkpt lat="45.39476910449153" lon="9.11340606273692"><ele>106.0</ele><time>2026-03-27T16:13:19.999Z</time></trkpt><trkpt lat="45.39462943419122" lon="9.113414009205087"><ele>106.0</ele><time>2026-03-27T16:13:20.999Z</time></trkpt><trkpt lat="45.394486460325396" lon="9.113424241515393"><ele>106.25</ele><time>2026-03-27T16:13:21.999Z</time></trkpt><trkpt lat="45.3943472872546" lon="9.113438390134137"><ele>106.5</ele><time>2026-03-27T16:13:22.999Z</time></trkpt><trkpt lat="45.394222233861306" lon="9.113450650404486"><ele>106.75</ele><time>2026-03-27T16:13:23.999Z</time></trkpt><trkpt lat="45.39409884507264" lon="9.113453556817777"><ele>107.0</ele><time>2026-03-27T16:13:24.999Z</time></trkpt><trkpt lat="45.39397592388634" lon="9.11346551274492"><ele>107.0</ele><time>2026-03-27T16:13:25.999Z</time></trkpt><trkpt lat="45.393852786678664" lon="9.11347160825769"><ele>107.0</ele><time>2026-03-27T16:13:26.999Z</time></trkpt><trkpt lat="45.39373021637361" lon="9.113483015860771"><ele>107.0</ele><time>2026-03-27T16:13:27.999Z</time></trkpt><trkpt lat="45.39359363312451" lon="9.113488712618821"><ele>107.0</ele><time>2026-03-27T16:13:28.999Z</time></trkpt><trkpt lat="45.39342564855035" lon="9.11349812563721"><ele>106.33333333333333</ele><time>2026-03-27T16:13:29.999Z</time></trkpt><trkpt lat="45.39324652710149" lon="9.113512425902696"><ele>105.66666666666666</ele><time>2026-03-27T16:13:30.999Z</time></trkpt><trkpt lat="45.393052083927564" lon="9.113528742671523"><ele>105.0</ele><time>2026-03-27T16:13:31.999Z</time></trkpt><trkpt lat="45.392858004220365" lon="9.113540195310296"><ele>104.0</ele><time>2026-03-27T16:13:32.999Z</time></trkpt><trkpt lat="45.39268586022512" lon="9.113557960254429"><ele>103.0</ele><time>2026-03-27T16:13:33.999Z</time></trkpt><trkpt lat="45.3925120482891" lon="9.113574884208546"><ele>102.0</ele><time>2026-03-27T16:13:34.999Z</time></trkpt><trkpt lat="45.392330697649065" lon="9.113567003264643"><ele>102.33333333333334</ele><time>2026-03-27T16:13:35.999Z</time></trkpt><trkpt lat="45.392150566173505" lon="9.113579130822025"><ele>102.66666666666667</ele><time>2026-03-27T16:13:36.999Z</time></trkpt><trkpt lat="45.39198120622046" lon="9.113590533186821"><ele>103.0</ele><time>2026-03-27T16:13:37.999Z</time></trkpt><trkpt lat="45.39181602754994" lon="9.113601654029516"><ele>103.0</ele><time>2026-03-27T16:13:38.999Z</time></trkpt><trkpt lat="45.39165785109545" lon="9.113611706080976"><ele>103.0</ele><time>2026-03-27T16:13:39.999Z</time></trkpt><trkpt lat="45.391504905895815" lon="9.113620428620635"><ele>103.0</ele><time>2026-03-27T16:13:40.999Z</time></trkpt><trkpt lat="45.391363319671456" lon="9.113625774667979"><ele>103.5</ele><time>2026-03-27T16:13:41.999Z</time></trkpt><trkpt lat="45.39123238406921" lon="9.113605982492018"><ele>104.0</ele><time>2026-03-27T16:13:42.999Z</time></trkpt><trkpt lat="45.39109892913023" lon="9.113562108450033"><ele>104.5</ele><time>2026-03-27T16:13:43.999Z</time></trkpt><trkpt lat="45.391002712120496" lon="9.113441498522329"><ele>105.0</ele><time>2026-03-27T16:13:44.999Z</time></trkpt><trkpt lat="45.3908972144806" lon="9.113359025374775"><ele>105.0</ele><time>2026-03-27T16:13:45.999Z</time></trkpt><trkpt lat="45.390794259906215" lon="9.113315313232262"><ele>105.0</ele><time>2026-03-27T16:13:46.999Z</time></trkpt><trkpt lat="45.39070455907651" lon="9.113246589629044"><ele>105.0</ele><time>2026-03-27T16:13:47.999Z</time></trkpt><trkpt lat="45.39060918944344" lon="9.113230075617107"><ele>105.0</ele><time>2026-03-27T16:13:48.999Z</time></trkpt><trkpt lat="45.390529123346774" lon="9.113212496441635"><ele>105.0</ele><time>2026-03-27T16:13:49.999Z</time></trkpt><trkpt lat="45.39042549827402" lon="9.113205456187067"><ele>105.5</ele><time>2026-03-27T16:13:51.999Z</time></trkpt><trkpt lat="45.39035351501101" lon="9.11313089432529"><ele>106.0</ele><time>2026-03-27T16:13:54.999Z</time></trkpt><trkpt lat="45.39029047929672" lon="9.113136192290419"><ele>106.5</ele><time>2026-03-27T16:13:57.999Z</time></trkpt><trkpt lat="45.39038254546828" lon="9.112976201815583"><ele>107.0</ele><time>2026-03-27T16:14:00.999Z</time></trkpt><trkpt lat="45.390379071557774" lon="9.112875391188867"><ele>107.5</ele><time>2026-03-27T16:14:03.999Z</time></trkpt><trkpt lat="45.39038299660123" lon="9.112782402730447"><ele>108.0</ele><time>2026-03-27T16:14:04.999Z</time></trkpt><trkpt lat="45.3903738347681" lon="9.11268070905367"><ele>108.0</ele><time>2026-03-27T16:14:06Z</time></trkpt><trkpt lat="45.390368029386345" lon="9.112543039509077"><ele>108.00000000000001</ele><time>2026-03-27T16:14:07Z</time></trkpt><trkpt lat="45.39036250074324" lon="9.112389963961553"><ele>108.00000000000001</ele><time>2026-03-27T16:14:08Z</time></trkpt><trkpt lat="45.39035959668876" lon="9.112246740402178"><ele>108.0</ele><time>2026-03-27T16:14:09Z</time></trkpt><trkpt lat="45.39036082246124" lon="9.112106560851894"><ele>108.0</ele><time>2026-03-27T16:14:10Z</time></trkpt><trkpt lat="45.390369344590155" lon="9.111996442032574"><ele>107.83333333333333</ele><time>2026-03-27T16:14:11Z</time></trkpt><trkpt lat="45.39036676507168" lon="9.111874306104756"><ele>107.66666666666666</ele><time>2026-03-27T16:14:12Z</time></trkpt><trkpt lat="45.39036433112692" lon="9.111759062557494"><ele>107.5</ele><time>2026-03-27T16:14:13Z</time></trkpt><trkpt lat="45.390362373206166" lon="9.111666357780473"><ele>107.33333333333333</ele><time>2026-03-27T16:14:14Z</time></trkpt><trkpt lat="45.39035984069581" lon="9.111546447336888"><ele>107.16666666666666</ele><time>2026-03-27T16:14:16Z</time></trkpt><trkpt lat="45.39035350234598" lon="9.111430587764657"><ele>107.0</ele><time>2026-03-27T16:14:18Z</time></trkpt><trkpt lat="45.39050629527946" lon="9.111327913940666"><ele>106.39999999999999</ele><time>2026-03-27T16:14:22Z</time></trkpt><trkpt lat="45.39058688303268" lon="9.111317138827586"><ele>105.79999999999998</ele><time>2026-03-27T16:14:24Z</time></trkpt><trkpt lat="45.390669337234165" lon="9.111286777521464"><ele>105.2</ele><time>2026-03-27T16:14:26Z</time></trkpt><trkpt lat="45.390739243623585" lon="9.111258099492703"><ele>104.6</ele><time>2026-03-27T16:14:28Z</time></trkpt><trkpt lat="45.39083173405586" lon="9.111224418086884"><ele>104.0</ele><time>2026-03-27T16:14:31Z</time></trkpt><trkpt lat="45.39097483775785" lon="9.111169023958059"><ele>104.0</ele><time>2026-03-27T16:14:33Z</time></trkpt><trkpt lat="45.39107338125783" lon="9.111141065642594"><ele>104.0</ele><time>2026-03-27T16:14:34Z</time></trkpt><trkpt lat="45.39117275120243" lon="9.111110103074124"><ele>104.0</ele><time>2026-03-27T16:14:35Z</time></trkpt><trkpt lat="45.391292236264434" lon="9.111070549298036"><ele>104.0</ele><time>2026-03-27T16:14:36Z</time></trkpt><trkpt lat="45.3914185034646" lon="9.111025707324806"><ele>104.0</ele><time>2026-03-27T16:14:37Z</time></trkpt><trkpt lat="45.39152893937471" lon="9.110986278112643"><ele>104.0</ele><time>2026-03-27T16:14:38Z</time></trkpt><trkpt lat="45.391648728469725" lon="9.110953722281712"><ele>104.0</ele><time>2026-03-27T16:14:39Z</time></trkpt><trkpt lat="45.39177070071652" lon="9.110921372329964"><ele>104.0</ele><time>2026-03-27T16:14:40Z</time></trkpt><trkpt lat="45.39188332150181" lon="9.110888709913318"><ele>104.0</ele><time>2026-03-27T16:14:41Z</time></trkpt><trkpt lat="45.391975671352455" lon="9.110858052448643"><ele>104.0</ele><time>2026-03-27T16:14:42Z</time></trkpt><trkpt lat="45.39206679261291" lon="9.110830769105593"><ele>104.0</ele><time>2026-03-27T16:14:43Z</time></trkpt><trkpt lat="45.392167564928336" lon="9.110810198255596"><ele>104.0</ele><time>2026-03-27T16:14:44Z</time></trkpt><trkpt lat="45.39225935255494" lon="9.110778195081048"><ele>104.0</ele><time>2026-03-27T16:14:45Z</time></trkpt><trkpt lat="45.392354692769075" lon="9.110727021164463"><ele>103.75</ele><time>2026-03-27T16:14:46Z</time></trkpt><trkpt lat="45.392468823255705" lon="9.110699577597403"><ele>103.5</ele><time>2026-03-27T16:14:47Z</time></trkpt><trkpt lat="45.39258477085106" lon="9.11066658474324"><ele>103.25</ele><time>2026-03-27T16:14:48Z</time></trkpt><trkpt lat="45.3927079746916" lon="9.110630848246787"><ele>103.0</ele><time>2026-03-27T16:14:49Z</time></trkpt><trkpt lat="45.392817091945425" lon="9.110597292348524"><ele>103.00000000000001</ele><time>2026-03-27T16:14:50Z</time></trkpt><trkpt lat="45.39291429012646" lon="9.110571593262247"><ele>103.0</ele><time>2026-03-27T16:14:50.999Z</time></trkpt><trkpt lat="45.39299782853826" lon="9.110553423702177"><ele>103.0</ele><time>2026-03-27T16:14:51.999Z</time></trkpt><trkpt lat="45.39308155623181" lon="9.110537254212007"><ele>103.0</ele><time>2026-03-27T16:14:52.999Z</time></trkpt><trkpt lat="45.39316616977463" lon="9.110508436567995"><ele>103.00000000000001</ele><time>2026-03-27T16:14:53.999Z</time></trkpt><trkpt lat="45.39324608685662" lon="9.110473280294393"><ele>103.0</ele><time>2026-03-27T16:14:54.999Z</time></trkpt><trkpt lat="45.393339369986265" lon="9.110436826504941"><ele>103.0</ele><time>2026-03-27T16:14:55.999Z</time></trkpt><trkpt lat="45.39345049270762" lon="9.110404728406253"><ele>103.0</ele><time>2026-03-27T16:14:56.999Z</time></trkpt><trkpt lat="45.393571597314285" lon="9.11036477232236"><ele>103.0</ele><time>2026-03-27T16:14:57.999Z</time></trkpt><trkpt lat="45.39367775485245" lon="9.110327703075875"><ele>103.0</ele><time>2026-03-27T16:14:58.999Z</time></trkpt><trkpt lat="45.39376821327754" lon="9.110293320876048"><ele>103.0</ele><time>2026-03-27T16:14:59.999Z</time></trkpt><trkpt lat="45.39386300620795" lon="9.110257424246711"><ele>103.00000000000001</ele><time>2026-03-27T16:15:00.999Z</time></trkpt><trkpt lat="45.39395242758636" lon="9.110223649713202"><ele>103.0</ele><time>2026-03-27T16:15:01.999Z</time></trkpt><trkpt lat="45.39403169848824" lon="9.110192630499798"><ele>103.0</ele><time>2026-03-27T16:15:02.999Z</time></trkpt><trkpt lat="45.394115839683835" lon="9.11016279603093"><ele>103.0</ele><time>2026-03-27T16:15:03.999Z</time></trkpt><trkpt lat="45.39418338244342" lon="9.110136867484083"><ele>103.00000000000001</ele><time>2026-03-27T16:15:04.999Z</time></trkpt><trkpt lat="45.39424859436135" lon="9.11011552459751"><ele>103.0</ele><time>2026-03-27T16:15:05.999Z</time></trkpt><trkpt lat="45.39431557341639" lon="9.110094789128652"><ele>103.0</ele><time>2026-03-27T16:15:06.999Z</time></trkpt><trkpt lat="45.39443255736609" lon="9.110048455060893"><ele>103.0</ele><time>2026-03-27T16:15:08.999Z</time></trkpt><trkpt lat="45.39454239816846" lon="9.110021162052146"><ele>103.0</ele><time>2026-03-27T16:15:10.999Z</time></trkpt><trkpt lat="45.394634714527925" lon="9.11000032220088"><ele>103.0</ele><time>2026-03-27T16:15:12.999Z</time></trkpt><trkpt lat="45.39470218456727" lon="9.109975968168767"><ele>103.0</ele><time>2026-03-27T16:15:14.999Z</time></trkpt><trkpt lat="45.394751900019685" lon="9.109905342367663"><ele>103.16666666666667</ele><time>2026-03-27T16:15:17.999Z</time></trkpt><trkpt lat="45.39475818104445" lon="9.109784852070748"><ele>103.33333333333334</ele><time>2026-03-27T16:15:19.999Z</time></trkpt><trkpt lat="45.39471878340412" lon="9.109660809136942"><ele>103.5</ele><time>2026-03-27T16:15:21.999Z</time></trkpt><trkpt lat="45.39470346596378" lon="9.10957265834851"><ele>103.66666666666666</ele><time>2026-03-27T16:15:22.999Z</time></trkpt><trkpt lat="45.39468285795303" lon="9.1094561799729"><ele>103.83333333333333</ele><time>2026-03-27T16:15:23.999Z</time></trkpt><trkpt lat="45.394651213006085" lon="9.109324433799848"><ele>104.0</ele><time>2026-03-27T16:15:24.999Z</time></trkpt><trkpt lat="45.39461458912156" lon="9.109179078370401"><ele>104.49999999999999</ele><time>2026-03-27T16:15:25.999Z</time></trkpt><trkpt lat="45.3945869677636" lon="9.10906647220086"><ele>105.0</ele><time>2026-03-27T16:15:26.999Z</time></trkpt><trkpt lat="45.39456078719939" lon="9.108951122614151"><ele>105.5</ele><time>2026-03-27T16:15:27.999Z</time></trkpt><trkpt lat="45.39453695317479" lon="9.10883927542223"><ele>106.0</ele><time>2026-03-27T16:15:28.999Z</time></trkpt><trkpt lat="45.39451843721298" lon="9.108749197913749"><ele>106.49999999999999</ele><time>2026-03-27T16:15:29.999Z</time></trkpt><trkpt lat="45.39449312882879" lon="9.108628331688381"><ele>107.0</ele><time>2026-03-27T16:15:31.999Z</time></trkpt><trkpt lat="45.39450921053534" lon="9.108519792300806"><ele>107.0</ele><time>2026-03-27T16:15:33.999Z</time></trkpt><trkpt lat="45.39459538671466" lon="9.108449877813548"><ele>106.99999999999999</ele><time>2026-03-27T16:15:35.999Z</time></trkpt><trkpt lat="45.3946678443543" lon="9.108440865595679"><ele>106.99999999999999</ele><time>2026-03-27T16:15:36.999Z</time></trkpt><trkpt lat="45.394766470873364" lon="9.108436520842565"><ele>107.0</ele><time>2026-03-27T16:15:37.999Z</time></trkpt><trkpt lat="45.39488517837691" lon="9.108426841483189"><ele>107.0</ele><time>2026-03-27T16:15:38.999Z</time></trkpt><trkpt lat="45.394994254080636" lon="9.108408303038068"><ele>106.66666666666666</ele><time>2026-03-27T16:15:39.999Z</time></trkpt><trkpt lat="45.39508020121012" lon="9.108392175629362"><ele>106.33333333333333</ele><time>2026-03-27T16:15:40.999Z</time></trkpt><trkpt lat="45.39516516857141" lon="9.108366513247695"><ele>106.0</ele><time>2026-03-27T16:15:41.999Z</time></trkpt><trkpt lat="45.395255069751954" lon="9.108325943063212"><ele>105.66666666666666</ele><time>2026-03-27T16:15:42.999Z</time></trkpt><trkpt lat="45.3953372549886" lon="9.108293340005602"><ele>105.33333333333333</ele><time>2026-03-27T16:15:43.999Z</time></trkpt><trkpt lat="45.39540361362533" lon="9.108266949125486"><ele>105.0</ele><time>2026-03-27T16:15:44.999Z</time></trkpt><trkpt lat="45.39552486434564" lon="9.108240251811962"><ele>105.0</ele><time>2026-03-27T16:15:46.999Z</time></trkpt><trkpt lat="45.395626498864004" lon="9.10822490951154"><ele>105.0</ele><time>2026-03-27T16:15:48.999Z</time></trkpt><trkpt lat="45.3956973981821" lon="9.108207395095341"><ele>105.0</ele><time>2026-03-27T16:15:50.999Z</time></trkpt><trkpt lat="45.39572407885748" lon="9.108100541141635"><ele>105.0</ele><time>2026-03-27T16:15:53.999Z</time></trkpt><trkpt lat="45.39567831291322" lon="9.10795266737894"><ele>105.0</ele><time>2026-03-27T16:15:55.999Z</time></trkpt><trkpt lat="45.3956345084073" lon="9.10785692215336"><ele>105.0</ele><time>2026-03-27T16:15:56.999Z</time></trkpt><trkpt lat="45.39560182937872" lon="9.107744922765"><ele>105.0</ele><time>2026-03-27T16:15:57.999Z</time></trkpt><trkpt lat="45.39558706316296" lon="9.107627846824814"><ele>105.0</ele><time>2026-03-27T16:15:58.999Z</time></trkpt><trkpt lat="45.395579292102425" lon="9.107490785976372"><ele>105.0</ele><time>2026-03-27T16:15:59.999Z</time></trkpt><trkpt lat="45.39557261207849" lon="9.107365445540054"><ele>105.0</ele><time>2026-03-27T16:16:00.999Z</time></trkpt><trkpt lat="45.3955611483831" lon="9.107252582971128"><ele>105.0</ele><time>2026-03-27T16:16:01.999Z</time></trkpt><trkpt lat="45.39554962135626" lon="9.107157442487066"><ele>105.0</ele><time>2026-03-27T16:16:02.999Z</time></trkpt><trkpt lat="45.395526526133956" lon="9.10700564412601"><ele>105.0</ele><time>2026-03-27T16:16:04.999Z</time></trkpt><trkpt lat="45.395521180559456" lon="9.106909141963769"><ele>105.0</ele><time>2026-03-27T16:16:05.999Z</time></trkpt><trkpt lat="45.395519071572714" lon="9.106795947478219"><ele>105.0</ele><time>2026-03-27T16:16:06.999Z</time></trkpt><trkpt lat="45.395510372104276" lon="9.106700386613035"><ele>105.0</ele><time>2026-03-27T16:16:07.999Z</time></trkpt><trkpt lat="45.395494264193864" lon="9.106604195140932"><ele>105.0</ele><time>2026-03-27T16:16:08.999Z</time></trkpt><trkpt lat="45.39548533970335" lon="9.10651531365668"><ele>105.0</ele><time>2026-03-27T16:16:09.999Z</time></trkpt><trkpt lat="45.39547926189329" lon="9.10638343397009"><ele>105.0</ele><time>2026-03-27T16:16:12Z</time></trkpt><trkpt lat="45.395469894985006" lon="9.106283532753995"><ele>105.16666666666667</ele><time>2026-03-27T16:16:14Z</time></trkpt><trkpt lat="45.395404098124956" lon="9.106190459306957"><ele>105.33333333333334</ele><time>2026-03-27T16:16:16Z</time></trkpt><trkpt lat="45.39534516007955" lon="9.106128389305972"><ele>105.5</ele><time>2026-03-27T16:16:18Z</time></trkpt><trkpt lat="45.395271337801255" lon="9.10611010172773"><ele>105.66666666666667</ele><time>2026-03-27T16:16:20Z</time></trkpt><trkpt lat="45.39520535107975" lon="9.10611600216027"><ele>105.83333333333334</ele><time>2026-03-27T16:16:21Z</time></trkpt><trkpt lat="45.395128473389335" lon="9.106125148863397"><ele>106.0</ele><time>2026-03-27T16:16:22Z</time></trkpt><trkpt lat="45.39502102522831" lon="9.106138951580252"><ele>106.0</ele><time>2026-03-27T16:16:23Z</time></trkpt><trkpt lat="45.39489737964611" lon="9.106158387315432"><ele>106.0</ele><time>2026-03-27T16:16:24Z</time></trkpt><trkpt lat="45.394779253822016" lon="9.106178066001702"><ele>106.0</ele><time>2026-03-27T16:16:25Z</time></trkpt><trkpt lat="45.39468340517368" lon="9.106189847859337"><ele>106.0</ele><time>2026-03-27T16:16:26Z</time></trkpt><trkpt lat="45.39460275418346" lon="9.106195765043081"><ele>106.0</ele><time>2026-03-27T16:16:27Z</time></trkpt><trkpt lat="45.39450908171536" lon="9.106199496738059"><ele>105.83333333333334</ele><time>2026-03-27T16:16:28Z</time></trkpt><trkpt lat="45.394411987628516" lon="9.106187806469043"><ele>105.66666666666667</ele><time>2026-03-27T16:16:29Z</time></trkpt><trkpt lat="45.39432020931052" lon="9.106164147934797"><ele>105.5</ele><time>2026-03-27T16:16:30Z</time></trkpt><trkpt lat="45.39424073083917" lon="9.106133934933045"><ele>105.33333333333334</ele><time>2026-03-27T16:16:31Z</time></trkpt><trkpt lat="45.394163399907846" lon="9.106083927661679"><ele>105.16666666666667</ele><time>2026-03-27T16:16:32Z</time></trkpt><trkpt lat="45.39409526116697" lon="9.106034157153116"><ele>105.0</ele><time>2026-03-27T16:16:33Z</time></trkpt><trkpt lat="45.39403443050243" lon="9.106005650952996"><ele>105.0</ele><time>2026-03-27T16:16:34Z</time></trkpt><trkpt lat="45.393907952867444" lon="9.106045728558097"><ele>105.0</ele><time>2026-03-27T16:16:36Z</time></trkpt><trkpt lat="45.393834909019795" lon="9.106096843369217"><ele>105.0</ele><time>2026-03-27T16:16:37Z</time></trkpt><trkpt lat="45.393756546467706" lon="9.106175182743685"><ele>105.0</ele><time>2026-03-27T16:16:38Z</time></trkpt><trkpt lat="45.393657572816146" lon="9.106288250377212"><ele>105.0</ele><time>2026-03-27T16:16:39Z</time></trkpt><trkpt lat="45.39354793755159" lon="9.106406511766842"><ele>104.75</ele><time>2026-03-27T16:16:40Z</time></trkpt><trkpt lat="45.39344637308259" lon="9.106517061388214"><ele>104.5</ele><time>2026-03-27T16:16:41Z</time></trkpt><trkpt lat="45.393336027298396" lon="9.106633741303042"><ele>104.25</ele><time>2026-03-27T16:16:42Z</time></trkpt><trkpt lat="45.3932333861937" lon="9.106736468081907"><ele>104.0</ele><time>2026-03-27T16:16:43Z</time></trkpt><trkpt lat="45.393137728923996" lon="9.106832186615364"><ele>104.0</ele><time>2026-03-27T16:16:44Z</time></trkpt><trkpt lat="45.393050778877324" lon="9.106924039832311"><ele>104.0</ele><time>2026-03-27T16:16:45Z</time></trkpt><trkpt lat="45.39295663544508" lon="9.107022203211216"><ele>104.0</ele><time>2026-03-27T16:16:46Z</time></trkpt><trkpt lat="45.39285444260857" lon="9.107132992015552"><ele>104.0</ele><time>2026-03-27T16:16:47Z</time></trkpt><trkpt lat="45.39275327121886" lon="9.10723188243769"><ele>104.0</ele><time>2026-03-27T16:16:48Z</time></trkpt><trkpt lat="45.392641676967116" lon="9.107291966945391"><ele>104.0</ele><time>2026-03-27T16:16:49Z</time></trkpt><trkpt lat="45.39253632758105" lon="9.107401437684173"><ele>104.0</ele><time>2026-03-27T16:16:50Z</time></trkpt><trkpt lat="45.3924393366401" lon="9.107516498056112"><ele>104.0</ele><time>2026-03-27T16:16:51Z</time></trkpt><trkpt lat="45.3923362658587" lon="9.107589635372852"><ele>103.6</ele><time>2026-03-27T16:16:52Z</time></trkpt><trkpt lat="45.392248664820976" lon="9.107686578782088"><ele>103.2</ele><time>2026-03-27T16:16:52.999Z</time></trkpt><trkpt lat="45.392162832030415" lon="9.107767758302641"><ele>102.8</ele><time>2026-03-27T16:16:53.999Z</time></trkpt><trkpt lat="45.39207247401205" lon="9.107865656386325"><ele>102.39999999999999</ele><time>2026-03-27T16:16:54.999Z</time></trkpt><trkpt lat="45.39197841610469" lon="9.10796830132563"><ele>102.0</ele><time>2026-03-27T16:16:55.999Z</time></trkpt><trkpt lat="45.39189794054916" lon="9.108059917463866"><ele>102.0</ele><time>2026-03-27T16:16:56.999Z</time></trkpt><trkpt lat="45.391814141319216" lon="9.108156881037772"><ele>102.0</ele><time>2026-03-27T16:16:57.999Z</time></trkpt><trkpt lat="45.39173710400198" lon="9.10824858092057"><ele>102.0</ele><time>2026-03-27T16:16:58.999Z</time></trkpt><trkpt lat="45.39166816646308" lon="9.108332374163894"><ele>102.0</ele><time>2026-03-27T16:16:59.999Z</time></trkpt><trkpt lat="45.391617107829745" lon="9.10842507384842"><ele>102.0</ele><time>2026-03-27T16:17:00.999Z</time></trkpt><trkpt lat="45.39154935251012" lon="9.10851322109977"><ele>102.16666666666667</ele><time>2026-03-27T16:17:01.999Z</time></trkpt><trkpt lat="45.391497810845294" lon="9.108590013507705"><ele>102.33333333333334</ele><time>2026-03-27T16:17:02.999Z</time></trkpt><trkpt lat="45.39143071343999" lon="9.10864868599118"><ele>102.5</ele><time>2026-03-27T16:17:03.999Z</time></trkpt><trkpt lat="45.39136034022021" lon="9.108738491590353"><ele>102.66666666666667</ele><time>2026-03-27T16:17:04.999Z</time></trkpt><trkpt lat="45.39128919339178" lon="9.108817300943919"><ele>102.83333333333334</ele><time>2026-03-27T16:17:05.999Z</time></trkpt><trkpt lat="45.3912144317743" lon="9.108878687471897"><ele>103.0</ele><time>2026-03-27T16:17:06.999Z</time></trkpt><trkpt lat="45.39113660652904" lon="9.108910589482077"><ele>103.4</ele><time>2026-03-27T16:17:07.999Z</time></trkpt><trkpt lat="45.39105263977042" lon="9.10895214375662"><ele>103.80000000000001</ele><time>2026-03-27T16:17:08.999Z</time></trkpt><trkpt lat="45.390951357075366" lon="9.109002267468549"><ele>104.2</ele><time>2026-03-27T16:17:09.999Z</time></trkpt><trkpt lat="45.3908340393047" lon="9.109085226457154"><ele>104.6</ele><time>2026-03-27T16:17:10.999Z</time></trkpt><trkpt lat="45.39071418426171" lon="9.109120372455072"><ele>105.0</ele><time>2026-03-27T16:17:11.999Z</time></trkpt><trkpt lat="45.39061391198033" lon="9.109171894293189"><ele>105.0</ele><time>2026-03-27T16:17:12.999Z</time></trkpt><trkpt lat="45.390509343516996" lon="9.109226492640877"><ele>105.0</ele><time>2026-03-27T16:17:13.999Z</time></trkpt><trkpt lat="45.39041384360153" lon="9.109276924763376"><ele>105.0</ele><time>2026-03-27T16:17:14.999Z</time></trkpt><trkpt lat="45.39030980862002" lon="9.109332340025889"><ele>105.0</ele><time>2026-03-27T16:17:15.999Z</time></trkpt><trkpt lat="45.390200581565466" lon="9.109391806582439"><ele>105.0</ele><time>2026-03-27T16:17:16.999Z</time></trkpt><trkpt lat="45.39009755766338" lon="9.109449246028657"><ele>105.0</ele><time>2026-03-27T16:17:17.999Z</time></trkpt><trkpt lat="45.390015438086124" lon="9.109495030705993"><ele>105.0</ele><time>2026-03-27T16:17:18.999Z</time></trkpt><trkpt lat="45.38993784493228" lon="9.109538522857417"><ele>105.0</ele><time>2026-03-27T16:17:19.999Z</time></trkpt><trkpt lat="45.389878658897466" lon="9.109598205816244"><ele>105.0</ele><time>2026-03-27T16:17:20.999Z</time></trkpt><trkpt lat="45.38976827738078" lon="9.109657362799233"><ele>105.0</ele><time>2026-03-27T16:17:22.999Z</time></trkpt><trkpt lat="45.38969993498232" lon="9.109717124590723"><ele>105.0</ele><time>2026-03-27T16:17:23.999Z</time></trkpt><trkpt lat="45.38962992618756" lon="9.10978793668449"><ele>105.0</ele><time>2026-03-27T16:17:24.999Z</time></trkpt><trkpt lat="45.38957406647633" lon="9.109834556628453"><ele>105.0</ele><time>2026-03-27T16:17:25.999Z</time></trkpt><trkpt lat="45.38950844786931" lon="9.109879685423907"><ele>105.0</ele><time>2026-03-27T16:17:27.999Z</time></trkpt><trkpt lat="45.38945251670631" lon="9.10992241453481"><ele>105.0</ele><time>2026-03-27T16:17:30.999Z</time></trkpt><trkpt lat="45.389442920871204" lon="9.109790462262277"><ele>105.0</ele><time>2026-03-27T16:17:33.999Z</time></trkpt><trkpt lat="45.3894623900593" lon="9.109667306800885"><ele>105.0</ele><time>2026-03-27T16:17:36.999Z</time></trkpt><trkpt lat="45.38943709763084" lon="9.109508026495936"><ele>104.75</ele><time>2026-03-27T16:17:38.999Z</time></trkpt><trkpt lat="45.38944548397603" lon="9.10938427733173"><ele>104.5</ele><time>2026-03-27T16:17:39.999Z</time></trkpt><trkpt lat="45.38943428414452" lon="9.109233131998602"><ele>104.25</ele><time>2026-03-27T16:17:40.999Z</time></trkpt><trkpt lat="45.38941742184447" lon="9.10906290789601"><ele>104.0</ele><time>2026-03-27T16:17:41.999Z</time></trkpt><trkpt lat="45.38938723704368" lon="9.10885478898295"><ele>104.0</ele><time>2026-03-27T16:17:42.999Z</time></trkpt><trkpt lat="45.38934534573237" lon="9.108646008205335"><ele>104.0</ele><time>2026-03-27T16:17:43.999Z</time></trkpt><trkpt lat="45.38929498309093" lon="9.108411310465751"><ele>104.0</ele><time>2026-03-27T16:17:44.999Z</time></trkpt><trkpt lat="45.389250994109496" lon="9.108206684733135"><ele>103.75</ele><time>2026-03-27T16:17:45.999Z</time></trkpt><trkpt lat="45.389214067180355" lon="9.108018189980125"><ele>103.5</ele><time>2026-03-27T16:17:46.999Z</time></trkpt><trkpt lat="45.38917555969073" lon="9.107823700412785"><ele>103.25</ele><time>2026-03-27T16:17:47.999Z</time></trkpt><trkpt lat="45.38912828049226" lon="9.107593069426533"><ele>103.0</ele><time>2026-03-27T16:17:48.999Z</time></trkpt><trkpt lat="45.3890903978349" lon="9.107387755264309"><ele>103.0</ele><time>2026-03-27T16:17:49.999Z</time></trkpt><trkpt lat="45.38906278876425" lon="9.107202320194933"><ele>103.0</ele><time>2026-03-27T16:17:50.999Z</time></trkpt><trkpt lat="45.38906252937062" lon="9.10703165107516"><ele>103.0</ele><time>2026-03-27T16:17:51.999Z</time></trkpt><trkpt lat="45.389044960182616" lon="9.1068550715046"><ele>103.0</ele><time>2026-03-27T16:17:52.999Z</time></trkpt><trkpt lat="45.38904282536441" lon="9.106673062159578"><ele>103.0</ele><time>2026-03-27T16:17:53.999Z</time></trkpt><trkpt lat="45.389043578503" lon="9.106515448187029"><ele>103.0</ele><time>2026-03-27T16:17:54.999Z</time></trkpt><trkpt lat="45.389036543066325" lon="9.106364819211887"><ele>103.0</ele><time>2026-03-27T16:17:55.999Z</time></trkpt><trkpt lat="45.38900298706224" lon="9.106197757413392"><ele>103.0</ele><time>2026-03-27T16:17:56.999Z</time></trkpt><trkpt lat="45.388934272451756" lon="9.106040794920354"><ele>103.66666666666667</ele><time>2026-03-27T16:17:57.999Z</time></trkpt><trkpt lat="45.38884207876696" lon="9.105877125492228"><ele>104.33333333333334</ele><time>2026-03-27T16:17:58.999Z</time></trkpt><trkpt lat="45.38874550492672" lon="9.105665664059172"><ele>105.0</ele><time>2026-03-27T16:17:59.999Z</time></trkpt><trkpt lat="45.388645414565396" lon="9.105431918583795"><ele>105.0</ele><time>2026-03-27T16:18:00.999Z</time></trkpt><trkpt lat="45.388559074491454" lon="9.105250628998993"><ele>105.0</ele><time>2026-03-27T16:18:01.999Z</time></trkpt><trkpt lat="45.38848183642317" lon="9.105084429785878"><ele>105.0</ele><time>2026-03-27T16:18:02.999Z</time></trkpt><trkpt lat="45.388408564214586" lon="9.104928518575033"><ele>105.0</ele><time>2026-03-27T16:18:03.999Z</time></trkpt><trkpt lat="45.38834340896019" lon="9.104783320029954"><ele>104.8</ele><time>2026-03-27T16:18:04.999Z</time></trkpt><trkpt lat="45.38827844720482" lon="9.104653723416384"><ele>104.6</ele><time>2026-03-27T16:18:05.999Z</time></trkpt><trkpt lat="45.388215974276925" lon="9.104531274355121"><ele>104.4</ele><time>2026-03-27T16:18:06.999Z</time></trkpt><trkpt lat="45.388162296589904" lon="9.104425376348463"><ele>104.2</ele><time>2026-03-27T16:18:07.999Z</time></trkpt><trkpt lat="45.38811459904786" lon="9.104329976441273"><ele>104.0</ele><time>2026-03-27T16:18:08.999Z</time></trkpt><trkpt lat="45.3880716637189" lon="9.104242747165816"><ele>103.99999999999999</ele><time>2026-03-27T16:18:09.999Z</time></trkpt><trkpt lat="45.388031393412604" lon="9.104165847083445"><ele>104.0</ele><time>2026-03-27T16:18:10.999Z</time></trkpt><trkpt lat="45.38799009795562" lon="9.104090636140455"><ele>104.0</ele><time>2026-03-27T16:18:11.999Z</time></trkpt><trkpt lat="45.387948440149636" lon="9.104019487860182"><ele>104.0</ele><time>2026-03-27T16:18:12.999Z</time></trkpt><trkpt lat="45.38790087598628" lon="9.103899385224063"><ele>103.99999999999999</ele><time>2026-03-27T16:18:14.999Z</time></trkpt><trkpt lat="45.38785906817714" lon="9.103822965901552"><ele>104.0</ele><time>2026-03-27T16:18:28Z</time></trkpt><trkpt lat="45.38777164339842" lon="9.10365588214438"><ele>103.66666666666666</ele><time>2026-03-27T16:18:30Z</time></trkpt><trkpt lat="45.38774418303266" lon="9.103528758371418"><ele>103.33333333333333</ele><time>2026-03-27T16:18:31Z</time></trkpt><trkpt lat="45.387697603155196" lon="9.103431066400699"><ele>103.0</ele><time>2026-03-27T16:18:32Z</time></trkpt><trkpt lat="45.38765853063587" lon="9.103351503825905"><ele>102.66666666666666</ele><time>2026-03-27T16:18:33Z</time></trkpt><trkpt lat="45.38760883212929" lon="9.103252930595318"><ele>102.33333333333333</ele><time>2026-03-27T16:18:34Z</time></trkpt><trkpt lat="45.38754100178659" lon="9.103118105708813"><ele>102.0</ele><time>2026-03-27T16:18:35Z</time></trkpt><trkpt lat="45.387467968144534" lon="9.102972572630653"><ele>102.0</ele><time>2026-03-27T16:18:36Z</time></trkpt><trkpt lat="45.38739518385858" lon="9.102828498308067"><ele>102.0</ele><time>2026-03-27T16:18:37Z</time></trkpt><trkpt lat="45.387313324758885" lon="9.102666911802956"><ele>102.0</ele><time>2026-03-27T16:18:38Z</time></trkpt><trkpt lat="45.38722153487315" lon="9.102523116061846"><ele>102.0</ele><time>2026-03-27T16:18:39Z</time></trkpt><trkpt lat="45.38715056005788" lon="9.102346399063459"><ele>102.0</ele><time>2026-03-27T16:18:40Z</time></trkpt><trkpt lat="45.38706436123034" lon="9.10217738632144"><ele>102.0</ele><time>2026-03-27T16:18:41Z</time></trkpt><trkpt lat="45.38696872397182" lon="9.10201618928033"><ele>102.0</ele><time>2026-03-27T16:18:42Z</time></trkpt><trkpt lat="45.38689780570363" lon="9.10184126476698"><ele>102.0</ele><time>2026-03-27T16:18:43Z</time></trkpt><trkpt lat="45.386822658481734" lon="9.101688068793875"><ele>102.0</ele><time>2026-03-27T16:18:44Z</time></trkpt><trkpt lat="45.3867402119422" lon="9.101525190211886"><ele>102.0</ele><time>2026-03-27T16:18:45Z</time></trkpt><trkpt lat="45.386651180319404" lon="9.101355116976034"><ele>102.0</ele><time>2026-03-27T16:18:46Z</time></trkpt><trkpt lat="45.386548105455844" lon="9.101200885829277"><ele>102.0</ele><time>2026-03-27T16:18:47Z</time></trkpt><trkpt lat="45.386463603113015" lon="9.101038300642116"><ele>102.0</ele><time>2026-03-27T16:18:48Z</time></trkpt><trkpt lat="45.38639720309641" lon="9.100866197564583"><ele>102.0</ele><time>2026-03-27T16:18:48.999Z</time></trkpt><trkpt lat="45.38630908084322" lon="9.10068921568749"><ele>102.0</ele><time>2026-03-27T16:18:49.999Z</time></trkpt><trkpt lat="45.386209761865736" lon="9.10049754128925"><ele>102.25</ele><time>2026-03-27T16:18:50.999Z</time></trkpt><trkpt lat="45.38612004515676" lon="9.10032371058477"><ele>102.5</ele><time>2026-03-27T16:18:51.999Z</time></trkpt><trkpt lat="45.38602226088401" lon="9.100171235997024"><ele>102.75</ele><time>2026-03-27T16:18:52.999Z</time></trkpt><trkpt lat="45.38596204868309" lon="9.100014464500921"><ele>103.0</ele><time>2026-03-27T16:18:53.999Z</time></trkpt><trkpt lat="45.38589316804303" lon="9.09984933844399"><ele>103.25</ele><time>2026-03-27T16:18:54.999Z</time></trkpt><trkpt lat="45.38581315335174" lon="9.099707096317433"><ele>103.5</ele><time>2026-03-27T16:18:55.999Z</time></trkpt><trkpt lat="45.385734707519966" lon="9.099552220855825"><ele>103.75</ele><time>2026-03-27T16:18:56.999Z</time></trkpt><trkpt lat="45.38566942445822" lon="9.099414803347301"><ele>104.0</ele><time>2026-03-27T16:18:57.999Z</time></trkpt><trkpt lat="45.3855853815056" lon="9.099278193374122"><ele>104.25</ele><time>2026-03-27T16:18:58.999Z</time></trkpt><trkpt lat="45.38549276730657" lon="9.099160402779479"><ele>104.5</ele><time>2026-03-27T16:18:59.999Z</time></trkpt><trkpt lat="45.38542566990538" lon="9.099035041971078"><ele>104.75</ele><time>2026-03-27T16:19:00.999Z</time></trkpt><trkpt lat="45.385359620101944" lon="9.098879212714367"><ele>105.0</ele><time>2026-03-27T16:19:01.999Z</time></trkpt><trkpt lat="45.38529011089284" lon="9.098726397445269"><ele>105.0</ele><time>2026-03-27T16:19:02.999Z</time></trkpt><trkpt lat="45.38520856131266" lon="9.098570949498184"><ele>105.0</ele><time>2026-03-27T16:19:03.999Z</time></trkpt><trkpt lat="45.38514403799934" lon="9.098407714374199"><ele>105.0</ele><time>2026-03-27T16:19:04.999Z</time></trkpt><trkpt lat="45.38507105008213" lon="9.09824895988331"><ele>105.0</ele><time>2026-03-27T16:19:05.999Z</time></trkpt><trkpt lat="45.38500530008346" lon="9.098114982496387"><ele>104.75</ele><time>2026-03-27T16:19:06.999Z</time></trkpt><trkpt lat="45.38492904889253" lon="9.098002418509248"><ele>104.5</ele><time>2026-03-27T16:19:07.999Z</time></trkpt><trkpt lat="45.384874007361155" lon="9.097868390023944"><ele>104.25</ele><time>2026-03-27T16:19:08.999Z</time></trkpt><trkpt lat="45.38479331319415" lon="9.097724609368674"><ele>104.0</ele><time>2026-03-27T16:19:09.999Z</time></trkpt><trkpt lat="45.38472403656119" lon="9.097591355398402"><ele>104.2</ele><time>2026-03-27T16:19:10.999Z</time></trkpt><trkpt lat="45.384657148870744" lon="9.097461739778216"><ele>104.4</ele><time>2026-03-27T16:19:11.999Z</time></trkpt><trkpt lat="45.384605084205205" lon="9.097351741342958"><ele>104.6</ele><time>2026-03-27T16:19:12.999Z</time></trkpt><trkpt lat="45.38457365766972" lon="9.097240600121257"><ele>104.8</ele><time>2026-03-27T16:19:13.999Z</time></trkpt><trkpt lat="45.38452681105769" lon="9.097170649552666"><ele>105.0</ele><time>2026-03-27T16:19:14.999Z</time></trkpt><trkpt lat="45.384474244646974" lon="9.097043349940266"><ele>105.0</ele><time>2026-03-27T16:19:16.999Z</time></trkpt><trkpt lat="45.38439798092978" lon="9.096934861490327"><ele>105.0</ele><time>2026-03-27T16:19:18.999Z</time></trkpt><trkpt lat="45.384278935205465" lon="9.096916129966292"><ele>105.0</ele><time>2026-03-27T16:19:20.999Z</time></trkpt><trkpt lat="45.384223852666366" lon="9.096962100164724"><ele>105.0</ele><time>2026-03-27T16:19:21.999Z</time></trkpt><trkpt lat="45.38416127631215" lon="9.097049116672887"><ele>105.0</ele><time>2026-03-27T16:19:22.999Z</time></trkpt><trkpt lat="45.3840815337569" lon="9.097150321715365"><ele>105.0</ele><time>2026-03-27T16:19:23.999Z</time></trkpt><trkpt lat="45.3839927116854" lon="9.097283817717049"><ele>105.0</ele><time>2026-03-27T16:19:24.999Z</time></trkpt><trkpt lat="45.38389335441374" lon="9.097366037888138"><ele>105.0</ele><time>2026-03-27T16:19:25.999Z</time></trkpt><trkpt lat="45.383799292050725" lon="9.09747299226685"><ele>105.0</ele><time>2026-03-27T16:19:26.999Z</time></trkpt><trkpt lat="45.383709728444174" lon="9.09757613537944"><ele>105.0</ele><time>2026-03-27T16:19:27.999Z</time></trkpt><trkpt lat="45.38361892387633" lon="9.097678983947839"><ele>105.0</ele><time>2026-03-27T16:19:28.999Z</time></trkpt><trkpt lat="45.383542626272785" lon="9.097762708349238"><ele>105.0</ele><time>2026-03-27T16:19:29.999Z</time></trkpt><trkpt lat="45.38347032355451" lon="9.09783686709771"><ele>105.0</ele><time>2026-03-27T16:19:30.999Z</time></trkpt><trkpt lat="45.38340903268728" lon="9.097895182469887"><ele>105.0</ele><time>2026-03-27T16:19:31.999Z</time></trkpt><trkpt lat="45.38333612078763" lon="9.097967164285103"><ele>105.0</ele><time>2026-03-27T16:19:32.999Z</time></trkpt><trkpt lat="45.3832823505767" lon="9.098025831454322"><ele>105.0</ele><time>2026-03-27T16:19:33.999Z</time></trkpt><trkpt lat="45.38320895291078" lon="9.09812093643311"><ele>105.0</ele><time>2026-03-27T16:19:35.999Z</time></trkpt><trkpt lat="45.38315534578194" lon="9.09821490989889"><ele>105.0</ele><time>2026-03-27T16:19:37.999Z</time></trkpt><trkpt lat="45.38308466076868" lon="9.098250874511205"><ele>105.0</ele><time>2026-03-27T16:19:40.999Z</time></trkpt><trkpt lat="45.38304021642356" lon="9.098119196493364"><ele>105.0</ele><time>2026-03-27T16:19:42.999Z</time></trkpt><trkpt lat="45.38300899563282" lon="9.098039229336432"><ele>105.2</ele><time>2026-03-27T16:19:43.999Z</time></trkpt><trkpt lat="45.382940559522105" lon="9.097913456766236"><ele>105.4</ele><time>2026-03-27T16:19:45.999Z</time></trkpt><trkpt lat="45.38287854726938" lon="9.097789251206656"><ele>105.6</ele><time>2026-03-27T16:19:47.999Z</time></trkpt><trkpt lat="45.38275856222048" lon="9.097800244714854"><ele>105.8</ele><time>2026-03-27T16:19:49.999Z</time></trkpt><trkpt lat="45.38269196521391" lon="9.097893595503091"><ele>106.0</ele><time>2026-03-27T16:19:50.999Z</time></trkpt><trkpt lat="45.38262844462594" lon="9.097965552582169"><ele>106.0</ele><time>2026-03-27T16:19:51.999Z</time></trkpt><trkpt lat="45.38256222117541" lon="9.098009837841305"><ele>106.0</ele><time>2026-03-27T16:19:52.999Z</time></trkpt><trkpt lat="45.38249569625449" lon="9.098083181756962"><ele>106.0</ele><time>2026-03-27T16:19:53.999Z</time></trkpt><trkpt lat="45.382398563594215" lon="9.098183953754802"><ele>106.0</ele><time>2026-03-27T16:19:54.999Z</time></trkpt><trkpt lat="45.38230193865649" lon="9.098296565747017"><ele>106.0</ele><time>2026-03-27T16:19:55.999Z</time></trkpt><trkpt lat="45.382217768733824" lon="9.098381670006736"><ele>105.6</ele><time>2026-03-27T16:19:56.999Z</time></trkpt><trkpt lat="45.38213554842861" lon="9.098432605211794"><ele>105.19999999999999</ele><time>2026-03-27T16:19:57.999Z</time></trkpt><trkpt lat="45.382065378950266" lon="9.098490241811263"><ele>104.80000000000001</ele><time>2026-03-27T16:19:58.999Z</time></trkpt><trkpt lat="45.38199765672419" lon="9.098560731437699"><ele>104.4</ele><time>2026-03-27T16:19:59.999Z</time></trkpt><trkpt lat="45.38192512372394" lon="9.098649414187731"><ele>104.0</ele><time>2026-03-27T16:20:00.999Z</time></trkpt><trkpt lat="45.381841402758376" lon="9.098738777162044"><ele>104.0</ele><time>2026-03-27T16:20:01.999Z</time></trkpt><trkpt lat="45.381772927845034" lon="9.098811587736716"><ele>104.0</ele><time>2026-03-27T16:20:02.999Z</time></trkpt><trkpt lat="45.38172083814596" lon="9.098897776681136"><ele>104.0</ele><time>2026-03-27T16:20:04.999Z</time></trkpt></trkseg></trk></gpx>